<?xml version="1.0" encoding="UTF-8" standalone="no" ?>
<gpx xmlns="http://www.topografix.com/GPX/1/1" xmlns:xsi="http://www.w3.org/2001/XMLSchema-instance" xsi:schemaLocation="http://www.topografix.com/GPX/1/1 http://www.topografix.com/GPX/1/1/gpx.xsd" version="1.1" creator="VisuGPX - https://www.visugpx.com">
  <metadata>
    <name>St Pierre de Chérennes</name>
    <desc><![CDATA[St Pierre de Chérennes-Mont Noir]]></desc>
  </metadata>
  <trk>
    <name><![CDATA[St Pierre de Chérennes - Mont Noir]]></name>
    <trkseg>
      <trkpt lat="45.1157" lon="4.96426">
        <ele>197.17749023438</ele>
        <time>2011-05-11T11:20:35Z</time>
      </trkpt>
      <trkpt lat="45.11568" lon="4.96427">
        <ele>197.07691955566</ele>
        <time>2011-05-11T11:20:56Z</time>
      </trkpt>
      <trkpt lat="45.11567" lon="4.96426">
        <ele>197.05451965332</ele>
        <time>2011-05-11T11:21:01Z</time>
      </trkpt>
      <trkpt lat="45.11565" lon="4.96442">
        <ele>196.33070373535</ele>
        <time>2011-05-11T11:21:08Z</time>
      </trkpt>
      <trkpt lat="45.11569" lon="4.96448">
        <ele>196.28483581543</ele>
        <time>2011-05-11T11:21:10Z</time>
      </trkpt>
      <trkpt lat="45.11573" lon="4.96453">
        <ele>196.27787780762</ele>
        <time>2011-05-11T11:21:12Z</time>
      </trkpt>
      <trkpt lat="45.11579" lon="4.9645">
        <ele>196.60971069336</ele>
        <time>2011-05-11T11:21:17Z</time>
      </trkpt>
      <trkpt lat="45.1158" lon="4.96452">
        <ele>196.59553527832</ele>
        <time>2011-05-11T11:21:19Z</time>
      </trkpt>
      <trkpt lat="45.11586" lon="4.96469">
        <ele>196.26695251465</ele>
        <time>2011-05-11T11:21:26Z</time>
      </trkpt>
      <trkpt lat="45.11586" lon="4.96493">
        <ele>195.40417480469</ele>
        <time>2011-05-11T11:21:31Z</time>
      </trkpt>
      <trkpt lat="45.11589" lon="4.96507">
        <ele>195.23902893066</ele>
        <time>2011-05-11T11:21:37Z</time>
      </trkpt>
      <trkpt lat="45.1159" lon="4.96522">
        <ele>195.24838256836</ele>
        <time>2011-05-11T11:21:41Z</time>
      </trkpt>
      <trkpt lat="45.11592" lon="4.96527">
        <ele>195.3030090332</ele>
        <time>2011-05-11T11:21:42Z</time>
      </trkpt>
      <trkpt lat="45.1161" lon="4.96573">
        <ele>195.43493652344</ele>
        <time>2011-05-11T11:21:50Z</time>
      </trkpt>
      <trkpt lat="45.11629" lon="4.96624">
        <ele>194.79454040527</ele>
        <time>2011-05-11T11:21:58Z</time>
      </trkpt>
      <trkpt lat="45.11644" lon="4.96665">
        <ele>194.04046630859</ele>
        <time>2011-05-11T11:22:04Z</time>
      </trkpt>
      <trkpt lat="45.11665" lon="4.96719">
        <ele>195.21737670898</ele>
        <time>2011-05-11T11:22:12Z</time>
      </trkpt>
      <trkpt lat="45.11696" lon="4.96779">
        <ele>195.8772277832</ele>
        <time>2011-05-11T11:22:22Z</time>
      </trkpt>
      <trkpt lat="45.11721" lon="4.96821">
        <ele>195.44728088379</ele>
        <time>2011-05-11T11:22:29Z</time>
      </trkpt>
      <trkpt lat="45.11729" lon="4.96833">
        <ele>195.2607421875</ele>
        <time>2011-05-11T11:22:31Z</time>
      </trkpt>
      <trkpt lat="45.11736" lon="4.96855">
        <ele>195.55499267578</ele>
        <time>2011-05-11T11:22:34Z</time>
      </trkpt>
      <trkpt lat="45.11751" lon="4.96879">
        <ele>196.12196350098</ele>
        <time>2011-05-11T11:22:38Z</time>
      </trkpt>
      <trkpt lat="45.11761" lon="4.96889">
        <ele>196.46070861816</ele>
        <time>2011-05-11T11:22:40Z</time>
      </trkpt>
      <trkpt lat="45.11797" lon="4.96944">
        <ele>197.3738861084</ele>
        <time>2011-05-11T11:22:49Z</time>
      </trkpt>
      <trkpt lat="45.1184" lon="4.97007">
        <ele>198.7781829834</ele>
        <time>2011-05-11T11:22:59Z</time>
      </trkpt>
      <trkpt lat="45.11876" lon="4.97055">
        <ele>197.69888305664</ele>
        <time>2011-05-11T11:23:07Z</time>
      </trkpt>
      <trkpt lat="45.11884" lon="4.97086">
        <ele>197.19007873535</ele>
        <time>2011-05-11T11:23:11Z</time>
      </trkpt>
      <trkpt lat="45.11884" lon="4.97096">
        <ele>197.14619445801</ele>
        <time>2011-05-11T11:23:12Z</time>
      </trkpt>
      <trkpt lat="45.11878" lon="4.97133">
        <ele>196.79225158691</ele>
        <time>2011-05-11T11:23:16Z</time>
      </trkpt>
      <trkpt lat="45.11881" lon="4.97182">
        <ele>196.60725402832</ele>
        <time>2011-05-11T11:23:21Z</time>
      </trkpt>
      <trkpt lat="45.11887" lon="4.9722">
        <ele>196.53379821777</ele>
        <time>2011-05-11T11:23:25Z</time>
      </trkpt>
      <trkpt lat="45.11903" lon="4.97318">
        <ele>195.99446105957</ele>
        <time>2011-05-11T11:23:35Z</time>
      </trkpt>
      <trkpt lat="45.11905" lon="4.97328">
        <ele>195.91976928711</ele>
        <time>2011-05-11T11:23:36Z</time>
      </trkpt>
      <trkpt lat="45.11915" lon="4.97382">
        <ele>195.99085998535</ele>
        <time>2011-05-11T11:23:42Z</time>
      </trkpt>
      <trkpt lat="45.11922" lon="4.97426">
        <ele>196.13720703125</ele>
        <time>2011-05-11T11:23:47Z</time>
      </trkpt>
      <trkpt lat="45.11937" lon="4.97509">
        <ele>196.67361450195</ele>
        <time>2011-05-11T11:23:56Z</time>
      </trkpt>
      <trkpt lat="45.11946" lon="4.97562">
        <ele>196.82170104981</ele>
        <time>2011-05-11T11:24:02Z</time>
      </trkpt>
      <trkpt lat="45.1195" lon="4.97586">
        <ele>196.93312072754</ele>
        <time>2011-05-11T11:24:05Z</time>
      </trkpt>
      <trkpt lat="45.11953" lon="4.97616">
        <ele>196.62205505371</ele>
        <time>2011-05-11T11:24:09Z</time>
      </trkpt>
      <trkpt lat="45.11968" lon="4.97691">
        <ele>196.81575012207</ele>
        <time>2011-05-11T11:24:18Z</time>
      </trkpt>
      <trkpt lat="45.11984" lon="4.97782">
        <ele>197.88053894043</ele>
        <time>2011-05-11T11:24:28Z</time>
      </trkpt>
      <trkpt lat="45.12001" lon="4.97878">
        <ele>198.56813049316</ele>
        <time>2011-05-11T11:24:39Z</time>
      </trkpt>
      <trkpt lat="45.12009" lon="4.97927">
        <ele>199.57987976074</ele>
        <time>2011-05-11T11:24:45Z</time>
      </trkpt>
      <trkpt lat="45.12006" lon="4.97943">
        <ele>199.81567382812</ele>
        <time>2011-05-11T11:24:48Z</time>
      </trkpt>
      <trkpt lat="45.11992" lon="4.97939">
        <ele>199.46774291992</ele>
        <time>2011-05-11T11:24:51Z</time>
      </trkpt>
      <trkpt lat="45.11987" lon="4.97938">
        <ele>199.38647460938</ele>
        <time>2011-05-11T11:24:52Z</time>
      </trkpt>
      <trkpt lat="45.11941" lon="4.9793">
        <ele>198.98100280762</ele>
        <time>2011-05-11T11:25:00Z</time>
      </trkpt>
      <trkpt lat="45.11914" lon="4.97926">
        <ele>198.88919067383</ele>
        <time>2011-05-11T11:25:05Z</time>
      </trkpt>
      <trkpt lat="45.11901" lon="4.97919">
        <ele>198.97329711914</ele>
        <time>2011-05-11T11:25:09Z</time>
      </trkpt>
      <trkpt lat="45.11901" lon="4.97916">
        <ele>198.98950195312</ele>
        <time>2011-05-11T11:25:10Z</time>
      </trkpt>
      <trkpt lat="45.11895" lon="4.97898">
        <ele>198.77836608887</ele>
        <time>2011-05-11T11:25:17Z</time>
      </trkpt>
      <trkpt lat="45.11895" lon="4.97897">
        <ele>198.76864624023</ele>
        <time>2011-05-11T11:25:19Z</time>
      </trkpt>
      <trkpt lat="45.11897" lon="4.97916">
        <ele>198.99694824219</ele>
        <time>2011-05-11T11:25:40Z</time>
      </trkpt>
      <trkpt lat="45.11895" lon="4.97918">
        <ele>198.97901916504</ele>
        <time>2011-05-11T11:25:41Z</time>
      </trkpt>
      <trkpt lat="45.11884" lon="4.9792">
        <ele>198.96243286133</ele>
        <time>2011-05-11T11:25:45Z</time>
      </trkpt>
      <trkpt lat="45.11851" lon="4.97916">
        <ele>198.99179077148</ele>
        <time>2011-05-11T11:25:54Z</time>
      </trkpt>
      <trkpt lat="45.11835" lon="4.97916">
        <ele>198.99580383301</ele>
        <time>2011-05-11T11:25:58Z</time>
      </trkpt>
      <trkpt lat="45.11829" lon="4.97926">
        <ele>198.82263183594</ele>
        <time>2011-05-11T11:26:01Z</time>
      </trkpt>
      <trkpt lat="45.11832" lon="4.97936">
        <ele>198.75117492676</ele>
        <time>2011-05-11T11:26:03Z</time>
      </trkpt>
      <trkpt lat="45.11857" lon="4.97985">
        <ele>198.18594360352</ele>
        <time>2011-05-11T11:26:12Z</time>
      </trkpt>
      <trkpt lat="45.11868" lon="4.98009">
        <ele>198.14981079102</ele>
        <time>2011-05-11T11:26:16Z</time>
      </trkpt>
      <trkpt lat="45.11888" lon="4.98059">
        <ele>199.17985534668</ele>
        <time>2011-05-11T11:26:24Z</time>
      </trkpt>
      <trkpt lat="45.11903" lon="4.98105">
        <ele>200.45211791992</ele>
        <time>2011-05-11T11:26:31Z</time>
      </trkpt>
      <trkpt lat="45.11907" lon="4.98118">
        <ele>200.94519042969</ele>
        <time>2011-05-11T11:26:33Z</time>
      </trkpt>
      <trkpt lat="45.11909" lon="4.98153">
        <ele>202.12037658691</ele>
        <time>2011-05-11T11:26:38Z</time>
      </trkpt>
      <trkpt lat="45.1191" lon="4.9816">
        <ele>202.39889526367</ele>
        <time>2011-05-11T11:26:39Z</time>
      </trkpt>
      <trkpt lat="45.11914" lon="4.98208">
        <ele>203.33630371094</ele>
        <time>2011-05-11T11:26:46Z</time>
      </trkpt>
      <trkpt lat="45.11917" lon="4.98249">
        <ele>203.99726867676</ele>
        <time>2011-05-11T11:26:52Z</time>
      </trkpt>
      <trkpt lat="45.1192" lon="4.98269">
        <ele>203.59091186523</ele>
        <time>2011-05-11T11:26:55Z</time>
      </trkpt>
      <trkpt lat="45.11929" lon="4.98299">
        <ele>202.96377563477</ele>
        <time>2011-05-11T11:27:00Z</time>
      </trkpt>
      <trkpt lat="45.1193" lon="4.98306">
        <ele>202.82186889648</ele>
        <time>2011-05-11T11:27:01Z</time>
      </trkpt>
      <trkpt lat="45.11941" lon="4.98352">
        <ele>202.42471313477</ele>
        <time>2011-05-11T11:27:08Z</time>
      </trkpt>
      <trkpt lat="45.11949" lon="4.98369">
        <ele>202.71406555176</ele>
        <time>2011-05-11T11:27:11Z</time>
      </trkpt>
      <trkpt lat="45.11969" lon="4.98389">
        <ele>203.48196411133</ele>
        <time>2011-05-11T11:27:17Z</time>
      </trkpt>
      <trkpt lat="45.11978" lon="4.98404">
        <ele>203.96797180176</ele>
        <time>2011-05-11T11:27:21Z</time>
      </trkpt>
      <trkpt lat="45.11979" lon="4.98407">
        <ele>204.06221008301</ele>
        <time>2011-05-11T11:27:22Z</time>
      </trkpt>
      <trkpt lat="45.11982" lon="4.98412">
        <ele>204.25131225586</ele>
        <time>2011-05-11T11:27:27Z</time>
      </trkpt>
      <trkpt lat="45.11987" lon="4.98403">
        <ele>204.26058959961</ele>
        <time>2011-05-11T11:37:00Z</time>
      </trkpt>
      <trkpt lat="45.11987" lon="4.98393">
        <ele>204.06948852539</ele>
        <time>2011-05-11T11:37:05Z</time>
      </trkpt>
      <trkpt lat="45.11998" lon="4.98394">
        <ele>204.38790893555</ele>
        <time>2011-05-11T11:37:10Z</time>
      </trkpt>
      <trkpt lat="45.12011" lon="4.984">
        <ele>204.73196411133</ele>
        <time>2011-05-11T11:37:14Z</time>
      </trkpt>
      <trkpt lat="45.12015" lon="4.98402">
        <ele>204.82237243652</ele>
        <time>2011-05-11T11:37:15Z</time>
      </trkpt>
      <trkpt lat="45.1203" lon="4.98412">
        <ele>205.23893737793</ele>
        <time>2011-05-11T11:37:19Z</time>
      </trkpt>
      <trkpt lat="45.12033" lon="4.98433">
        <ele>205.40155029297</ele>
        <time>2011-05-11T11:37:23Z</time>
      </trkpt>
      <trkpt lat="45.12031" lon="4.98446">
        <ele>205.37408447266</ele>
        <time>2011-05-11T11:37:25Z</time>
      </trkpt>
      <trkpt lat="45.12027" lon="4.98466">
        <ele>205.32373046875</ele>
        <time>2011-05-11T11:37:28Z</time>
      </trkpt>
      <trkpt lat="45.12022" lon="4.98519">
        <ele>204.97322082519</ele>
        <time>2011-05-11T11:37:35Z</time>
      </trkpt>
      <trkpt lat="45.12021" lon="4.98559">
        <ele>204.36795043945</ele>
        <time>2011-05-11T11:37:40Z</time>
      </trkpt>
      <trkpt lat="45.12024" lon="4.98633">
        <ele>203.73876953125</ele>
        <time>2011-05-11T11:37:49Z</time>
      </trkpt>
      <trkpt lat="45.12027" lon="4.98668">
        <ele>203.64892578125</ele>
        <time>2011-05-11T11:37:53Z</time>
      </trkpt>
      <trkpt lat="45.12037" lon="4.98727">
        <ele>203.4833984375</ele>
        <time>2011-05-11T11:38:00Z</time>
      </trkpt>
      <trkpt lat="45.1206" lon="4.98812">
        <ele>203.82669067383</ele>
        <time>2011-05-11T11:38:10Z</time>
      </trkpt>
      <trkpt lat="45.1208" lon="4.98866">
        <ele>203.59944152832</ele>
        <time>2011-05-11T11:38:17Z</time>
      </trkpt>
      <trkpt lat="45.12116" lon="4.98936">
        <ele>204.70121765137</ele>
        <time>2011-05-11T11:38:27Z</time>
      </trkpt>
      <trkpt lat="45.12147" lon="4.98985">
        <ele>206.25381469727</ele>
        <time>2011-05-11T11:38:35Z</time>
      </trkpt>
      <trkpt lat="45.12179" lon="4.99022">
        <ele>208.5696105957</ele>
        <time>2011-05-11T11:38:43Z</time>
      </trkpt>
      <trkpt lat="45.12206" lon="4.9905">
        <ele>211.61999511719</ele>
        <time>2011-05-11T11:38:50Z</time>
      </trkpt>
      <trkpt lat="45.12218" lon="4.99071">
        <ele>212.56243896484</ele>
        <time>2011-05-11T11:38:54Z</time>
      </trkpt>
      <trkpt lat="45.12234" lon="4.99084">
        <ele>214.08120727539</ele>
        <time>2011-05-11T11:38:58Z</time>
      </trkpt>
      <trkpt lat="45.12239" lon="4.99084">
        <ele>214.63993835449</ele>
        <time>2011-05-11T11:38:59Z</time>
      </trkpt>
      <trkpt lat="45.1226" lon="4.99085">
        <ele>219.77095031738</ele>
        <time>2011-05-11T11:39:04Z</time>
      </trkpt>
      <trkpt lat="45.12267" lon="4.99089">
        <ele>222.5466003418</ele>
        <time>2011-05-11T11:39:06Z</time>
      </trkpt>
      <trkpt lat="45.12278" lon="4.99098">
        <ele>225.90214538574</ele>
        <time>2011-05-11T11:39:09Z</time>
      </trkpt>
      <trkpt lat="45.12289" lon="4.99133">
        <ele>226.94869995117</ele>
        <time>2011-05-11T11:39:15Z</time>
      </trkpt>
      <trkpt lat="45.12297" lon="4.99155">
        <ele>227.16116333008</ele>
        <time>2011-05-11T11:39:19Z</time>
      </trkpt>
      <trkpt lat="45.12317" lon="4.99193">
        <ele>228.20567321777</ele>
        <time>2011-05-11T11:39:26Z</time>
      </trkpt>
      <trkpt lat="45.12333" lon="4.99226">
        <ele>227.89659118652</ele>
        <time>2011-05-11T11:39:32Z</time>
      </trkpt>
      <trkpt lat="45.12339" lon="4.99237">
        <ele>228.27871704102</ele>
        <time>2011-05-11T11:39:34Z</time>
      </trkpt>
      <trkpt lat="45.12352" lon="4.99284">
        <ele>228.81666564941</ele>
        <time>2011-05-11T11:39:41Z</time>
      </trkpt>
      <trkpt lat="45.12362" lon="4.99346">
        <ele>228.00996398926</ele>
        <time>2011-05-11T11:39:49Z</time>
      </trkpt>
      <trkpt lat="45.12377" lon="4.99425">
        <ele>227.6164855957</ele>
        <time>2011-05-11T11:39:58Z</time>
      </trkpt>
      <trkpt lat="45.12391" lon="4.99497">
        <ele>228.13375854492</ele>
        <time>2011-05-11T11:40:06Z</time>
      </trkpt>
      <trkpt lat="45.12408" lon="4.99551">
        <ele>225.95687866211</ele>
        <time>2011-05-11T11:40:12Z</time>
      </trkpt>
      <trkpt lat="45.12433" lon="4.99597">
        <ele>225.67167663574</ele>
        <time>2011-05-11T11:40:18Z</time>
      </trkpt>
      <trkpt lat="45.12477" lon="4.99665">
        <ele>223.12664794922</ele>
        <time>2011-05-11T11:40:27Z</time>
      </trkpt>
      <trkpt lat="45.12503" lon="4.997">
        <ele>221.22160339356</ele>
        <time>2011-05-11T11:40:32Z</time>
      </trkpt>
      <trkpt lat="45.12551" lon="4.99751">
        <ele>220.81771850586</ele>
        <time>2011-05-11T11:40:40Z</time>
      </trkpt>
      <trkpt lat="45.12579" lon="4.99799">
        <ele>220.22259521484</ele>
        <time>2011-05-11T11:40:46Z</time>
      </trkpt>
      <trkpt lat="45.12616" lon="4.9985">
        <ele>219.66593933106</ele>
        <time>2011-05-11T11:40:53Z</time>
      </trkpt>
      <trkpt lat="45.12632" lon="4.99871">
        <ele>220.10696411133</ele>
        <time>2011-05-11T11:40:56Z</time>
      </trkpt>
      <trkpt lat="45.12648" lon="4.99908">
        <ele>219.0260925293</ele>
        <time>2011-05-11T11:41:00Z</time>
      </trkpt>
      <trkpt lat="45.12669" lon="4.99975">
        <ele>220.04473876953</ele>
        <time>2011-05-11T11:41:07Z</time>
      </trkpt>
      <trkpt lat="45.12691" lon="5.00014">
        <ele>216.18566894531</ele>
        <time>2011-05-11T11:41:12Z</time>
      </trkpt>
      <trkpt lat="45.12725" lon="5.00049">
        <ele>217.71098327637</ele>
        <time>2011-05-11T11:41:18Z</time>
      </trkpt>
      <trkpt lat="45.12756" lon="5.00067">
        <ele>222.34631347656</ele>
        <time>2011-05-11T11:41:23Z</time>
      </trkpt>
      <trkpt lat="45.12793" lon="5.0008">
        <ele>227.00775146484</ele>
        <time>2011-05-11T11:41:29Z</time>
      </trkpt>
      <trkpt lat="45.1283" lon="5.00095">
        <ele>233.55154418945</ele>
        <time>2011-05-11T11:41:35Z</time>
      </trkpt>
      <trkpt lat="45.12852" lon="5.00113">
        <ele>238.31002807617</ele>
        <time>2011-05-11T11:41:39Z</time>
      </trkpt>
      <trkpt lat="45.12882" lon="5.00162">
        <ele>239.36268615723</ele>
        <time>2011-05-11T11:41:46Z</time>
      </trkpt>
      <trkpt lat="45.12907" lon="5.00204">
        <ele>239.29296875</ele>
        <time>2011-05-11T11:41:52Z</time>
      </trkpt>
      <trkpt lat="45.12935" lon="5.00239">
        <ele>235.4114074707</ele>
        <time>2011-05-11T11:41:58Z</time>
      </trkpt>
      <trkpt lat="45.1297" lon="5.00264">
        <ele>235.00360107422</ele>
        <time>2011-05-11T11:42:04Z</time>
      </trkpt>
      <trkpt lat="45.13022" lon="5.00289">
        <ele>236.91523742676</ele>
        <time>2011-05-11T11:42:12Z</time>
      </trkpt>
      <trkpt lat="45.13086" lon="5.00311">
        <ele>241.95664978027</ele>
        <time>2011-05-11T11:42:21Z</time>
      </trkpt>
      <trkpt lat="45.13142" lon="5.00337">
        <ele>239.80358886719</ele>
        <time>2011-05-11T11:42:29Z</time>
      </trkpt>
      <trkpt lat="45.13189" lon="5.00354">
        <ele>239.72637939453</ele>
        <time>2011-05-11T11:42:36Z</time>
      </trkpt>
      <trkpt lat="45.13228" lon="5.00354">
        <ele>241.42637634277</ele>
        <time>2011-05-11T11:42:42Z</time>
      </trkpt>
      <trkpt lat="45.1328" lon="5.00353">
        <ele>245.52996826172</ele>
        <time>2011-05-11T11:42:50Z</time>
      </trkpt>
      <trkpt lat="45.1334" lon="5.00356">
        <ele>251.98081970215</ele>
        <time>2011-05-11T11:42:59Z</time>
      </trkpt>
      <trkpt lat="45.13379" lon="5.0037">
        <ele>255.46171569824</ele>
        <time>2011-05-11T11:43:05Z</time>
      </trkpt>
      <trkpt lat="45.13427" lon="5.00402">
        <ele>251.78588867188</ele>
        <time>2011-05-11T11:43:13Z</time>
      </trkpt>
      <trkpt lat="45.13506" lon="5.00455">
        <ele>243.98542785644</ele>
        <time>2011-05-11T11:43:26Z</time>
      </trkpt>
      <trkpt lat="45.13545" lon="5.00475">
        <ele>240</ele>
        <time>2011-05-11T11:43:32Z</time>
      </trkpt>
      <trkpt lat="45.13594" lon="5.00487">
        <ele>240</ele>
        <time>2011-05-11T11:43:39Z</time>
      </trkpt>
      <trkpt lat="45.13636" lon="5.00506">
        <ele>239.76956176758</ele>
        <time>2011-05-11T11:43:45Z</time>
      </trkpt>
      <trkpt lat="45.13666" lon="5.00536">
        <ele>239</ele>
        <time>2011-05-11T11:43:50Z</time>
      </trkpt>
      <trkpt lat="45.13721" lon="5.006">
        <ele>242.32116699219</ele>
        <time>2011-05-11T11:44:00Z</time>
      </trkpt>
      <trkpt lat="45.13766" lon="5.00647">
        <ele>250.41636657715</ele>
        <time>2011-05-11T11:44:08Z</time>
      </trkpt>
      <trkpt lat="45.13816" lon="5.00687">
        <ele>258.64315795898</ele>
        <time>2011-05-11T11:44:16Z</time>
      </trkpt>
      <trkpt lat="45.13885" lon="5.00722">
        <ele>264.34432983398</ele>
        <time>2011-05-11T11:44:26Z</time>
      </trkpt>
      <trkpt lat="45.13938" lon="5.00748">
        <ele>269.16906738281</ele>
        <time>2011-05-11T11:44:34Z</time>
      </trkpt>
      <trkpt lat="45.14018" lon="5.00787">
        <ele>271.96624755859</ele>
        <time>2011-05-11T11:44:46Z</time>
      </trkpt>
      <trkpt lat="45.14093" lon="5.00824">
        <ele>267.65014648438</ele>
        <time>2011-05-11T11:44:57Z</time>
      </trkpt>
      <trkpt lat="45.14153" lon="5.00853">
        <ele>264.37823486328</ele>
        <time>2011-05-11T11:45:06Z</time>
      </trkpt>
      <trkpt lat="45.14218" lon="5.00885">
        <ele>260.7141418457</ele>
        <time>2011-05-11T11:45:16Z</time>
      </trkpt>
      <trkpt lat="45.14275" lon="5.00913">
        <ele>263.22317504883</ele>
        <time>2011-05-11T11:45:25Z</time>
      </trkpt>
      <trkpt lat="45.14312" lon="5.00939">
        <ele>264.92864990234</ele>
        <time>2011-05-11T11:45:31Z</time>
      </trkpt>
      <trkpt lat="45.14349" lon="5.00979">
        <ele>263.99838256836</ele>
        <time>2011-05-11T11:45:38Z</time>
      </trkpt>
      <trkpt lat="45.14408" lon="5.01045">
        <ele>266.02301025391</ele>
        <time>2011-05-11T11:45:49Z</time>
      </trkpt>
      <trkpt lat="45.14458" lon="5.01101">
        <ele>263.92242431641</ele>
        <time>2011-05-11T11:45:58Z</time>
      </trkpt>
      <trkpt lat="45.14499" lon="5.01143">
        <ele>258.98629760742</ele>
        <time>2011-05-11T11:46:05Z</time>
      </trkpt>
      <trkpt lat="45.14544" lon="5.01177">
        <ele>255.24310302734</ele>
        <time>2011-05-11T11:46:12Z</time>
      </trkpt>
      <trkpt lat="45.14604" lon="5.0122">
        <ele>247.73304748535</ele>
        <time>2011-05-11T11:46:21Z</time>
      </trkpt>
      <trkpt lat="45.14642" lon="5.01255">
        <ele>243.33670043945</ele>
        <time>2011-05-11T11:46:27Z</time>
      </trkpt>
      <trkpt lat="45.14664" lon="5.01296">
        <ele>240</ele>
        <time>2011-05-11T11:46:32Z</time>
      </trkpt>
      <trkpt lat="45.14688" lon="5.01368">
        <ele>240</ele>
        <time>2011-05-11T11:46:40Z</time>
      </trkpt>
      <trkpt lat="45.14711" lon="5.01435">
        <ele>240.40852355957</ele>
        <time>2011-05-11T11:46:48Z</time>
      </trkpt>
      <trkpt lat="45.14717" lon="5.01452">
        <ele>241.21438598633</ele>
        <time>2011-05-11T11:46:50Z</time>
      </trkpt>
      <trkpt lat="45.14743" lon="5.01507">
        <ele>245.94030761719</ele>
        <time>2011-05-11T11:46:58Z</time>
      </trkpt>
      <trkpt lat="45.14751" lon="5.01518">
        <ele>247.40364074707</ele>
        <time>2011-05-11T11:47:00Z</time>
      </trkpt>
      <trkpt lat="45.14789" lon="5.01551">
        <ele>254.24183654785</ele>
        <time>2011-05-11T11:47:08Z</time>
      </trkpt>
      <trkpt lat="45.14815" lon="5.01579">
        <ele>257.18084716797</ele>
        <time>2011-05-11T11:47:14Z</time>
      </trkpt>
      <trkpt lat="45.14847" lon="5.01607">
        <ele>258.65493774414</ele>
        <time>2011-05-11T11:47:20Z</time>
      </trkpt>
      <trkpt lat="45.14873" lon="5.01636">
        <ele>259.09063720703</ele>
        <time>2011-05-11T11:47:25Z</time>
      </trkpt>
      <trkpt lat="45.14907" lon="5.01678">
        <ele>259.49703979492</ele>
        <time>2011-05-11T11:47:31Z</time>
      </trkpt>
      <trkpt lat="45.14931" lon="5.01714">
        <ele>260.26947021484</ele>
        <time>2011-05-11T11:47:36Z</time>
      </trkpt>
      <trkpt lat="45.1495" lon="5.01742">
        <ele>260.21328735352</ele>
        <time>2011-05-11T11:47:40Z</time>
      </trkpt>
      <trkpt lat="45.14976" lon="5.01784">
        <ele>258.9391784668</ele>
        <time>2011-05-11T11:47:46Z</time>
      </trkpt>
      <trkpt lat="45.15008" lon="5.01829">
        <ele>258.86511230469</ele>
        <time>2011-05-11T11:47:53Z</time>
      </trkpt>
      <trkpt lat="45.15035" lon="5.01868">
        <ele>258.99655151367</ele>
        <time>2011-05-11T11:47:59Z</time>
      </trkpt>
      <trkpt lat="45.15089" lon="5.01945">
        <ele>258.18115234375</ele>
        <time>2011-05-11T11:48:10Z</time>
      </trkpt>
      <trkpt lat="45.15134" lon="5.02008">
        <ele>257.53741455078</ele>
        <time>2011-05-11T11:48:19Z</time>
      </trkpt>
      <trkpt lat="45.15163" lon="5.02052">
        <ele>256.97265625</ele>
        <time>2011-05-11T11:48:25Z</time>
      </trkpt>
      <trkpt lat="45.15166" lon="5.02061">
        <ele>256.77697753906</ele>
        <time>2011-05-11T11:48:26Z</time>
      </trkpt>
      <trkpt lat="45.15171" lon="5.02079">
        <ele>256.34265136719</ele>
        <time>2011-05-11T11:48:28Z</time>
      </trkpt>
      <trkpt lat="45.15191" lon="5.02104">
        <ele>256.12463378906</ele>
        <time>2011-05-11T11:48:32Z</time>
      </trkpt>
      <trkpt lat="45.15196" lon="5.0211">
        <ele>256.11114501953</ele>
        <time>2011-05-11T11:48:33Z</time>
      </trkpt>
      <trkpt lat="45.15235" lon="5.02166">
        <ele>255.03826904297</ele>
        <time>2011-05-11T11:48:41Z</time>
      </trkpt>
      <trkpt lat="45.15281" lon="5.02249">
        <ele>256.09918212891</ele>
        <time>2011-05-11T11:48:52Z</time>
      </trkpt>
      <trkpt lat="45.15322" lon="5.0232">
        <ele>256.59606933594</ele>
        <time>2011-05-11T11:49:01Z</time>
      </trkpt>
      <trkpt lat="45.15356" lon="5.0236">
        <ele>257.80456542969</ele>
        <time>2011-05-11T11:49:07Z</time>
      </trkpt>
      <trkpt lat="45.15414" lon="5.02421">
        <ele>258.91943359375</ele>
        <time>2011-05-11T11:49:17Z</time>
      </trkpt>
      <trkpt lat="45.15456" lon="5.02476">
        <ele>259</ele>
        <time>2011-05-11T11:49:25Z</time>
      </trkpt>
      <trkpt lat="45.15506" lon="5.02546">
        <ele>259</ele>
        <time>2011-05-11T11:49:35Z</time>
      </trkpt>
      <trkpt lat="45.15561" lon="5.02622">
        <ele>259.19287109375</ele>
        <time>2011-05-11T11:49:46Z</time>
      </trkpt>
      <trkpt lat="45.15602" lon="5.02674">
        <ele>259.48272705078</ele>
        <time>2011-05-11T11:49:54Z</time>
      </trkpt>
      <trkpt lat="45.15662" lon="5.02739">
        <ele>259.88903808594</ele>
        <time>2011-05-11T11:50:05Z</time>
      </trkpt>
      <trkpt lat="45.1569" lon="5.02767">
        <ele>260</ele>
        <time>2011-05-11T11:50:10Z</time>
      </trkpt>
      <trkpt lat="45.15765" lon="5.02837">
        <ele>260</ele>
        <time>2011-05-11T11:50:23Z</time>
      </trkpt>
      <trkpt lat="45.15815" lon="5.02883">
        <ele>260.06713867188</ele>
        <time>2011-05-11T11:50:32Z</time>
      </trkpt>
      <trkpt lat="45.15877" lon="5.02946">
        <ele>261.068359375</ele>
        <time>2011-05-11T11:50:44Z</time>
      </trkpt>
      <trkpt lat="45.15922" lon="5.03008">
        <ele>260.28753662109</ele>
        <time>2011-05-11T11:50:54Z</time>
      </trkpt>
      <trkpt lat="45.15977" lon="5.03086">
        <ele>260</ele>
        <time>2011-05-11T11:51:06Z</time>
      </trkpt>
      <trkpt lat="45.1602" lon="5.03152">
        <ele>260.36602783203</ele>
        <time>2011-05-11T11:51:16Z</time>
      </trkpt>
      <trkpt lat="45.16054" lon="5.03222">
        <ele>268.42211914062</ele>
        <time>2011-05-11T11:51:25Z</time>
      </trkpt>
      <trkpt lat="45.16085" lon="5.03284">
        <ele>274.23742675781</ele>
        <time>2011-05-11T11:51:33Z</time>
      </trkpt>
      <trkpt lat="45.16135" lon="5.03369">
        <ele>277.45504760742</ele>
        <time>2011-05-11T11:51:44Z</time>
      </trkpt>
      <trkpt lat="45.16161" lon="5.0343">
        <ele>276.65115356445</ele>
        <time>2011-05-11T11:51:51Z</time>
      </trkpt>
      <trkpt lat="45.16176" lon="5.03488">
        <ele>274.10235595703</ele>
        <time>2011-05-11T11:51:57Z</time>
      </trkpt>
      <trkpt lat="45.16191" lon="5.03581">
        <ele>269.99066162109</ele>
        <time>2011-05-11T11:52:06Z</time>
      </trkpt>
      <trkpt lat="45.16196" lon="5.03663">
        <ele>269.26260375977</ele>
        <time>2011-05-11T11:52:14Z</time>
      </trkpt>
      <trkpt lat="45.16197" lon="5.03764">
        <ele>268.04302978516</ele>
        <time>2011-05-11T11:52:24Z</time>
      </trkpt>
      <trkpt lat="45.16197" lon="5.0385">
        <ele>267</ele>
        <time>2011-05-11T11:52:33Z</time>
      </trkpt>
      <trkpt lat="45.16197" lon="5.03859">
        <ele>267</ele>
        <time>2011-05-11T11:52:34Z</time>
      </trkpt>
      <trkpt lat="45.16185" lon="5.039">
        <ele>266.65991210938</ele>
        <time>2011-05-11T11:52:39Z</time>
      </trkpt>
      <trkpt lat="45.16179" lon="5.03916">
        <ele>266.44018554688</ele>
        <time>2011-05-11T11:52:41Z</time>
      </trkpt>
      <trkpt lat="45.16183" lon="5.03951">
        <ele>267.57751464844</ele>
        <time>2011-05-11T11:52:45Z</time>
      </trkpt>
      <trkpt lat="45.16196" lon="5.04014">
        <ele>268.0227355957</ele>
        <time>2011-05-11T11:52:51Z</time>
      </trkpt>
      <trkpt lat="45.16212" lon="5.04112">
        <ele>269.01824951172</ele>
        <time>2011-05-11T11:53:00Z</time>
      </trkpt>
      <trkpt lat="45.16232" lon="5.04213">
        <ele>270.33532714844</ele>
        <time>2011-05-11T11:53:10Z</time>
      </trkpt>
      <trkpt lat="45.16239" lon="5.04285">
        <ele>271.60998535156</ele>
        <time>2011-05-11T11:53:17Z</time>
      </trkpt>
      <trkpt lat="45.16238" lon="5.04295">
        <ele>271.58251953125</ele>
        <time>2011-05-11T11:53:18Z</time>
      </trkpt>
      <trkpt lat="45.16221" lon="5.04372">
        <ele>271.95080566406</ele>
        <time>2011-05-11T11:53:26Z</time>
      </trkpt>
      <trkpt lat="45.16191" lon="5.04487">
        <ele>271.89337158203</ele>
        <time>2011-05-11T11:53:38Z</time>
      </trkpt>
      <trkpt lat="45.1617" lon="5.04585">
        <ele>272.11059570312</ele>
        <time>2011-05-11T11:53:48Z</time>
      </trkpt>
      <trkpt lat="45.16166" lon="5.04669">
        <ele>273</ele>
        <time>2011-05-11T11:53:56Z</time>
      </trkpt>
      <trkpt lat="45.16163" lon="5.04783">
        <ele>274.18029785156</ele>
        <time>2011-05-11T11:54:07Z</time>
      </trkpt>
      <trkpt lat="45.16166" lon="5.04875">
        <ele>275.49304199219</ele>
        <time>2011-05-11T11:54:16Z</time>
      </trkpt>
      <trkpt lat="45.16179" lon="5.04942">
        <ele>276.45391845703</ele>
        <time>2011-05-11T11:54:23Z</time>
      </trkpt>
      <trkpt lat="45.16203" lon="5.05022">
        <ele>278.30535888672</ele>
        <time>2011-05-11T11:54:32Z</time>
      </trkpt>
      <trkpt lat="45.1623" lon="5.0511">
        <ele>280</ele>
        <time>2011-05-11T11:54:42Z</time>
      </trkpt>
      <trkpt lat="45.16259" lon="5.05188">
        <ele>281.38357543945</ele>
        <time>2011-05-11T11:54:51Z</time>
      </trkpt>
      <trkpt lat="45.16298" lon="5.05259">
        <ele>280.67980957031</ele>
        <time>2011-05-11T11:55:00Z</time>
      </trkpt>
      <trkpt lat="45.16355" lon="5.05354">
        <ele>282.35437011719</ele>
        <time>2011-05-11T11:55:13Z</time>
      </trkpt>
      <trkpt lat="45.16403" lon="5.05443">
        <ele>284.0302734375</ele>
        <time>2011-05-11T11:55:25Z</time>
      </trkpt>
      <trkpt lat="45.16446" lon="5.05525">
        <ele>287.1064453125</ele>
        <time>2011-05-11T11:55:36Z</time>
      </trkpt>
      <trkpt lat="45.16485" lon="5.05598">
        <ele>289.40313720703</ele>
        <time>2011-05-11T11:55:46Z</time>
      </trkpt>
      <trkpt lat="45.1652" lon="5.05667">
        <ele>293.8630065918</ele>
        <time>2011-05-11T11:55:55Z</time>
      </trkpt>
      <trkpt lat="45.16557" lon="5.05742">
        <ele>297.10729980469</ele>
        <time>2011-05-11T11:56:05Z</time>
      </trkpt>
      <trkpt lat="45.16583" lon="5.05824">
        <ele>299.33087158203</ele>
        <time>2011-05-11T11:56:15Z</time>
      </trkpt>
      <trkpt lat="45.16612" lon="5.05904">
        <ele>301.04077148438</ele>
        <time>2011-05-11T11:56:25Z</time>
      </trkpt>
      <trkpt lat="45.16651" lon="5.06007">
        <ele>299.16879272461</ele>
        <time>2011-05-11T11:56:38Z</time>
      </trkpt>
      <trkpt lat="45.16666" lon="5.06057">
        <ele>297.90502929688</ele>
        <time>2011-05-11T11:56:44Z</time>
      </trkpt>
      <trkpt lat="45.16679" lon="5.06125">
        <ele>296.43023681641</ele>
        <time>2011-05-11T11:56:51Z</time>
      </trkpt>
      <trkpt lat="45.16699" lon="5.06225">
        <ele>298.44079589844</ele>
        <time>2011-05-11T11:57:00Z</time>
      </trkpt>
      <trkpt lat="45.16726" lon="5.06358">
        <ele>300.45666503906</ele>
        <time>2011-05-11T11:57:11Z</time>
      </trkpt>
      <trkpt lat="45.16743" lon="5.06441">
        <ele>299.18280029297</ele>
        <time>2011-05-11T11:57:18Z</time>
      </trkpt>
      <trkpt lat="45.16765" lon="5.06504">
        <ele>298.29925537109</ele>
        <time>2011-05-11T11:57:24Z</time>
      </trkpt>
      <trkpt lat="45.16798" lon="5.06553">
        <ele>298.53631591797</ele>
        <time>2011-05-11T11:57:30Z</time>
      </trkpt>
      <trkpt lat="45.16854" lon="5.06611">
        <ele>299.49966430664</ele>
        <time>2011-05-11T11:57:39Z</time>
      </trkpt>
      <trkpt lat="45.16902" lon="5.06658">
        <ele>301.6711730957</ele>
        <time>2011-05-11T11:57:47Z</time>
      </trkpt>
      <trkpt lat="45.16967" lon="5.06722">
        <ele>311.25073242188</ele>
        <time>2011-05-11T11:57:58Z</time>
      </trkpt>
      <trkpt lat="45.17019" lon="5.06776">
        <ele>312.62503051758</ele>
        <time>2011-05-11T11:58:07Z</time>
      </trkpt>
      <trkpt lat="45.17036" lon="5.06793">
        <ele>313.13131713867</ele>
        <time>2011-05-11T11:58:10Z</time>
      </trkpt>
      <trkpt lat="45.17076" lon="5.06832">
        <ele>311.84100341797</ele>
        <time>2011-05-11T11:58:17Z</time>
      </trkpt>
      <trkpt lat="45.17139" lon="5.06897">
        <ele>308.85278320312</ele>
        <time>2011-05-11T11:58:28Z</time>
      </trkpt>
      <trkpt lat="45.17181" lon="5.06936">
        <ele>307.15563964844</ele>
        <time>2011-05-11T11:58:35Z</time>
      </trkpt>
      <trkpt lat="45.17214" lon="5.06952">
        <ele>308.13778686523</ele>
        <time>2011-05-11T11:58:40Z</time>
      </trkpt>
      <trkpt lat="45.17248" lon="5.06958">
        <ele>308.046875</ele>
        <time>2011-05-11T11:58:45Z</time>
      </trkpt>
      <trkpt lat="45.17296" lon="5.06986">
        <ele>311.21771240234</ele>
        <time>2011-05-11T11:58:53Z</time>
      </trkpt>
      <trkpt lat="45.17332" lon="5.07004">
        <ele>312.20031738281</ele>
        <time>2011-05-11T11:58:59Z</time>
      </trkpt>
      <trkpt lat="45.17372" lon="5.07013">
        <ele>312.49911499023</ele>
        <time>2011-05-11T11:59:05Z</time>
      </trkpt>
      <trkpt lat="45.17392" lon="5.07021">
        <ele>312.11349487305</ele>
        <time>2011-05-11T11:59:08Z</time>
      </trkpt>
      <trkpt lat="45.17433" lon="5.0705">
        <ele>313.18566894531</ele>
        <time>2011-05-11T11:59:15Z</time>
      </trkpt>
      <trkpt lat="45.17456" lon="5.07065">
        <ele>315.08508300781</ele>
        <time>2011-05-11T11:59:19Z</time>
      </trkpt>
      <trkpt lat="45.17474" lon="5.07079">
        <ele>315.01821899414</ele>
        <time>2011-05-11T11:59:22Z</time>
      </trkpt>
      <trkpt lat="45.17507" lon="5.07121">
        <ele>311.76205444336</ele>
        <time>2011-05-11T11:59:29Z</time>
      </trkpt>
      <trkpt lat="45.17548" lon="5.07181">
        <ele>302.90899658203</ele>
        <time>2011-05-11T11:59:38Z</time>
      </trkpt>
      <trkpt lat="45.17597" lon="5.0725">
        <ele>299.47430419922</ele>
        <time>2011-05-11T11:59:48Z</time>
      </trkpt>
      <trkpt lat="45.17641" lon="5.07314">
        <ele>298.75674438477</ele>
        <time>2011-05-11T11:59:57Z</time>
      </trkpt>
      <trkpt lat="45.17695" lon="5.07391">
        <ele>299.01477050781</ele>
        <time>2011-05-11T12:00:08Z</time>
      </trkpt>
      <trkpt lat="45.17734" lon="5.07446">
        <ele>299.39364624023</ele>
        <time>2011-05-11T12:00:16Z</time>
      </trkpt>
      <trkpt lat="45.17777" lon="5.07507">
        <ele>299</ele>
        <time>2011-05-11T12:00:25Z</time>
      </trkpt>
      <trkpt lat="45.17825" lon="5.07575">
        <ele>299.21374511719</ele>
        <time>2011-05-11T12:00:35Z</time>
      </trkpt>
      <trkpt lat="45.17882" lon="5.07654">
        <ele>299.33923339844</ele>
        <time>2011-05-11T12:00:46Z</time>
      </trkpt>
      <trkpt lat="45.17929" lon="5.07722">
        <ele>299.45126342773</ele>
        <time>2011-05-11T12:00:55Z</time>
      </trkpt>
      <trkpt lat="45.17987" lon="5.07804">
        <ele>302.09582519531</ele>
        <time>2011-05-11T12:01:06Z</time>
      </trkpt>
      <trkpt lat="45.18045" lon="5.07885">
        <ele>304.68817138672</ele>
        <time>2011-05-11T12:01:17Z</time>
      </trkpt>
      <trkpt lat="45.18097" lon="5.07959">
        <ele>306.95104980469</ele>
        <time>2011-05-11T12:01:27Z</time>
      </trkpt>
      <trkpt lat="45.18165" lon="5.08055">
        <ele>308.86972045898</ele>
        <time>2011-05-11T12:01:40Z</time>
      </trkpt>
      <trkpt lat="45.1821" lon="5.08118">
        <ele>309.45321655273</ele>
        <time>2011-05-11T12:01:49Z</time>
      </trkpt>
      <trkpt lat="45.18276" lon="5.08211">
        <ele>310.37915039062</ele>
        <time>2011-05-11T12:02:02Z</time>
      </trkpt>
      <trkpt lat="45.18322" lon="5.08275">
        <ele>313.15588378906</ele>
        <time>2011-05-11T12:02:11Z</time>
      </trkpt>
      <trkpt lat="45.18387" lon="5.08368">
        <ele>314.70004272461</ele>
        <time>2011-05-11T12:02:24Z</time>
      </trkpt>
      <trkpt lat="45.18452" lon="5.08459">
        <ele>315.64593505859</ele>
        <time>2011-05-11T12:02:37Z</time>
      </trkpt>
      <trkpt lat="45.18508" lon="5.08538">
        <ele>316.66372680664</ele>
        <time>2011-05-11T12:02:48Z</time>
      </trkpt>
      <trkpt lat="45.18575" lon="5.08633">
        <ele>316.69879150391</ele>
        <time>2011-05-11T12:03:01Z</time>
      </trkpt>
      <trkpt lat="45.18621" lon="5.08705">
        <ele>318.60653686523</ele>
        <time>2011-05-11T12:03:10Z</time>
      </trkpt>
      <trkpt lat="45.18644" lon="5.08762">
        <ele>319.18225097656</ele>
        <time>2011-05-11T12:03:16Z</time>
      </trkpt>
      <trkpt lat="45.18682" lon="5.0888">
        <ele>321.13854980469</ele>
        <time>2011-05-11T12:03:28Z</time>
      </trkpt>
      <trkpt lat="45.18718" lon="5.08988">
        <ele>322.02230834961</ele>
        <time>2011-05-11T12:03:39Z</time>
      </trkpt>
      <trkpt lat="45.18758" lon="5.09111">
        <ele>320.58853149414</ele>
        <time>2011-05-11T12:03:51Z</time>
      </trkpt>
      <trkpt lat="45.18789" lon="5.09204">
        <ele>320</ele>
        <time>2011-05-11T12:04:00Z</time>
      </trkpt>
      <trkpt lat="45.18838" lon="5.09353">
        <ele>321.27093505859</ele>
        <time>2011-05-11T12:04:14Z</time>
      </trkpt>
      <trkpt lat="45.1888" lon="5.0948">
        <ele>327.36584472656</ele>
        <time>2011-05-11T12:04:26Z</time>
      </trkpt>
      <trkpt lat="45.18925" lon="5.09617">
        <ele>329.42590332031</ele>
        <time>2011-05-11T12:04:39Z</time>
      </trkpt>
      <trkpt lat="45.18967" lon="5.09744">
        <ele>331.65551757812</ele>
        <time>2011-05-11T12:04:51Z</time>
      </trkpt>
      <trkpt lat="45.19002" lon="5.09869">
        <ele>335.12744140625</ele>
        <time>2011-05-11T12:05:03Z</time>
      </trkpt>
      <trkpt lat="45.19038" lon="5.09999">
        <ele>337.74905395508</ele>
        <time>2011-05-11T12:05:16Z</time>
      </trkpt>
      <trkpt lat="45.19075" lon="5.10132">
        <ele>338.31573486328</ele>
        <time>2011-05-11T12:05:29Z</time>
      </trkpt>
      <trkpt lat="45.19107" lon="5.10248">
        <ele>338.77337646484</ele>
        <time>2011-05-11T12:05:40Z</time>
      </trkpt>
      <trkpt lat="45.19149" lon="5.10399">
        <ele>338.49780273438</ele>
        <time>2011-05-11T12:05:54Z</time>
      </trkpt>
      <trkpt lat="45.19184" lon="5.10527">
        <ele>339.62805175781</ele>
        <time>2011-05-11T12:06:06Z</time>
      </trkpt>
      <trkpt lat="45.19222" lon="5.10662">
        <ele>339.98760986328</ele>
        <time>2011-05-11T12:06:19Z</time>
      </trkpt>
      <trkpt lat="45.19262" lon="5.10805">
        <ele>341.24749755859</ele>
        <time>2011-05-11T12:06:33Z</time>
      </trkpt>
      <trkpt lat="45.19297" lon="5.10934">
        <ele>347.41806030273</ele>
        <time>2011-05-11T12:06:46Z</time>
      </trkpt>
      <trkpt lat="45.19325" lon="5.11033">
        <ele>351.8369140625</ele>
        <time>2011-05-11T12:06:56Z</time>
      </trkpt>
      <trkpt lat="45.1936" lon="5.11152">
        <ele>354.90509033203</ele>
        <time>2011-05-11T12:07:08Z</time>
      </trkpt>
      <trkpt lat="45.19392" lon="5.11261">
        <ele>356.5048828125</ele>
        <time>2011-05-11T12:07:19Z</time>
      </trkpt>
      <trkpt lat="45.19424" lon="5.11367">
        <ele>359.16546630859</ele>
        <time>2011-05-11T12:07:30Z</time>
      </trkpt>
      <trkpt lat="45.19456" lon="5.11476">
        <ele>361.04690551758</ele>
        <time>2011-05-11T12:07:41Z</time>
      </trkpt>
      <trkpt lat="45.19493" lon="5.11601">
        <ele>362.53088378906</ele>
        <time>2011-05-11T12:07:54Z</time>
      </trkpt>
      <trkpt lat="45.19521" lon="5.11674">
        <ele>362.46536254883</ele>
        <time>2011-05-11T12:08:02Z</time>
      </trkpt>
      <trkpt lat="45.19536" lon="5.11697">
        <ele>362.20788574219</ele>
        <time>2011-05-11T12:08:05Z</time>
      </trkpt>
      <trkpt lat="45.19573" lon="5.1173">
        <ele>361.46722412109</ele>
        <time>2011-05-11T12:08:11Z</time>
      </trkpt>
      <trkpt lat="45.19591" lon="5.11759">
        <ele>360</ele>
        <time>2011-05-11T12:08:15Z</time>
      </trkpt>
      <trkpt lat="45.19592" lon="5.11768">
        <ele>360</ele>
        <time>2011-05-11T12:08:16Z</time>
      </trkpt>
      <trkpt lat="45.19598" lon="5.11842">
        <ele>357.69097900391</ele>
        <time>2011-05-11T12:08:23Z</time>
      </trkpt>
      <trkpt lat="45.19602" lon="5.11899">
        <ele>355.646484375</ele>
        <time>2011-05-11T12:08:28Z</time>
      </trkpt>
      <trkpt lat="45.19605" lon="5.11957">
        <ele>353.90560913086</ele>
        <time>2011-05-11T12:08:33Z</time>
      </trkpt>
      <trkpt lat="45.19593" lon="5.12006">
        <ele>352.27304077148</ele>
        <time>2011-05-11T12:08:38Z</time>
      </trkpt>
      <trkpt lat="45.19577" lon="5.12037">
        <ele>351.23480224609</ele>
        <time>2011-05-11T12:08:42Z</time>
      </trkpt>
      <trkpt lat="45.19578" lon="5.12075">
        <ele>349.91131591797</ele>
        <time>2011-05-11T12:08:46Z</time>
      </trkpt>
      <trkpt lat="45.1958" lon="5.12084">
        <ele>349.71408081055</ele>
        <time>2011-05-11T12:08:47Z</time>
      </trkpt>
      <trkpt lat="45.19603" lon="5.1218">
        <ele>349.6276550293</ele>
        <time>2011-05-11T12:08:57Z</time>
      </trkpt>
      <trkpt lat="45.19624" lon="5.12268">
        <ele>350.33551025391</ele>
        <time>2011-05-11T12:09:06Z</time>
      </trkpt>
      <trkpt lat="45.19652" lon="5.12382">
        <ele>351.86849975586</ele>
        <time>2011-05-11T12:09:18Z</time>
      </trkpt>
      <trkpt lat="45.19672" lon="5.12465">
        <ele>353</ele>
        <time>2011-05-11T12:09:27Z</time>
      </trkpt>
      <trkpt lat="45.19683" lon="5.12509">
        <ele>353.72207641602</ele>
        <time>2011-05-11T12:09:32Z</time>
      </trkpt>
      <trkpt lat="45.1968" lon="5.12554">
        <ele>354</ele>
        <time>2011-05-11T12:09:37Z</time>
      </trkpt>
      <trkpt lat="45.19666" lon="5.12575">
        <ele>354</ele>
        <time>2011-05-11T12:09:40Z</time>
      </trkpt>
      <trkpt lat="45.19654" lon="5.12584">
        <ele>354.00692749023</ele>
        <time>2011-05-11T12:09:42Z</time>
      </trkpt>
      <trkpt lat="45.19585" lon="5.12624">
        <ele>355.93865966797</ele>
        <time>2011-05-11T12:09:53Z</time>
      </trkpt>
      <trkpt lat="45.1955" lon="5.12646">
        <ele>357.27484130859</ele>
        <time>2011-05-11T12:09:59Z</time>
      </trkpt>
      <trkpt lat="45.19537" lon="5.12662">
        <ele>358.22286987305</ele>
        <time>2011-05-11T12:10:02Z</time>
      </trkpt>
      <trkpt lat="45.19528" lon="5.12689">
        <ele>358.98217773438</ele>
        <time>2011-05-11T12:10:06Z</time>
      </trkpt>
      <trkpt lat="45.19527" lon="5.12697">
        <ele>359.10021972656</ele>
        <time>2011-05-11T12:10:07Z</time>
      </trkpt>
      <trkpt lat="45.19523" lon="5.1276">
        <ele>360.52581787109</ele>
        <time>2011-05-11T12:10:16Z</time>
      </trkpt>
      <trkpt lat="45.19522" lon="5.12815">
        <ele>361.54110717773</ele>
        <time>2011-05-11T12:10:24Z</time>
      </trkpt>
      <trkpt lat="45.19525" lon="5.12888">
        <ele>363.07653808594</ele>
        <time>2011-05-11T12:10:34Z</time>
      </trkpt>
      <trkpt lat="45.19523" lon="5.12956">
        <ele>364.16339111328</ele>
        <time>2011-05-11T12:10:43Z</time>
      </trkpt>
      <trkpt lat="45.19518" lon="5.13021">
        <ele>365.35565185547</ele>
        <time>2011-05-11T12:10:52Z</time>
      </trkpt>
      <trkpt lat="45.19516" lon="5.13049">
        <ele>366.20141601562</ele>
        <time>2011-05-11T12:10:56Z</time>
      </trkpt>
      <trkpt lat="45.19508" lon="5.13118">
        <ele>367.69897460938</ele>
        <time>2011-05-11T12:11:06Z</time>
      </trkpt>
      <trkpt lat="45.19495" lon="5.13205">
        <ele>370.97589111328</ele>
        <time>2011-05-11T12:11:18Z</time>
      </trkpt>
      <trkpt lat="45.19482" lon="5.13287">
        <ele>375.17007446289</ele>
        <time>2011-05-11T12:11:28Z</time>
      </trkpt>
      <trkpt lat="45.19476" lon="5.13349">
        <ele>374.85513305664</ele>
        <time>2011-05-11T12:11:35Z</time>
      </trkpt>
      <trkpt lat="45.19477" lon="5.13426">
        <ele>374.33563232422</ele>
        <time>2011-05-11T12:11:43Z</time>
      </trkpt>
      <trkpt lat="45.19479" lon="5.1352">
        <ele>375.48336791992</ele>
        <time>2011-05-11T12:11:52Z</time>
      </trkpt>
      <trkpt lat="45.1948" lon="5.13595">
        <ele>376.71520996094</ele>
        <time>2011-05-11T12:12:00Z</time>
      </trkpt>
      <trkpt lat="45.19482" lon="5.13681">
        <ele>378.16534423828</ele>
        <time>2011-05-11T12:12:10Z</time>
      </trkpt>
      <trkpt lat="45.19483" lon="5.13762">
        <ele>380.47213745117</ele>
        <time>2011-05-11T12:12:20Z</time>
      </trkpt>
      <trkpt lat="45.19484" lon="5.13825">
        <ele>383.57864379883</ele>
        <time>2011-05-11T12:12:28Z</time>
      </trkpt>
      <trkpt lat="45.1949" lon="5.13885">
        <ele>386.03323364258</ele>
        <time>2011-05-11T12:12:36Z</time>
      </trkpt>
      <trkpt lat="45.19498" lon="5.13944">
        <ele>388.48315429688</ele>
        <time>2011-05-11T12:12:44Z</time>
      </trkpt>
      <trkpt lat="45.19506" lon="5.14006">
        <ele>390.3893737793</ele>
        <time>2011-05-11T12:12:52Z</time>
      </trkpt>
      <trkpt lat="45.19516" lon="5.14078">
        <ele>392.4880065918</ele>
        <time>2011-05-11T12:13:01Z</time>
      </trkpt>
      <trkpt lat="45.19527" lon="5.14151">
        <ele>394.91452026367</ele>
        <time>2011-05-11T12:13:11Z</time>
      </trkpt>
      <trkpt lat="45.19538" lon="5.14192">
        <ele>393.63232421875</ele>
        <time>2011-05-11T12:13:17Z</time>
      </trkpt>
      <trkpt lat="45.19538" lon="5.14219">
        <ele>393.45629882812</ele>
        <time>2011-05-11T12:13:21Z</time>
      </trkpt>
      <trkpt lat="45.19535" lon="5.14245">
        <ele>393.30996704102</ele>
        <time>2011-05-11T12:13:26Z</time>
      </trkpt>
      <trkpt lat="45.19532" lon="5.14259">
        <ele>393.18411254883</ele>
        <time>2011-05-11T12:13:29Z</time>
      </trkpt>
      <trkpt lat="45.19526" lon="5.14275">
        <ele>393.25759887695</ele>
        <time>2011-05-11T12:13:32Z</time>
      </trkpt>
      <trkpt lat="45.1952" lon="5.14286">
        <ele>393.86975097656</ele>
        <time>2011-05-11T12:13:34Z</time>
      </trkpt>
      <trkpt lat="45.19509" lon="5.14321">
        <ele>395.91595458984</ele>
        <time>2011-05-11T12:13:40Z</time>
      </trkpt>
      <trkpt lat="45.19515" lon="5.14346">
        <ele>396.37084960938</ele>
        <time>2011-05-11T12:13:44Z</time>
      </trkpt>
      <trkpt lat="45.19526" lon="5.14371">
        <ele>396.52532958984</ele>
        <time>2011-05-11T12:13:48Z</time>
      </trkpt>
      <trkpt lat="45.19533" lon="5.14379">
        <ele>396.29187011719</ele>
        <time>2011-05-11T12:13:50Z</time>
      </trkpt>
      <trkpt lat="45.19542" lon="5.14392">
        <ele>396.14962768555</ele>
        <time>2011-05-11T12:13:53Z</time>
      </trkpt>
      <trkpt lat="45.19568" lon="5.14417">
        <ele>394.74130249023</ele>
        <time>2011-05-11T12:14:00Z</time>
      </trkpt>
      <trkpt lat="45.19575" lon="5.14425">
        <ele>393.76797485352</ele>
        <time>2011-05-11T12:14:02Z</time>
      </trkpt>
      <trkpt lat="45.19586" lon="5.14444">
        <ele>392.66497802734</ele>
        <time>2011-05-11T12:14:06Z</time>
      </trkpt>
      <trkpt lat="45.19593" lon="5.14467">
        <ele>392.76626586914</ele>
        <time>2011-05-11T12:14:10Z</time>
      </trkpt>
      <trkpt lat="45.19597" lon="5.14531">
        <ele>395.21365356445</ele>
        <time>2011-05-11T12:14:19Z</time>
      </trkpt>
      <trkpt lat="45.19596" lon="5.14576">
        <ele>396.97680664062</ele>
        <time>2011-05-11T12:14:25Z</time>
      </trkpt>
      <trkpt lat="45.19598" lon="5.14613">
        <ele>398.41522216797</ele>
        <time>2011-05-11T12:14:29Z</time>
      </trkpt>
      <trkpt lat="45.19614" lon="5.14658">
        <ele>398.26223754883</ele>
        <time>2011-05-11T12:14:34Z</time>
      </trkpt>
      <trkpt lat="45.19619" lon="5.14665">
        <ele>398.54718017578</ele>
        <time>2011-05-11T12:14:35Z</time>
      </trkpt>
      <trkpt lat="45.19662" lon="5.14705">
        <ele>399.43298339844</ele>
        <time>2011-05-11T12:14:42Z</time>
      </trkpt>
      <trkpt lat="45.1969" lon="5.14724">
        <ele>401.10995483398</ele>
        <time>2011-05-11T12:14:47Z</time>
      </trkpt>
      <trkpt lat="45.19703" lon="5.14739">
        <ele>402.61032104492</ele>
        <time>2011-05-11T12:14:50Z</time>
      </trkpt>
      <trkpt lat="45.1972" lon="5.14773">
        <ele>403.92208862305</ele>
        <time>2011-05-11T12:14:55Z</time>
      </trkpt>
      <trkpt lat="45.19731" lon="5.14828">
        <ele>408.31912231445</ele>
        <time>2011-05-11T12:15:02Z</time>
      </trkpt>
      <trkpt lat="45.19733" lon="5.14902">
        <ele>415.81454467773</ele>
        <time>2011-05-11T12:15:11Z</time>
      </trkpt>
      <trkpt lat="45.19735" lon="5.14978">
        <ele>420.90649414062</ele>
        <time>2011-05-11T12:15:20Z</time>
      </trkpt>
      <trkpt lat="45.19745" lon="5.15055">
        <ele>423.51614379883</ele>
        <time>2011-05-11T12:15:29Z</time>
      </trkpt>
      <trkpt lat="45.19754" lon="5.15122">
        <ele>425.47189331055</ele>
        <time>2011-05-11T12:15:37Z</time>
      </trkpt>
      <trkpt lat="45.19768" lon="5.15178">
        <ele>424.08459472656</ele>
        <time>2011-05-11T12:15:44Z</time>
      </trkpt>
      <trkpt lat="45.19795" lon="5.15267">
        <ele>420.98168945312</ele>
        <time>2011-05-11T12:15:55Z</time>
      </trkpt>
      <trkpt lat="45.19815" lon="5.15334">
        <ele>418.88061523438</ele>
        <time>2011-05-11T12:16:03Z</time>
      </trkpt>
      <trkpt lat="45.19844" lon="5.15431">
        <ele>414.63220214844</ele>
        <time>2011-05-11T12:16:14Z</time>
      </trkpt>
      <trkpt lat="45.19864" lon="5.15493">
        <ele>411.0751953125</ele>
        <time>2011-05-11T12:16:21Z</time>
      </trkpt>
      <trkpt lat="45.19886" lon="5.15572">
        <ele>408.61181640625</ele>
        <time>2011-05-11T12:16:30Z</time>
      </trkpt>
      <trkpt lat="45.19898" lon="5.15649">
        <ele>409.85006713867</ele>
        <time>2011-05-11T12:16:38Z</time>
      </trkpt>
      <trkpt lat="45.19909" lon="5.15749">
        <ele>407.94784545898</ele>
        <time>2011-05-11T12:16:48Z</time>
      </trkpt>
      <trkpt lat="45.19908" lon="5.15821">
        <ele>408.59478759766</ele>
        <time>2011-05-11T12:16:55Z</time>
      </trkpt>
      <trkpt lat="45.19904" lon="5.15928">
        <ele>409.56146240234</ele>
        <time>2011-05-11T12:17:05Z</time>
      </trkpt>
      <trkpt lat="45.19897" lon="5.16013">
        <ele>408.96365356445</ele>
        <time>2011-05-11T12:17:13Z</time>
      </trkpt>
      <trkpt lat="45.19879" lon="5.1608">
        <ele>411.13793945312</ele>
        <time>2011-05-11T12:17:19Z</time>
      </trkpt>
      <trkpt lat="45.19844" lon="5.16181">
        <ele>415.28512573242</ele>
        <time>2011-05-11T12:17:28Z</time>
      </trkpt>
      <trkpt lat="45.19816" lon="5.16273">
        <ele>416.54888916016</ele>
        <time>2011-05-11T12:17:36Z</time>
      </trkpt>
      <trkpt lat="45.19809" lon="5.1633">
        <ele>415.99731445312</ele>
        <time>2011-05-11T12:17:41Z</time>
      </trkpt>
      <trkpt lat="45.19805" lon="5.16389">
        <ele>416.04830932617</ele>
        <time>2011-05-11T12:17:47Z</time>
      </trkpt>
      <trkpt lat="45.19799" lon="5.16447">
        <ele>416.56228637695</ele>
        <time>2011-05-11T12:17:54Z</time>
      </trkpt>
      <trkpt lat="45.1979" lon="5.16503">
        <ele>418.20703125</ele>
        <time>2011-05-11T12:18:01Z</time>
      </trkpt>
      <trkpt lat="45.19785" lon="5.16545">
        <ele>420.08535766602</ele>
        <time>2011-05-11T12:18:06Z</time>
      </trkpt>
      <trkpt lat="45.19791" lon="5.16586">
        <ele>421.97177124023</ele>
        <time>2011-05-11T12:18:11Z</time>
      </trkpt>
      <trkpt lat="45.19816" lon="5.16665">
        <ele>424.31631469727</ele>
        <time>2011-05-11T12:18:21Z</time>
      </trkpt>
      <trkpt lat="45.19842" lon="5.16742">
        <ele>425.29357910156</ele>
        <time>2011-05-11T12:18:31Z</time>
      </trkpt>
      <trkpt lat="45.19869" lon="5.16799">
        <ele>421.37289428711</ele>
        <time>2011-05-11T12:18:39Z</time>
      </trkpt>
      <trkpt lat="45.19885" lon="5.16835">
        <ele>420.44821166992</ele>
        <time>2011-05-11T12:18:44Z</time>
      </trkpt>
      <trkpt lat="45.19894" lon="5.16893">
        <ele>421.94604492188</ele>
        <time>2011-05-11T12:18:51Z</time>
      </trkpt>
      <trkpt lat="45.19893" lon="5.16952">
        <ele>423.27850341797</ele>
        <time>2011-05-11T12:18:58Z</time>
      </trkpt>
      <trkpt lat="45.19887" lon="5.17018">
        <ele>425.73156738281</ele>
        <time>2011-05-11T12:19:06Z</time>
      </trkpt>
      <trkpt lat="45.19883" lon="5.17076">
        <ele>427.19952392578</ele>
        <time>2011-05-11T12:19:13Z</time>
      </trkpt>
      <trkpt lat="45.19881" lon="5.17125">
        <ele>428.63815307617</ele>
        <time>2011-05-11T12:19:19Z</time>
      </trkpt>
      <trkpt lat="45.1988" lon="5.17141">
        <ele>429.06942749023</ele>
        <time>2011-05-11T12:19:21Z</time>
      </trkpt>
      <trkpt lat="45.19882" lon="5.17198">
        <ele>430.35729980469</ele>
        <time>2011-05-11T12:19:28Z</time>
      </trkpt>
      <trkpt lat="45.1988" lon="5.17224">
        <ele>431.07522583008</ele>
        <time>2011-05-11T12:19:31Z</time>
      </trkpt>
      <trkpt lat="45.19864" lon="5.1727">
        <ele>432.07357788086</ele>
        <time>2011-05-11T12:19:37Z</time>
      </trkpt>
      <trkpt lat="45.19852" lon="5.17299">
        <ele>434.21133422852</ele>
        <time>2011-05-11T12:19:41Z</time>
      </trkpt>
      <trkpt lat="45.1983" lon="5.17351">
        <ele>437.28826904297</ele>
        <time>2011-05-11T12:19:48Z</time>
      </trkpt>
      <trkpt lat="45.19806" lon="5.17413">
        <ele>437.9873046875</ele>
        <time>2011-05-11T12:19:56Z</time>
      </trkpt>
      <trkpt lat="45.19792" lon="5.1746">
        <ele>438.71148681641</ele>
        <time>2011-05-11T12:20:02Z</time>
      </trkpt>
      <trkpt lat="45.1978" lon="5.17518">
        <ele>438.56555175781</ele>
        <time>2011-05-11T12:20:09Z</time>
      </trkpt>
      <trkpt lat="45.19781" lon="5.1757">
        <ele>439</ele>
        <time>2011-05-11T12:20:15Z</time>
      </trkpt>
      <trkpt lat="45.19781" lon="5.17597">
        <ele>439.49914550781</ele>
        <time>2011-05-11T12:20:18Z</time>
      </trkpt>
      <trkpt lat="45.19773" lon="5.1763">
        <ele>440</ele>
        <time>2011-05-11T12:20:22Z</time>
      </trkpt>
      <trkpt lat="45.19752" lon="5.17695">
        <ele>440</ele>
        <time>2011-05-11T12:20:30Z</time>
      </trkpt>
      <trkpt lat="45.19733" lon="5.17781">
        <ele>440</ele>
        <time>2011-05-11T12:20:40Z</time>
      </trkpt>
      <trkpt lat="45.19712" lon="5.17853">
        <ele>440</ele>
        <time>2011-05-11T12:20:49Z</time>
      </trkpt>
      <trkpt lat="45.19711" lon="5.17886">
        <ele>440</ele>
        <time>2011-05-11T12:20:53Z</time>
      </trkpt>
      <trkpt lat="45.19716" lon="5.17902">
        <ele>440</ele>
        <time>2011-05-11T12:20:55Z</time>
      </trkpt>
      <trkpt lat="45.19723" lon="5.17916">
        <ele>440</ele>
        <time>2011-05-11T12:20:57Z</time>
      </trkpt>
      <trkpt lat="45.19733" lon="5.17965">
        <ele>440.74798583984</ele>
        <time>2011-05-11T12:21:03Z</time>
      </trkpt>
      <trkpt lat="45.19733" lon="5.1802">
        <ele>443.11178588867</ele>
        <time>2011-05-11T12:21:10Z</time>
      </trkpt>
      <trkpt lat="45.19732" lon="5.18078">
        <ele>446.17687988281</ele>
        <time>2011-05-11T12:21:17Z</time>
      </trkpt>
      <trkpt lat="45.19727" lon="5.18143">
        <ele>448.62811279297</ele>
        <time>2011-05-11T12:21:24Z</time>
      </trkpt>
      <trkpt lat="45.1972" lon="5.18226">
        <ele>452.05178833008</ele>
        <time>2011-05-11T12:21:33Z</time>
      </trkpt>
      <trkpt lat="45.19707" lon="5.18304">
        <ele>454.31900024414</ele>
        <time>2011-05-11T12:21:42Z</time>
      </trkpt>
      <trkpt lat="45.19688" lon="5.18368">
        <ele>455.02087402344</ele>
        <time>2011-05-11T12:21:50Z</time>
      </trkpt>
      <trkpt lat="45.19666" lon="5.18433">
        <ele>455.58108520508</ele>
        <time>2011-05-11T12:21:58Z</time>
      </trkpt>
      <trkpt lat="45.19662" lon="5.18489">
        <ele>456.93469238281</ele>
        <time>2011-05-11T12:22:04Z</time>
      </trkpt>
      <trkpt lat="45.19659" lon="5.18593">
        <ele>458.98324584961</ele>
        <time>2011-05-11T12:22:15Z</time>
      </trkpt>
      <trkpt lat="45.19659" lon="5.18699">
        <ele>461.74447631836</ele>
        <time>2011-05-11T12:22:26Z</time>
      </trkpt>
      <trkpt lat="45.19667" lon="5.18787">
        <ele>466.45300292969</ele>
        <time>2011-05-11T12:22:35Z</time>
      </trkpt>
      <trkpt lat="45.19663" lon="5.18826">
        <ele>467.32827758789</ele>
        <time>2011-05-11T12:22:39Z</time>
      </trkpt>
      <trkpt lat="45.19649" lon="5.18881">
        <ele>467.82095336914</ele>
        <time>2011-05-11T12:22:45Z</time>
      </trkpt>
      <trkpt lat="45.19647" lon="5.18931">
        <ele>469.36761474609</ele>
        <time>2011-05-11T12:22:50Z</time>
      </trkpt>
      <trkpt lat="45.19642" lon="5.18999">
        <ele>471.28335571289</ele>
        <time>2011-05-11T12:22:57Z</time>
      </trkpt>
      <trkpt lat="45.19633" lon="5.19092">
        <ele>473.92584228516</ele>
        <time>2011-05-11T12:23:06Z</time>
      </trkpt>
      <trkpt lat="45.19626" lon="5.19168">
        <ele>476.11315917969</ele>
        <time>2011-05-11T12:23:14Z</time>
      </trkpt>
      <trkpt lat="45.19619" lon="5.19246">
        <ele>478.43536376953</ele>
        <time>2011-05-11T12:23:23Z</time>
      </trkpt>
      <trkpt lat="45.19616" lon="5.19335">
        <ele>480</ele>
        <time>2011-05-11T12:23:33Z</time>
      </trkpt>
      <trkpt lat="45.19614" lon="5.19403">
        <ele>480.11877441406</ele>
        <time>2011-05-11T12:23:40Z</time>
      </trkpt>
      <trkpt lat="45.19613" lon="5.19504">
        <ele>480.10021972656</ele>
        <time>2011-05-11T12:23:50Z</time>
      </trkpt>
      <trkpt lat="45.19611" lon="5.19591">
        <ele>480</ele>
        <time>2011-05-11T12:23:59Z</time>
      </trkpt>
      <trkpt lat="45.1961" lon="5.19679">
        <ele>480</ele>
        <time>2011-05-11T12:24:09Z</time>
      </trkpt>
      <trkpt lat="45.19614" lon="5.19763">
        <ele>480.89334106445</ele>
        <time>2011-05-11T12:24:19Z</time>
      </trkpt>
      <trkpt lat="45.19622" lon="5.19818">
        <ele>482.22149658203</ele>
        <time>2011-05-11T12:24:26Z</time>
      </trkpt>
      <trkpt lat="45.19631" lon="5.19871">
        <ele>483.83715820312</ele>
        <time>2011-05-11T12:24:34Z</time>
      </trkpt>
      <trkpt lat="45.19634" lon="5.19907">
        <ele>484.27661132812</ele>
        <time>2011-05-11T12:24:41Z</time>
      </trkpt>
      <trkpt lat="45.19633" lon="5.19945">
        <ele>484.24612426758</ele>
        <time>2011-05-11T12:24:49Z</time>
      </trkpt>
      <trkpt lat="45.19633" lon="5.19975">
        <ele>484.88977050781</ele>
        <time>2011-05-11T12:24:56Z</time>
      </trkpt>
      <trkpt lat="45.19629" lon="5.19987">
        <ele>484.13446044922</ele>
        <time>2011-05-11T12:25:00Z</time>
      </trkpt>
      <trkpt lat="45.19617" lon="5.19985">
        <ele>482.14318847656</ele>
        <time>2011-05-11T12:25:05Z</time>
      </trkpt>
      <trkpt lat="45.19609" lon="5.19982">
        <ele>481</ele>
        <time>2011-05-11T12:25:08Z</time>
      </trkpt>
      <trkpt lat="45.19605" lon="5.1998">
        <ele>481</ele>
        <time>2011-05-11T12:25:10Z</time>
      </trkpt>
      <trkpt lat="45.19609" lon="5.19977">
        <ele>481</ele>
        <time>2011-05-11T12:25:14Z</time>
      </trkpt>
      <trkpt lat="45.19627" lon="5.19988">
        <ele>483.79113769531</ele>
        <time>2011-05-11T12:25:21Z</time>
      </trkpt>
      <trkpt lat="45.19631" lon="5.19995">
        <ele>484.54644775391</ele>
        <time>2011-05-11T12:25:23Z</time>
      </trkpt>
      <trkpt lat="45.19633" lon="5.20041">
        <ele>484.95843505859</ele>
        <time>2011-05-11T12:25:29Z</time>
      </trkpt>
      <trkpt lat="45.19633" lon="5.2006">
        <ele>484.88977050781</ele>
        <time>2011-05-11T12:25:31Z</time>
      </trkpt>
      <trkpt lat="45.19634" lon="5.20106">
        <ele>485.83779907227</ele>
        <time>2011-05-11T12:25:35Z</time>
      </trkpt>
      <trkpt lat="45.19651" lon="5.20151">
        <ele>488.74853515625</ele>
        <time>2011-05-11T12:25:39Z</time>
      </trkpt>
      <trkpt lat="45.19658" lon="5.2016">
        <ele>489.79223632812</ele>
        <time>2011-05-11T12:25:40Z</time>
      </trkpt>
      <trkpt lat="45.19674" lon="5.20208">
        <ele>493.61123657227</ele>
        <time>2011-05-11T12:25:44Z</time>
      </trkpt>
      <trkpt lat="45.19656" lon="5.20228">
        <ele>491.14697265625</ele>
        <time>2011-05-11T12:25:46Z</time>
      </trkpt>
      <trkpt lat="45.19634" lon="5.20232">
        <ele>486.99731445312</ele>
        <time>2011-05-11T12:25:48Z</time>
      </trkpt>
      <trkpt lat="45.19601" lon="5.20247">
        <ele>481.24877929688</ele>
        <time>2011-05-11T12:25:51Z</time>
      </trkpt>
      <trkpt lat="45.19585" lon="5.20273">
        <ele>480.1725769043</ele>
        <time>2011-05-11T12:25:53Z</time>
      </trkpt>
      <trkpt lat="45.19553" lon="5.20347">
        <ele>472.31234741211</ele>
        <time>2011-05-11T12:25:58Z</time>
      </trkpt>
      <trkpt lat="45.1954" lon="5.20417">
        <ele>470.56274414062</ele>
        <time>2011-05-11T12:26:02Z</time>
      </trkpt>
      <trkpt lat="45.19537" lon="5.20472">
        <ele>471.06231689453</ele>
        <time>2011-05-11T12:26:05Z</time>
      </trkpt>
      <trkpt lat="45.19521" lon="5.20542">
        <ele>466.10079956055</ele>
        <time>2011-05-11T12:26:09Z</time>
      </trkpt>
      <trkpt lat="45.19486" lon="5.20598">
        <ele>463.07757568359</ele>
        <time>2011-05-11T12:26:13Z</time>
      </trkpt>
      <trkpt lat="45.19476" lon="5.20609">
        <ele>461.60858154297</ele>
        <time>2011-05-11T12:26:14Z</time>
      </trkpt>
      <trkpt lat="45.19416" lon="5.20641">
        <ele>455.02416992188</ele>
        <time>2011-05-11T12:26:19Z</time>
      </trkpt>
      <trkpt lat="45.19342" lon="5.2066">
        <ele>446.97338867188</ele>
        <time>2011-05-11T12:26:25Z</time>
      </trkpt>
      <trkpt lat="45.19318" lon="5.20666">
        <ele>444.31982421875</ele>
        <time>2011-05-11T12:26:27Z</time>
      </trkpt>
      <trkpt lat="45.19261" lon="5.20689">
        <ele>441.2236328125</ele>
        <time>2011-05-11T12:26:32Z</time>
      </trkpt>
      <trkpt lat="45.1922" lon="5.20725">
        <ele>441.01763916016</ele>
        <time>2011-05-11T12:26:36Z</time>
      </trkpt>
      <trkpt lat="45.19171" lon="5.20773">
        <ele>441.12576293945</ele>
        <time>2011-05-11T12:26:41Z</time>
      </trkpt>
      <trkpt lat="45.19122" lon="5.20822">
        <ele>440.75860595703</ele>
        <time>2011-05-11T12:26:46Z</time>
      </trkpt>
      <trkpt lat="45.19091" lon="5.20872">
        <ele>437.39337158203</ele>
        <time>2011-05-11T12:26:50Z</time>
      </trkpt>
      <trkpt lat="45.19086" lon="5.20887">
        <ele>435.42614746094</ele>
        <time>2011-05-11T12:26:51Z</time>
      </trkpt>
      <trkpt lat="45.19053" lon="5.20975">
        <ele>422.57183837891</ele>
        <time>2011-05-11T12:26:57Z</time>
      </trkpt>
      <trkpt lat="45.19017" lon="5.21024">
        <ele>420</ele>
        <time>2011-05-11T12:27:01Z</time>
      </trkpt>
      <trkpt lat="45.18965" lon="5.21077">
        <ele>420</ele>
        <time>2011-05-11T12:27:06Z</time>
      </trkpt>
      <trkpt lat="45.18904" lon="5.2111">
        <ele>420</ele>
        <time>2011-05-11T12:27:11Z</time>
      </trkpt>
      <trkpt lat="45.18829" lon="5.21138">
        <ele>420</ele>
        <time>2011-05-11T12:27:17Z</time>
      </trkpt>
      <trkpt lat="45.18792" lon="5.21146">
        <ele>420</ele>
        <time>2011-05-11T12:27:20Z</time>
      </trkpt>
      <trkpt lat="45.18731" lon="5.21159">
        <ele>420</ele>
        <time>2011-05-11T12:27:25Z</time>
      </trkpt>
      <trkpt lat="45.18685" lon="5.21184">
        <ele>419.65167236328</ele>
        <time>2011-05-11T12:27:29Z</time>
      </trkpt>
      <trkpt lat="45.18588" lon="5.21244">
        <ele>414.3544921875</ele>
        <time>2011-05-11T12:27:37Z</time>
      </trkpt>
      <trkpt lat="45.18489" lon="5.21301">
        <ele>409.09170532227</ele>
        <time>2011-05-11T12:27:45Z</time>
      </trkpt>
      <trkpt lat="45.18354" lon="5.21382">
        <ele>401.76565551758</ele>
        <time>2011-05-11T12:27:56Z</time>
      </trkpt>
      <trkpt lat="45.18275" lon="5.2142">
        <ele>400</ele>
        <time>2011-05-11T12:28:02Z</time>
      </trkpt>
      <trkpt lat="45.18235" lon="5.21435">
        <ele>400</ele>
        <time>2011-05-11T12:28:05Z</time>
      </trkpt>
      <trkpt lat="45.18182" lon="5.21436">
        <ele>399.68041992188</ele>
        <time>2011-05-11T12:28:09Z</time>
      </trkpt>
      <trkpt lat="45.1813" lon="5.21425">
        <ele>396.20391845703</ele>
        <time>2011-05-11T12:28:13Z</time>
      </trkpt>
      <trkpt lat="45.18081" lon="5.21425">
        <ele>389.32385253906</ele>
        <time>2011-05-11T12:28:17Z</time>
      </trkpt>
      <trkpt lat="45.18045" lon="5.21432">
        <ele>383.48135375977</ele>
        <time>2011-05-11T12:28:20Z</time>
      </trkpt>
      <trkpt lat="45.17996" lon="5.21416">
        <ele>380.61480712891</ele>
        <time>2011-05-11T12:28:24Z</time>
      </trkpt>
      <trkpt lat="45.17964" lon="5.21394">
        <ele>378.74096679688</ele>
        <time>2011-05-11T12:28:27Z</time>
      </trkpt>
      <trkpt lat="45.17923" lon="5.2136">
        <ele>376.2887878418</ele>
        <time>2011-05-11T12:28:31Z</time>
      </trkpt>
      <trkpt lat="45.17881" lon="5.21348">
        <ele>374.67419433594</ele>
        <time>2011-05-11T12:28:35Z</time>
      </trkpt>
      <trkpt lat="45.17869" lon="5.21351">
        <ele>373.98413085938</ele>
        <time>2011-05-11T12:28:36Z</time>
      </trkpt>
      <trkpt lat="45.17825" lon="5.21365">
        <ele>371.42291259766</ele>
        <time>2011-05-11T12:28:40Z</time>
      </trkpt>
      <trkpt lat="45.17775" lon="5.21374">
        <ele>368.47308349609</ele>
        <time>2011-05-11T12:28:45Z</time>
      </trkpt>
      <trkpt lat="45.17765" lon="5.21376">
        <ele>367.66888427734</ele>
        <time>2011-05-11T12:28:46Z</time>
      </trkpt>
      <trkpt lat="45.17737" lon="5.21403">
        <ele>361.99606323242</ele>
        <time>2011-05-11T12:28:50Z</time>
      </trkpt>
      <trkpt lat="45.177" lon="5.2145">
        <ele>360</ele>
        <time>2011-05-11T12:28:56Z</time>
      </trkpt>
      <trkpt lat="45.17668" lon="5.21468">
        <ele>360</ele>
        <time>2011-05-11T12:29:00Z</time>
      </trkpt>
      <trkpt lat="45.17643" lon="5.2146">
        <ele>360</ele>
        <time>2011-05-11T12:29:03Z</time>
      </trkpt>
      <trkpt lat="45.17617" lon="5.2145">
        <ele>360</ele>
        <time>2011-05-11T12:29:06Z</time>
      </trkpt>
      <trkpt lat="45.17581" lon="5.21457">
        <ele>360</ele>
        <time>2011-05-11T12:29:10Z</time>
      </trkpt>
      <trkpt lat="45.17573" lon="5.21463">
        <ele>360</ele>
        <time>2011-05-11T12:29:11Z</time>
      </trkpt>
      <trkpt lat="45.17517" lon="5.21507">
        <ele>360</ele>
        <time>2011-05-11T12:29:19Z</time>
      </trkpt>
      <trkpt lat="45.17504" lon="5.21519">
        <ele>360</ele>
        <time>2011-05-11T12:29:21Z</time>
      </trkpt>
      <trkpt lat="45.17487" lon="5.21548">
        <ele>360</ele>
        <time>2011-05-11T12:29:25Z</time>
      </trkpt>
      <trkpt lat="45.17463" lon="5.21601">
        <ele>360</ele>
        <time>2011-05-11T12:29:32Z</time>
      </trkpt>
      <trkpt lat="45.17453" lon="5.21622">
        <ele>360</ele>
        <time>2011-05-11T12:29:35Z</time>
      </trkpt>
      <trkpt lat="45.17427" lon="5.21678">
        <ele>360</ele>
        <time>2011-05-11T12:29:43Z</time>
      </trkpt>
      <trkpt lat="45.17401" lon="5.21731">
        <ele>360</ele>
        <time>2011-05-11T12:29:50Z</time>
      </trkpt>
      <trkpt lat="45.17371" lon="5.2179">
        <ele>359.35552978516</ele>
        <time>2011-05-11T12:29:57Z</time>
      </trkpt>
      <trkpt lat="45.17346" lon="5.21841">
        <ele>358.44915771484</ele>
        <time>2011-05-11T12:30:03Z</time>
      </trkpt>
      <trkpt lat="45.17337" lon="5.2188">
        <ele>357.52066040039</ele>
        <time>2011-05-11T12:30:07Z</time>
      </trkpt>
      <trkpt lat="45.17336" lon="5.21949">
        <ele>357.21166992188</ele>
        <time>2011-05-11T12:30:13Z</time>
      </trkpt>
      <trkpt lat="45.17338" lon="5.22055">
        <ele>356.64099121094</ele>
        <time>2011-05-11T12:30:22Z</time>
      </trkpt>
      <trkpt lat="45.17338" lon="5.22133">
        <ele>355.87249755859</ele>
        <time>2011-05-11T12:30:29Z</time>
      </trkpt>
      <trkpt lat="45.1734" lon="5.22238">
        <ele>356.18490600586</ele>
        <time>2011-05-11T12:30:39Z</time>
      </trkpt>
      <trkpt lat="45.1734" lon="5.22248">
        <ele>356.64151000977</ele>
        <time>2011-05-11T12:30:40Z</time>
      </trkpt>
      <trkpt lat="45.17331" lon="5.22285">
        <ele>354.98413085938</ele>
        <time>2011-05-11T12:30:44Z</time>
      </trkpt>
      <trkpt lat="45.17299" lon="5.22337">
        <ele>350.2607421875</ele>
        <time>2011-05-11T12:30:51Z</time>
      </trkpt>
      <trkpt lat="45.17269" lon="5.22377">
        <ele>342.7890625</ele>
        <time>2011-05-11T12:30:57Z</time>
      </trkpt>
      <trkpt lat="45.17239" lon="5.22415">
        <ele>340</ele>
        <time>2011-05-11T12:31:03Z</time>
      </trkpt>
      <trkpt lat="45.17212" lon="5.2245">
        <ele>340.1181640625</ele>
        <time>2011-05-11T12:31:09Z</time>
      </trkpt>
      <trkpt lat="45.17197" lon="5.22467">
        <ele>340.08541870117</ele>
        <time>2011-05-11T12:31:12Z</time>
      </trkpt>
      <trkpt lat="45.17176" lon="5.22504">
        <ele>340.10220336914</ele>
        <time>2011-05-11T12:31:18Z</time>
      </trkpt>
      <trkpt lat="45.17167" lon="5.22547">
        <ele>340.70797729492</ele>
        <time>2011-05-11T12:31:24Z</time>
      </trkpt>
      <trkpt lat="45.17167" lon="5.22554">
        <ele>340.96072387695</ele>
        <time>2011-05-11T12:31:25Z</time>
      </trkpt>
      <trkpt lat="45.17168" lon="5.22588">
        <ele>344.92108154297</ele>
        <time>2011-05-11T12:31:30Z</time>
      </trkpt>
      <trkpt lat="45.17167" lon="5.2261">
        <ele>347.91204833984</ele>
        <time>2011-05-11T12:31:33Z</time>
      </trkpt>
      <trkpt lat="45.17154" lon="5.22657">
        <ele>351.72033691406</ele>
        <time>2011-05-11T12:31:40Z</time>
      </trkpt>
      <trkpt lat="45.17132" lon="5.22703">
        <ele>354.50531005859</ele>
        <time>2011-05-11T12:31:48Z</time>
      </trkpt>
      <trkpt lat="45.17115" lon="5.22736">
        <ele>356.90777587891</ele>
        <time>2011-05-11T12:31:54Z</time>
      </trkpt>
      <trkpt lat="45.17097" lon="5.22773">
        <ele>358.42114257812</ele>
        <time>2011-05-11T12:32:01Z</time>
      </trkpt>
      <trkpt lat="45.17091" lon="5.22795">
        <ele>359.75030517578</ele>
        <time>2011-05-11T12:32:05Z</time>
      </trkpt>
      <trkpt lat="45.17085" lon="5.22818">
        <ele>361.09512329102</ele>
        <time>2011-05-11T12:32:09Z</time>
      </trkpt>
      <trkpt lat="45.1707" lon="5.22856">
        <ele>362.90042114258</ele>
        <time>2011-05-11T12:32:16Z</time>
      </trkpt>
      <trkpt lat="45.17049" lon="5.22884">
        <ele>362.70690917969</ele>
        <time>2011-05-11T12:32:22Z</time>
      </trkpt>
      <trkpt lat="45.17019" lon="5.22919">
        <ele>360.06982421875</ele>
        <time>2011-05-11T12:32:30Z</time>
      </trkpt>
      <trkpt lat="45.16987" lon="5.22954">
        <ele>361</ele>
        <time>2011-05-11T12:32:38Z</time>
      </trkpt>
      <trkpt lat="45.16953" lon="5.22996">
        <ele>361.86273193359</ele>
        <time>2011-05-11T12:32:46Z</time>
      </trkpt>
      <trkpt lat="45.16931" lon="5.23023">
        <ele>362</ele>
        <time>2011-05-11T12:32:51Z</time>
      </trkpt>
      <trkpt lat="45.16921" lon="5.2305">
        <ele>362.78533935547</ele>
        <time>2011-05-11T12:32:55Z</time>
      </trkpt>
      <trkpt lat="45.16922" lon="5.23058">
        <ele>363</ele>
        <time>2011-05-11T12:32:56Z</time>
      </trkpt>
      <trkpt lat="45.16929" lon="5.23112">
        <ele>364</ele>
        <time>2011-05-11T12:33:03Z</time>
      </trkpt>
      <trkpt lat="45.1693" lon="5.23129">
        <ele>364</ele>
        <time>2011-05-11T12:33:05Z</time>
      </trkpt>
      <trkpt lat="45.16924" lon="5.23183">
        <ele>360</ele>
        <time>2011-05-11T12:33:11Z</time>
      </trkpt>
      <trkpt lat="45.16917" lon="5.23202">
        <ele>360</ele>
        <time>2011-05-11T12:33:13Z</time>
      </trkpt>
      <trkpt lat="45.16882" lon="5.23262">
        <ele>359.89688110352</ele>
        <time>2011-05-11T12:33:20Z</time>
      </trkpt>
      <trkpt lat="45.16854" lon="5.23312">
        <ele>358.28015136719</ele>
        <time>2011-05-11T12:33:25Z</time>
      </trkpt>
      <trkpt lat="45.16843" lon="5.23331">
        <ele>356.7626953125</ele>
        <time>2011-05-11T12:33:27Z</time>
      </trkpt>
      <trkpt lat="45.16832" lon="5.23361">
        <ele>353.78067016602</ele>
        <time>2011-05-11T12:33:30Z</time>
      </trkpt>
      <trkpt lat="45.1683" lon="5.23396">
        <ele>351.86074829102</ele>
        <time>2011-05-11T12:33:33Z</time>
      </trkpt>
      <trkpt lat="45.16834" lon="5.23421">
        <ele>350.76251220703</ele>
        <time>2011-05-11T12:33:35Z</time>
      </trkpt>
      <trkpt lat="45.16843" lon="5.23445">
        <ele>350.62884521484</ele>
        <time>2011-05-11T12:33:37Z</time>
      </trkpt>
      <trkpt lat="45.16864" lon="5.23467">
        <ele>351.11801147461</ele>
        <time>2011-05-11T12:33:40Z</time>
      </trkpt>
      <trkpt lat="45.16884" lon="5.23472">
        <ele>353.26248168945</ele>
        <time>2011-05-11T12:33:42Z</time>
      </trkpt>
      <trkpt lat="45.16922" lon="5.23477">
        <ele>360.60083007812</ele>
        <time>2011-05-11T12:33:46Z</time>
      </trkpt>
      <trkpt lat="45.16967" lon="5.23502">
        <ele>360.36251831055</ele>
        <time>2011-05-11T12:33:51Z</time>
      </trkpt>
      <trkpt lat="45.16986" lon="5.23534">
        <ele>353.17352294922</ele>
        <time>2011-05-11T12:33:54Z</time>
      </trkpt>
      <trkpt lat="45.16995" lon="5.23573">
        <ele>344.98937988281</ele>
        <time>2011-05-11T12:33:57Z</time>
      </trkpt>
      <trkpt lat="45.16993" lon="5.23629">
        <ele>340</ele>
        <time>2011-05-11T12:34:01Z</time>
      </trkpt>
      <trkpt lat="45.16977" lon="5.23663">
        <ele>340</ele>
        <time>2011-05-11T12:34:04Z</time>
      </trkpt>
      <trkpt lat="45.16962" lon="5.23679">
        <ele>340</ele>
        <time>2011-05-11T12:34:06Z</time>
      </trkpt>
      <trkpt lat="45.16939" lon="5.23695">
        <ele>340.10864257812</ele>
        <time>2011-05-11T12:34:09Z</time>
      </trkpt>
      <trkpt lat="45.16907" lon="5.237">
        <ele>340.38616943359</ele>
        <time>2011-05-11T12:34:13Z</time>
      </trkpt>
      <trkpt lat="45.16885" lon="5.23693">
        <ele>340</ele>
        <time>2011-05-11T12:34:16Z</time>
      </trkpt>
      <trkpt lat="45.1687" lon="5.23687">
        <ele>340</ele>
        <time>2011-05-11T12:34:18Z</time>
      </trkpt>
      <trkpt lat="45.16822" lon="5.23661">
        <ele>340</ele>
        <time>2011-05-11T12:34:25Z</time>
      </trkpt>
      <trkpt lat="45.16793" lon="5.23652">
        <ele>340</ele>
        <time>2011-05-11T12:34:29Z</time>
      </trkpt>
      <trkpt lat="45.16758" lon="5.23655">
        <ele>340</ele>
        <time>2011-05-11T12:34:34Z</time>
      </trkpt>
      <trkpt lat="45.16727" lon="5.23662">
        <ele>340</ele>
        <time>2011-05-11T12:34:39Z</time>
      </trkpt>
      <trkpt lat="45.16697" lon="5.2367">
        <ele>340</ele>
        <time>2011-05-11T12:34:43Z</time>
      </trkpt>
      <trkpt lat="45.16629" lon="5.23695">
        <ele>340.01300048828</ele>
        <time>2011-05-11T12:34:52Z</time>
      </trkpt>
      <trkpt lat="45.16556" lon="5.23716">
        <ele>340</ele>
        <time>2011-05-11T12:35:02Z</time>
      </trkpt>
      <trkpt lat="45.16542" lon="5.23722">
        <ele>340</ele>
        <time>2011-05-11T12:35:04Z</time>
      </trkpt>
      <trkpt lat="45.16512" lon="5.23749">
        <ele>340</ele>
        <time>2011-05-11T12:35:09Z</time>
      </trkpt>
      <trkpt lat="45.16499" lon="5.23774">
        <ele>340.82604980469</ele>
        <time>2011-05-11T12:35:12Z</time>
      </trkpt>
      <trkpt lat="45.16485" lon="5.23822">
        <ele>342.68759155273</ele>
        <time>2011-05-11T12:35:17Z</time>
      </trkpt>
      <trkpt lat="45.16484" lon="5.23863">
        <ele>345.56121826172</ele>
        <time>2011-05-11T12:35:21Z</time>
      </trkpt>
      <trkpt lat="45.16497" lon="5.23927">
        <ele>350.28335571289</ele>
        <time>2011-05-11T12:35:28Z</time>
      </trkpt>
      <trkpt lat="45.16512" lon="5.23996">
        <ele>352.44274902344</ele>
        <time>2011-05-11T12:35:36Z</time>
      </trkpt>
      <trkpt lat="45.16528" lon="5.24067">
        <ele>354.42541503906</ele>
        <time>2011-05-11T12:35:45Z</time>
      </trkpt>
      <trkpt lat="45.1654" lon="5.24129">
        <ele>355.44525146484</ele>
        <time>2011-05-11T12:35:53Z</time>
      </trkpt>
      <trkpt lat="45.16547" lon="5.24158">
        <ele>356.39422607422</ele>
        <time>2011-05-11T12:35:57Z</time>
      </trkpt>
      <trkpt lat="45.16563" lon="5.24197">
        <ele>357.37518310547</ele>
        <time>2011-05-11T12:36:03Z</time>
      </trkpt>
      <trkpt lat="45.16592" lon="5.24229">
        <ele>359.31292724609</ele>
        <time>2011-05-11T12:36:10Z</time>
      </trkpt>
      <trkpt lat="45.16623" lon="5.24244">
        <ele>360</ele>
        <time>2011-05-11T12:36:16Z</time>
      </trkpt>
      <trkpt lat="45.16666" lon="5.24256">
        <ele>360.76638793945</ele>
        <time>2011-05-11T12:36:23Z</time>
      </trkpt>
      <trkpt lat="45.16711" lon="5.24269">
        <ele>360.90298461914</ele>
        <time>2011-05-11T12:36:30Z</time>
      </trkpt>
      <trkpt lat="45.16755" lon="5.24283">
        <ele>362.01019287109</ele>
        <time>2011-05-11T12:36:37Z</time>
      </trkpt>
      <trkpt lat="45.16816" lon="5.243">
        <ele>363.04293823242</ele>
        <time>2011-05-11T12:36:46Z</time>
      </trkpt>
      <trkpt lat="45.16863" lon="5.24315">
        <ele>364.41937255859</ele>
        <time>2011-05-11T12:36:53Z</time>
      </trkpt>
      <trkpt lat="45.16907" lon="5.24337">
        <ele>365.04135131836</ele>
        <time>2011-05-11T12:37:00Z</time>
      </trkpt>
      <trkpt lat="45.16922" lon="5.24354">
        <ele>364.90057373047</ele>
        <time>2011-05-11T12:37:03Z</time>
      </trkpt>
      <trkpt lat="45.16936" lon="5.24375">
        <ele>364.88595581055</ele>
        <time>2011-05-11T12:37:06Z</time>
      </trkpt>
      <trkpt lat="45.16954" lon="5.24427">
        <ele>363.6305847168</ele>
        <time>2011-05-11T12:37:12Z</time>
      </trkpt>
      <trkpt lat="45.16953" lon="5.24465">
        <ele>363.41561889648</ele>
        <time>2011-05-11T12:37:16Z</time>
      </trkpt>
      <trkpt lat="45.16942" lon="5.24499">
        <ele>362.69119262695</ele>
        <time>2011-05-11T12:37:20Z</time>
      </trkpt>
      <trkpt lat="45.16933" lon="5.24513">
        <ele>362.8757019043</ele>
        <time>2011-05-11T12:37:22Z</time>
      </trkpt>
      <trkpt lat="45.16895" lon="5.24562">
        <ele>362.05859375</ele>
        <time>2011-05-11T12:37:30Z</time>
      </trkpt>
      <trkpt lat="45.1685" lon="5.24612">
        <ele>365.0403137207</ele>
        <time>2011-05-11T12:37:39Z</time>
      </trkpt>
      <trkpt lat="45.16815" lon="5.24652">
        <ele>366.47448730469</ele>
        <time>2011-05-11T12:37:46Z</time>
      </trkpt>
      <trkpt lat="45.16778" lon="5.24698">
        <ele>368.29254150391</ele>
        <time>2011-05-11T12:37:53Z</time>
      </trkpt>
      <trkpt lat="45.16735" lon="5.24755">
        <ele>369.27874755859</ele>
        <time>2011-05-11T12:38:01Z</time>
      </trkpt>
      <trkpt lat="45.16688" lon="5.24814">
        <ele>369.29971313477</ele>
        <time>2011-05-11T12:38:09Z</time>
      </trkpt>
      <trkpt lat="45.16633" lon="5.24864">
        <ele>366.49481201172</ele>
        <time>2011-05-11T12:38:17Z</time>
      </trkpt>
      <trkpt lat="45.16574" lon="5.24921">
        <ele>361.50848388672</ele>
        <time>2011-05-11T12:38:26Z</time>
      </trkpt>
      <trkpt lat="45.16553" lon="5.24953">
        <ele>360</ele>
        <time>2011-05-11T12:38:30Z</time>
      </trkpt>
      <trkpt lat="45.16526" lon="5.25008">
        <ele>360</ele>
        <time>2011-05-11T12:38:36Z</time>
      </trkpt>
      <trkpt lat="45.16501" lon="5.25057">
        <ele>360.00183105469</ele>
        <time>2011-05-11T12:38:41Z</time>
      </trkpt>
      <trkpt lat="45.16477" lon="5.25087">
        <ele>359.40032958984</ele>
        <time>2011-05-11T12:38:45Z</time>
      </trkpt>
      <trkpt lat="45.16452" lon="5.2511">
        <ele>360.22668457031</ele>
        <time>2011-05-11T12:38:49Z</time>
      </trkpt>
      <trkpt lat="45.16402" lon="5.25156">
        <ele>361.35855102539</ele>
        <time>2011-05-11T12:38:57Z</time>
      </trkpt>
      <trkpt lat="45.16383" lon="5.25174">
        <ele>362.31512451172</ele>
        <time>2011-05-11T12:39:00Z</time>
      </trkpt>
      <trkpt lat="45.16364" lon="5.25189">
        <ele>362.75802612305</ele>
        <time>2011-05-11T12:39:03Z</time>
      </trkpt>
      <trkpt lat="45.16318" lon="5.25214">
        <ele>361.55145263672</ele>
        <time>2011-05-11T12:39:10Z</time>
      </trkpt>
      <trkpt lat="45.16268" lon="5.25238">
        <ele>363.4541015625</ele>
        <time>2011-05-11T12:39:17Z</time>
      </trkpt>
      <trkpt lat="45.16214" lon="5.25267">
        <ele>365.67596435547</ele>
        <time>2011-05-11T12:39:25Z</time>
      </trkpt>
      <trkpt lat="45.16156" lon="5.25295">
        <ele>364.57235717773</ele>
        <time>2011-05-11T12:39:32Z</time>
      </trkpt>
      <trkpt lat="45.1609" lon="5.25307">
        <ele>353.08483886719</ele>
        <time>2011-05-11T12:39:39Z</time>
      </trkpt>
      <trkpt lat="45.1606" lon="5.25316">
        <ele>349.18981933594</ele>
        <time>2011-05-11T12:39:42Z</time>
      </trkpt>
      <trkpt lat="45.16032" lon="5.25335">
        <ele>347.55386352539</ele>
        <time>2011-05-11T12:39:45Z</time>
      </trkpt>
      <trkpt lat="45.16024" lon="5.25343">
        <ele>346.84259033203</ele>
        <time>2011-05-11T12:39:46Z</time>
      </trkpt>
      <trkpt lat="45.15989" lon="5.25376">
        <ele>343.93035888672</ele>
        <time>2011-05-11T12:39:50Z</time>
      </trkpt>
      <trkpt lat="45.15944" lon="5.25413">
        <ele>340.99444580078</ele>
        <time>2011-05-11T12:39:55Z</time>
      </trkpt>
      <trkpt lat="45.15904" lon="5.25436">
        <ele>340</ele>
        <time>2011-05-11T12:39:59Z</time>
      </trkpt>
      <trkpt lat="45.1586" lon="5.25437">
        <ele>339.02969360352</ele>
        <time>2011-05-11T12:40:03Z</time>
      </trkpt>
      <trkpt lat="45.15812" lon="5.25425">
        <ele>338.73883056641</ele>
        <time>2011-05-11T12:40:08Z</time>
      </trkpt>
      <trkpt lat="45.15771" lon="5.25418">
        <ele>339.38507080078</ele>
        <time>2011-05-11T12:40:13Z</time>
      </trkpt>
      <trkpt lat="45.15743" lon="5.25412">
        <ele>339.35083007812</ele>
        <time>2011-05-11T12:40:17Z</time>
      </trkpt>
      <trkpt lat="45.15722" lon="5.2541">
        <ele>338.66693115234</ele>
        <time>2011-05-11T12:40:20Z</time>
      </trkpt>
      <trkpt lat="45.15715" lon="5.25409">
        <ele>337.64193725586</ele>
        <time>2011-05-11T12:40:21Z</time>
      </trkpt>
      <trkpt lat="45.15701" lon="5.25408">
        <ele>335.60797119141</ele>
        <time>2011-05-11T12:40:23Z</time>
      </trkpt>
      <trkpt lat="45.15668" lon="5.25412">
        <ele>334.41232299805</ele>
        <time>2011-05-11T12:40:28Z</time>
      </trkpt>
      <trkpt lat="45.15618" lon="5.25425">
        <ele>335.58660888672</ele>
        <time>2011-05-11T12:40:36Z</time>
      </trkpt>
      <trkpt lat="45.15585" lon="5.25433">
        <ele>336.15997314453</ele>
        <time>2011-05-11T12:40:42Z</time>
      </trkpt>
      <trkpt lat="45.15547" lon="5.25447">
        <ele>341.69094848633</ele>
        <time>2011-05-11T12:40:49Z</time>
      </trkpt>
      <trkpt lat="45.15527" lon="5.25459">
        <ele>345.63262939453</ele>
        <time>2011-05-11T12:40:53Z</time>
      </trkpt>
      <trkpt lat="45.15508" lon="5.25471">
        <ele>347.6513671875</ele>
        <time>2011-05-11T12:40:57Z</time>
      </trkpt>
      <trkpt lat="45.15481" lon="5.25488">
        <ele>347.88021850586</ele>
        <time>2011-05-11T12:41:02Z</time>
      </trkpt>
      <trkpt lat="45.15453" lon="5.25496">
        <ele>346.46228027344</ele>
        <time>2011-05-11T12:41:07Z</time>
      </trkpt>
      <trkpt lat="45.15442" lon="5.25513">
        <ele>346.28375244141</ele>
        <time>2011-05-11T12:41:10Z</time>
      </trkpt>
      <trkpt lat="45.15439" lon="5.25543">
        <ele>347.02520751953</ele>
        <time>2011-05-11T12:41:14Z</time>
      </trkpt>
      <trkpt lat="45.15441" lon="5.25556">
        <ele>347.60101318359</ele>
        <time>2011-05-11T12:41:16Z</time>
      </trkpt>
      <trkpt lat="45.1545" lon="5.25596">
        <ele>348.84130859375</ele>
        <time>2011-05-11T12:41:22Z</time>
      </trkpt>
      <trkpt lat="45.15457" lon="5.25615">
        <ele>349.96923828125</ele>
        <time>2011-05-11T12:41:25Z</time>
      </trkpt>
      <trkpt lat="45.15484" lon="5.25663">
        <ele>355.17764282227</ele>
        <time>2011-05-11T12:41:33Z</time>
      </trkpt>
      <trkpt lat="45.15508" lon="5.257">
        <ele>357.71356201172</ele>
        <time>2011-05-11T12:41:40Z</time>
      </trkpt>
      <trkpt lat="45.15536" lon="5.25746">
        <ele>359.30023193359</ele>
        <time>2011-05-11T12:41:47Z</time>
      </trkpt>
      <trkpt lat="45.15556" lon="5.25776">
        <ele>360.00003051758</ele>
        <time>2011-05-11T12:41:51Z</time>
      </trkpt>
      <trkpt lat="45.15596" lon="5.25819">
        <ele>359.53088378906</ele>
        <time>2011-05-11T12:41:57Z</time>
      </trkpt>
      <trkpt lat="45.15624" lon="5.25861">
        <ele>358.45129394531</ele>
        <time>2011-05-11T12:42:01Z</time>
      </trkpt>
      <trkpt lat="45.15657" lon="5.25926">
        <ele>355.08779907227</ele>
        <time>2011-05-11T12:42:06Z</time>
      </trkpt>
      <trkpt lat="45.15662" lon="5.25977">
        <ele>351.6877746582</ele>
        <time>2011-05-11T12:42:09Z</time>
      </trkpt>
      <trkpt lat="45.15652" lon="5.26011">
        <ele>349.56488037109</ele>
        <time>2011-05-11T12:42:11Z</time>
      </trkpt>
      <trkpt lat="45.15626" lon="5.26096">
        <ele>346.71530151367</ele>
        <time>2011-05-11T12:42:16Z</time>
      </trkpt>
      <trkpt lat="45.15616" lon="5.26193">
        <ele>342.88162231445</ele>
        <time>2011-05-11T12:42:21Z</time>
      </trkpt>
      <trkpt lat="45.15611" lon="5.26254">
        <ele>340</ele>
        <time>2011-05-11T12:42:24Z</time>
      </trkpt>
      <trkpt lat="45.15591" lon="5.26332">
        <ele>338.62438964844</ele>
        <time>2011-05-11T12:42:28Z</time>
      </trkpt>
      <trkpt lat="45.15567" lon="5.26384">
        <ele>334.10015869141</ele>
        <time>2011-05-11T12:42:31Z</time>
      </trkpt>
      <trkpt lat="45.15526" lon="5.26493">
        <ele>320</ele>
        <time>2011-05-11T12:42:37Z</time>
      </trkpt>
      <trkpt lat="45.15511" lon="5.26573">
        <ele>320</ele>
        <time>2011-05-11T12:42:41Z</time>
      </trkpt>
      <trkpt lat="45.15487" lon="5.26644">
        <ele>321.3610534668</ele>
        <time>2011-05-11T12:42:45Z</time>
      </trkpt>
      <trkpt lat="45.15466" lon="5.26691">
        <ele>322.70196533203</ele>
        <time>2011-05-11T12:42:48Z</time>
      </trkpt>
      <trkpt lat="45.15434" lon="5.26761">
        <ele>321.52227783203</ele>
        <time>2011-05-11T12:42:53Z</time>
      </trkpt>
      <trkpt lat="45.15417" lon="5.26799">
        <ele>320</ele>
        <time>2011-05-11T12:42:56Z</time>
      </trkpt>
      <trkpt lat="45.15385" lon="5.26839">
        <ele>317.88949584961</ele>
        <time>2011-05-11T12:43:00Z</time>
      </trkpt>
      <trkpt lat="45.15321" lon="5.26907">
        <ele>305.49020385742</ele>
        <time>2011-05-11T12:43:08Z</time>
      </trkpt>
      <trkpt lat="45.15272" lon="5.26959">
        <ele>300</ele>
        <time>2011-05-11T12:43:14Z</time>
      </trkpt>
      <trkpt lat="45.15208" lon="5.27027">
        <ele>300</ele>
        <time>2011-05-11T12:43:22Z</time>
      </trkpt>
      <trkpt lat="45.1513" lon="5.27108">
        <ele>300</ele>
        <time>2011-05-11T12:43:32Z</time>
      </trkpt>
      <trkpt lat="45.15076" lon="5.27163">
        <ele>300</ele>
        <time>2011-05-11T12:43:39Z</time>
      </trkpt>
      <trkpt lat="45.15009" lon="5.27233">
        <ele>300</ele>
        <time>2011-05-11T12:43:48Z</time>
      </trkpt>
      <trkpt lat="45.14956" lon="5.27285">
        <ele>300</ele>
        <time>2011-05-11T12:43:55Z</time>
      </trkpt>
      <trkpt lat="45.14867" lon="5.27374">
        <ele>300</ele>
        <time>2011-05-11T12:44:07Z</time>
      </trkpt>
      <trkpt lat="45.14791" lon="5.27443">
        <ele>300</ele>
        <time>2011-05-11T12:44:17Z</time>
      </trkpt>
      <trkpt lat="45.14719" lon="5.27492">
        <ele>300</ele>
        <time>2011-05-11T12:44:26Z</time>
      </trkpt>
      <trkpt lat="45.14652" lon="5.27534">
        <ele>299.46734619141</ele>
        <time>2011-05-11T12:44:34Z</time>
      </trkpt>
      <trkpt lat="45.14592" lon="5.27577">
        <ele>297.06661987305</ele>
        <time>2011-05-11T12:44:41Z</time>
      </trkpt>
      <trkpt lat="45.14564" lon="5.27615">
        <ele>295.20666503906</ele>
        <time>2011-05-11T12:44:45Z</time>
      </trkpt>
      <trkpt lat="45.14539" lon="5.27674">
        <ele>291.50277709961</ele>
        <time>2011-05-11T12:44:50Z</time>
      </trkpt>
      <trkpt lat="45.14522" lon="5.27742">
        <ele>289.59631347656</ele>
        <time>2011-05-11T12:44:55Z</time>
      </trkpt>
      <trkpt lat="45.14509" lon="5.27781">
        <ele>288.66247558594</ele>
        <time>2011-05-11T12:44:58Z</time>
      </trkpt>
      <trkpt lat="45.14487" lon="5.27844">
        <ele>287.53472900391</ele>
        <time>2011-05-11T12:45:03Z</time>
      </trkpt>
      <trkpt lat="45.14457" lon="5.27909">
        <ele>286.46356201172</ele>
        <time>2011-05-11T12:45:09Z</time>
      </trkpt>
      <trkpt lat="45.14404" lon="5.2802">
        <ele>284.109375</ele>
        <time>2011-05-11T12:45:20Z</time>
      </trkpt>
      <trkpt lat="45.14368" lon="5.28096">
        <ele>283.26379394531</ele>
        <time>2011-05-11T12:45:28Z</time>
      </trkpt>
      <trkpt lat="45.14358" lon="5.28109">
        <ele>282.89300537109</ele>
        <time>2011-05-11T12:45:30Z</time>
      </trkpt>
      <trkpt lat="45.14352" lon="5.28148">
        <ele>283.22729492188</ele>
        <time>2011-05-11T12:45:34Z</time>
      </trkpt>
      <trkpt lat="45.14346" lon="5.28222">
        <ele>283.98568725586</ele>
        <time>2011-05-11T12:45:42Z</time>
      </trkpt>
      <trkpt lat="45.14341" lon="5.28254">
        <ele>284.04141235352</ele>
        <time>2011-05-11T12:45:46Z</time>
      </trkpt>
      <trkpt lat="45.14338" lon="5.28279">
        <ele>284.15142822266</ele>
        <time>2011-05-11T12:45:49Z</time>
      </trkpt>
      <trkpt lat="45.14317" lon="5.2833">
        <ele>284.34710693359</ele>
        <time>2011-05-11T12:45:55Z</time>
      </trkpt>
      <trkpt lat="45.14291" lon="5.28385">
        <ele>284.36074829102</ele>
        <time>2011-05-11T12:46:02Z</time>
      </trkpt>
      <trkpt lat="45.14273" lon="5.28435">
        <ele>282.81683349609</ele>
        <time>2011-05-11T12:46:08Z</time>
      </trkpt>
      <trkpt lat="45.14241" lon="5.28506">
        <ele>280.52630615234</ele>
        <time>2011-05-11T12:46:17Z</time>
      </trkpt>
      <trkpt lat="45.14229" lon="5.28556">
        <ele>280</ele>
        <time>2011-05-11T12:46:23Z</time>
      </trkpt>
      <trkpt lat="45.1422" lon="5.28593">
        <ele>280</ele>
        <time>2011-05-11T12:46:27Z</time>
      </trkpt>
      <trkpt lat="45.14216" lon="5.28612">
        <ele>280</ele>
        <time>2011-05-11T12:46:29Z</time>
      </trkpt>
      <trkpt lat="45.14203" lon="5.2864">
        <ele>280</ele>
        <time>2011-05-11T12:46:32Z</time>
      </trkpt>
      <trkpt lat="45.14193" lon="5.28668">
        <ele>280</ele>
        <time>2011-05-11T12:46:35Z</time>
      </trkpt>
      <trkpt lat="45.14153" lon="5.28732">
        <ele>280</ele>
        <time>2011-05-11T12:46:43Z</time>
      </trkpt>
      <trkpt lat="45.14142" lon="5.28749">
        <ele>280</ele>
        <time>2011-05-11T12:46:45Z</time>
      </trkpt>
      <trkpt lat="45.14109" lon="5.2878">
        <ele>280</ele>
        <time>2011-05-11T12:46:50Z</time>
      </trkpt>
      <trkpt lat="45.14052" lon="5.28822">
        <ele>279</ele>
        <time>2011-05-11T12:46:58Z</time>
      </trkpt>
      <trkpt lat="45.1403" lon="5.28829">
        <ele>279</ele>
        <time>2011-05-11T12:47:01Z</time>
      </trkpt>
      <trkpt lat="45.14001" lon="5.28848">
        <ele>278.02526855469</ele>
        <time>2011-05-11T12:47:05Z</time>
      </trkpt>
      <trkpt lat="45.13959" lon="5.28886">
        <ele>277.11828613281</ele>
        <time>2011-05-11T12:47:11Z</time>
      </trkpt>
      <trkpt lat="45.13908" lon="5.28931">
        <ele>276</ele>
        <time>2011-05-11T12:47:18Z</time>
      </trkpt>
      <trkpt lat="45.13855" lon="5.28974">
        <ele>274.94598388672</ele>
        <time>2011-05-11T12:47:25Z</time>
      </trkpt>
      <trkpt lat="45.13797" lon="5.29033">
        <ele>273</ele>
        <time>2011-05-11T12:47:33Z</time>
      </trkpt>
      <trkpt lat="45.13758" lon="5.2908">
        <ele>273</ele>
        <time>2011-05-11T12:47:39Z</time>
      </trkpt>
      <trkpt lat="45.13709" lon="5.29148">
        <ele>271</ele>
        <time>2011-05-11T12:47:47Z</time>
      </trkpt>
      <trkpt lat="45.13679" lon="5.29188">
        <ele>270.57046508789</ele>
        <time>2011-05-11T12:47:52Z</time>
      </trkpt>
      <trkpt lat="45.13639" lon="5.29239">
        <ele>270</ele>
        <time>2011-05-11T12:47:59Z</time>
      </trkpt>
      <trkpt lat="45.13634" lon="5.29245">
        <ele>269.81420898438</ele>
        <time>2011-05-11T12:48:00Z</time>
      </trkpt>
      <trkpt lat="45.13592" lon="5.29292">
        <ele>269</ele>
        <time>2011-05-11T12:48:08Z</time>
      </trkpt>
      <trkpt lat="45.13559" lon="5.29329">
        <ele>269</ele>
        <time>2011-05-11T12:48:14Z</time>
      </trkpt>
      <trkpt lat="45.13514" lon="5.29378">
        <ele>268.70919799805</ele>
        <time>2011-05-11T12:48:22Z</time>
      </trkpt>
      <trkpt lat="45.13483" lon="5.29407">
        <ele>268</ele>
        <time>2011-05-11T12:48:28Z</time>
      </trkpt>
      <trkpt lat="45.13464" lon="5.29422">
        <ele>267.94403076172</ele>
        <time>2011-05-11T12:48:33Z</time>
      </trkpt>
      <trkpt lat="45.13448" lon="5.29441">
        <ele>267.20663452148</ele>
        <time>2011-05-11T12:48:39Z</time>
      </trkpt>
      <trkpt lat="45.13429" lon="5.29463">
        <ele>267</ele>
        <time>2011-05-11T12:48:44Z</time>
      </trkpt>
      <trkpt lat="45.13401" lon="5.29493">
        <ele>267</ele>
        <time>2011-05-11T12:48:51Z</time>
      </trkpt>
      <trkpt lat="45.13368" lon="5.29532">
        <ele>267</ele>
        <time>2011-05-11T12:48:58Z</time>
      </trkpt>
      <trkpt lat="45.13319" lon="5.29585">
        <ele>266.95446777344</ele>
        <time>2011-05-11T12:49:07Z</time>
      </trkpt>
      <trkpt lat="45.13275" lon="5.29631">
        <ele>266</ele>
        <time>2011-05-11T12:49:15Z</time>
      </trkpt>
      <trkpt lat="45.13211" lon="5.297">
        <ele>265.61187744141</ele>
        <time>2011-05-11T12:49:27Z</time>
      </trkpt>
      <trkpt lat="45.13166" lon="5.29759">
        <ele>264.99139404297</ele>
        <time>2011-05-11T12:49:36Z</time>
      </trkpt>
      <trkpt lat="45.13122" lon="5.29818">
        <ele>264</ele>
        <time>2011-05-11T12:49:45Z</time>
      </trkpt>
      <trkpt lat="45.13092" lon="5.29857">
        <ele>264</ele>
        <time>2011-05-11T12:49:51Z</time>
      </trkpt>
      <trkpt lat="45.13046" lon="5.29912">
        <ele>263</ele>
        <time>2011-05-11T12:49:59Z</time>
      </trkpt>
      <trkpt lat="45.13005" lon="5.29959">
        <ele>263</ele>
        <time>2011-05-11T12:50:06Z</time>
      </trkpt>
      <trkpt lat="45.12952" lon="5.30014">
        <ele>263</ele>
        <time>2011-05-11T12:50:15Z</time>
      </trkpt>
      <trkpt lat="45.12888" lon="5.30071">
        <ele>261</ele>
        <time>2011-05-11T12:50:25Z</time>
      </trkpt>
      <trkpt lat="45.12823" lon="5.30118">
        <ele>261</ele>
        <time>2011-05-11T12:50:34Z</time>
      </trkpt>
      <trkpt lat="45.12789" lon="5.30129">
        <ele>260.39581298828</ele>
        <time>2011-05-11T12:50:39Z</time>
      </trkpt>
      <trkpt lat="45.12777" lon="5.30133">
        <ele>260</ele>
        <time>2011-05-11T12:50:41Z</time>
      </trkpt>
      <trkpt lat="45.12741" lon="5.30152">
        <ele>260</ele>
        <time>2011-05-11T12:50:47Z</time>
      </trkpt>
      <trkpt lat="45.12711" lon="5.30183">
        <ele>260</ele>
        <time>2011-05-11T12:50:53Z</time>
      </trkpt>
      <trkpt lat="45.12671" lon="5.3023">
        <ele>260</ele>
        <time>2011-05-11T12:51:01Z</time>
      </trkpt>
      <trkpt lat="45.12666" lon="5.30237">
        <ele>260</ele>
        <time>2011-05-11T12:51:02Z</time>
      </trkpt>
      <trkpt lat="45.12648" lon="5.30283">
        <ele>261</ele>
        <time>2011-05-11T12:51:07Z</time>
      </trkpt>
      <trkpt lat="45.12641" lon="5.30316">
        <ele>261</ele>
        <time>2011-05-11T12:51:10Z</time>
      </trkpt>
      <trkpt lat="45.12617" lon="5.30373">
        <ele>260.56503295898</ele>
        <time>2011-05-11T12:51:16Z</time>
      </trkpt>
      <trkpt lat="45.12583" lon="5.30428">
        <ele>261</ele>
        <time>2011-05-11T12:51:23Z</time>
      </trkpt>
      <trkpt lat="45.12542" lon="5.30498">
        <ele>261</ele>
        <time>2011-05-11T12:51:32Z</time>
      </trkpt>
      <trkpt lat="45.12514" lon="5.30549">
        <ele>260.49438476562</ele>
        <time>2011-05-11T12:51:38Z</time>
      </trkpt>
      <trkpt lat="45.12495" lon="5.30556">
        <ele>260</ele>
        <time>2011-05-11T12:51:41Z</time>
      </trkpt>
      <trkpt lat="45.12485" lon="5.30542">
        <ele>260</ele>
        <time>2011-05-11T12:51:43Z</time>
      </trkpt>
      <trkpt lat="45.12481" lon="5.30534">
        <ele>260</ele>
        <time>2011-05-11T12:51:44Z</time>
      </trkpt>
      <trkpt lat="45.12458" lon="5.30499">
        <ele>260</ele>
        <time>2011-05-11T12:51:49Z</time>
      </trkpt>
      <trkpt lat="45.12418" lon="5.3044">
        <ele>260</ele>
        <time>2011-05-11T12:51:57Z</time>
      </trkpt>
      <trkpt lat="45.12387" lon="5.30395">
        <ele>260</ele>
        <time>2011-05-11T12:52:03Z</time>
      </trkpt>
      <trkpt lat="45.12359" lon="5.30381">
        <ele>260</ele>
        <time>2011-05-11T12:52:07Z</time>
      </trkpt>
      <trkpt lat="45.12343" lon="5.30385">
        <ele>260</ele>
        <time>2011-05-11T12:52:09Z</time>
      </trkpt>
      <trkpt lat="45.12275" lon="5.30412">
        <ele>260</ele>
        <time>2011-05-11T12:52:17Z</time>
      </trkpt>
      <trkpt lat="45.12201" lon="5.30432">
        <ele>256.50671386719</ele>
        <time>2011-05-11T12:52:25Z</time>
      </trkpt>
      <trkpt lat="45.12162" lon="5.30431">
        <ele>251.9709777832</ele>
        <time>2011-05-11T12:52:29Z</time>
      </trkpt>
      <trkpt lat="45.12141" lon="5.30431">
        <ele>248.42102050781</ele>
        <time>2011-05-11T12:52:31Z</time>
      </trkpt>
      <trkpt lat="45.12102" lon="5.3045">
        <ele>238.62211608887</ele>
        <time>2011-05-11T12:52:35Z</time>
      </trkpt>
      <trkpt lat="45.12085" lon="5.30487">
        <ele>233.55909729004</ele>
        <time>2011-05-11T12:52:38Z</time>
      </trkpt>
      <trkpt lat="45.12087" lon="5.30517">
        <ele>230.08489990234</ele>
        <time>2011-05-11T12:52:40Z</time>
      </trkpt>
      <trkpt lat="45.12091" lon="5.30533">
        <ele>229.37158203125</ele>
        <time>2011-05-11T12:52:41Z</time>
      </trkpt>
      <trkpt lat="45.12109" lon="5.30594">
        <ele>234.63958740234</ele>
        <time>2011-05-11T12:52:45Z</time>
      </trkpt>
      <trkpt lat="45.12114" lon="5.30609">
        <ele>236.55894470215</ele>
        <time>2011-05-11T12:52:46Z</time>
      </trkpt>
      <trkpt lat="45.12127" lon="5.30673">
        <ele>238.15557861328</ele>
        <time>2011-05-11T12:52:50Z</time>
      </trkpt>
      <trkpt lat="45.12144" lon="5.3077">
        <ele>229.63690185547</ele>
        <time>2011-05-11T12:52:56Z</time>
      </trkpt>
      <trkpt lat="45.1217" lon="5.309">
        <ele>218.57238769531</ele>
        <time>2011-05-11T12:53:04Z</time>
      </trkpt>
      <trkpt lat="45.12194" lon="5.31014">
        <ele>217.54216003418</ele>
        <time>2011-05-11T12:53:11Z</time>
      </trkpt>
      <trkpt lat="45.12217" lon="5.31132">
        <ele>216.37336730957</ele>
        <time>2011-05-11T12:53:18Z</time>
      </trkpt>
      <trkpt lat="45.12228" lon="5.31201">
        <ele>212.31239318848</ele>
        <time>2011-05-11T12:53:22Z</time>
      </trkpt>
      <trkpt lat="45.12244" lon="5.31322">
        <ele>202.16145324707</ele>
        <time>2011-05-11T12:53:29Z</time>
      </trkpt>
      <trkpt lat="45.12248" lon="5.31411">
        <ele>195.65873718262</ele>
        <time>2011-05-11T12:53:34Z</time>
      </trkpt>
      <trkpt lat="45.12249" lon="5.31463">
        <ele>189.81080627441</ele>
        <time>2011-05-11T12:53:37Z</time>
      </trkpt>
      <trkpt lat="45.12265" lon="5.31563">
        <ele>188.82096862793</ele>
        <time>2011-05-11T12:53:43Z</time>
      </trkpt>
      <trkpt lat="45.12267" lon="5.31648">
        <ele>182.76603698731</ele>
        <time>2011-05-11T12:53:48Z</time>
      </trkpt>
      <trkpt lat="45.12267" lon="5.31682">
        <ele>180.00451660156</ele>
        <time>2011-05-11T12:53:50Z</time>
      </trkpt>
      <trkpt lat="45.12282" lon="5.31764">
        <ele>180.85469055176</ele>
        <time>2011-05-11T12:53:55Z</time>
      </trkpt>
      <trkpt lat="45.12301" lon="5.31863">
        <ele>180.93334960938</ele>
        <time>2011-05-11T12:54:01Z</time>
      </trkpt>
      <trkpt lat="45.12305" lon="5.3188">
        <ele>180.47329711914</ele>
        <time>2011-05-11T12:54:02Z</time>
      </trkpt>
      <trkpt lat="45.12313" lon="5.31912">
        <ele>181.20838928223</ele>
        <time>2011-05-11T12:54:04Z</time>
      </trkpt>
      <trkpt lat="45.12342" lon="5.32007">
        <ele>181.45858764648</ele>
        <time>2011-05-11T12:54:10Z</time>
      </trkpt>
      <trkpt lat="45.12371" lon="5.32124">
        <ele>177.3896484375</ele>
        <time>2011-05-11T12:54:17Z</time>
      </trkpt>
      <trkpt lat="45.12384" lon="5.32175">
        <ele>175.18301391602</ele>
        <time>2011-05-11T12:54:20Z</time>
      </trkpt>
      <trkpt lat="45.12414" lon="5.32221">
        <ele>174.72640991211</ele>
        <time>2011-05-11T12:54:24Z</time>
      </trkpt>
      <trkpt lat="45.12444" lon="5.32251">
        <ele>174.7646484375</ele>
        <time>2011-05-11T12:54:28Z</time>
      </trkpt>
      <trkpt lat="45.12445" lon="5.32274">
        <ele>172.47955322266</ele>
        <time>2011-05-11T12:54:31Z</time>
      </trkpt>
      <trkpt lat="45.12442" lon="5.32281">
        <ele>171.43431091309</ele>
        <time>2011-05-11T12:54:32Z</time>
      </trkpt>
      <trkpt lat="45.12419" lon="5.32326">
        <ele>164.84722900391</ele>
        <time>2011-05-11T12:54:38Z</time>
      </trkpt>
      <trkpt lat="45.12412" lon="5.32375">
        <ele>164.40538024902</ele>
        <time>2011-05-11T12:54:43Z</time>
      </trkpt>
      <trkpt lat="45.12417" lon="5.32418">
        <ele>165.03991699219</ele>
        <time>2011-05-11T12:54:47Z</time>
      </trkpt>
      <trkpt lat="45.12431" lon="5.32468">
        <ele>166.02868652344</ele>
        <time>2011-05-11T12:54:52Z</time>
      </trkpt>
      <trkpt lat="45.12457" lon="5.32551">
        <ele>168.77352905273</ele>
        <time>2011-05-11T12:55:01Z</time>
      </trkpt>
      <trkpt lat="45.12481" lon="5.32631">
        <ele>171.70137023926</ele>
        <time>2011-05-11T12:55:10Z</time>
      </trkpt>
      <trkpt lat="45.12503" lon="5.32702">
        <ele>173.52333068848</ele>
        <time>2011-05-11T12:55:18Z</time>
      </trkpt>
      <trkpt lat="45.12529" lon="5.32788">
        <ele>174.54295349121</ele>
        <time>2011-05-11T12:55:28Z</time>
      </trkpt>
      <trkpt lat="45.12555" lon="5.32872">
        <ele>174.62457275391</ele>
        <time>2011-05-11T12:55:38Z</time>
      </trkpt>
      <trkpt lat="45.12562" lon="5.32898">
        <ele>174.06471252441</ele>
        <time>2011-05-11T12:55:41Z</time>
      </trkpt>
      <trkpt lat="45.12564" lon="5.32943">
        <ele>170.87783813477</ele>
        <time>2011-05-11T12:55:46Z</time>
      </trkpt>
      <trkpt lat="45.12555" lon="5.32967">
        <ele>166.32836914062</ele>
        <time>2011-05-11T12:55:49Z</time>
      </trkpt>
      <trkpt lat="45.12539" lon="5.32984">
        <ele>164.46389770508</ele>
        <time>2011-05-11T12:55:52Z</time>
      </trkpt>
      <trkpt lat="45.12473" lon="5.33028">
        <ele>164</ele>
        <time>2011-05-11T12:56:03Z</time>
      </trkpt>
      <trkpt lat="45.12423" lon="5.33061">
        <ele>167.74862670898</ele>
        <time>2011-05-11T12:56:11Z</time>
      </trkpt>
      <trkpt lat="45.12411" lon="5.3307">
        <ele>172.15293884277</ele>
        <time>2011-05-11T12:56:13Z</time>
      </trkpt>
      <trkpt lat="45.12394" lon="5.33094">
        <ele>180.3328704834</ele>
        <time>2011-05-11T12:56:17Z</time>
      </trkpt>
      <trkpt lat="45.1239" lon="5.33132">
        <ele>185.09860229492</ele>
        <time>2011-05-11T12:56:21Z</time>
      </trkpt>
      <trkpt lat="45.124" lon="5.33162">
        <ele>183.67053222656</ele>
        <time>2011-05-11T12:56:24Z</time>
      </trkpt>
      <trkpt lat="45.12423" lon="5.33199">
        <ele>177.9610748291</ele>
        <time>2011-05-11T12:56:28Z</time>
      </trkpt>
      <trkpt lat="45.12452" lon="5.33237">
        <ele>172.00801086426</ele>
        <time>2011-05-11T12:56:32Z</time>
      </trkpt>
      <trkpt lat="45.12468" lon="5.33281">
        <ele>171.71961975098</ele>
        <time>2011-05-11T12:56:36Z</time>
      </trkpt>
      <trkpt lat="45.12469" lon="5.33313">
        <ele>173.87327575684</ele>
        <time>2011-05-11T12:56:39Z</time>
      </trkpt>
      <trkpt lat="45.12467" lon="5.33354">
        <ele>176.09562683106</ele>
        <time>2011-05-11T12:56:44Z</time>
      </trkpt>
      <trkpt lat="45.12468" lon="5.33385">
        <ele>177.99899291992</ele>
        <time>2011-05-11T12:56:48Z</time>
      </trkpt>
      <trkpt lat="45.12473" lon="5.33412">
        <ele>179.63914489746</ele>
        <time>2011-05-11T12:56:52Z</time>
      </trkpt>
      <trkpt lat="45.12477" lon="5.33424">
        <ele>180.29109191894</ele>
        <time>2011-05-11T12:56:54Z</time>
      </trkpt>
      <trkpt lat="45.1249" lon="5.33452">
        <ele>180.95002746582</ele>
        <time>2011-05-11T12:56:59Z</time>
      </trkpt>
      <trkpt lat="45.12503" lon="5.33475">
        <ele>179.73777770996</ele>
        <time>2011-05-11T12:57:04Z</time>
      </trkpt>
      <trkpt lat="45.12516" lon="5.33502">
        <ele>179.86137390137</ele>
        <time>2011-05-11T12:57:10Z</time>
      </trkpt>
      <trkpt lat="45.12521" lon="5.33522">
        <ele>180.56861877441</ele>
        <time>2011-05-11T12:57:15Z</time>
      </trkpt>
      <trkpt lat="45.12525" lon="5.33554">
        <ele>181.39115905762</ele>
        <time>2011-05-11T12:57:21Z</time>
      </trkpt>
      <trkpt lat="45.12534" lon="5.3358">
        <ele>182.12887573242</ele>
        <time>2011-05-11T12:57:27Z</time>
      </trkpt>
      <trkpt lat="45.12553" lon="5.33616">
        <ele>182.61296081543</ele>
        <time>2011-05-11T12:57:36Z</time>
      </trkpt>
      <trkpt lat="45.12571" lon="5.33647">
        <ele>182.14727783203</ele>
        <time>2011-05-11T12:57:44Z</time>
      </trkpt>
      <trkpt lat="45.12579" lon="5.33674">
        <ele>181.40628051758</ele>
        <time>2011-05-11T12:57:50Z</time>
      </trkpt>
      <trkpt lat="45.12573" lon="5.33691">
        <ele>181.59167480469</ele>
        <time>2011-05-11T12:57:54Z</time>
      </trkpt>
      <trkpt lat="45.1256" lon="5.33697">
        <ele>183.14710998535</ele>
        <time>2011-05-11T12:57:58Z</time>
      </trkpt>
      <trkpt lat="45.12543" lon="5.33698">
        <ele>185.49568176269</ele>
        <time>2011-05-11T12:58:03Z</time>
      </trkpt>
      <trkpt lat="45.12517" lon="5.33697">
        <ele>189.99195861816</ele>
        <time>2011-05-11T12:58:10Z</time>
      </trkpt>
      <trkpt lat="45.12493" lon="5.3369">
        <ele>195.61459350586</ele>
        <time>2011-05-11T12:58:17Z</time>
      </trkpt>
      <trkpt lat="45.12481" lon="5.33682">
        <ele>198.26011657715</ele>
        <time>2011-05-11T12:58:23Z</time>
      </trkpt>
      <trkpt lat="45.12477" lon="5.33682">
        <ele>199.02201843262</ele>
        <time>2011-05-11T12:58:25Z</time>
      </trkpt>
      <trkpt lat="45.12474" lon="5.33697">
        <ele>199.58622741699</ele>
        <time>2011-05-11T12:58:29Z</time>
      </trkpt>
      <trkpt lat="45.12475" lon="5.33702">
        <ele>199.35757446289</ele>
        <time>2011-05-11T12:58:30Z</time>
      </trkpt>
      <trkpt lat="45.12484" lon="5.33755">
        <ele>194.22502136231</ele>
        <time>2011-05-11T12:58:38Z</time>
      </trkpt>
      <trkpt lat="45.12494" lon="5.33832">
        <ele>181.26910400391</ele>
        <time>2011-05-11T12:58:48Z</time>
      </trkpt>
      <trkpt lat="45.12504" lon="5.33903">
        <ele>189.62962341309</ele>
        <time>2011-05-11T12:58:57Z</time>
      </trkpt>
      <trkpt lat="45.12497" lon="5.33927">
        <ele>193.00088500977</ele>
        <time>2011-05-11T12:59:01Z</time>
      </trkpt>
      <trkpt lat="45.12486" lon="5.33927">
        <ele>193.52719116211</ele>
        <time>2011-05-11T12:59:04Z</time>
      </trkpt>
      <trkpt lat="45.12483" lon="5.33926">
        <ele>193.47080993652</ele>
        <time>2011-05-11T12:59:05Z</time>
      </trkpt>
      <trkpt lat="45.12464" lon="5.33919">
        <ele>194.10655212402</ele>
        <time>2011-05-11T12:59:12Z</time>
      </trkpt>
      <trkpt lat="45.1244" lon="5.33922">
        <ele>196.45831298828</ele>
        <time>2011-05-11T12:59:19Z</time>
      </trkpt>
      <trkpt lat="45.1242" lon="5.33941">
        <ele>197.85600280762</ele>
        <time>2011-05-11T12:59:26Z</time>
      </trkpt>
      <trkpt lat="45.12408" lon="5.33964">
        <ele>198.38130187988</ele>
        <time>2011-05-11T12:59:32Z</time>
      </trkpt>
      <trkpt lat="45.12404" lon="5.33992">
        <ele>199.57429504394</ele>
        <time>2011-05-11T12:59:38Z</time>
      </trkpt>
      <trkpt lat="45.12407" lon="5.34036">
        <ele>203.24249267578</ele>
        <time>2011-05-11T12:59:47Z</time>
      </trkpt>
      <trkpt lat="45.1241" lon="5.34079">
        <ele>212.08030700684</ele>
        <time>2011-05-11T12:59:56Z</time>
      </trkpt>
      <trkpt lat="45.12415" lon="5.34108">
        <ele>217.18704223633</ele>
        <time>2011-05-11T13:00:02Z</time>
      </trkpt>
      <trkpt lat="45.12417" lon="5.34137">
        <ele>222.71998596191</ele>
        <time>2011-05-11T13:00:08Z</time>
      </trkpt>
      <trkpt lat="45.12415" lon="5.34163">
        <ele>226.09983825684</ele>
        <time>2011-05-11T13:00:14Z</time>
      </trkpt>
      <trkpt lat="45.12415" lon="5.34186">
        <ele>230.03756713867</ele>
        <time>2011-05-11T13:00:19Z</time>
      </trkpt>
      <trkpt lat="45.12421" lon="5.34219">
        <ele>235.22355651856</ele>
        <time>2011-05-11T13:00:26Z</time>
      </trkpt>
      <trkpt lat="45.12429" lon="5.34249">
        <ele>239.47236633301</ele>
        <time>2011-05-11T13:00:33Z</time>
      </trkpt>
      <trkpt lat="45.12439" lon="5.34273">
        <ele>241.20672607422</ele>
        <time>2011-05-11T13:00:39Z</time>
      </trkpt>
      <trkpt lat="45.12447" lon="5.34296">
        <ele>243.89930725098</ele>
        <time>2011-05-11T13:00:45Z</time>
      </trkpt>
      <trkpt lat="45.12454" lon="5.34325">
        <ele>246.72598266602</ele>
        <time>2011-05-11T13:00:52Z</time>
      </trkpt>
      <trkpt lat="45.12467" lon="5.34357">
        <ele>247.06295776367</ele>
        <time>2011-05-11T13:01:00Z</time>
      </trkpt>
      <trkpt lat="45.12475" lon="5.34376">
        <ele>247.10704040527</ele>
        <time>2011-05-11T13:01:05Z</time>
      </trkpt>
      <trkpt lat="45.12486" lon="5.34398">
        <ele>245.76052856445</ele>
        <time>2011-05-11T13:01:11Z</time>
      </trkpt>
      <trkpt lat="45.12497" lon="5.34422">
        <ele>243.83943176269</ele>
        <time>2011-05-11T13:01:17Z</time>
      </trkpt>
      <trkpt lat="45.12508" lon="5.34451">
        <ele>242.73910522461</ele>
        <time>2011-05-11T13:01:24Z</time>
      </trkpt>
      <trkpt lat="45.12519" lon="5.3448">
        <ele>241.46881103516</ele>
        <time>2011-05-11T13:01:31Z</time>
      </trkpt>
      <trkpt lat="45.12529" lon="5.34509">
        <ele>239.73292541504</ele>
        <time>2011-05-11T13:01:38Z</time>
      </trkpt>
      <trkpt lat="45.12534" lon="5.34547">
        <ele>241.17384338379</ele>
        <time>2011-05-11T13:01:46Z</time>
      </trkpt>
      <trkpt lat="45.12533" lon="5.3458">
        <ele>245.91958618164</ele>
        <time>2011-05-11T13:01:53Z</time>
      </trkpt>
      <trkpt lat="45.12535" lon="5.34627">
        <ele>249.53134155273</ele>
        <time>2011-05-11T13:02:03Z</time>
      </trkpt>
      <trkpt lat="45.12538" lon="5.3467">
        <ele>252.77731323242</ele>
        <time>2011-05-11T13:02:12Z</time>
      </trkpt>
      <trkpt lat="45.12537" lon="5.34706">
        <ele>257.21771240234</ele>
        <time>2011-05-11T13:02:20Z</time>
      </trkpt>
      <trkpt lat="45.12529" lon="5.34734">
        <ele>261.35043334961</ele>
        <time>2011-05-11T13:02:27Z</time>
      </trkpt>
      <trkpt lat="45.1252" lon="5.34767">
        <ele>269.08316040039</ele>
        <time>2011-05-11T13:02:35Z</time>
      </trkpt>
      <trkpt lat="45.12522" lon="5.34794">
        <ele>271.77993774414</ele>
        <time>2011-05-11T13:02:41Z</time>
      </trkpt>
      <trkpt lat="45.1253" lon="5.34831">
        <ele>274.05087280273</ele>
        <time>2011-05-11T13:02:49Z</time>
      </trkpt>
      <trkpt lat="45.12528" lon="5.34859">
        <ele>277.65588378906</ele>
        <time>2011-05-11T13:02:55Z</time>
      </trkpt>
      <trkpt lat="45.12522" lon="5.34895">
        <ele>282.70864868164</ele>
        <time>2011-05-11T13:03:03Z</time>
      </trkpt>
      <trkpt lat="45.12524" lon="5.34941">
        <ele>287.02203369141</ele>
        <time>2011-05-11T13:03:13Z</time>
      </trkpt>
      <trkpt lat="45.12525" lon="5.34982">
        <ele>291.29159545898</ele>
        <time>2011-05-11T13:03:22Z</time>
      </trkpt>
      <trkpt lat="45.12538" lon="5.3502">
        <ele>291.07629394531</ele>
        <time>2011-05-11T13:03:31Z</time>
      </trkpt>
      <trkpt lat="45.1255" lon="5.3506">
        <ele>290.84741210938</ele>
        <time>2011-05-11T13:03:40Z</time>
      </trkpt>
      <trkpt lat="45.12553" lon="5.35108">
        <ele>294.37078857422</ele>
        <time>2011-05-11T13:03:50Z</time>
      </trkpt>
      <trkpt lat="45.12547" lon="5.35139">
        <ele>294.17236328125</ele>
        <time>2011-05-11T13:03:57Z</time>
      </trkpt>
      <trkpt lat="45.1254" lon="5.35175">
        <ele>295.62887573242</ele>
        <time>2011-05-11T13:04:05Z</time>
      </trkpt>
      <trkpt lat="45.12546" lon="5.35195">
        <ele>295.73870849609</ele>
        <time>2011-05-11T13:04:10Z</time>
      </trkpt>
      <trkpt lat="45.12563" lon="5.35213">
        <ele>291.99322509766</ele>
        <time>2011-05-11T13:04:16Z</time>
      </trkpt>
      <trkpt lat="45.12584" lon="5.35231">
        <ele>288.51217651367</ele>
        <time>2011-05-11T13:04:23Z</time>
      </trkpt>
      <trkpt lat="45.12597" lon="5.35257">
        <ele>287.55487060547</ele>
        <time>2011-05-11T13:04:30Z</time>
      </trkpt>
      <trkpt lat="45.12603" lon="5.35288">
        <ele>288.99798583984</ele>
        <time>2011-05-11T13:04:37Z</time>
      </trkpt>
      <trkpt lat="45.12603" lon="5.3532">
        <ele>292.63320922852</ele>
        <time>2011-05-11T13:04:44Z</time>
      </trkpt>
      <trkpt lat="45.12605" lon="5.35348">
        <ele>294.73223876953</ele>
        <time>2011-05-11T13:04:50Z</time>
      </trkpt>
      <trkpt lat="45.12614" lon="5.35362">
        <ele>294.91970825195</ele>
        <time>2011-05-11T13:04:54Z</time>
      </trkpt>
      <trkpt lat="45.12638" lon="5.35387">
        <ele>296.81878662109</ele>
        <time>2011-05-11T13:05:02Z</time>
      </trkpt>
      <trkpt lat="45.12653" lon="5.3542">
        <ele>299.70913696289</ele>
        <time>2011-05-11T13:05:10Z</time>
      </trkpt>
      <trkpt lat="45.12666" lon="5.35454">
        <ele>304.16381835938</ele>
        <time>2011-05-11T13:05:18Z</time>
      </trkpt>
      <trkpt lat="45.12683" lon="5.35497">
        <ele>305.84005737305</ele>
        <time>2011-05-11T13:05:28Z</time>
      </trkpt>
      <trkpt lat="45.12694" lon="5.35528">
        <ele>306.3063659668</ele>
        <time>2011-05-11T13:05:35Z</time>
      </trkpt>
      <trkpt lat="45.12694" lon="5.35556">
        <ele>310.27178955078</ele>
        <time>2011-05-11T13:05:41Z</time>
      </trkpt>
      <trkpt lat="45.12698" lon="5.35586">
        <ele>312.62734985352</ele>
        <time>2011-05-11T13:05:48Z</time>
      </trkpt>
      <trkpt lat="45.12702" lon="5.35612">
        <ele>314.26803588867</ele>
        <time>2011-05-11T13:05:54Z</time>
      </trkpt>
      <trkpt lat="45.12692" lon="5.3563">
        <ele>319.03643798828</ele>
        <time>2011-05-11T13:05:59Z</time>
      </trkpt>
      <trkpt lat="45.12674" lon="5.35651">
        <ele>321.81954956055</ele>
        <time>2011-05-11T13:06:06Z</time>
      </trkpt>
      <trkpt lat="45.12661" lon="5.35672">
        <ele>323.38973999023</ele>
        <time>2011-05-11T13:06:12Z</time>
      </trkpt>
      <trkpt lat="45.12648" lon="5.357">
        <ele>324.8244934082</ele>
        <time>2011-05-11T13:06:20Z</time>
      </trkpt>
      <trkpt lat="45.12631" lon="5.35725">
        <ele>326.40753173828</ele>
        <time>2011-05-11T13:06:28Z</time>
      </trkpt>
      <trkpt lat="45.12619" lon="5.35745">
        <ele>327.55252075195</ele>
        <time>2011-05-11T13:06:34Z</time>
      </trkpt>
      <trkpt lat="45.12614" lon="5.35768">
        <ele>328.46356201172</ele>
        <time>2011-05-11T13:06:40Z</time>
      </trkpt>
      <trkpt lat="45.12609" lon="5.35803">
        <ele>330.24304199219</ele>
        <time>2011-05-11T13:06:49Z</time>
      </trkpt>
      <trkpt lat="45.12601" lon="5.35824">
        <ele>332.75701904297</ele>
        <time>2011-05-11T13:06:55Z</time>
      </trkpt>
      <trkpt lat="45.12594" lon="5.35847">
        <ele>335.22894287109</ele>
        <time>2011-05-11T13:07:01Z</time>
      </trkpt>
      <trkpt lat="45.12585" lon="5.35873">
        <ele>338.51498413086</ele>
        <time>2011-05-11T13:07:08Z</time>
      </trkpt>
      <trkpt lat="45.12573" lon="5.35891">
        <ele>340.39224243164</ele>
        <time>2011-05-11T13:07:14Z</time>
      </trkpt>
      <trkpt lat="45.12556" lon="5.35902">
        <ele>341.45693969727</ele>
        <time>2011-05-11T13:07:21Z</time>
      </trkpt>
      <trkpt lat="45.12537" lon="5.35905">
        <ele>341.86199951172</ele>
        <time>2011-05-11T13:07:28Z</time>
      </trkpt>
      <trkpt lat="45.12503" lon="5.3591">
        <ele>343.80773925781</ele>
        <time>2011-05-11T13:07:40Z</time>
      </trkpt>
      <trkpt lat="45.12476" lon="5.35914">
        <ele>345.66040039062</ele>
        <time>2011-05-11T13:07:49Z</time>
      </trkpt>
      <trkpt lat="45.12445" lon="5.35919">
        <ele>346.96380615234</ele>
        <time>2011-05-11T13:07:59Z</time>
      </trkpt>
      <trkpt lat="45.1242" lon="5.35923">
        <ele>348.09771728516</ele>
        <time>2011-05-11T13:08:07Z</time>
      </trkpt>
      <trkpt lat="45.12396" lon="5.35927">
        <ele>349.11798095703</ele>
        <time>2011-05-11T13:08:14Z</time>
      </trkpt>
      <trkpt lat="45.12365" lon="5.35933">
        <ele>352.16955566406</ele>
        <time>2011-05-11T13:08:23Z</time>
      </trkpt>
      <trkpt lat="45.12332" lon="5.35938">
        <ele>353.7961730957</ele>
        <time>2011-05-11T13:08:32Z</time>
      </trkpt>
      <trkpt lat="45.12299" lon="5.35943">
        <ele>354.90093994141</ele>
        <time>2011-05-11T13:08:41Z</time>
      </trkpt>
      <trkpt lat="45.12265" lon="5.35949">
        <ele>354.0793762207</ele>
        <time>2011-05-11T13:08:50Z</time>
      </trkpt>
      <trkpt lat="45.12239" lon="5.35953">
        <ele>350.55032348633</ele>
        <time>2011-05-11T13:08:57Z</time>
      </trkpt>
      <trkpt lat="45.12205" lon="5.35959">
        <ele>340.81076049805</ele>
        <time>2011-05-11T13:09:06Z</time>
      </trkpt>
      <trkpt lat="45.12182" lon="5.35974">
        <ele>333.0998840332</ele>
        <time>2011-05-11T13:09:13Z</time>
      </trkpt>
      <trkpt lat="45.12159" lon="5.36">
        <ele>331.59149169922</ele>
        <time>2011-05-11T13:09:21Z</time>
      </trkpt>
      <trkpt lat="45.12133" lon="5.36036">
        <ele>334.05386352539</ele>
        <time>2011-05-11T13:09:30Z</time>
      </trkpt>
      <trkpt lat="45.12121" lon="5.36068">
        <ele>338.24172973633</ele>
        <time>2011-05-11T13:09:36Z</time>
      </trkpt>
      <trkpt lat="45.12109" lon="5.36109">
        <ele>345</ele>
        <time>2011-05-11T13:09:44Z</time>
      </trkpt>
      <trkpt lat="45.12106" lon="5.36147">
        <ele>355.48934936523</ele>
        <time>2011-05-11T13:09:51Z</time>
      </trkpt>
      <trkpt lat="45.12099" lon="5.36168">
        <ele>357.12451171875</ele>
        <time>2011-05-11T13:09:55Z</time>
      </trkpt>
      <trkpt lat="45.12086" lon="5.36194">
        <ele>360.03366088867</ele>
        <time>2011-05-11T13:10:01Z</time>
      </trkpt>
      <trkpt lat="45.12068" lon="5.36226">
        <ele>361.79623413086</ele>
        <time>2011-05-11T13:10:09Z</time>
      </trkpt>
      <trkpt lat="45.12057" lon="5.36255">
        <ele>364.33782958984</ele>
        <time>2011-05-11T13:10:15Z</time>
      </trkpt>
      <trkpt lat="45.12056" lon="5.36287">
        <ele>366.98880004883</ele>
        <time>2011-05-11T13:10:21Z</time>
      </trkpt>
      <trkpt lat="45.12057" lon="5.36325">
        <ele>370.36633300781</ele>
        <time>2011-05-11T13:10:28Z</time>
      </trkpt>
      <trkpt lat="45.12058" lon="5.36375">
        <ele>374.34469604492</ele>
        <time>2011-05-11T13:10:37Z</time>
      </trkpt>
      <trkpt lat="45.12059" lon="5.36421">
        <ele>375.87603759766</ele>
        <time>2011-05-11T13:10:46Z</time>
      </trkpt>
      <trkpt lat="45.12054" lon="5.36457">
        <ele>377.53945922852</ele>
        <time>2011-05-11T13:10:53Z</time>
      </trkpt>
      <trkpt lat="45.12043" lon="5.36497">
        <ele>380.67578125</ele>
        <time>2011-05-11T13:11:01Z</time>
      </trkpt>
      <trkpt lat="45.12038" lon="5.36534">
        <ele>383.60241699219</ele>
        <time>2011-05-11T13:11:08Z</time>
      </trkpt>
      <trkpt lat="45.12042" lon="5.36571">
        <ele>384.79611206055</ele>
        <time>2011-05-11T13:11:15Z</time>
      </trkpt>
      <trkpt lat="45.1204" lon="5.36591">
        <ele>386.51461791992</ele>
        <time>2011-05-11T13:11:19Z</time>
      </trkpt>
      <trkpt lat="45.12029" lon="5.36593">
        <ele>389.88354492188</ele>
        <time>2011-05-11T13:11:23Z</time>
      </trkpt>
      <trkpt lat="45.12026" lon="5.3659">
        <ele>390.10955810547</ele>
        <time>2011-05-11T13:11:24Z</time>
      </trkpt>
      <trkpt lat="45.12006" lon="5.36562">
        <ele>392.25897216797</ele>
        <time>2011-05-11T13:11:33Z</time>
      </trkpt>
      <trkpt lat="45.11984" lon="5.36529">
        <ele>391.90655517578</ele>
        <time>2011-05-11T13:11:43Z</time>
      </trkpt>
      <trkpt lat="45.11965" lon="5.365">
        <ele>391.99713134766</ele>
        <time>2011-05-11T13:11:52Z</time>
      </trkpt>
      <trkpt lat="45.11947" lon="5.36473">
        <ele>390.76803588867</ele>
        <time>2011-05-11T13:12:01Z</time>
      </trkpt>
      <trkpt lat="45.11927" lon="5.36456">
        <ele>391.76699829102</ele>
        <time>2011-05-11T13:12:10Z</time>
      </trkpt>
      <trkpt lat="45.11909" lon="5.36451">
        <ele>393.54608154297</ele>
        <time>2011-05-11T13:12:17Z</time>
      </trkpt>
      <trkpt lat="45.11878" lon="5.3644">
        <ele>394.69223022461</ele>
        <time>2011-05-11T13:12:29Z</time>
      </trkpt>
      <trkpt lat="45.1186" lon="5.36434">
        <ele>394.60089111328</ele>
        <time>2011-05-11T13:12:36Z</time>
      </trkpt>
      <trkpt lat="45.1184" lon="5.36426">
        <ele>394.41110229492</ele>
        <time>2011-05-11T13:12:44Z</time>
      </trkpt>
      <trkpt lat="45.11821" lon="5.3642">
        <ele>393.61923217773</ele>
        <time>2011-05-11T13:12:51Z</time>
      </trkpt>
      <trkpt lat="45.1179" lon="5.36411">
        <ele>391.79321289062</ele>
        <time>2011-05-11T13:13:02Z</time>
      </trkpt>
      <trkpt lat="45.11765" lon="5.36403">
        <ele>390.56909179688</ele>
        <time>2011-05-11T13:13:11Z</time>
      </trkpt>
      <trkpt lat="45.11747" lon="5.36402">
        <ele>390.36309814453</ele>
        <time>2011-05-11T13:13:17Z</time>
      </trkpt>
      <trkpt lat="45.11728" lon="5.36399">
        <ele>390.12622070312</ele>
        <time>2011-05-11T13:13:24Z</time>
      </trkpt>
      <trkpt lat="45.11699" lon="5.36394">
        <ele>389.54943847656</ele>
        <time>2011-05-11T13:13:34Z</time>
      </trkpt>
      <trkpt lat="45.1167" lon="5.36386">
        <ele>387.43762207031</ele>
        <time>2011-05-11T13:13:44Z</time>
      </trkpt>
      <trkpt lat="45.11647" lon="5.36379">
        <ele>385.88537597656</ele>
        <time>2011-05-11T13:13:52Z</time>
      </trkpt>
      <trkpt lat="45.11621" lon="5.36375">
        <ele>385.06140136719</ele>
        <time>2011-05-11T13:14:01Z</time>
      </trkpt>
      <trkpt lat="45.11602" lon="5.36384">
        <ele>386.22644042969</ele>
        <time>2011-05-11T13:14:08Z</time>
      </trkpt>
      <trkpt lat="45.11589" lon="5.36398">
        <ele>387.93157958984</ele>
        <time>2011-05-11T13:14:14Z</time>
      </trkpt>
      <trkpt lat="45.11575" lon="5.36415">
        <ele>391.38690185547</ele>
        <time>2011-05-11T13:14:21Z</time>
      </trkpt>
      <trkpt lat="45.11558" lon="5.36439">
        <ele>396.94021606445</ele>
        <time>2011-05-11T13:14:30Z</time>
      </trkpt>
      <trkpt lat="45.11546" lon="5.36455">
        <ele>400.45352172852</ele>
        <time>2011-05-11T13:14:36Z</time>
      </trkpt>
      <trkpt lat="45.11531" lon="5.36483">
        <ele>407.18579101562</ele>
        <time>2011-05-11T13:14:45Z</time>
      </trkpt>
      <trkpt lat="45.11515" lon="5.36501">
        <ele>413.306640625</ele>
        <time>2011-05-11T13:14:52Z</time>
      </trkpt>
      <trkpt lat="45.11498" lon="5.36512">
        <ele>415.90216064453</ele>
        <time>2011-05-11T13:14:59Z</time>
      </trkpt>
      <trkpt lat="45.11481" lon="5.36527">
        <ele>419.80746459961</ele>
        <time>2011-05-11T13:15:06Z</time>
      </trkpt>
      <trkpt lat="45.11462" lon="5.36546">
        <ele>429.73263549805</ele>
        <time>2011-05-11T13:15:14Z</time>
      </trkpt>
      <trkpt lat="45.11441" lon="5.36556">
        <ele>435.12762451172</ele>
        <time>2011-05-11T13:15:22Z</time>
      </trkpt>
      <trkpt lat="45.11426" lon="5.36563">
        <ele>437.59954833984</ele>
        <time>2011-05-11T13:15:28Z</time>
      </trkpt>
      <trkpt lat="45.11406" lon="5.36566">
        <ele>440.40600585938</ele>
        <time>2011-05-11T13:15:35Z</time>
      </trkpt>
      <trkpt lat="45.11383" lon="5.36561">
        <ele>441.5166015625</ele>
        <time>2011-05-11T13:15:43Z</time>
      </trkpt>
      <trkpt lat="45.11375" lon="5.36571">
        <ele>444.56530761719</ele>
        <time>2011-05-11T13:15:47Z</time>
      </trkpt>
      <trkpt lat="45.11382" lon="5.36585">
        <ele>448.67758178711</ele>
        <time>2011-05-11T13:15:51Z</time>
      </trkpt>
      <trkpt lat="45.11385" lon="5.36587">
        <ele>449.41915893555</ele>
        <time>2011-05-11T13:15:52Z</time>
      </trkpt>
      <trkpt lat="45.11412" lon="5.36596">
        <ele>451.91665649414</ele>
        <time>2011-05-11T13:16:01Z</time>
      </trkpt>
      <trkpt lat="45.1143" lon="5.36597">
        <ele>452.28427124023</ele>
        <time>2011-05-11T13:16:07Z</time>
      </trkpt>
      <trkpt lat="45.11451" lon="5.36593">
        <ele>450.48184204102</ele>
        <time>2011-05-11T13:16:15Z</time>
      </trkpt>
      <trkpt lat="45.11467" lon="5.36598">
        <ele>453.03100585938</ele>
        <time>2011-05-11T13:16:21Z</time>
      </trkpt>
      <trkpt lat="45.11483" lon="5.366">
        <ele>454.00946044922</ele>
        <time>2011-05-11T13:16:28Z</time>
      </trkpt>
      <trkpt lat="45.11502" lon="5.36596">
        <ele>451.94952392578</ele>
        <time>2011-05-11T13:16:36Z</time>
      </trkpt>
      <trkpt lat="45.11516" lon="5.36589">
        <ele>448.06140136719</ele>
        <time>2011-05-11T13:16:43Z</time>
      </trkpt>
      <trkpt lat="45.1153" lon="5.36571">
        <ele>440.73123168945</ele>
        <time>2011-05-11T13:16:51Z</time>
      </trkpt>
      <trkpt lat="45.11542" lon="5.36562">
        <ele>439.66744995117</ele>
        <time>2011-05-11T13:16:57Z</time>
      </trkpt>
      <trkpt lat="45.11557" lon="5.36552">
        <ele>438.08001708984</ele>
        <time>2011-05-11T13:17:04Z</time>
      </trkpt>
      <trkpt lat="45.11574" lon="5.36546">
        <ele>434.88711547852</ele>
        <time>2011-05-11T13:17:11Z</time>
      </trkpt>
      <trkpt lat="45.11586" lon="5.36548">
        <ele>436.07159423828</ele>
        <time>2011-05-11T13:17:16Z</time>
      </trkpt>
      <trkpt lat="45.11603" lon="5.36558">
        <ele>440.68478393555</ele>
        <time>2011-05-11T13:17:23Z</time>
      </trkpt>
      <trkpt lat="45.11617" lon="5.36574">
        <ele>446.56494140625</ele>
        <time>2011-05-11T13:17:30Z</time>
      </trkpt>
      <trkpt lat="45.11633" lon="5.36597">
        <ele>457.03900146484</ele>
        <time>2011-05-11T13:17:39Z</time>
      </trkpt>
      <trkpt lat="45.11649" lon="5.36612">
        <ele>464.685546875</ele>
        <time>2011-05-11T13:17:46Z</time>
      </trkpt>
      <trkpt lat="45.11667" lon="5.36626">
        <ele>473.31820678711</ele>
        <time>2011-05-11T13:17:54Z</time>
      </trkpt>
      <trkpt lat="45.11688" lon="5.36643">
        <ele>482.91137695312</ele>
        <time>2011-05-11T13:18:03Z</time>
      </trkpt>
      <trkpt lat="45.11699" lon="5.36661">
        <ele>488.3127746582</ele>
        <time>2011-05-11T13:18:09Z</time>
      </trkpt>
      <trkpt lat="45.11703" lon="5.36687">
        <ele>497.33532714844</ele>
        <time>2011-05-11T13:18:16Z</time>
      </trkpt>
      <trkpt lat="45.11706" lon="5.36721">
        <ele>505.1826171875</ele>
        <time>2011-05-11T13:18:25Z</time>
      </trkpt>
      <trkpt lat="45.11708" lon="5.36742">
        <ele>511.54357910156</ele>
        <time>2011-05-11T13:18:31Z</time>
      </trkpt>
      <trkpt lat="45.11716" lon="5.36769">
        <ele>516.32965087891</ele>
        <time>2011-05-11T13:18:38Z</time>
      </trkpt>
      <trkpt lat="45.1172" lon="5.36785">
        <ele>519.74609375</ele>
        <time>2011-05-11T13:18:42Z</time>
      </trkpt>
      <trkpt lat="45.11712" lon="5.36788">
        <ele>522.90930175781</ele>
        <time>2011-05-11T13:18:46Z</time>
      </trkpt>
      <trkpt lat="45.11708" lon="5.3678">
        <ele>520.66058349609</ele>
        <time>2011-05-11T13:18:48Z</time>
      </trkpt>
      <trkpt lat="45.11694" lon="5.3675">
        <ele>516.88250732422</ele>
        <time>2011-05-11T13:18:56Z</time>
      </trkpt>
      <trkpt lat="45.11678" lon="5.36728">
        <ele>511.08306884766</ele>
        <time>2011-05-11T13:19:03Z</time>
      </trkpt>
      <trkpt lat="45.11657" lon="5.36705">
        <ele>504.67086791992</ele>
        <time>2011-05-11T13:19:12Z</time>
      </trkpt>
      <trkpt lat="45.11638" lon="5.36694">
        <ele>499.87322998047</ele>
        <time>2011-05-11T13:19:19Z</time>
      </trkpt>
      <trkpt lat="45.11614" lon="5.36684">
        <ele>494.63409423828</ele>
        <time>2011-05-11T13:19:28Z</time>
      </trkpt>
      <trkpt lat="45.11592" lon="5.36677">
        <ele>490.71676635742</ele>
        <time>2011-05-11T13:19:36Z</time>
      </trkpt>
      <trkpt lat="45.11576" lon="5.36673">
        <ele>487.50149536133</ele>
        <time>2011-05-11T13:19:43Z</time>
      </trkpt>
      <trkpt lat="45.11562" lon="5.3667">
        <ele>484.40991210938</ele>
        <time>2011-05-11T13:19:50Z</time>
      </trkpt>
      <trkpt lat="45.1155" lon="5.36669">
        <ele>482.94323730469</ele>
        <time>2011-05-11T13:19:55Z</time>
      </trkpt>
      <trkpt lat="45.11534" lon="5.36666">
        <ele>481.75692749023</ele>
        <time>2011-05-11T13:20:01Z</time>
      </trkpt>
      <trkpt lat="45.11518" lon="5.36664">
        <ele>481.47372436523</ele>
        <time>2011-05-11T13:20:07Z</time>
      </trkpt>
      <trkpt lat="45.11497" lon="5.36667">
        <ele>483.0442199707</ele>
        <time>2011-05-11T13:20:15Z</time>
      </trkpt>
      <trkpt lat="45.11478" lon="5.36674">
        <ele>483.84759521484</ele>
        <time>2011-05-11T13:20:22Z</time>
      </trkpt>
      <trkpt lat="45.11457" lon="5.36684">
        <ele>487.62725830078</ele>
        <time>2011-05-11T13:20:30Z</time>
      </trkpt>
      <trkpt lat="45.11435" lon="5.36688">
        <ele>488.58920288086</ele>
        <time>2011-05-11T13:20:38Z</time>
      </trkpt>
      <trkpt lat="45.11422" lon="5.36697">
        <ele>490.90112304688</ele>
        <time>2011-05-11T13:20:43Z</time>
      </trkpt>
      <trkpt lat="45.1141" lon="5.36718">
        <ele>496.02630615234</ele>
        <time>2011-05-11T13:20:50Z</time>
      </trkpt>
      <trkpt lat="45.11394" lon="5.36745">
        <ele>515.400390625</ele>
        <time>2011-05-11T13:20:59Z</time>
      </trkpt>
      <trkpt lat="45.1138" lon="5.36762">
        <ele>524.01416015625</ele>
        <time>2011-05-11T13:21:06Z</time>
      </trkpt>
      <trkpt lat="45.11367" lon="5.36772">
        <ele>527.93145751953</ele>
        <time>2011-05-11T13:21:12Z</time>
      </trkpt>
      <trkpt lat="45.11348" lon="5.36782">
        <ele>530.50006103516</ele>
        <time>2011-05-11T13:21:20Z</time>
      </trkpt>
      <trkpt lat="45.11327" lon="5.36791">
        <ele>531.1044921875</ele>
        <time>2011-05-11T13:21:28Z</time>
      </trkpt>
      <trkpt lat="45.11304" lon="5.36795">
        <ele>529.69512939453</ele>
        <time>2011-05-11T13:21:37Z</time>
      </trkpt>
      <trkpt lat="45.11285" lon="5.36802">
        <ele>529.85668945312</ele>
        <time>2011-05-11T13:21:45Z</time>
      </trkpt>
      <trkpt lat="45.11282" lon="5.36814">
        <ele>531.20343017578</ele>
        <time>2011-05-11T13:21:49Z</time>
      </trkpt>
      <trkpt lat="45.1128" lon="5.36835">
        <ele>533.59393310547</ele>
        <time>2011-05-11T13:21:55Z</time>
      </trkpt>
      <trkpt lat="45.11281" lon="5.36865">
        <ele>539.2451171875</ele>
        <time>2011-05-11T13:22:03Z</time>
      </trkpt>
      <trkpt lat="45.11282" lon="5.36892">
        <ele>544.10528564453</ele>
        <time>2011-05-11T13:22:10Z</time>
      </trkpt>
      <trkpt lat="45.11283" lon="5.36919">
        <ele>547.56201171875</ele>
        <time>2011-05-11T13:22:17Z</time>
      </trkpt>
      <trkpt lat="45.11284" lon="5.36942">
        <ele>552.00634765625</ele>
        <time>2011-05-11T13:22:23Z</time>
      </trkpt>
      <trkpt lat="45.11285" lon="5.36967">
        <ele>556.16125488281</ele>
        <time>2011-05-11T13:22:30Z</time>
      </trkpt>
      <trkpt lat="45.11285" lon="5.36989">
        <ele>560.18566894531</ele>
        <time>2011-05-11T13:22:36Z</time>
      </trkpt>
      <trkpt lat="45.11284" lon="5.37015">
        <ele>563.77014160156</ele>
        <time>2011-05-11T13:22:43Z</time>
      </trkpt>
      <trkpt lat="45.11281" lon="5.37047">
        <ele>567.56274414062</ele>
        <time>2011-05-11T13:22:51Z</time>
      </trkpt>
      <trkpt lat="45.11282" lon="5.37073">
        <ele>571.63684082031</ele>
        <time>2011-05-11T13:22:58Z</time>
      </trkpt>
      <trkpt lat="45.11285" lon="5.37106">
        <ele>578.34661865234</ele>
        <time>2011-05-11T13:23:06Z</time>
      </trkpt>
      <trkpt lat="45.1128" lon="5.37139">
        <ele>581.92352294922</ele>
        <time>2011-05-11T13:23:14Z</time>
      </trkpt>
      <trkpt lat="45.11266" lon="5.37175">
        <ele>568.10101318359</ele>
        <time>2011-05-11T13:23:23Z</time>
      </trkpt>
      <trkpt lat="45.11261" lon="5.372">
        <ele>565.97741699219</ele>
        <time>2011-05-11T13:23:29Z</time>
      </trkpt>
      <trkpt lat="45.11254" lon="5.37227">
        <ele>560.06518554688</ele>
        <time>2011-05-11T13:23:36Z</time>
      </trkpt>
      <trkpt lat="45.11248" lon="5.37264">
        <ele>559.5048828125</ele>
        <time>2011-05-11T13:23:45Z</time>
      </trkpt>
      <trkpt lat="45.11245" lon="5.37297">
        <ele>558.65045166016</ele>
        <time>2011-05-11T13:23:53Z</time>
      </trkpt>
      <trkpt lat="45.11253" lon="5.37305">
        <ele>566.53942871094</ele>
        <time>2011-05-11T13:23:56Z</time>
      </trkpt>
      <trkpt lat="45.1126" lon="5.37297">
        <ele>575.94952392578</ele>
        <time>2011-05-11T13:23:59Z</time>
      </trkpt>
      <trkpt lat="45.11261" lon="5.37287">
        <ele>578.36865234375</ele>
        <time>2011-05-11T13:24:01Z</time>
      </trkpt>
      <trkpt lat="45.11265" lon="5.37245">
        <ele>579.21771240234</ele>
        <time>2011-05-11T13:24:09Z</time>
      </trkpt>
      <trkpt lat="45.11276" lon="5.37215">
        <ele>589.44873046875</ele>
        <time>2011-05-11T13:24:16Z</time>
      </trkpt>
      <trkpt lat="45.1129" lon="5.37178">
        <ele>592.86236572266</ele>
        <time>2011-05-11T13:24:25Z</time>
      </trkpt>
      <trkpt lat="45.11304" lon="5.37146">
        <ele>595.26489257812</ele>
        <time>2011-05-11T13:24:33Z</time>
      </trkpt>
      <trkpt lat="45.11314" lon="5.37114">
        <ele>594.21398925781</ele>
        <time>2011-05-11T13:24:41Z</time>
      </trkpt>
      <trkpt lat="45.11312" lon="5.37085">
        <ele>587.61431884766</ele>
        <time>2011-05-11T13:24:47Z</time>
      </trkpt>
      <trkpt lat="45.11314" lon="5.37058">
        <ele>585.67645263672</ele>
        <time>2011-05-11T13:24:53Z</time>
      </trkpt>
      <trkpt lat="45.11324" lon="5.3702">
        <ele>583.91088867188</ele>
        <time>2011-05-11T13:25:02Z</time>
      </trkpt>
      <trkpt lat="45.11331" lon="5.36986">
        <ele>579.94940185547</ele>
        <time>2011-05-11T13:25:10Z</time>
      </trkpt>
      <trkpt lat="45.1134" lon="5.36985">
        <ele>584.568359375</ele>
        <time>2011-05-11T13:25:14Z</time>
      </trkpt>
      <trkpt lat="45.11338" lon="5.37001">
        <ele>588.49810791016</ele>
        <time>2011-05-11T13:25:18Z</time>
      </trkpt>
      <trkpt lat="45.11336" lon="5.37009">
        <ele>588.88604736328</ele>
        <time>2011-05-11T13:25:20Z</time>
      </trkpt>
      <trkpt lat="45.11329" lon="5.37042">
        <ele>592.71984863281</ele>
        <time>2011-05-11T13:25:28Z</time>
      </trkpt>
      <trkpt lat="45.11326" lon="5.37066">
        <ele>595.27227783203</ele>
        <time>2011-05-11T13:25:34Z</time>
      </trkpt>
      <trkpt lat="45.11329" lon="5.37093">
        <ele>599.84130859375</ele>
        <time>2011-05-11T13:25:41Z</time>
      </trkpt>
      <trkpt lat="45.11334" lon="5.37118">
        <ele>606.39233398438</ele>
        <time>2011-05-11T13:25:48Z</time>
      </trkpt>
      <trkpt lat="45.11332" lon="5.37144">
        <ele>608.50054931641</ele>
        <time>2011-05-11T13:25:55Z</time>
      </trkpt>
      <trkpt lat="45.11321" lon="5.37172">
        <ele>606.47448730469</ele>
        <time>2011-05-11T13:26:03Z</time>
      </trkpt>
      <trkpt lat="45.11314" lon="5.37205">
        <ele>605.26397705078</ele>
        <time>2011-05-11T13:26:12Z</time>
      </trkpt>
      <trkpt lat="45.11309" lon="5.37239">
        <ele>606.24133300781</ele>
        <time>2011-05-11T13:26:20Z</time>
      </trkpt>
      <trkpt lat="45.11308" lon="5.37272">
        <ele>609.83001708984</ele>
        <time>2011-05-11T13:26:27Z</time>
      </trkpt>
      <trkpt lat="45.1131" lon="5.37303">
        <ele>611.2998046875</ele>
        <time>2011-05-11T13:26:34Z</time>
      </trkpt>
      <trkpt lat="45.11311" lon="5.37334">
        <ele>610.01947021484</ele>
        <time>2011-05-11T13:26:42Z</time>
      </trkpt>
      <trkpt lat="45.11312" lon="5.37367">
        <ele>606.93237304688</ele>
        <time>2011-05-11T13:26:51Z</time>
      </trkpt>
      <trkpt lat="45.11322" lon="5.37403">
        <ele>608.80712890625</ele>
        <time>2011-05-11T13:27:01Z</time>
      </trkpt>
      <trkpt lat="45.11331" lon="5.37427">
        <ele>609.49182128906</ele>
        <time>2011-05-11T13:27:08Z</time>
      </trkpt>
      <trkpt lat="45.11334" lon="5.37455">
        <ele>606.40802001953</ele>
        <time>2011-05-11T13:27:15Z</time>
      </trkpt>
      <trkpt lat="45.11341" lon="5.37476">
        <ele>607.69104003906</ele>
        <time>2011-05-11T13:27:21Z</time>
      </trkpt>
      <trkpt lat="45.11349" lon="5.37507">
        <ele>608.72174072266</ele>
        <time>2011-05-11T13:27:29Z</time>
      </trkpt>
      <trkpt lat="45.11356" lon="5.37542">
        <ele>608.376953125</ele>
        <time>2011-05-11T13:27:38Z</time>
      </trkpt>
      <trkpt lat="45.11364" lon="5.37567">
        <ele>609.46020507812</ele>
        <time>2011-05-11T13:27:45Z</time>
      </trkpt>
      <trkpt lat="45.11371" lon="5.37592">
        <ele>614.14263916016</ele>
        <time>2011-05-11T13:27:52Z</time>
      </trkpt>
      <trkpt lat="45.11379" lon="5.37615">
        <ele>619.13873291016</ele>
        <time>2011-05-11T13:27:59Z</time>
      </trkpt>
      <trkpt lat="45.11385" lon="5.37642">
        <ele>626.95690917969</ele>
        <time>2011-05-11T13:28:07Z</time>
      </trkpt>
      <trkpt lat="45.11384" lon="5.37664">
        <ele>630.73345947266</ele>
        <time>2011-05-11T13:28:13Z</time>
      </trkpt>
      <trkpt lat="45.1138" lon="5.37682">
        <ele>634.88806152344</ele>
        <time>2011-05-11T13:28:19Z</time>
      </trkpt>
      <trkpt lat="45.11372" lon="5.37702">
        <ele>638.43389892578</ele>
        <time>2011-05-11T13:28:26Z</time>
      </trkpt>
      <trkpt lat="45.11362" lon="5.37711">
        <ele>638.30328369141</ele>
        <time>2011-05-11T13:28:32Z</time>
      </trkpt>
      <trkpt lat="45.11353" lon="5.37717">
        <ele>639.09588623047</ele>
        <time>2011-05-11T13:28:37Z</time>
      </trkpt>
      <trkpt lat="45.1134" lon="5.37727">
        <ele>641.85113525391</ele>
        <time>2011-05-11T13:28:44Z</time>
      </trkpt>
      <trkpt lat="45.1134" lon="5.37728">
        <ele>642.12841796875</ele>
        <time>2011-05-11T13:28:46Z</time>
      </trkpt>
      <trkpt lat="45.11336" lon="5.37732">
        <ele>643.74176025391</ele>
        <time>2011-05-11T13:28:58Z</time>
      </trkpt>
      <trkpt lat="45.11329" lon="5.3774">
        <ele>646.63000488281</ele>
        <time>2011-05-11T13:29:03Z</time>
      </trkpt>
      <trkpt lat="45.11316" lon="5.37751">
        <ele>650.86511230469</ele>
        <time>2011-05-11T13:29:09Z</time>
      </trkpt>
      <trkpt lat="45.11304" lon="5.37755">
        <ele>651.94464111328</ele>
        <time>2011-05-11T13:29:14Z</time>
      </trkpt>
      <trkpt lat="45.11288" lon="5.37757">
        <ele>651.69128417969</ele>
        <time>2011-05-11T13:29:20Z</time>
      </trkpt>
      <trkpt lat="45.11271" lon="5.37757">
        <ele>650.68029785156</ele>
        <time>2011-05-11T13:29:26Z</time>
      </trkpt>
      <trkpt lat="45.11253" lon="5.37761">
        <ele>650.15502929688</ele>
        <time>2011-05-11T13:29:32Z</time>
      </trkpt>
      <trkpt lat="45.11222" lon="5.37767">
        <ele>646.54632568359</ele>
        <time>2011-05-11T13:29:41Z</time>
      </trkpt>
      <trkpt lat="45.11186" lon="5.37778">
        <ele>641.31121826172</ele>
        <time>2011-05-11T13:29:51Z</time>
      </trkpt>
      <trkpt lat="45.11176" lon="5.37784">
        <ele>639.2646484375</ele>
        <time>2011-05-11T13:29:54Z</time>
      </trkpt>
      <trkpt lat="45.11161" lon="5.37793">
        <ele>635.73663330078</ele>
        <time>2011-05-11T13:29:59Z</time>
      </trkpt>
      <trkpt lat="45.11148" lon="5.37813">
        <ele>635.04022216797</ele>
        <time>2011-05-11T13:30:05Z</time>
      </trkpt>
      <trkpt lat="45.11144" lon="5.37838">
        <ele>637.35009765625</ele>
        <time>2011-05-11T13:30:12Z</time>
      </trkpt>
      <trkpt lat="45.11138" lon="5.37864">
        <ele>639.80920410156</ele>
        <time>2011-05-11T13:30:19Z</time>
      </trkpt>
      <trkpt lat="45.11128" lon="5.37882">
        <ele>639.06524658203</ele>
        <time>2011-05-11T13:30:25Z</time>
      </trkpt>
      <trkpt lat="45.11121" lon="5.37906">
        <ele>640.94714355469</ele>
        <time>2011-05-11T13:30:31Z</time>
      </trkpt>
      <trkpt lat="45.11121" lon="5.37914">
        <ele>642.17083740234</ele>
        <time>2011-05-11T13:30:33Z</time>
      </trkpt>
      <trkpt lat="45.11132" lon="5.37925">
        <ele>645.55035400391</ele>
        <time>2011-05-11T13:30:38Z</time>
      </trkpt>
      <trkpt lat="45.11152" lon="5.37939">
        <ele>653.98114013672</ele>
        <time>2011-05-11T13:30:46Z</time>
      </trkpt>
      <trkpt lat="45.11164" lon="5.37948">
        <ele>659.22601318359</ele>
        <time>2011-05-11T13:30:51Z</time>
      </trkpt>
      <trkpt lat="45.11169" lon="5.37956">
        <ele>662.11175537109</ele>
        <time>2011-05-11T13:30:57Z</time>
      </trkpt>
      <trkpt lat="45.11176" lon="5.37959">
        <ele>666.35632324219</ele>
        <time>2011-05-11T13:31:16Z</time>
      </trkpt>
      <trkpt lat="45.1118" lon="5.37966">
        <ele>669.42340087891</ele>
        <time>2011-05-11T13:31:22Z</time>
      </trkpt>
      <trkpt lat="45.11184" lon="5.37965">
        <ele>672.36431884766</ele>
        <time>2011-05-11T13:31:27Z</time>
      </trkpt>
      <trkpt lat="45.11185" lon="5.37961">
        <ele>672.43530273438</ele>
        <time>2011-05-11T13:31:30Z</time>
      </trkpt>
      <trkpt lat="45.11178" lon="5.37955">
        <ele>667.28070068359</ele>
        <time>2011-05-11T13:31:36Z</time>
      </trkpt>
      <trkpt lat="45.11172" lon="5.3796">
        <ele>663.75689697266</ele>
        <time>2011-05-11T13:31:40Z</time>
      </trkpt>
      <trkpt lat="45.11174" lon="5.37963">
        <ele>665.68249511719</ele>
        <time>2011-05-11T13:31:43Z</time>
      </trkpt>
      <trkpt lat="45.11175" lon="5.37963">
        <ele>666.17071533203</ele>
        <time>2011-05-11T13:31:44Z</time>
      </trkpt>
      <trkpt lat="45.11177" lon="5.3796">
        <ele>667.45739746094</ele>
        <time>2011-05-11T13:31:50Z</time>
      </trkpt>
      <trkpt lat="45.11167" lon="5.3795">
        <ele>660.49621582031</ele>
        <time>2011-05-11T13:33:15Z</time>
      </trkpt>
      <trkpt lat="45.11169" lon="5.3795">
        <ele>661.62945556641</ele>
        <time>2011-05-11T13:33:18Z</time>
      </trkpt>
      <trkpt lat="45.11169" lon="5.37951">
        <ele>661.66186523438</ele>
        <time>2011-05-11T13:33:20Z</time>
      </trkpt>
      <trkpt lat="45.11171" lon="5.37959">
        <ele>663.24481201172</ele>
        <time>2011-05-11T13:33:35Z</time>
      </trkpt>
      <trkpt lat="45.11172" lon="5.37958">
        <ele>664.12957763672</ele>
        <time>2011-05-11T13:33:38Z</time>
      </trkpt>
      <trkpt lat="45.11179" lon="5.37959">
        <ele>668.06616210938</ele>
        <time>2011-05-11T13:35:42Z</time>
      </trkpt>
      <trkpt lat="45.1118" lon="5.3796">
        <ele>669.32843017578</ele>
        <time>2011-05-11T13:35:43Z</time>
      </trkpt>
      <trkpt lat="45.1119" lon="5.37968">
        <ele>676.50946044922</ele>
        <time>2011-05-11T13:35:48Z</time>
      </trkpt>
      <trkpt lat="45.11197" lon="5.37978">
        <ele>680.66229248047</ele>
        <time>2011-05-11T13:35:52Z</time>
      </trkpt>
      <trkpt lat="45.11203" lon="5.37991">
        <ele>682.49517822266</ele>
        <time>2011-05-11T13:35:58Z</time>
      </trkpt>
      <trkpt lat="45.11204" lon="5.3799">
        <ele>682.53338623047</ele>
        <time>2011-05-11T13:36:01Z</time>
      </trkpt>
      <trkpt lat="45.11205" lon="5.37995">
        <ele>683.1123046875</ele>
        <time>2011-05-11T13:36:11Z</time>
      </trkpt>
      <trkpt lat="45.11205" lon="5.37997">
        <ele>683.33728027344</ele>
        <time>2011-05-11T13:36:12Z</time>
      </trkpt>
      <trkpt lat="45.11209" lon="5.38014">
        <ele>684.60095214844</ele>
        <time>2011-05-11T13:36:18Z</time>
      </trkpt>
      <trkpt lat="45.11211" lon="5.3804">
        <ele>686.46026611328</ele>
        <time>2011-05-11T13:36:26Z</time>
      </trkpt>
      <trkpt lat="45.11209" lon="5.38053">
        <ele>687.46417236328</ele>
        <time>2011-05-11T13:36:30Z</time>
      </trkpt>
      <trkpt lat="45.11201" lon="5.38069">
        <ele>687.26202392578</ele>
        <time>2011-05-11T13:36:36Z</time>
      </trkpt>
      <trkpt lat="45.11195" lon="5.38083">
        <ele>687.02856445312</ele>
        <time>2011-05-11T13:36:41Z</time>
      </trkpt>
      <trkpt lat="45.11186" lon="5.381">
        <ele>685.06988525391</ele>
        <time>2011-05-11T13:36:47Z</time>
      </trkpt>
      <trkpt lat="45.11179" lon="5.38118">
        <ele>684.32019042969</ele>
        <time>2011-05-11T13:36:52Z</time>
      </trkpt>
      <trkpt lat="45.11173" lon="5.38139">
        <ele>682.60815429688</ele>
        <time>2011-05-11T13:36:58Z</time>
      </trkpt>
      <trkpt lat="45.11167" lon="5.3817">
        <ele>680.30993652344</ele>
        <time>2011-05-11T13:37:06Z</time>
      </trkpt>
      <trkpt lat="45.11163" lon="5.38193">
        <ele>681.22613525391</ele>
        <time>2011-05-11T13:37:12Z</time>
      </trkpt>
      <trkpt lat="45.11151" lon="5.38211">
        <ele>680.95538330078</ele>
        <time>2011-05-11T13:37:18Z</time>
      </trkpt>
      <trkpt lat="45.11134" lon="5.38221">
        <ele>680.26257324219</ele>
        <time>2011-05-11T13:37:25Z</time>
      </trkpt>
      <trkpt lat="45.11123" lon="5.38233">
        <ele>682.37335205078</ele>
        <time>2011-05-11T13:37:31Z</time>
      </trkpt>
      <trkpt lat="45.11116" lon="5.3825">
        <ele>684.67724609375</ele>
        <time>2011-05-11T13:37:37Z</time>
      </trkpt>
      <trkpt lat="45.11108" lon="5.38269">
        <ele>686.88031005859</ele>
        <time>2011-05-11T13:37:44Z</time>
      </trkpt>
      <trkpt lat="45.11102" lon="5.38293">
        <ele>690.45751953125</ele>
        <time>2011-05-11T13:37:52Z</time>
      </trkpt>
      <trkpt lat="45.11104" lon="5.38309">
        <ele>692.06298828125</ele>
        <time>2011-05-11T13:37:57Z</time>
      </trkpt>
      <trkpt lat="45.1111" lon="5.38336">
        <ele>693.44085693359</ele>
        <time>2011-05-11T13:38:06Z</time>
      </trkpt>
      <trkpt lat="45.11115" lon="5.38354">
        <ele>695.17565917969</ele>
        <time>2011-05-11T13:38:12Z</time>
      </trkpt>
      <trkpt lat="45.11121" lon="5.38368">
        <ele>696.92138671875</ele>
        <time>2011-05-11T13:38:17Z</time>
      </trkpt>
      <trkpt lat="45.11131" lon="5.38364">
        <ele>696.38586425781</ele>
        <time>2011-05-11T13:38:22Z</time>
      </trkpt>
      <trkpt lat="45.11131" lon="5.38352">
        <ele>694.84344482422</ele>
        <time>2011-05-11T13:38:25Z</time>
      </trkpt>
      <trkpt lat="45.11126" lon="5.38327">
        <ele>691.98095703125</ele>
        <time>2011-05-11T13:38:32Z</time>
      </trkpt>
      <trkpt lat="45.11129" lon="5.38303">
        <ele>689.98718261719</ele>
        <time>2011-05-11T13:38:38Z</time>
      </trkpt>
      <trkpt lat="45.11135" lon="5.3829">
        <ele>687.95471191406</ele>
        <time>2011-05-11T13:38:42Z</time>
      </trkpt>
      <trkpt lat="45.11153" lon="5.3827">
        <ele>687.63647460938</ele>
        <time>2011-05-11T13:38:50Z</time>
      </trkpt>
      <trkpt lat="45.11166" lon="5.38268">
        <ele>689.86975097656</ele>
        <time>2011-05-11T13:38:55Z</time>
      </trkpt>
      <trkpt lat="45.11185" lon="5.38276">
        <ele>696.81475830078</ele>
        <time>2011-05-11T13:39:02Z</time>
      </trkpt>
      <trkpt lat="45.11204" lon="5.38279">
        <ele>703.81622314453</ele>
        <time>2011-05-11T13:39:09Z</time>
      </trkpt>
      <trkpt lat="45.11216" lon="5.38266">
        <ele>706.27368164062</ele>
        <time>2011-05-11T13:39:15Z</time>
      </trkpt>
      <trkpt lat="45.11222" lon="5.38238">
        <ele>702.89575195312</ele>
        <time>2011-05-11T13:39:23Z</time>
      </trkpt>
      <trkpt lat="45.11227" lon="5.38205">
        <ele>703.95147705078</ele>
        <time>2011-05-11T13:39:32Z</time>
      </trkpt>
      <trkpt lat="45.11233" lon="5.38182">
        <ele>708.79235839844</ele>
        <time>2011-05-11T13:39:39Z</time>
      </trkpt>
      <trkpt lat="45.11246" lon="5.38151">
        <ele>717.64868164062</ele>
        <time>2011-05-11T13:39:49Z</time>
      </trkpt>
      <trkpt lat="45.11261" lon="5.38131">
        <ele>727.57781982422</ele>
        <time>2011-05-11T13:39:57Z</time>
      </trkpt>
      <trkpt lat="45.11275" lon="5.38122">
        <ele>738.01306152344</ele>
        <time>2011-05-11T13:40:04Z</time>
      </trkpt>
      <trkpt lat="45.1129" lon="5.38109">
        <ele>746.67980957031</ele>
        <time>2011-05-11T13:40:11Z</time>
      </trkpt>
      <trkpt lat="45.11297" lon="5.38088">
        <ele>746.77954101562</ele>
        <time>2011-05-11T13:40:18Z</time>
      </trkpt>
      <trkpt lat="45.11299" lon="5.38059">
        <ele>743.84686279297</ele>
        <time>2011-05-11T13:40:26Z</time>
      </trkpt>
      <trkpt lat="45.11305" lon="5.38041">
        <ele>742.18487548828</ele>
        <time>2011-05-11T13:40:32Z</time>
      </trkpt>
      <trkpt lat="45.11316" lon="5.38026">
        <ele>742.64031982422</ele>
        <time>2011-05-11T13:40:39Z</time>
      </trkpt>
      <trkpt lat="45.11323" lon="5.38002">
        <ele>739.8076171875</ele>
        <time>2011-05-11T13:40:47Z</time>
      </trkpt>
      <trkpt lat="45.11329" lon="5.37976">
        <ele>733.2587890625</ele>
        <time>2011-05-11T13:40:55Z</time>
      </trkpt>
      <trkpt lat="45.11342" lon="5.37966">
        <ele>733.49481201172</ele>
        <time>2011-05-11T13:41:01Z</time>
      </trkpt>
      <trkpt lat="45.1137" lon="5.37955">
        <ele>736.10571289062</ele>
        <time>2011-05-11T13:41:12Z</time>
      </trkpt>
      <trkpt lat="45.11391" lon="5.37948">
        <ele>737.33874511719</ele>
        <time>2011-05-11T13:41:20Z</time>
      </trkpt>
      <trkpt lat="45.11414" lon="5.37939">
        <ele>739.88079833984</ele>
        <time>2011-05-11T13:41:29Z</time>
      </trkpt>
      <trkpt lat="45.11438" lon="5.37931">
        <ele>743.60101318359</ele>
        <time>2011-05-11T13:41:39Z</time>
      </trkpt>
      <trkpt lat="45.11458" lon="5.37929">
        <ele>747.26177978516</ele>
        <time>2011-05-11T13:41:47Z</time>
      </trkpt>
      <trkpt lat="45.11479" lon="5.37922">
        <ele>750.39654541016</ele>
        <time>2011-05-11T13:41:56Z</time>
      </trkpt>
      <trkpt lat="45.11497" lon="5.37913">
        <ele>754.263671875</ele>
        <time>2011-05-11T13:42:04Z</time>
      </trkpt>
      <trkpt lat="45.11517" lon="5.379">
        <ele>758.87103271484</ele>
        <time>2011-05-11T13:42:13Z</time>
      </trkpt>
      <trkpt lat="45.1153" lon="5.37884">
        <ele>758.39849853516</ele>
        <time>2011-05-11T13:42:20Z</time>
      </trkpt>
      <trkpt lat="45.11545" lon="5.37859">
        <ele>758.69927978516</ele>
        <time>2011-05-11T13:42:29Z</time>
      </trkpt>
      <trkpt lat="45.11559" lon="5.37852">
        <ele>768.18121337891</ele>
        <time>2011-05-11T13:42:35Z</time>
      </trkpt>
      <trkpt lat="45.11567" lon="5.37863">
        <ele>776.34362792969</ele>
        <time>2011-05-11T13:42:40Z</time>
      </trkpt>
      <trkpt lat="45.11566" lon="5.37879">
        <ele>777.77551269531</ele>
        <time>2011-05-11T13:42:45Z</time>
      </trkpt>
      <trkpt lat="45.11557" lon="5.37905">
        <ele>776.17358398438</ele>
        <time>2011-05-11T13:42:53Z</time>
      </trkpt>
      <trkpt lat="45.11554" lon="5.37923">
        <ele>777.89471435547</ele>
        <time>2011-05-11T13:42:58Z</time>
      </trkpt>
      <trkpt lat="45.11551" lon="5.37938">
        <ele>780.34283447266</ele>
        <time>2011-05-11T13:43:03Z</time>
      </trkpt>
      <trkpt lat="45.11556" lon="5.37957">
        <ele>784.85168457031</ele>
        <time>2011-05-11T13:43:09Z</time>
      </trkpt>
      <trkpt lat="45.11567" lon="5.37965">
        <ele>788.69140625</ele>
        <time>2011-05-11T13:43:15Z</time>
      </trkpt>
      <trkpt lat="45.1158" lon="5.37965">
        <ele>791.9990234375</ele>
        <time>2011-05-11T13:43:21Z</time>
      </trkpt>
      <trkpt lat="45.11595" lon="5.37961">
        <ele>794.08203125</ele>
        <time>2011-05-11T13:43:28Z</time>
      </trkpt>
      <trkpt lat="45.11609" lon="5.37954">
        <ele>795.36749267578</ele>
        <time>2011-05-11T13:43:35Z</time>
      </trkpt>
      <trkpt lat="45.11621" lon="5.37945">
        <ele>794.68115234375</ele>
        <time>2011-05-11T13:43:42Z</time>
      </trkpt>
      <trkpt lat="45.1163" lon="5.37937">
        <ele>793.29357910156</ele>
        <time>2011-05-11T13:43:47Z</time>
      </trkpt>
      <trkpt lat="45.1164" lon="5.37928">
        <ele>791.515625</ele>
        <time>2011-05-11T13:43:53Z</time>
      </trkpt>
      <trkpt lat="45.11649" lon="5.3793">
        <ele>791.49877929688</ele>
        <time>2011-05-11T13:43:58Z</time>
      </trkpt>
      <trkpt lat="45.11649" lon="5.37937">
        <ele>792.75384521484</ele>
        <time>2011-05-11T13:44:01Z</time>
      </trkpt>
      <trkpt lat="45.1164" lon="5.37951">
        <ele>794.73895263672</ele>
        <time>2011-05-11T13:44:08Z</time>
      </trkpt>
      <trkpt lat="45.11632" lon="5.37966">
        <ele>796.39306640625</ele>
        <time>2011-05-11T13:44:14Z</time>
      </trkpt>
      <trkpt lat="45.11622" lon="5.37989">
        <ele>799.31768798828</ele>
        <time>2011-05-11T13:44:23Z</time>
      </trkpt>
      <trkpt lat="45.11612" lon="5.38009">
        <ele>800.05773925781</ele>
        <time>2011-05-11T13:44:31Z</time>
      </trkpt>
      <trkpt lat="45.11601" lon="5.38023">
        <ele>799.80206298828</ele>
        <time>2011-05-11T13:44:38Z</time>
      </trkpt>
      <trkpt lat="45.11593" lon="5.3803">
        <ele>800.48779296875</ele>
        <time>2011-05-11T13:44:43Z</time>
      </trkpt>
      <trkpt lat="45.11588" lon="5.38036">
        <ele>802.14447021484</ele>
        <time>2011-05-11T13:44:47Z</time>
      </trkpt>
      <trkpt lat="45.11581" lon="5.38041">
        <ele>803.02423095703</ele>
        <time>2011-05-11T13:44:52Z</time>
      </trkpt>
      <trkpt lat="45.1157" lon="5.38052">
        <ele>803.73602294922</ele>
        <time>2011-05-11T13:44:59Z</time>
      </trkpt>
      <trkpt lat="45.1156" lon="5.38062">
        <ele>803.884765625</ele>
        <time>2011-05-11T13:45:06Z</time>
      </trkpt>
      <trkpt lat="45.11551" lon="5.3807">
        <ele>804.17950439453</ele>
        <time>2011-05-11T13:45:11Z</time>
      </trkpt>
      <trkpt lat="45.11531" lon="5.38088">
        <ele>806.30224609375</ele>
        <time>2011-05-11T13:45:19Z</time>
      </trkpt>
      <trkpt lat="45.11512" lon="5.38102">
        <ele>808.75994873047</ele>
        <time>2011-05-11T13:45:26Z</time>
      </trkpt>
      <trkpt lat="45.11494" lon="5.38123">
        <ele>813.41827392578</ele>
        <time>2011-05-11T13:45:34Z</time>
      </trkpt>
      <trkpt lat="45.11481" lon="5.38144">
        <ele>815.52960205078</ele>
        <time>2011-05-11T13:45:42Z</time>
      </trkpt>
      <trkpt lat="45.11471" lon="5.38171">
        <ele>818.06567382812</ele>
        <time>2011-05-11T13:45:51Z</time>
      </trkpt>
      <trkpt lat="45.11465" lon="5.38198">
        <ele>824.35168457031</ele>
        <time>2011-05-11T13:46:00Z</time>
      </trkpt>
      <trkpt lat="45.11461" lon="5.38223">
        <ele>827.69860839844</ele>
        <time>2011-05-11T13:46:08Z</time>
      </trkpt>
      <trkpt lat="45.11458" lon="5.38243">
        <ele>831.71795654297</ele>
        <time>2011-05-11T13:46:15Z</time>
      </trkpt>
      <trkpt lat="45.11454" lon="5.38259">
        <ele>833.55487060547</ele>
        <time>2011-05-11T13:46:21Z</time>
      </trkpt>
      <trkpt lat="45.11451" lon="5.38278">
        <ele>835.54797363281</ele>
        <time>2011-05-11T13:46:28Z</time>
      </trkpt>
      <trkpt lat="45.1145" lon="5.38296">
        <ele>838.60357666016</ele>
        <time>2011-05-11T13:46:35Z</time>
      </trkpt>
      <trkpt lat="45.11448" lon="5.38309">
        <ele>840.28192138672</ele>
        <time>2011-05-11T13:46:41Z</time>
      </trkpt>
      <trkpt lat="45.11444" lon="5.38322">
        <ele>839.82989501953</ele>
        <time>2011-05-11T13:46:47Z</time>
      </trkpt>
      <trkpt lat="45.11441" lon="5.38325">
        <ele>838.36944580078</ele>
        <time>2011-05-11T13:46:49Z</time>
      </trkpt>
      <trkpt lat="45.11429" lon="5.3832">
        <ele>832.42633056641</ele>
        <time>2011-05-11T13:46:56Z</time>
      </trkpt>
      <trkpt lat="45.11424" lon="5.38315">
        <ele>830.06085205078</ele>
        <time>2011-05-11T13:46:59Z</time>
      </trkpt>
      <trkpt lat="45.11412" lon="5.38302">
        <ele>822.77777099609</ele>
        <time>2011-05-11T13:47:06Z</time>
      </trkpt>
      <trkpt lat="45.11406" lon="5.38303">
        <ele>819.59210205078</ele>
        <time>2011-05-11T13:47:09Z</time>
      </trkpt>
      <trkpt lat="45.11398" lon="5.38315">
        <ele>815.80285644531</ele>
        <time>2011-05-11T13:47:15Z</time>
      </trkpt>
      <trkpt lat="45.11394" lon="5.38333">
        <ele>814.81427001953</ele>
        <time>2011-05-11T13:47:22Z</time>
      </trkpt>
      <trkpt lat="45.11394" lon="5.38338">
        <ele>815.01684570312</ele>
        <time>2011-05-11T13:47:24Z</time>
      </trkpt>
      <trkpt lat="45.11394" lon="5.38343">
        <ele>815.59344482422</ele>
        <time>2011-05-11T13:47:26Z</time>
      </trkpt>
      <trkpt lat="45.1139" lon="5.38361">
        <ele>814.59637451172</ele>
        <time>2011-05-11T13:47:33Z</time>
      </trkpt>
      <trkpt lat="45.11385" lon="5.38382">
        <ele>815.07366943359</ele>
        <time>2011-05-11T13:47:40Z</time>
      </trkpt>
      <trkpt lat="45.11375" lon="5.38404">
        <ele>815.59204101562</ele>
        <time>2011-05-11T13:47:48Z</time>
      </trkpt>
      <trkpt lat="45.11366" lon="5.38429">
        <ele>816.49346923828</ele>
        <time>2011-05-11T13:47:57Z</time>
      </trkpt>
      <trkpt lat="45.11363" lon="5.38449">
        <ele>817.72589111328</ele>
        <time>2011-05-11T13:48:03Z</time>
      </trkpt>
      <trkpt lat="45.11368" lon="5.38473">
        <ele>821.38403320312</ele>
        <time>2011-05-11T13:48:11Z</time>
      </trkpt>
      <trkpt lat="45.11378" lon="5.38498">
        <ele>829.82952880859</ele>
        <time>2011-05-11T13:48:20Z</time>
      </trkpt>
      <trkpt lat="45.11383" lon="5.38516">
        <ele>835.12103271484</ele>
        <time>2011-05-11T13:48:26Z</time>
      </trkpt>
      <trkpt lat="45.1139" lon="5.38538">
        <ele>840.57098388672</ele>
        <time>2011-05-11T13:48:34Z</time>
      </trkpt>
      <trkpt lat="45.11398" lon="5.38557">
        <ele>844.73486328125</ele>
        <time>2011-05-11T13:48:41Z</time>
      </trkpt>
      <trkpt lat="45.11404" lon="5.38579">
        <ele>850.25732421875</ele>
        <time>2011-05-11T13:48:49Z</time>
      </trkpt>
      <trkpt lat="45.11409" lon="5.38591">
        <ele>854.93804931641</ele>
        <time>2011-05-11T13:48:54Z</time>
      </trkpt>
      <trkpt lat="45.11417" lon="5.38612">
        <ele>864.91033935547</ele>
        <time>2011-05-11T13:49:01Z</time>
      </trkpt>
      <trkpt lat="45.11426" lon="5.38636">
        <ele>869.66540527344</ele>
        <time>2011-05-11T13:49:09Z</time>
      </trkpt>
      <trkpt lat="45.11436" lon="5.38661">
        <ele>875.62878417969</ele>
        <time>2011-05-11T13:49:17Z</time>
      </trkpt>
      <trkpt lat="45.11447" lon="5.38691">
        <ele>883.61560058594</ele>
        <time>2011-05-11T13:49:27Z</time>
      </trkpt>
      <trkpt lat="45.11457" lon="5.38714">
        <ele>888.81091308594</ele>
        <time>2011-05-11T13:49:35Z</time>
      </trkpt>
      <trkpt lat="45.11469" lon="5.38745">
        <ele>890.00677490234</ele>
        <time>2011-05-11T13:49:45Z</time>
      </trkpt>
      <trkpt lat="45.11477" lon="5.38765">
        <ele>890.97863769531</ele>
        <time>2011-05-11T13:49:52Z</time>
      </trkpt>
      <trkpt lat="45.11481" lon="5.38783">
        <ele>891.08056640625</ele>
        <time>2011-05-11T13:49:58Z</time>
      </trkpt>
      <trkpt lat="45.11485" lon="5.38805">
        <ele>891.36651611328</ele>
        <time>2011-05-11T13:50:05Z</time>
      </trkpt>
      <trkpt lat="45.1149" lon="5.38834">
        <ele>893.13922119141</ele>
        <time>2011-05-11T13:50:14Z</time>
      </trkpt>
      <trkpt lat="45.11495" lon="5.38862">
        <ele>894.54888916016</ele>
        <time>2011-05-11T13:50:22Z</time>
      </trkpt>
      <trkpt lat="45.11496" lon="5.38885">
        <ele>896.09973144531</ele>
        <time>2011-05-11T13:50:28Z</time>
      </trkpt>
      <trkpt lat="45.11497" lon="5.38889">
        <ele>896.54931640625</ele>
        <time>2011-05-11T13:50:29Z</time>
      </trkpt>
      <trkpt lat="45.11507" lon="5.3889">
        <ele>900.04418945312</ele>
        <time>2011-05-11T13:50:33Z</time>
      </trkpt>
      <trkpt lat="45.11511" lon="5.38877">
        <ele>900.71588134766</ele>
        <time>2011-05-11T13:50:37Z</time>
      </trkpt>
      <trkpt lat="45.11508" lon="5.38847">
        <ele>899.16949462891</ele>
        <time>2011-05-11T13:50:46Z</time>
      </trkpt>
      <trkpt lat="45.11507" lon="5.38822">
        <ele>900.51940917969</ele>
        <time>2011-05-11T13:50:53Z</time>
      </trkpt>
      <trkpt lat="45.11508" lon="5.38794">
        <ele>903.32940673828</ele>
        <time>2011-05-11T13:51:00Z</time>
      </trkpt>
      <trkpt lat="45.11508" lon="5.38756">
        <ele>906.40325927734</ele>
        <time>2011-05-11T13:51:09Z</time>
      </trkpt>
      <trkpt lat="45.11506" lon="5.38726">
        <ele>908.83984375</ele>
        <time>2011-05-11T13:51:16Z</time>
      </trkpt>
      <trkpt lat="45.11507" lon="5.38698">
        <ele>907.45190429688</ele>
        <time>2011-05-11T13:51:24Z</time>
      </trkpt>
      <trkpt lat="45.11516" lon="5.38688">
        <ele>908.81762695312</ele>
        <time>2011-05-11T13:51:29Z</time>
      </trkpt>
      <trkpt lat="45.11531" lon="5.38693">
        <ele>913.17388916016</ele>
        <time>2011-05-11T13:51:35Z</time>
      </trkpt>
      <trkpt lat="45.11544" lon="5.38704">
        <ele>916.86584472656</ele>
        <time>2011-05-11T13:51:41Z</time>
      </trkpt>
      <trkpt lat="45.1156" lon="5.38715">
        <ele>920.87390136719</ele>
        <time>2011-05-11T13:51:47Z</time>
      </trkpt>
      <trkpt lat="45.11583" lon="5.38731">
        <ele>924.57727050781</ele>
        <time>2011-05-11T13:51:56Z</time>
      </trkpt>
      <trkpt lat="45.11602" lon="5.38735">
        <ele>925.87890625</ele>
        <time>2011-05-11T13:52:04Z</time>
      </trkpt>
      <trkpt lat="45.1162" lon="5.38721">
        <ele>921.91320800781</ele>
        <time>2011-05-11T13:52:12Z</time>
      </trkpt>
      <trkpt lat="45.11634" lon="5.38697">
        <ele>920.00421142578</ele>
        <time>2011-05-11T13:52:21Z</time>
      </trkpt>
      <trkpt lat="45.11642" lon="5.38673">
        <ele>922.41052246094</ele>
        <time>2011-05-11T13:52:29Z</time>
      </trkpt>
      <trkpt lat="45.11649" lon="5.38655">
        <ele>927.23754882812</ele>
        <time>2011-05-11T13:52:35Z</time>
      </trkpt>
      <trkpt lat="45.11652" lon="5.38633">
        <ele>930.13073730469</ele>
        <time>2011-05-11T13:52:42Z</time>
      </trkpt>
      <trkpt lat="45.11653" lon="5.38604">
        <ele>932.69055175781</ele>
        <time>2011-05-11T13:52:51Z</time>
      </trkpt>
      <trkpt lat="45.1165" lon="5.38586">
        <ele>932.64251708984</ele>
        <time>2011-05-11T13:52:57Z</time>
      </trkpt>
      <trkpt lat="45.11649" lon="5.38565">
        <ele>933.07342529297</ele>
        <time>2011-05-11T13:53:04Z</time>
      </trkpt>
      <trkpt lat="45.1165" lon="5.38554">
        <ele>933.94573974609</ele>
        <time>2011-05-11T13:53:08Z</time>
      </trkpt>
      <trkpt lat="45.11658" lon="5.38554">
        <ele>937.07342529297</ele>
        <time>2011-05-11T13:53:13Z</time>
      </trkpt>
      <trkpt lat="45.11658" lon="5.38563">
        <ele>936.95758056641</ele>
        <time>2011-05-11T13:53:18Z</time>
      </trkpt>
      <trkpt lat="45.11657" lon="5.38576">
        <ele>936.46807861328</ele>
        <time>2011-05-11T13:53:24Z</time>
      </trkpt>
      <trkpt lat="45.11658" lon="5.38586">
        <ele>936.31365966797</ele>
        <time>2011-05-11T13:53:29Z</time>
      </trkpt>
      <trkpt lat="45.11661" lon="5.38601">
        <ele>937.12420654297</ele>
        <time>2011-05-11T13:53:36Z</time>
      </trkpt>
      <trkpt lat="45.11666" lon="5.38619">
        <ele>939.41955566406</ele>
        <time>2011-05-11T13:53:44Z</time>
      </trkpt>
      <trkpt lat="45.11668" lon="5.38634">
        <ele>940.25146484375</ele>
        <time>2011-05-11T13:53:50Z</time>
      </trkpt>
      <trkpt lat="45.11672" lon="5.38652">
        <ele>940.99792480469</ele>
        <time>2011-05-11T13:53:57Z</time>
      </trkpt>
      <trkpt lat="45.11673" lon="5.38658">
        <ele>941.13525390625</ele>
        <time>2011-05-11T13:53:59Z</time>
      </trkpt>
      <trkpt lat="45.11675" lon="5.38676">
        <ele>940.33471679688</ele>
        <time>2011-05-11T13:54:05Z</time>
      </trkpt>
      <trkpt lat="45.11677" lon="5.38689">
        <ele>939.41265869141</ele>
        <time>2011-05-11T13:54:10Z</time>
      </trkpt>
      <trkpt lat="45.11677" lon="5.38692">
        <ele>939.1083984375</ele>
        <time>2011-05-11T13:54:11Z</time>
      </trkpt>
      <trkpt lat="45.1168" lon="5.38705">
        <ele>939.35491943359</ele>
        <time>2011-05-11T13:54:16Z</time>
      </trkpt>
      <trkpt lat="45.11681" lon="5.38725">
        <ele>939.57238769531</ele>
        <time>2011-05-11T13:54:25Z</time>
      </trkpt>
      <trkpt lat="45.1168" lon="5.38748">
        <ele>942.07781982422</ele>
        <time>2011-05-11T13:54:34Z</time>
      </trkpt>
      <trkpt lat="45.11679" lon="5.38763">
        <ele>943.09576416016</ele>
        <time>2011-05-11T13:54:40Z</time>
      </trkpt>
      <trkpt lat="45.11679" lon="5.38777">
        <ele>944.16693115234</ele>
        <time>2011-05-11T13:54:46Z</time>
      </trkpt>
      <trkpt lat="45.11677" lon="5.38791">
        <ele>945.67169189453</ele>
        <time>2011-05-11T13:54:52Z</time>
      </trkpt>
      <trkpt lat="45.11671" lon="5.38812">
        <ele>946.75744628906</ele>
        <time>2011-05-11T13:55:00Z</time>
      </trkpt>
      <trkpt lat="45.11664" lon="5.3883">
        <ele>946.99206542969</ele>
        <time>2011-05-11T13:55:08Z</time>
      </trkpt>
      <trkpt lat="45.1166" lon="5.38835">
        <ele>947.24627685547</ele>
        <time>2011-05-11T13:55:11Z</time>
      </trkpt>
      <trkpt lat="45.11647" lon="5.3885">
        <ele>947.10369873047</ele>
        <time>2011-05-11T13:55:19Z</time>
      </trkpt>
      <trkpt lat="45.11639" lon="5.38865">
        <ele>946.29040527344</ele>
        <time>2011-05-11T13:55:25Z</time>
      </trkpt>
      <trkpt lat="45.11632" lon="5.38879">
        <ele>946.01226806641</ele>
        <time>2011-05-11T13:55:31Z</time>
      </trkpt>
      <trkpt lat="45.11628" lon="5.38899">
        <ele>946.34808349609</ele>
        <time>2011-05-11T13:55:39Z</time>
      </trkpt>
      <trkpt lat="45.11628" lon="5.38922">
        <ele>947.78149414062</ele>
        <time>2011-05-11T13:55:47Z</time>
      </trkpt>
      <trkpt lat="45.11627" lon="5.38943">
        <ele>949.19036865234</ele>
        <time>2011-05-11T13:55:54Z</time>
      </trkpt>
      <trkpt lat="45.11625" lon="5.38961">
        <ele>949.73388671875</ele>
        <time>2011-05-11T13:56:00Z</time>
      </trkpt>
      <trkpt lat="45.11619" lon="5.38985">
        <ele>949.88031005859</ele>
        <time>2011-05-11T13:56:07Z</time>
      </trkpt>
      <trkpt lat="45.11612" lon="5.39015">
        <ele>949.88494873047</ele>
        <time>2011-05-11T13:56:16Z</time>
      </trkpt>
      <trkpt lat="45.11603" lon="5.39042">
        <ele>950.765625</ele>
        <time>2011-05-11T13:56:25Z</time>
      </trkpt>
      <trkpt lat="45.11599" lon="5.39068">
        <ele>953.14221191406</ele>
        <time>2011-05-11T13:56:33Z</time>
      </trkpt>
      <trkpt lat="45.11596" lon="5.39095">
        <ele>956.45001220703</ele>
        <time>2011-05-11T13:56:41Z</time>
      </trkpt>
      <trkpt lat="45.11594" lon="5.39119">
        <ele>960.81341552734</ele>
        <time>2011-05-11T13:56:48Z</time>
      </trkpt>
      <trkpt lat="45.11595" lon="5.39152">
        <ele>967.80822753906</ele>
        <time>2011-05-11T13:56:57Z</time>
      </trkpt>
      <trkpt lat="45.11596" lon="5.39177">
        <ele>974.74273681641</ele>
        <time>2011-05-11T13:57:04Z</time>
      </trkpt>
      <trkpt lat="45.11599" lon="5.39204">
        <ele>980.1923828125</ele>
        <time>2011-05-11T13:57:12Z</time>
      </trkpt>
      <trkpt lat="45.116" lon="5.39227">
        <ele>982.73883056641</ele>
        <time>2011-05-11T13:57:19Z</time>
      </trkpt>
      <trkpt lat="45.11602" lon="5.39254">
        <ele>985.65643310547</ele>
        <time>2011-05-11T13:57:27Z</time>
      </trkpt>
      <trkpt lat="45.11604" lon="5.39277">
        <ele>987.6611328125</ele>
        <time>2011-05-11T13:57:34Z</time>
      </trkpt>
      <trkpt lat="45.11608" lon="5.39302">
        <ele>990.53759765625</ele>
        <time>2011-05-11T13:57:42Z</time>
      </trkpt>
      <trkpt lat="45.11611" lon="5.39325">
        <ele>992.39538574219</ele>
        <time>2011-05-11T13:57:49Z</time>
      </trkpt>
      <trkpt lat="45.11614" lon="5.3935">
        <ele>994.81793212891</ele>
        <time>2011-05-11T13:57:56Z</time>
      </trkpt>
      <trkpt lat="45.11617" lon="5.39372">
        <ele>996.76104736328</ele>
        <time>2011-05-11T13:58:02Z</time>
      </trkpt>
      <trkpt lat="45.11622" lon="5.39402">
        <ele>999.68762207031</ele>
        <time>2011-05-11T13:58:10Z</time>
      </trkpt>
      <trkpt lat="45.11628" lon="5.3944">
        <ele>1004.2084960938</ele>
        <time>2011-05-11T13:58:20Z</time>
      </trkpt>
      <trkpt lat="45.11636" lon="5.39481">
        <ele>1007.2788696289</ele>
        <time>2011-05-11T13:58:31Z</time>
      </trkpt>
      <trkpt lat="45.1164" lon="5.39517">
        <ele>1010.1388549805</ele>
        <time>2011-05-11T13:58:40Z</time>
      </trkpt>
      <trkpt lat="45.11641" lon="5.39551">
        <ele>1010.7383422852</ele>
        <time>2011-05-11T13:58:48Z</time>
      </trkpt>
      <trkpt lat="45.11641" lon="5.3958">
        <ele>1010.7383422852</ele>
        <time>2011-05-11T13:58:54Z</time>
      </trkpt>
      <trkpt lat="45.11634" lon="5.39619">
        <ele>1010.1737060547</ele>
        <time>2011-05-11T13:59:02Z</time>
      </trkpt>
      <trkpt lat="45.11628" lon="5.39649">
        <ele>1010.0256347656</ele>
        <time>2011-05-11T13:59:08Z</time>
      </trkpt>
      <trkpt lat="45.11627" lon="5.39661">
        <ele>1009.6325683594</ele>
        <time>2011-05-11T13:59:10Z</time>
      </trkpt>
      <trkpt lat="45.11628" lon="5.39709">
        <ele>1008.7979736328</ele>
        <time>2011-05-11T13:59:16Z</time>
      </trkpt>
      <trkpt lat="45.11627" lon="5.39729">
        <ele>1008.3205566406</ele>
        <time>2011-05-11T13:59:18Z</time>
      </trkpt>
      <trkpt lat="45.11617" lon="5.39771">
        <ele>1006.6223144531</ele>
        <time>2011-05-11T13:59:22Z</time>
      </trkpt>
      <trkpt lat="45.11612" lon="5.3978">
        <ele>1005.9968261719</ele>
        <time>2011-05-11T13:59:23Z</time>
      </trkpt>
      <trkpt lat="45.1158" lon="5.39825">
        <ele>1003.2050170898</ele>
        <time>2011-05-11T13:59:29Z</time>
      </trkpt>
      <trkpt lat="45.11575" lon="5.39832">
        <ele>1002.7432861328</ele>
        <time>2011-05-11T13:59:30Z</time>
      </trkpt>
      <trkpt lat="45.11562" lon="5.39859">
        <ele>1000.3992919922</ele>
        <time>2011-05-11T13:59:33Z</time>
      </trkpt>
      <trkpt lat="45.11558" lon="5.39882">
        <ele>1000.0200805664</ele>
        <time>2011-05-11T13:59:35Z</time>
      </trkpt>
      <trkpt lat="45.11557" lon="5.39958">
        <ele>1000.1636962891</ele>
        <time>2011-05-11T13:59:41Z</time>
      </trkpt>
      <trkpt lat="45.11557" lon="5.39984">
        <ele>1001.0118408203</ele>
        <time>2011-05-11T13:59:44Z</time>
      </trkpt>
      <trkpt lat="45.11557" lon="5.39989">
        <ele>1001.3391723633</ele>
        <time>2011-05-11T13:59:45Z</time>
      </trkpt>
      <trkpt lat="45.11559" lon="5.39993">
        <ele>1001.7747192383</ele>
        <time>2011-05-11T13:59:49Z</time>
      </trkpt>
      <trkpt lat="45.1156" lon="5.39992">
        <ele>1001.7761230469</ele>
        <time>2011-05-11T14:03:43Z</time>
      </trkpt>
      <trkpt lat="45.11559" lon="5.40009">
        <ele>1003.8525390625</ele>
        <time>2011-05-11T14:03:49Z</time>
      </trkpt>
      <trkpt lat="45.11561" lon="5.40027">
        <ele>1006.9342041016</ele>
        <time>2011-05-11T14:03:54Z</time>
      </trkpt>
      <trkpt lat="45.11567" lon="5.40055">
        <ele>1006.3985595703</ele>
        <time>2011-05-11T14:04:01Z</time>
      </trkpt>
      <trkpt lat="45.11575" lon="5.40088">
        <ele>1001.79296875</ele>
        <time>2011-05-11T14:04:08Z</time>
      </trkpt>
      <trkpt lat="45.11578" lon="5.40098">
        <ele>1001.4434814453</ele>
        <time>2011-05-11T14:04:10Z</time>
      </trkpt>
      <trkpt lat="45.11589" lon="5.4012">
        <ele>1001.3746948242</ele>
        <time>2011-05-11T14:04:14Z</time>
      </trkpt>
      <trkpt lat="45.1161" lon="5.40148">
        <ele>1003.8444824219</ele>
        <time>2011-05-11T14:04:19Z</time>
      </trkpt>
      <trkpt lat="45.11639" lon="5.40201">
        <ele>1008.111328125</ele>
        <time>2011-05-11T14:04:27Z</time>
      </trkpt>
      <trkpt lat="45.11665" lon="5.40255">
        <ele>1013.5386962891</ele>
        <time>2011-05-11T14:04:35Z</time>
      </trkpt>
      <trkpt lat="45.1167" lon="5.40291">
        <ele>1012.4532470703</ele>
        <time>2011-05-11T14:04:40Z</time>
      </trkpt>
      <trkpt lat="45.11658" lon="5.40314">
        <ele>1008.6364746094</ele>
        <time>2011-05-11T14:04:44Z</time>
      </trkpt>
      <trkpt lat="45.11642" lon="5.40346">
        <ele>1002.830871582</ele>
        <time>2011-05-11T14:04:51Z</time>
      </trkpt>
      <trkpt lat="45.11646" lon="5.40368">
        <ele>1002.33984375</ele>
        <time>2011-05-11T14:04:55Z</time>
      </trkpt>
      <trkpt lat="45.1166" lon="5.40384">
        <ele>1005.2658691406</ele>
        <time>2011-05-11T14:05:00Z</time>
      </trkpt>
      <trkpt lat="45.11677" lon="5.40401">
        <ele>1009.8184814453</ele>
        <time>2011-05-11T14:05:07Z</time>
      </trkpt>
      <trkpt lat="45.11692" lon="5.40414">
        <ele>1013.2911987305</ele>
        <time>2011-05-11T14:05:13Z</time>
      </trkpt>
      <trkpt lat="45.11706" lon="5.40427">
        <ele>1017.1868896484</ele>
        <time>2011-05-11T14:05:19Z</time>
      </trkpt>
      <trkpt lat="45.11719" lon="5.40446">
        <ele>1021.3944702148</ele>
        <time>2011-05-11T14:05:26Z</time>
      </trkpt>
      <trkpt lat="45.11728" lon="5.40469">
        <ele>1023.7393798828</ele>
        <time>2011-05-11T14:05:33Z</time>
      </trkpt>
      <trkpt lat="45.11732" lon="5.40495">
        <ele>1026.1528320312</ele>
        <time>2011-05-11T14:05:41Z</time>
      </trkpt>
      <trkpt lat="45.11737" lon="5.40515">
        <ele>1027.6627197266</ele>
        <time>2011-05-11T14:05:47Z</time>
      </trkpt>
      <trkpt lat="45.11742" lon="5.40531">
        <ele>1029.1525878906</ele>
        <time>2011-05-11T14:05:53Z</time>
      </trkpt>
      <trkpt lat="45.1175" lon="5.40551">
        <ele>1031.7092285156</ele>
        <time>2011-05-11T14:06:00Z</time>
      </trkpt>
      <trkpt lat="45.11758" lon="5.40567">
        <ele>1032.4044189453</ele>
        <time>2011-05-11T14:06:06Z</time>
      </trkpt>
      <trkpt lat="45.11765" lon="5.40589">
        <ele>1032.345703125</ele>
        <time>2011-05-11T14:06:14Z</time>
      </trkpt>
      <trkpt lat="45.11771" lon="5.4061">
        <ele>1031.5964355469</ele>
        <time>2011-05-11T14:06:21Z</time>
      </trkpt>
      <trkpt lat="45.11771" lon="5.40629">
        <ele>1030.8377685547</ele>
        <time>2011-05-11T14:06:27Z</time>
      </trkpt>
      <trkpt lat="45.11766" lon="5.40659">
        <ele>1029.4627685547</ele>
        <time>2011-05-11T14:06:36Z</time>
      </trkpt>
      <trkpt lat="45.11769" lon="5.40679">
        <ele>1028.4855957031</ele>
        <time>2011-05-11T14:06:42Z</time>
      </trkpt>
      <trkpt lat="45.11784" lon="5.40706">
        <ele>1029.7290039062</ele>
        <time>2011-05-11T14:06:52Z</time>
      </trkpt>
      <trkpt lat="45.11803" lon="5.4072">
        <ele>1035.1431884766</ele>
        <time>2011-05-11T14:07:01Z</time>
      </trkpt>
      <trkpt lat="45.11818" lon="5.40728">
        <ele>1038.7923583984</ele>
        <time>2011-05-11T14:07:08Z</time>
      </trkpt>
      <trkpt lat="45.11833" lon="5.40733">
        <ele>1042.0780029297</ele>
        <time>2011-05-11T14:07:15Z</time>
      </trkpt>
      <trkpt lat="45.11852" lon="5.40738">
        <ele>1044.6030273438</ele>
        <time>2011-05-11T14:07:24Z</time>
      </trkpt>
      <trkpt lat="45.11869" lon="5.4074">
        <ele>1048.5142822266</ele>
        <time>2011-05-11T14:07:32Z</time>
      </trkpt>
      <trkpt lat="45.11889" lon="5.40741">
        <ele>1055.0534667969</ele>
        <time>2011-05-11T14:07:41Z</time>
      </trkpt>
      <trkpt lat="45.11908" lon="5.4074">
        <ele>1058.6928710938</ele>
        <time>2011-05-11T14:07:49Z</time>
      </trkpt>
      <trkpt lat="45.1193" lon="5.40738">
        <ele>1062.8330078125</ele>
        <time>2011-05-11T14:07:58Z</time>
      </trkpt>
      <trkpt lat="45.11948" lon="5.40736">
        <ele>1066.4755859375</ele>
        <time>2011-05-11T14:08:05Z</time>
      </trkpt>
      <trkpt lat="45.11976" lon="5.40736">
        <ele>1074.0209960938</ele>
        <time>2011-05-11T14:08:16Z</time>
      </trkpt>
      <trkpt lat="45.11982" lon="5.40748">
        <ele>1075.0681152344</ele>
        <time>2011-05-11T14:08:20Z</time>
      </trkpt>
      <trkpt lat="45.11979" lon="5.40767">
        <ele>1073.0700683594</ele>
        <time>2011-05-11T14:08:25Z</time>
      </trkpt>
      <trkpt lat="45.11966" lon="5.40796">
        <ele>1067.9212646484</ele>
        <time>2011-05-11T14:08:33Z</time>
      </trkpt>
      <trkpt lat="45.11955" lon="5.40826">
        <ele>1063.5688476562</ele>
        <time>2011-05-11T14:08:41Z</time>
      </trkpt>
      <trkpt lat="45.11952" lon="5.40858">
        <ele>1060.4958496094</ele>
        <time>2011-05-11T14:08:49Z</time>
      </trkpt>
      <trkpt lat="45.11952" lon="5.40887">
        <ele>1058.4969482422</ele>
        <time>2011-05-11T14:08:57Z</time>
      </trkpt>
      <trkpt lat="45.1195" lon="5.40913">
        <ele>1059.9633789062</ele>
        <time>2011-05-11T14:09:04Z</time>
      </trkpt>
      <trkpt lat="45.11943" lon="5.40943">
        <ele>1059.4025878906</ele>
        <time>2011-05-11T14:09:13Z</time>
      </trkpt>
      <trkpt lat="45.11933" lon="5.40975">
        <ele>1056.8468017578</ele>
        <time>2011-05-11T14:09:22Z</time>
      </trkpt>
      <trkpt lat="45.11932" lon="5.41001">
        <ele>1059.1444091797</ele>
        <time>2011-05-11T14:09:29Z</time>
      </trkpt>
      <trkpt lat="45.11939" lon="5.41028">
        <ele>1063.0423583984</ele>
        <time>2011-05-11T14:09:37Z</time>
      </trkpt>
      <trkpt lat="45.1195" lon="5.41058">
        <ele>1070.3455810547</ele>
        <time>2011-05-11T14:09:46Z</time>
      </trkpt>
      <trkpt lat="45.11956" lon="5.41081">
        <ele>1074.0866699219</ele>
        <time>2011-05-11T14:09:53Z</time>
      </trkpt>
      <trkpt lat="45.11959" lon="5.41101">
        <ele>1076.5618896484</ele>
        <time>2011-05-11T14:09:59Z</time>
      </trkpt>
      <trkpt lat="45.11958" lon="5.41108">
        <ele>1076.7816162109</ele>
        <time>2011-05-11T14:10:01Z</time>
      </trkpt>
      <trkpt lat="45.1195" lon="5.41119">
        <ele>1074.5465087891</ele>
        <time>2011-05-11T14:10:06Z</time>
      </trkpt>
      <trkpt lat="45.11937" lon="5.41125">
        <ele>1070.4847412109</ele>
        <time>2011-05-11T14:10:12Z</time>
      </trkpt>
      <trkpt lat="45.11922" lon="5.4113">
        <ele>1066.5227050781</ele>
        <time>2011-05-11T14:10:18Z</time>
      </trkpt>
      <trkpt lat="45.11909" lon="5.41132">
        <ele>1064.5213623047</ele>
        <time>2011-05-11T14:10:23Z</time>
      </trkpt>
      <trkpt lat="45.11884" lon="5.41137">
        <ele>1063.3125</ele>
        <time>2011-05-11T14:10:32Z</time>
      </trkpt>
      <trkpt lat="45.11863" lon="5.41148">
        <ele>1064.0998535156</ele>
        <time>2011-05-11T14:10:40Z</time>
      </trkpt>
      <trkpt lat="45.11845" lon="5.41165">
        <ele>1066.4610595703</ele>
        <time>2011-05-11T14:10:48Z</time>
      </trkpt>
      <trkpt lat="45.11834" lon="5.41186">
        <ele>1070.2523193359</ele>
        <time>2011-05-11T14:10:55Z</time>
      </trkpt>
      <trkpt lat="45.11825" lon="5.41215">
        <ele>1074.4128417969</ele>
        <time>2011-05-11T14:11:03Z</time>
      </trkpt>
      <trkpt lat="45.11812" lon="5.41244">
        <ele>1078.9719238281</ele>
        <time>2011-05-11T14:11:11Z</time>
      </trkpt>
      <trkpt lat="45.11796" lon="5.41263">
        <ele>1079.8892822266</ele>
        <time>2011-05-11T14:11:18Z</time>
      </trkpt>
      <trkpt lat="45.11774" lon="5.41293">
        <ele>1081.2084960938</ele>
        <time>2011-05-11T14:11:28Z</time>
      </trkpt>
      <trkpt lat="45.1176" lon="5.41323">
        <ele>1082.3232421875</ele>
        <time>2011-05-11T14:11:37Z</time>
      </trkpt>
      <trkpt lat="45.11755" lon="5.4135">
        <ele>1084.2752685547</ele>
        <time>2011-05-11T14:11:44Z</time>
      </trkpt>
      <trkpt lat="45.11753" lon="5.41386">
        <ele>1087.1031494141</ele>
        <time>2011-05-11T14:11:53Z</time>
      </trkpt>
      <trkpt lat="45.11758" lon="5.41425">
        <ele>1091.8034667969</ele>
        <time>2011-05-11T14:12:03Z</time>
      </trkpt>
      <trkpt lat="45.11764" lon="5.41445">
        <ele>1094.6031494141</ele>
        <time>2011-05-11T14:12:09Z</time>
      </trkpt>
      <trkpt lat="45.11768" lon="5.41473">
        <ele>1097.0968017578</ele>
        <time>2011-05-11T14:12:16Z</time>
      </trkpt>
      <trkpt lat="45.11773" lon="5.41503">
        <ele>1101.5849609375</ele>
        <time>2011-05-11T14:12:24Z</time>
      </trkpt>
      <trkpt lat="45.1178" lon="5.41534">
        <ele>1104.8572998047</ele>
        <time>2011-05-11T14:12:32Z</time>
      </trkpt>
      <trkpt lat="45.11789" lon="5.41558">
        <ele>1108.3653564453</ele>
        <time>2011-05-11T14:12:39Z</time>
      </trkpt>
      <trkpt lat="45.118" lon="5.41582">
        <ele>1111.5386962891</ele>
        <time>2011-05-11T14:12:47Z</time>
      </trkpt>
      <trkpt lat="45.11812" lon="5.41603">
        <ele>1114.8547363281</ele>
        <time>2011-05-11T14:12:54Z</time>
      </trkpt>
      <trkpt lat="45.11831" lon="5.41629">
        <ele>1120.8679199219</ele>
        <time>2011-05-11T14:13:04Z</time>
      </trkpt>
      <trkpt lat="45.11845" lon="5.41639">
        <ele>1127.6762695312</ele>
        <time>2011-05-11T14:13:11Z</time>
      </trkpt>
      <trkpt lat="45.11864" lon="5.41643">
        <ele>1136.5540771484</ele>
        <time>2011-05-11T14:13:19Z</time>
      </trkpt>
      <trkpt lat="45.11877" lon="5.41644">
        <ele>1142.8000488281</ele>
        <time>2011-05-11T14:13:25Z</time>
      </trkpt>
      <trkpt lat="45.11897" lon="5.41642">
        <ele>1151.5395507812</ele>
        <time>2011-05-11T14:13:33Z</time>
      </trkpt>
      <trkpt lat="45.11914" lon="5.41637">
        <ele>1158.9836425781</ele>
        <time>2011-05-11T14:13:40Z</time>
      </trkpt>
      <trkpt lat="45.11942" lon="5.41631">
        <ele>1160</ele>
        <time>2011-05-11T14:13:51Z</time>
      </trkpt>
      <trkpt lat="45.11962" lon="5.41619">
        <ele>1160</ele>
        <time>2011-05-11T14:13:59Z</time>
      </trkpt>
      <trkpt lat="45.11978" lon="5.41611">
        <ele>1160</ele>
        <time>2011-05-11T14:14:05Z</time>
      </trkpt>
      <trkpt lat="45.11995" lon="5.41608">
        <ele>1160</ele>
        <time>2011-05-11T14:14:11Z</time>
      </trkpt>
      <trkpt lat="45.12012" lon="5.41623">
        <ele>1151.0131835938</ele>
        <time>2011-05-11T14:14:18Z</time>
      </trkpt>
      <trkpt lat="45.1202" lon="5.4165">
        <ele>1145.4123535156</ele>
        <time>2011-05-11T14:14:25Z</time>
      </trkpt>
      <trkpt lat="45.12021" lon="5.41671">
        <ele>1144.3929443359</ele>
        <time>2011-05-11T14:14:31Z</time>
      </trkpt>
      <trkpt lat="45.12021" lon="5.41701">
        <ele>1144.0406494141</ele>
        <time>2011-05-11T14:14:39Z</time>
      </trkpt>
      <trkpt lat="45.12017" lon="5.4174">
        <ele>1144.5073242188</ele>
        <time>2011-05-11T14:14:48Z</time>
      </trkpt>
      <trkpt lat="45.1202" lon="5.41772">
        <ele>1142.7215576172</ele>
        <time>2011-05-11T14:14:55Z</time>
      </trkpt>
      <trkpt lat="45.12029" lon="5.41792">
        <ele>1140.1607666016</ele>
        <time>2011-05-11T14:15:00Z</time>
      </trkpt>
      <trkpt lat="45.12052" lon="5.41807">
        <ele>1142.69140625</ele>
        <time>2011-05-11T14:15:07Z</time>
      </trkpt>
      <trkpt lat="45.12074" lon="5.4182">
        <ele>1153.2640380859</ele>
        <time>2011-05-11T14:15:14Z</time>
      </trkpt>
      <trkpt lat="45.1209" lon="5.41827">
        <ele>1158.6644287109</ele>
        <time>2011-05-11T14:15:19Z</time>
      </trkpt>
      <trkpt lat="45.12116" lon="5.41833">
        <ele>1162.3345947266</ele>
        <time>2011-05-11T14:15:26Z</time>
      </trkpt>
      <trkpt lat="45.12142" lon="5.41838">
        <ele>1163.9053955078</ele>
        <time>2011-05-11T14:15:33Z</time>
      </trkpt>
      <trkpt lat="45.12169" lon="5.41834">
        <ele>1167.3791503906</ele>
        <time>2011-05-11T14:15:40Z</time>
      </trkpt>
      <trkpt lat="45.12192" lon="5.4183">
        <ele>1172.9633789062</ele>
        <time>2011-05-11T14:15:46Z</time>
      </trkpt>
      <trkpt lat="45.12205" lon="5.41833">
        <ele>1174.5257568359</ele>
        <time>2011-05-11T14:15:49Z</time>
      </trkpt>
      <trkpt lat="45.12226" lon="5.41852">
        <ele>1173.9096679688</ele>
        <time>2011-05-11T14:15:55Z</time>
      </trkpt>
      <trkpt lat="45.12239" lon="5.41881">
        <ele>1171.0305175781</ele>
        <time>2011-05-11T14:16:02Z</time>
      </trkpt>
      <trkpt lat="45.12246" lon="5.41901">
        <ele>1168.8355712891</ele>
        <time>2011-05-11T14:16:09Z</time>
      </trkpt>
      <trkpt lat="45.12256" lon="5.41917">
        <ele>1167.6147460938</ele>
        <time>2011-05-11T14:16:15Z</time>
      </trkpt>
      <trkpt lat="45.12268" lon="5.4193">
        <ele>1167.3538818359</ele>
        <time>2011-05-11T14:16:21Z</time>
      </trkpt>
      <trkpt lat="45.12284" lon="5.41944">
        <ele>1168.0803222656</ele>
        <time>2011-05-11T14:16:28Z</time>
      </trkpt>
      <trkpt lat="45.12298" lon="5.41957">
        <ele>1171.6060791016</ele>
        <time>2011-05-11T14:16:34Z</time>
      </trkpt>
      <trkpt lat="45.12311" lon="5.41971">
        <ele>1174.2764892578</ele>
        <time>2011-05-11T14:16:40Z</time>
      </trkpt>
      <trkpt lat="45.12317" lon="5.41984">
        <ele>1175.4959716797</ele>
        <time>2011-05-11T14:16:45Z</time>
      </trkpt>
      <trkpt lat="45.12329" lon="5.42001">
        <ele>1176.9011230469</ele>
        <time>2011-05-11T14:16:52Z</time>
      </trkpt>
      <trkpt lat="45.12343" lon="5.4201">
        <ele>1179.5501708984</ele>
        <time>2011-05-11T14:16:59Z</time>
      </trkpt>
      <trkpt lat="45.12355" lon="5.42007">
        <ele>1182.1573486328</ele>
        <time>2011-05-11T14:17:05Z</time>
      </trkpt>
      <trkpt lat="45.12364" lon="5.41988">
        <ele>1182.2794189453</ele>
        <time>2011-05-11T14:17:12Z</time>
      </trkpt>
      <trkpt lat="45.12368" lon="5.4197">
        <ele>1181.6103515625</ele>
        <time>2011-05-11T14:17:17Z</time>
      </trkpt>
      <trkpt lat="45.12372" lon="5.4195">
        <ele>1182.0799560547</ele>
        <time>2011-05-11T14:17:22Z</time>
      </trkpt>
      <trkpt lat="45.12381" lon="5.4193">
        <ele>1183.1409912109</ele>
        <time>2011-05-11T14:17:28Z</time>
      </trkpt>
      <trkpt lat="45.12397" lon="5.41912">
        <ele>1184.4979248047</ele>
        <time>2011-05-11T14:17:35Z</time>
      </trkpt>
      <trkpt lat="45.12411" lon="5.41904">
        <ele>1185.5520019531</ele>
        <time>2011-05-11T14:17:41Z</time>
      </trkpt>
      <trkpt lat="45.1243" lon="5.41901">
        <ele>1188.2457275391</ele>
        <time>2011-05-11T14:17:48Z</time>
      </trkpt>
      <trkpt lat="45.12446" lon="5.419">
        <ele>1190.876953125</ele>
        <time>2011-05-11T14:17:54Z</time>
      </trkpt>
      <trkpt lat="45.12459" lon="5.419">
        <ele>1191.8107910156</ele>
        <time>2011-05-11T14:17:59Z</time>
      </trkpt>
      <trkpt lat="45.12479" lon="5.41899">
        <ele>1193.31640625</ele>
        <time>2011-05-11T14:18:06Z</time>
      </trkpt>
      <trkpt lat="45.125" lon="5.41889">
        <ele>1195.0211181641</ele>
        <time>2011-05-11T14:18:13Z</time>
      </trkpt>
      <trkpt lat="45.12519" lon="5.41884">
        <ele>1197.0025634766</ele>
        <time>2011-05-11T14:18:20Z</time>
      </trkpt>
      <trkpt lat="45.12547" lon="5.41886">
        <ele>1198.6892089844</ele>
        <time>2011-05-11T14:18:30Z</time>
      </trkpt>
      <trkpt lat="45.12564" lon="5.41895">
        <ele>1199.2551269531</ele>
        <time>2011-05-11T14:18:37Z</time>
      </trkpt>
      <trkpt lat="45.12568" lon="5.419">
        <ele>1199.2587890625</ele>
        <time>2011-05-11T14:18:40Z</time>
      </trkpt>
      <trkpt lat="45.1257" lon="5.41922">
        <ele>1199</ele>
        <time>2011-05-11T14:18:46Z</time>
      </trkpt>
      <trkpt lat="45.12572" lon="5.41946">
        <ele>1199</ele>
        <time>2011-05-11T14:18:51Z</time>
      </trkpt>
      <trkpt lat="45.12579" lon="5.41985">
        <ele>1198.5250244141</ele>
        <time>2011-05-11T14:18:59Z</time>
      </trkpt>
      <trkpt lat="45.12587" lon="5.42025">
        <ele>1198</ele>
        <time>2011-05-11T14:19:07Z</time>
      </trkpt>
      <trkpt lat="45.126" lon="5.42059">
        <ele>1198.4461669922</ele>
        <time>2011-05-11T14:19:14Z</time>
      </trkpt>
      <trkpt lat="45.12617" lon="5.42092">
        <ele>1197.7839355469</ele>
        <time>2011-05-11T14:19:21Z</time>
      </trkpt>
      <trkpt lat="45.12631" lon="5.42136">
        <ele>1196.9053955078</ele>
        <time>2011-05-11T14:19:29Z</time>
      </trkpt>
      <trkpt lat="45.12645" lon="5.42181">
        <ele>1197.7358398438</ele>
        <time>2011-05-11T14:19:37Z</time>
      </trkpt>
      <trkpt lat="45.12663" lon="5.42224">
        <ele>1198.2635498047</ele>
        <time>2011-05-11T14:19:45Z</time>
      </trkpt>
      <trkpt lat="45.1268" lon="5.42267">
        <ele>1198.9132080078</ele>
        <time>2011-05-11T14:19:53Z</time>
      </trkpt>
      <trkpt lat="45.12686" lon="5.42283">
        <ele>1199.2651367188</ele>
        <time>2011-05-11T14:19:56Z</time>
      </trkpt>
      <trkpt lat="45.12697" lon="5.42324">
        <ele>1199.2252197266</ele>
        <time>2011-05-11T14:20:03Z</time>
      </trkpt>
      <trkpt lat="45.12698" lon="5.4233">
        <ele>1199.2354736328</ele>
        <time>2011-05-11T14:20:04Z</time>
      </trkpt>
      <trkpt lat="45.12699" lon="5.42348">
        <ele>1201.2432861328</ele>
        <time>2011-05-11T14:20:07Z</time>
      </trkpt>
      <trkpt lat="45.12689" lon="5.42396">
        <ele>1209.8319091797</ele>
        <time>2011-05-11T14:20:15Z</time>
      </trkpt>
      <trkpt lat="45.12682" lon="5.42437">
        <ele>1218.7242431641</ele>
        <time>2011-05-11T14:20:22Z</time>
      </trkpt>
      <trkpt lat="45.12671" lon="5.42496">
        <ele>1230.4105224609</ele>
        <time>2011-05-11T14:20:31Z</time>
      </trkpt>
      <trkpt lat="45.12658" lon="5.4254">
        <ele>1236.3078613281</ele>
        <time>2011-05-11T14:20:38Z</time>
      </trkpt>
      <trkpt lat="45.12639" lon="5.4259">
        <ele>1241.5179443359</ele>
        <time>2011-05-11T14:20:47Z</time>
      </trkpt>
      <trkpt lat="45.12635" lon="5.42618">
        <ele>1240.6990966797</ele>
        <time>2011-05-11T14:20:52Z</time>
      </trkpt>
      <trkpt lat="45.12641" lon="5.42653">
        <ele>1235.5343017578</ele>
        <time>2011-05-11T14:20:59Z</time>
      </trkpt>
      <trkpt lat="45.12653" lon="5.4267">
        <ele>1229.0811767578</ele>
        <time>2011-05-11T14:21:04Z</time>
      </trkpt>
      <trkpt lat="45.12671" lon="5.42678">
        <ele>1221.9216308594</ele>
        <time>2011-05-11T14:21:10Z</time>
      </trkpt>
      <trkpt lat="45.1269" lon="5.42678">
        <ele>1216.6973876953</ele>
        <time>2011-05-11T14:21:16Z</time>
      </trkpt>
      <trkpt lat="45.12711" lon="5.42675">
        <ele>1212.6108398438</ele>
        <time>2011-05-11T14:21:23Z</time>
      </trkpt>
      <trkpt lat="45.12728" lon="5.42669">
        <ele>1208.9392089844</ele>
        <time>2011-05-11T14:21:29Z</time>
      </trkpt>
      <trkpt lat="45.12738" lon="5.42662">
        <ele>1205.7750244141</ele>
        <time>2011-05-11T14:21:34Z</time>
      </trkpt>
      <trkpt lat="45.12753" lon="5.42653">
        <ele>1201.3820800781</ele>
        <time>2011-05-11T14:21:41Z</time>
      </trkpt>
      <trkpt lat="45.12767" lon="5.42646">
        <ele>1200.0086669922</ele>
        <time>2011-05-11T14:21:47Z</time>
      </trkpt>
      <trkpt lat="45.12784" lon="5.42644">
        <ele>1199.5391845703</ele>
        <time>2011-05-11T14:21:52Z</time>
      </trkpt>
      <trkpt lat="45.12793" lon="5.42643">
        <ele>1199.4001464844</ele>
        <time>2011-05-11T14:21:56Z</time>
      </trkpt>
      <trkpt lat="45.12811" lon="5.42646">
        <ele>1199.8737792969</ele>
        <time>2011-05-11T14:22:02Z</time>
      </trkpt>
      <trkpt lat="45.12827" lon="5.42652">
        <ele>1201.4661865234</ele>
        <time>2011-05-11T14:22:08Z</time>
      </trkpt>
      <trkpt lat="45.12839" lon="5.42657">
        <ele>1203.1467285156</ele>
        <time>2011-05-11T14:22:13Z</time>
      </trkpt>
      <trkpt lat="45.12856" lon="5.42667">
        <ele>1205.8947753906</ele>
        <time>2011-05-11T14:22:19Z</time>
      </trkpt>
      <trkpt lat="45.12874" lon="5.4268">
        <ele>1209.1318359375</ele>
        <time>2011-05-11T14:22:26Z</time>
      </trkpt>
      <trkpt lat="45.12886" lon="5.42692">
        <ele>1211.5067138672</ele>
        <time>2011-05-11T14:22:32Z</time>
      </trkpt>
      <trkpt lat="45.12896" lon="5.42705">
        <ele>1214.2618408203</ele>
        <time>2011-05-11T14:22:38Z</time>
      </trkpt>
      <trkpt lat="45.12906" lon="5.42719">
        <ele>1217.3208007812</ele>
        <time>2011-05-11T14:22:44Z</time>
      </trkpt>
      <trkpt lat="45.12911" lon="5.42733">
        <ele>1220.8968505859</ele>
        <time>2011-05-11T14:22:49Z</time>
      </trkpt>
      <trkpt lat="45.12919" lon="5.42754">
        <ele>1225.4353027344</ele>
        <time>2011-05-11T14:22:56Z</time>
      </trkpt>
      <trkpt lat="45.12926" lon="5.42771">
        <ele>1227.7585449219</ele>
        <time>2011-05-11T14:23:02Z</time>
      </trkpt>
      <trkpt lat="45.12933" lon="5.42792">
        <ele>1231.4437255859</ele>
        <time>2011-05-11T14:23:09Z</time>
      </trkpt>
      <trkpt lat="45.12938" lon="5.42813">
        <ele>1235.2734375</ele>
        <time>2011-05-11T14:23:17Z</time>
      </trkpt>
      <trkpt lat="45.1294" lon="5.42827">
        <ele>1236.8082275391</ele>
        <time>2011-05-11T14:23:22Z</time>
      </trkpt>
      <trkpt lat="45.12943" lon="5.42838">
        <ele>1238.4169921875</ele>
        <time>2011-05-11T14:23:26Z</time>
      </trkpt>
      <trkpt lat="45.12942" lon="5.42857">
        <ele>1242.6997070312</ele>
        <time>2011-05-11T14:23:33Z</time>
      </trkpt>
      <trkpt lat="45.1294" lon="5.42866">
        <ele>1244.4636230469</ele>
        <time>2011-05-11T14:23:36Z</time>
      </trkpt>
      <trkpt lat="45.12934" lon="5.42887">
        <ele>1248.3367919922</ele>
        <time>2011-05-11T14:23:43Z</time>
      </trkpt>
      <trkpt lat="45.12928" lon="5.42901">
        <ele>1251.5451660156</ele>
        <time>2011-05-11T14:23:48Z</time>
      </trkpt>
      <trkpt lat="45.12922" lon="5.42916">
        <ele>1255.2513427734</ele>
        <time>2011-05-11T14:23:54Z</time>
      </trkpt>
      <trkpt lat="45.12915" lon="5.42931">
        <ele>1258.4256591797</ele>
        <time>2011-05-11T14:23:59Z</time>
      </trkpt>
      <trkpt lat="45.12906" lon="5.42948">
        <ele>1263.22265625</ele>
        <time>2011-05-11T14:24:05Z</time>
      </trkpt>
      <trkpt lat="45.12897" lon="5.42966">
        <ele>1270.7725830078</ele>
        <time>2011-05-11T14:24:11Z</time>
      </trkpt>
      <trkpt lat="45.12889" lon="5.42984">
        <ele>1277.8872070312</ele>
        <time>2011-05-11T14:24:17Z</time>
      </trkpt>
      <trkpt lat="45.12885" lon="5.43">
        <ele>1282.2750244141</ele>
        <time>2011-05-11T14:24:22Z</time>
      </trkpt>
      <trkpt lat="45.12884" lon="5.43019">
        <ele>1283.9500732422</ele>
        <time>2011-05-11T14:24:27Z</time>
      </trkpt>
      <trkpt lat="45.12882" lon="5.43035">
        <ele>1286.3006591797</ele>
        <time>2011-05-11T14:24:32Z</time>
      </trkpt>
      <trkpt lat="45.12883" lon="5.43056">
        <ele>1288.5924072266</ele>
        <time>2011-05-11T14:24:38Z</time>
      </trkpt>
      <trkpt lat="45.12886" lon="5.43078">
        <ele>1288.8636474609</ele>
        <time>2011-05-11T14:24:45Z</time>
      </trkpt>
      <trkpt lat="45.12885" lon="5.43098">
        <ele>1287.5983886719</ele>
        <time>2011-05-11T14:24:51Z</time>
      </trkpt>
      <trkpt lat="45.12885" lon="5.43116">
        <ele>1285.2498779297</ele>
        <time>2011-05-11T14:24:56Z</time>
      </trkpt>
      <trkpt lat="45.1288" lon="5.43143">
        <ele>1285.1140136719</ele>
        <time>2011-05-11T14:25:03Z</time>
      </trkpt>
      <trkpt lat="45.12874" lon="5.43167">
        <ele>1287.5701904297</ele>
        <time>2011-05-11T14:25:10Z</time>
      </trkpt>
      <trkpt lat="45.12862" lon="5.43194">
        <ele>1291.6011962891</ele>
        <time>2011-05-11T14:25:18Z</time>
      </trkpt>
      <trkpt lat="45.12855" lon="5.43225">
        <ele>1290.6728515625</ele>
        <time>2011-05-11T14:25:26Z</time>
      </trkpt>
      <trkpt lat="45.12854" lon="5.43253">
        <ele>1287.998046875</ele>
        <time>2011-05-11T14:25:33Z</time>
      </trkpt>
      <trkpt lat="45.12864" lon="5.43272">
        <ele>1283.6257324219</ele>
        <time>2011-05-11T14:25:38Z</time>
      </trkpt>
      <trkpt lat="45.12879" lon="5.43289">
        <ele>1278.1166992188</ele>
        <time>2011-05-11T14:25:44Z</time>
      </trkpt>
      <trkpt lat="45.12891" lon="5.43303">
        <ele>1274.4256591797</ele>
        <time>2011-05-11T14:25:48Z</time>
      </trkpt>
      <trkpt lat="45.12901" lon="5.43314">
        <ele>1271.9411621094</ele>
        <time>2011-05-11T14:25:51Z</time>
      </trkpt>
      <trkpt lat="45.12922" lon="5.43332">
        <ele>1267.0815429688</ele>
        <time>2011-05-11T14:25:57Z</time>
      </trkpt>
      <trkpt lat="45.12952" lon="5.43355">
        <ele>1260.9266357422</ele>
        <time>2011-05-11T14:26:05Z</time>
      </trkpt>
      <trkpt lat="45.12968" lon="5.43366">
        <ele>1257.5499267578</ele>
        <time>2011-05-11T14:26:09Z</time>
      </trkpt>
      <trkpt lat="45.1299" lon="5.43381">
        <ele>1252.8410644531</ele>
        <time>2011-05-11T14:26:14Z</time>
      </trkpt>
      <trkpt lat="45.13015" lon="5.43399">
        <ele>1249.7039794922</ele>
        <time>2011-05-11T14:26:20Z</time>
      </trkpt>
      <trkpt lat="45.1304" lon="5.4343">
        <ele>1247.0335693359</ele>
        <time>2011-05-11T14:26:27Z</time>
      </trkpt>
      <trkpt lat="45.13047" lon="5.43454">
        <ele>1246.1331787109</ele>
        <time>2011-05-11T14:26:31Z</time>
      </trkpt>
      <trkpt lat="45.13054" lon="5.43476">
        <ele>1246.8703613281</ele>
        <time>2011-05-11T14:26:35Z</time>
      </trkpt>
      <trkpt lat="45.13056" lon="5.43489">
        <ele>1247.7921142578</ele>
        <time>2011-05-11T14:26:37Z</time>
      </trkpt>
      <trkpt lat="45.1306" lon="5.43536">
        <ele>1251.4470214844</ele>
        <time>2011-05-11T14:26:44Z</time>
      </trkpt>
      <trkpt lat="45.13062" lon="5.43578">
        <ele>1254.6369628906</ele>
        <time>2011-05-11T14:26:50Z</time>
      </trkpt>
      <trkpt lat="45.13065" lon="5.43641">
        <ele>1260.9617919922</ele>
        <time>2011-05-11T14:26:59Z</time>
      </trkpt>
      <trkpt lat="45.13065" lon="5.43647">
        <ele>1262.1997070312</ele>
        <time>2011-05-11T14:27:00Z</time>
      </trkpt>
      <trkpt lat="45.13063" lon="5.43685">
        <ele>1268.6787109375</ele>
        <time>2011-05-11T14:27:07Z</time>
      </trkpt>
      <trkpt lat="45.13054" lon="5.43717">
        <ele>1273.4105224609</ele>
        <time>2011-05-11T14:27:14Z</time>
      </trkpt>
      <trkpt lat="45.13037" lon="5.43732">
        <ele>1278.5938720703</ele>
        <time>2011-05-11T14:27:20Z</time>
      </trkpt>
      <trkpt lat="45.13021" lon="5.43737">
        <ele>1281.1539306641</ele>
        <time>2011-05-11T14:27:26Z</time>
      </trkpt>
      <trkpt lat="45.13005" lon="5.43735">
        <ele>1281.9041748047</ele>
        <time>2011-05-11T14:27:31Z</time>
      </trkpt>
      <trkpt lat="45.1299" lon="5.43734">
        <ele>1283.4127197266</ele>
        <time>2011-05-11T14:27:36Z</time>
      </trkpt>
      <trkpt lat="45.12981" lon="5.43732">
        <ele>1284.2692871094</ele>
        <time>2011-05-11T14:27:39Z</time>
      </trkpt>
      <trkpt lat="45.12975" lon="5.43731">
        <ele>1284.8717041016</ele>
        <time>2011-05-11T14:27:41Z</time>
      </trkpt>
      <trkpt lat="45.12959" lon="5.43724">
        <ele>1286.2770996094</ele>
        <time>2011-05-11T14:27:47Z</time>
      </trkpt>
      <trkpt lat="45.12946" lon="5.43718">
        <ele>1287.1187744141</ele>
        <time>2011-05-11T14:27:53Z</time>
      </trkpt>
      <trkpt lat="45.1293" lon="5.43709">
        <ele>1286.5959472656</ele>
        <time>2011-05-11T14:27:59Z</time>
      </trkpt>
      <trkpt lat="45.12918" lon="5.43699">
        <ele>1285.7290039062</ele>
        <time>2011-05-11T14:28:04Z</time>
      </trkpt>
      <trkpt lat="45.12903" lon="5.43683">
        <ele>1285.6685791016</ele>
        <time>2011-05-11T14:28:11Z</time>
      </trkpt>
      <trkpt lat="45.1289" lon="5.43669">
        <ele>1285.2913818359</ele>
        <time>2011-05-11T14:28:17Z</time>
      </trkpt>
      <trkpt lat="45.1288" lon="5.43657">
        <ele>1285.3338623047</ele>
        <time>2011-05-11T14:28:22Z</time>
      </trkpt>
      <trkpt lat="45.1287" lon="5.43644">
        <ele>1285.4641113281</ele>
        <time>2011-05-11T14:28:28Z</time>
      </trkpt>
      <trkpt lat="45.1286" lon="5.43635">
        <ele>1286.4660644531</ele>
        <time>2011-05-11T14:28:33Z</time>
      </trkpt>
      <trkpt lat="45.12846" lon="5.43622">
        <ele>1287.3671875</ele>
        <time>2011-05-11T14:28:40Z</time>
      </trkpt>
      <trkpt lat="45.12835" lon="5.43616">
        <ele>1288.9724121094</ele>
        <time>2011-05-11T14:28:46Z</time>
      </trkpt>
      <trkpt lat="45.12825" lon="5.43614">
        <ele>1291.2800292969</ele>
        <time>2011-05-11T14:28:51Z</time>
      </trkpt>
      <trkpt lat="45.12814" lon="5.43616">
        <ele>1294.0002441406</ele>
        <time>2011-05-11T14:28:55Z</time>
      </trkpt>
      <trkpt lat="45.12799" lon="5.43617">
        <ele>1297.0560302734</ele>
        <time>2011-05-11T14:29:01Z</time>
      </trkpt>
      <trkpt lat="45.12794" lon="5.43619">
        <ele>1297.6966552734</ele>
        <time>2011-05-11T14:29:03Z</time>
      </trkpt>
      <trkpt lat="45.1278" lon="5.43627">
        <ele>1299.1541748047</ele>
        <time>2011-05-11T14:29:09Z</time>
      </trkpt>
      <trkpt lat="45.12766" lon="5.43636">
        <ele>1301.2064208984</ele>
        <time>2011-05-11T14:29:15Z</time>
      </trkpt>
      <trkpt lat="45.12751" lon="5.43644">
        <ele>1303.4906005859</ele>
        <time>2011-05-11T14:29:21Z</time>
      </trkpt>
      <trkpt lat="45.12749" lon="5.43645">
        <ele>1303.8930664062</ele>
        <time>2011-05-11T14:29:22Z</time>
      </trkpt>
      <trkpt lat="45.12731" lon="5.4365">
        <ele>1308.2113037109</ele>
        <time>2011-05-11T14:29:28Z</time>
      </trkpt>
      <trkpt lat="45.12715" lon="5.43656">
        <ele>1311.8975830078</ele>
        <time>2011-05-11T14:29:34Z</time>
      </trkpt>
      <trkpt lat="45.12697" lon="5.43662">
        <ele>1315.662109375</ele>
        <time>2011-05-11T14:29:41Z</time>
      </trkpt>
      <trkpt lat="45.12677" lon="5.43666">
        <ele>1320.4047851562</ele>
        <time>2011-05-11T14:29:48Z</time>
      </trkpt>
      <trkpt lat="45.12659" lon="5.43671">
        <ele>1324.7073974609</ele>
        <time>2011-05-11T14:29:54Z</time>
      </trkpt>
      <trkpt lat="45.12639" lon="5.43675">
        <ele>1330</ele>
        <time>2011-05-11T14:30:01Z</time>
      </trkpt>
      <trkpt lat="45.12611" lon="5.43679">
        <ele>1330</ele>
        <time>2011-05-11T14:30:10Z</time>
      </trkpt>
      <trkpt lat="45.12589" lon="5.43678">
        <ele>1329.673828125</ele>
        <time>2011-05-11T14:30:17Z</time>
      </trkpt>
      <trkpt lat="45.12563" lon="5.43675">
        <ele>1323.4302978516</ele>
        <time>2011-05-11T14:30:25Z</time>
      </trkpt>
      <trkpt lat="45.12545" lon="5.43676">
        <ele>1319.6584472656</ele>
        <time>2011-05-11T14:30:31Z</time>
      </trkpt>
      <trkpt lat="45.12526" lon="5.43683">
        <ele>1317.1749267578</ele>
        <time>2011-05-11T14:30:38Z</time>
      </trkpt>
      <trkpt lat="45.12505" lon="5.43693">
        <ele>1312.9008789062</ele>
        <time>2011-05-11T14:30:46Z</time>
      </trkpt>
      <trkpt lat="45.1249" lon="5.43696">
        <ele>1310.7724609375</ele>
        <time>2011-05-11T14:30:52Z</time>
      </trkpt>
      <trkpt lat="45.12476" lon="5.43697">
        <ele>1308.8010253906</ele>
        <time>2011-05-11T14:30:58Z</time>
      </trkpt>
      <trkpt lat="45.12463" lon="5.43695">
        <ele>1308.4658203125</ele>
        <time>2011-05-11T14:31:04Z</time>
      </trkpt>
      <trkpt lat="45.12449" lon="5.43691">
        <ele>1308.4197998047</ele>
        <time>2011-05-11T14:31:10Z</time>
      </trkpt>
      <trkpt lat="45.12433" lon="5.43694">
        <ele>1308.4737548828</ele>
        <time>2011-05-11T14:31:17Z</time>
      </trkpt>
      <trkpt lat="45.1242" lon="5.437">
        <ele>1309.5693359375</ele>
        <time>2011-05-11T14:31:23Z</time>
      </trkpt>
      <trkpt lat="45.12408" lon="5.43706">
        <ele>1311.5075683594</ele>
        <time>2011-05-11T14:31:29Z</time>
      </trkpt>
      <trkpt lat="45.12393" lon="5.43715">
        <ele>1314.8739013672</ele>
        <time>2011-05-11T14:31:36Z</time>
      </trkpt>
      <trkpt lat="45.1238" lon="5.43722">
        <ele>1317.8302001953</ele>
        <time>2011-05-11T14:31:42Z</time>
      </trkpt>
      <trkpt lat="45.12365" lon="5.43723">
        <ele>1319.7506103516</ele>
        <time>2011-05-11T14:31:48Z</time>
      </trkpt>
      <trkpt lat="45.12355" lon="5.43719">
        <ele>1318.0865478516</ele>
        <time>2011-05-11T14:31:53Z</time>
      </trkpt>
      <trkpt lat="45.12342" lon="5.43716">
        <ele>1314.9849853516</ele>
        <time>2011-05-11T14:31:59Z</time>
      </trkpt>
      <trkpt lat="45.12329" lon="5.43717">
        <ele>1313.6436767578</ele>
        <time>2011-05-11T14:32:05Z</time>
      </trkpt>
      <trkpt lat="45.12311" lon="5.43718">
        <ele>1313.2177734375</ele>
        <time>2011-05-11T14:32:12Z</time>
      </trkpt>
      <trkpt lat="45.12295" lon="5.43723">
        <ele>1311.93359375</ele>
        <time>2011-05-11T14:32:19Z</time>
      </trkpt>
      <trkpt lat="45.12285" lon="5.43737">
        <ele>1313.0716552734</ele>
        <time>2011-05-11T14:32:25Z</time>
      </trkpt>
      <trkpt lat="45.12277" lon="5.43755">
        <ele>1315.6871337891</ele>
        <time>2011-05-11T14:32:32Z</time>
      </trkpt>
      <trkpt lat="45.12272" lon="5.43776">
        <ele>1318.4083251953</ele>
        <time>2011-05-11T14:32:39Z</time>
      </trkpt>
      <trkpt lat="45.12268" lon="5.43792">
        <ele>1321.4266357422</ele>
        <time>2011-05-11T14:32:45Z</time>
      </trkpt>
      <trkpt lat="45.12262" lon="5.43809">
        <ele>1324.2805175781</ele>
        <time>2011-05-11T14:32:51Z</time>
      </trkpt>
      <trkpt lat="45.12254" lon="5.4383">
        <ele>1326.2976074219</ele>
        <time>2011-05-11T14:32:59Z</time>
      </trkpt>
      <trkpt lat="45.12251" lon="5.43852">
        <ele>1330.1450195312</ele>
        <time>2011-05-11T14:33:06Z</time>
      </trkpt>
      <trkpt lat="45.12238" lon="5.43871">
        <ele>1331.6409912109</ele>
        <time>2011-05-11T14:33:13Z</time>
      </trkpt>
      <trkpt lat="45.12233" lon="5.43889">
        <ele>1333.5635986328</ele>
        <time>2011-05-11T14:33:19Z</time>
      </trkpt>
      <trkpt lat="45.12228" lon="5.43907">
        <ele>1336.8673095703</ele>
        <time>2011-05-11T14:33:26Z</time>
      </trkpt>
      <trkpt lat="45.12223" lon="5.43926">
        <ele>1339.51171875</ele>
        <time>2011-05-11T14:33:33Z</time>
      </trkpt>
      <trkpt lat="45.12223" lon="5.43946">
        <ele>1342.5126953125</ele>
        <time>2011-05-11T14:33:40Z</time>
      </trkpt>
      <trkpt lat="45.12222" lon="5.43959">
        <ele>1346.1907958984</ele>
        <time>2011-05-11T14:33:45Z</time>
      </trkpt>
      <trkpt lat="45.1222" lon="5.43978">
        <ele>1351.3680419922</ele>
        <time>2011-05-11T14:33:52Z</time>
      </trkpt>
      <trkpt lat="45.12218" lon="5.43997">
        <ele>1355.9150390625</ele>
        <time>2011-05-11T14:33:59Z</time>
      </trkpt>
      <trkpt lat="45.12214" lon="5.44017">
        <ele>1358.5599365234</ele>
        <time>2011-05-11T14:34:06Z</time>
      </trkpt>
      <trkpt lat="45.12213" lon="5.44034">
        <ele>1360.9289550781</ele>
        <time>2011-05-11T14:34:12Z</time>
      </trkpt>
      <trkpt lat="45.12213" lon="5.44053">
        <ele>1363.5380859375</ele>
        <time>2011-05-11T14:34:18Z</time>
      </trkpt>
      <trkpt lat="45.12211" lon="5.44067">
        <ele>1364.8209228516</ele>
        <time>2011-05-11T14:34:23Z</time>
      </trkpt>
      <trkpt lat="45.1221" lon="5.44081">
        <ele>1366.0109863281</ele>
        <time>2011-05-11T14:34:28Z</time>
      </trkpt>
      <trkpt lat="45.12206" lon="5.44103">
        <ele>1368.1518554688</ele>
        <time>2011-05-11T14:34:35Z</time>
      </trkpt>
      <trkpt lat="45.12203" lon="5.44126">
        <ele>1369.5812988281</ele>
        <time>2011-05-11T14:34:42Z</time>
      </trkpt>
      <trkpt lat="45.12203" lon="5.44146">
        <ele>1371.3175048828</ele>
        <time>2011-05-11T14:34:48Z</time>
      </trkpt>
      <trkpt lat="45.12201" lon="5.44161">
        <ele>1372.7280273438</ele>
        <time>2011-05-11T14:34:53Z</time>
      </trkpt>
      <trkpt lat="45.12196" lon="5.44185">
        <ele>1373.7467041016</ele>
        <time>2011-05-11T14:35:01Z</time>
      </trkpt>
      <trkpt lat="45.12187" lon="5.44205">
        <ele>1374.7796630859</ele>
        <time>2011-05-11T14:35:08Z</time>
      </trkpt>
      <trkpt lat="45.12175" lon="5.44221">
        <ele>1375.5502929688</ele>
        <time>2011-05-11T14:35:14Z</time>
      </trkpt>
      <trkpt lat="45.12159" lon="5.4424">
        <ele>1377.2072753906</ele>
        <time>2011-05-11T14:35:22Z</time>
      </trkpt>
      <trkpt lat="45.12146" lon="5.44255">
        <ele>1379.0848388672</ele>
        <time>2011-05-11T14:35:28Z</time>
      </trkpt>
      <trkpt lat="45.12126" lon="5.44278">
        <ele>1383.4483642578</ele>
        <time>2011-05-11T14:35:37Z</time>
      </trkpt>
      <trkpt lat="45.1211" lon="5.44295">
        <ele>1387.9664306641</ele>
        <time>2011-05-11T14:35:43Z</time>
      </trkpt>
      <trkpt lat="45.12094" lon="5.44309">
        <ele>1390.3977050781</ele>
        <time>2011-05-11T14:35:48Z</time>
      </trkpt>
      <trkpt lat="45.12085" lon="5.44312">
        <ele>1391.0893554688</ele>
        <time>2011-05-11T14:35:50Z</time>
      </trkpt>
      <trkpt lat="45.12072" lon="5.44313">
        <ele>1389.0426025391</ele>
        <time>2011-05-11T14:35:53Z</time>
      </trkpt>
      <trkpt lat="45.12054" lon="5.44309">
        <ele>1385.9404296875</ele>
        <time>2011-05-11T14:35:57Z</time>
      </trkpt>
      <trkpt lat="45.12037" lon="5.44304">
        <ele>1385.2360839844</ele>
        <time>2011-05-11T14:36:01Z</time>
      </trkpt>
      <trkpt lat="45.12021" lon="5.44299">
        <ele>1384.2781982422</ele>
        <time>2011-05-11T14:36:05Z</time>
      </trkpt>
      <trkpt lat="45.11986" lon="5.44294">
        <ele>1383.6507568359</ele>
        <time>2011-05-11T14:36:13Z</time>
      </trkpt>
      <trkpt lat="45.11958" lon="5.44292">
        <ele>1383.7429199219</ele>
        <time>2011-05-11T14:36:20Z</time>
      </trkpt>
      <trkpt lat="45.11934" lon="5.44291">
        <ele>1383.3940429688</ele>
        <time>2011-05-11T14:36:26Z</time>
      </trkpt>
      <trkpt lat="45.11929" lon="5.4429">
        <ele>1383.3734130859</ele>
        <time>2011-05-11T14:36:27Z</time>
      </trkpt>
      <trkpt lat="45.11901" lon="5.44288">
        <ele>1382.5725097656</ele>
        <time>2011-05-11T14:36:33Z</time>
      </trkpt>
      <trkpt lat="45.11892" lon="5.44287">
        <ele>1382.0574951172</ele>
        <time>2011-05-11T14:36:35Z</time>
      </trkpt>
      <trkpt lat="45.11874" lon="5.44282">
        <ele>1381.4774169922</ele>
        <time>2011-05-11T14:36:39Z</time>
      </trkpt>
      <trkpt lat="45.11865" lon="5.44281">
        <ele>1381.4001464844</ele>
        <time>2011-05-11T14:36:41Z</time>
      </trkpt>
      <trkpt lat="45.11846" lon="5.44287">
        <ele>1381.2956542969</ele>
        <time>2011-05-11T14:36:45Z</time>
      </trkpt>
      <trkpt lat="45.1182" lon="5.44308">
        <ele>1381.2005615234</ele>
        <time>2011-05-11T14:36:51Z</time>
      </trkpt>
      <trkpt lat="45.11796" lon="5.44341">
        <ele>1381.888671875</ele>
        <time>2011-05-11T14:36:59Z</time>
      </trkpt>
      <trkpt lat="45.11778" lon="5.4437">
        <ele>1384.3055419922</ele>
        <time>2011-05-11T14:37:05Z</time>
      </trkpt>
      <trkpt lat="45.11758" lon="5.44392">
        <ele>1392.3787841797</ele>
        <time>2011-05-11T14:37:11Z</time>
      </trkpt>
      <trkpt lat="45.1174" lon="5.444">
        <ele>1397.6467285156</ele>
        <time>2011-05-11T14:37:16Z</time>
      </trkpt>
      <trkpt lat="45.11713" lon="5.44406">
        <ele>1398.9888916016</ele>
        <time>2011-05-11T14:37:23Z</time>
      </trkpt>
      <trkpt lat="45.11686" lon="5.44413">
        <ele>1395.9029541016</ele>
        <time>2011-05-11T14:37:30Z</time>
      </trkpt>
      <trkpt lat="45.11661" lon="5.44416">
        <ele>1388.3067626953</ele>
        <time>2011-05-11T14:37:37Z</time>
      </trkpt>
      <trkpt lat="45.11643" lon="5.44418">
        <ele>1389.7587890625</ele>
        <time>2011-05-11T14:37:42Z</time>
      </trkpt>
      <trkpt lat="45.11621" lon="5.44418">
        <ele>1390.1004638672</ele>
        <time>2011-05-11T14:37:48Z</time>
      </trkpt>
      <trkpt lat="45.11618" lon="5.44417">
        <ele>1390.0506591797</ele>
        <time>2011-05-11T14:37:49Z</time>
      </trkpt>
      <trkpt lat="45.11596" lon="5.44405">
        <ele>1390.2493896484</ele>
        <time>2011-05-11T14:37:56Z</time>
      </trkpt>
      <trkpt lat="45.11579" lon="5.44406">
        <ele>1391.8084716797</ele>
        <time>2011-05-11T14:38:01Z</time>
      </trkpt>
      <trkpt lat="45.11576" lon="5.44409">
        <ele>1392.4091796875</ele>
        <time>2011-05-11T14:38:02Z</time>
      </trkpt>
      <trkpt lat="45.11576" lon="5.44429">
        <ele>1393.5284423828</ele>
        <time>2011-05-11T14:38:07Z</time>
      </trkpt>
      <trkpt lat="45.11578" lon="5.44432">
        <ele>1393.3654785156</ele>
        <time>2011-05-11T14:38:08Z</time>
      </trkpt>
      <trkpt lat="45.11597" lon="5.44456">
        <ele>1393.7646484375</ele>
        <time>2011-05-11T14:38:17Z</time>
      </trkpt>
      <trkpt lat="45.11611" lon="5.4447">
        <ele>1394.7689208984</ele>
        <time>2011-05-11T14:38:23Z</time>
      </trkpt>
      <trkpt lat="45.11626" lon="5.44481">
        <ele>1394.3812255859</ele>
        <time>2011-05-11T14:38:29Z</time>
      </trkpt>
      <trkpt lat="45.11637" lon="5.44488">
        <ele>1394.2279052734</ele>
        <time>2011-05-11T14:38:34Z</time>
      </trkpt>
      <trkpt lat="45.11652" lon="5.44498">
        <ele>1394.4127197266</ele>
        <time>2011-05-11T14:38:41Z</time>
      </trkpt>
      <trkpt lat="45.11664" lon="5.44511">
        <ele>1394.8796386719</ele>
        <time>2011-05-11T14:38:48Z</time>
      </trkpt>
      <trkpt lat="45.11677" lon="5.44527">
        <ele>1395.2145996094</ele>
        <time>2011-05-11T14:38:55Z</time>
      </trkpt>
      <trkpt lat="45.11682" lon="5.44534">
        <ele>1395.3564453125</ele>
        <time>2011-05-11T14:38:58Z</time>
      </trkpt>
      <trkpt lat="45.11692" lon="5.44548">
        <ele>1395.6276855469</ele>
        <time>2011-05-11T14:39:04Z</time>
      </trkpt>
      <trkpt lat="45.11694" lon="5.4455">
        <ele>1395.6483154297</ele>
        <time>2011-05-11T14:39:05Z</time>
      </trkpt>
      <trkpt lat="45.1171" lon="5.44569">
        <ele>1396.3996582031</ele>
        <time>2011-05-11T14:39:14Z</time>
      </trkpt>
      <trkpt lat="45.11723" lon="5.44588">
        <ele>1397.1108398438</ele>
        <time>2011-05-11T14:39:22Z</time>
      </trkpt>
      <trkpt lat="45.11732" lon="5.44605">
        <ele>1397.4353027344</ele>
        <time>2011-05-11T14:39:29Z</time>
      </trkpt>
      <trkpt lat="45.11732" lon="5.44616">
        <ele>1397.9432373047</ele>
        <time>2011-05-11T14:39:34Z</time>
      </trkpt>
      <trkpt lat="45.11732" lon="5.44635">
        <ele>1399.0760498047</ele>
        <time>2011-05-11T14:39:41Z</time>
      </trkpt>
      <trkpt lat="45.11734" lon="5.4466">
        <ele>1405.443359375</ele>
        <time>2011-05-11T14:39:48Z</time>
      </trkpt>
      <trkpt lat="45.11735" lon="5.44678">
        <ele>1410.1112060547</ele>
        <time>2011-05-11T14:39:53Z</time>
      </trkpt>
      <trkpt lat="45.11745" lon="5.44705">
        <ele>1415.6358642578</ele>
        <time>2011-05-11T14:39:58Z</time>
      </trkpt>
      <trkpt lat="45.11745" lon="5.44727">
        <ele>1421.4776611328</ele>
        <time>2011-05-11T14:40:02Z</time>
      </trkpt>
      <trkpt lat="45.1174" lon="5.44758">
        <ele>1429.974609375</ele>
        <time>2011-05-11T14:40:09Z</time>
      </trkpt>
      <trkpt lat="45.11732" lon="5.44784">
        <ele>1436.8784179688</ele>
        <time>2011-05-11T14:40:15Z</time>
      </trkpt>
      <trkpt lat="45.11726" lon="5.44799">
        <ele>1439.0688476562</ele>
        <time>2011-05-11T14:40:19Z</time>
      </trkpt>
      <trkpt lat="45.1172" lon="5.44812">
        <ele>1440</ele>
        <time>2011-05-11T14:40:25Z</time>
      </trkpt>
      <trkpt lat="45.11709" lon="5.44827">
        <ele>1440</ele>
        <time>2011-05-11T14:40:31Z</time>
      </trkpt>
      <trkpt lat="45.11706" lon="5.44834">
        <ele>1440</ele>
        <time>2011-05-11T14:40:34Z</time>
      </trkpt>
      <trkpt lat="45.11708" lon="5.44845">
        <ele>1440</ele>
        <time>2011-05-11T14:40:40Z</time>
      </trkpt>
      <trkpt lat="45.11713" lon="5.44859">
        <ele>1440</ele>
        <time>2011-05-11T14:41:36Z</time>
      </trkpt>
      <trkpt lat="45.11725" lon="5.44873">
        <ele>1440</ele>
        <time>2011-05-11T14:42:42Z</time>
      </trkpt>
      <trkpt lat="45.11724" lon="5.44901">
        <ele>1439.1580810547</ele>
        <time>2011-05-11T14:42:46Z</time>
      </trkpt>
      <trkpt lat="45.11716" lon="5.44929">
        <ele>1436.8854980469</ele>
        <time>2011-05-11T14:42:49Z</time>
      </trkpt>
      <trkpt lat="45.11709" lon="5.44962">
        <ele>1433.3782958984</ele>
        <time>2011-05-11T14:42:52Z</time>
      </trkpt>
      <trkpt lat="45.11718" lon="5.44982">
        <ele>1431.6180419922</ele>
        <time>2011-05-11T14:42:54Z</time>
      </trkpt>
      <trkpt lat="45.11731" lon="5.45004">
        <ele>1429.7473144531</ele>
        <time>2011-05-11T14:42:56Z</time>
      </trkpt>
      <trkpt lat="45.11769" lon="5.45042">
        <ele>1424.6136474609</ele>
        <time>2011-05-11T14:43:00Z</time>
      </trkpt>
      <trkpt lat="45.11824" lon="5.45087">
        <ele>1422.6235351562</ele>
        <time>2011-05-11T14:43:05Z</time>
      </trkpt>
      <trkpt lat="45.11875" lon="5.45114">
        <ele>1422.4293212891</ele>
        <time>2011-05-11T14:43:09Z</time>
      </trkpt>
      <trkpt lat="45.11936" lon="5.45165">
        <ele>1411.904296875</ele>
        <time>2011-05-11T14:43:14Z</time>
      </trkpt>
      <trkpt lat="45.11948" lon="5.45176">
        <ele>1409.2413330078</ele>
        <time>2011-05-11T14:43:15Z</time>
      </trkpt>
      <trkpt lat="45.12027" lon="5.45222">
        <ele>1399.8236083984</ele>
        <time>2011-05-11T14:43:21Z</time>
      </trkpt>
      <trkpt lat="45.12083" lon="5.45245">
        <ele>1401.2514648438</ele>
        <time>2011-05-11T14:43:25Z</time>
      </trkpt>
      <trkpt lat="45.12139" lon="5.4526">
        <ele>1395.6744384766</ele>
        <time>2011-05-11T14:43:29Z</time>
      </trkpt>
      <trkpt lat="45.12194" lon="5.45284">
        <ele>1391.6351318359</ele>
        <time>2011-05-11T14:43:33Z</time>
      </trkpt>
      <trkpt lat="45.12264" lon="5.45313">
        <ele>1391.9973144531</ele>
        <time>2011-05-11T14:43:38Z</time>
      </trkpt>
      <trkpt lat="45.12336" lon="5.45344">
        <ele>1389.6353759766</ele>
        <time>2011-05-11T14:43:43Z</time>
      </trkpt>
      <trkpt lat="45.12374" lon="5.45367">
        <ele>1385.1511230469</ele>
        <time>2011-05-11T14:43:46Z</time>
      </trkpt>
      <trkpt lat="45.12419" lon="5.45392">
        <ele>1383.2967529297</ele>
        <time>2011-05-11T14:43:50Z</time>
      </trkpt>
      <trkpt lat="45.12465" lon="5.45413">
        <ele>1374.4826660156</ele>
        <time>2011-05-11T14:43:54Z</time>
      </trkpt>
      <trkpt lat="45.12528" lon="5.45442">
        <ele>1369.6373291016</ele>
        <time>2011-05-11T14:43:59Z</time>
      </trkpt>
      <trkpt lat="45.12564" lon="5.45458">
        <ele>1364.33984375</ele>
        <time>2011-05-11T14:44:02Z</time>
      </trkpt>
      <trkpt lat="45.12637" lon="5.45494">
        <ele>1361.2875976562</ele>
        <time>2011-05-11T14:44:08Z</time>
      </trkpt>
      <trkpt lat="45.12687" lon="5.45523">
        <ele>1356.8055419922</ele>
        <time>2011-05-11T14:44:12Z</time>
      </trkpt>
      <trkpt lat="45.12732" lon="5.45567">
        <ele>1345.2889404297</ele>
        <time>2011-05-11T14:44:16Z</time>
      </trkpt>
      <trkpt lat="45.12791" lon="5.45622">
        <ele>1333.3026123047</ele>
        <time>2011-05-11T14:44:21Z</time>
      </trkpt>
      <trkpt lat="45.12824" lon="5.45652">
        <ele>1326.8448486328</ele>
        <time>2011-05-11T14:44:24Z</time>
      </trkpt>
      <trkpt lat="45.12876" lon="5.45675">
        <ele>1323.4499511719</ele>
        <time>2011-05-11T14:44:28Z</time>
      </trkpt>
      <trkpt lat="45.12943" lon="5.45707">
        <ele>1314.5288085938</ele>
        <time>2011-05-11T14:44:33Z</time>
      </trkpt>
      <trkpt lat="45.12956" lon="5.45712">
        <ele>1312.9932861328</ele>
        <time>2011-05-11T14:44:34Z</time>
      </trkpt>
      <trkpt lat="45.1301" lon="5.45739">
        <ele>1308.3796386719</ele>
        <time>2011-05-11T14:44:38Z</time>
      </trkpt>
      <trkpt lat="45.13044" lon="5.45778">
        <ele>1300.9799804688</ele>
        <time>2011-05-11T14:44:41Z</time>
      </trkpt>
      <trkpt lat="45.13065" lon="5.45825">
        <ele>1295.9552001953</ele>
        <time>2011-05-11T14:44:44Z</time>
      </trkpt>
      <trkpt lat="45.13065" lon="5.45862">
        <ele>1290.5010986328</ele>
        <time>2011-05-11T14:44:46Z</time>
      </trkpt>
      <trkpt lat="45.13055" lon="5.45898">
        <ele>1282.4497070312</ele>
        <time>2011-05-11T14:44:48Z</time>
      </trkpt>
      <trkpt lat="45.13036" lon="5.45985">
        <ele>1269.0506591797</ele>
        <time>2011-05-11T14:44:53Z</time>
      </trkpt>
      <trkpt lat="45.13033" lon="5.46019">
        <ele>1268.1363525391</ele>
        <time>2011-05-11T14:44:55Z</time>
      </trkpt>
      <trkpt lat="45.13038" lon="5.46065">
        <ele>1272.5815429688</ele>
        <time>2011-05-11T14:44:58Z</time>
      </trkpt>
      <trkpt lat="45.13043" lon="5.4608">
        <ele>1275.0577392578</ele>
        <time>2011-05-11T14:44:59Z</time>
      </trkpt>
      <trkpt lat="45.13056" lon="5.46109">
        <ele>1280.1187744141</ele>
        <time>2011-05-11T14:45:01Z</time>
      </trkpt>
      <trkpt lat="45.13095" lon="5.46155">
        <ele>1281.6295166016</ele>
        <time>2011-05-11T14:45:05Z</time>
      </trkpt>
      <trkpt lat="45.13162" lon="5.46221">
        <ele>1284.1319580078</ele>
        <time>2011-05-11T14:45:11Z</time>
      </trkpt>
      <trkpt lat="45.13221" lon="5.46279">
        <ele>1284.5452880859</ele>
        <time>2011-05-11T14:45:16Z</time>
      </trkpt>
      <trkpt lat="45.13264" lon="5.4633">
        <ele>1283.3521728516</ele>
        <time>2011-05-11T14:45:20Z</time>
      </trkpt>
      <trkpt lat="45.13285" lon="5.46353">
        <ele>1282.1743164062</ele>
        <time>2011-05-11T14:45:22Z</time>
      </trkpt>
      <trkpt lat="45.13337" lon="5.46403">
        <ele>1278.7026367188</ele>
        <time>2011-05-11T14:45:27Z</time>
      </trkpt>
      <trkpt lat="45.13403" lon="5.46448">
        <ele>1277.9606933594</ele>
        <time>2011-05-11T14:45:33Z</time>
      </trkpt>
      <trkpt lat="45.13443" lon="5.46471">
        <ele>1275.0301513672</ele>
        <time>2011-05-11T14:45:37Z</time>
      </trkpt>
      <trkpt lat="45.13493" lon="5.46503">
        <ele>1276.1242675781</ele>
        <time>2011-05-11T14:45:42Z</time>
      </trkpt>
      <trkpt lat="45.13543" lon="5.4654">
        <ele>1272.0361328125</ele>
        <time>2011-05-11T14:45:47Z</time>
      </trkpt>
      <trkpt lat="45.13553" lon="5.46548">
        <ele>1270.9935302734</ele>
        <time>2011-05-11T14:45:48Z</time>
      </trkpt>
      <trkpt lat="45.13599" lon="5.46602">
        <ele>1258.9951171875</ele>
        <time>2011-05-11T14:45:53Z</time>
      </trkpt>
      <trkpt lat="45.13649" lon="5.46662">
        <ele>1244.0938720703</ele>
        <time>2011-05-11T14:45:58Z</time>
      </trkpt>
      <trkpt lat="45.1366" lon="5.46673">
        <ele>1242.3031005859</ele>
        <time>2011-05-11T14:45:59Z</time>
      </trkpt>
      <trkpt lat="45.13688" lon="5.46726">
        <ele>1231.3681640625</ele>
        <time>2011-05-11T14:46:03Z</time>
      </trkpt>
      <trkpt lat="45.137" lon="5.46765">
        <ele>1224.7225341797</ele>
        <time>2011-05-11T14:46:06Z</time>
      </trkpt>
      <trkpt lat="45.13705" lon="5.46803">
        <ele>1217.7115478516</ele>
        <time>2011-05-11T14:46:10Z</time>
      </trkpt>
      <trkpt lat="45.13712" lon="5.46854">
        <ele>1211.8684082031</ele>
        <time>2011-05-11T14:46:15Z</time>
      </trkpt>
      <trkpt lat="45.13715" lon="5.46874">
        <ele>1210.1137695312</ele>
        <time>2011-05-11T14:46:17Z</time>
      </trkpt>
      <trkpt lat="45.13716" lon="5.46917">
        <ele>1205.0610351562</ele>
        <time>2011-05-11T14:46:21Z</time>
      </trkpt>
      <trkpt lat="45.13738" lon="5.4696">
        <ele>1203.0583496094</ele>
        <time>2011-05-11T14:46:25Z</time>
      </trkpt>
      <trkpt lat="45.13762" lon="5.46987">
        <ele>1202.0595703125</ele>
        <time>2011-05-11T14:46:28Z</time>
      </trkpt>
      <trkpt lat="45.13766" lon="5.46999">
        <ele>1201.2462158203</ele>
        <time>2011-05-11T14:46:29Z</time>
      </trkpt>
      <trkpt lat="45.13765" lon="5.47052">
        <ele>1193.6569824219</ele>
        <time>2011-05-11T14:46:34Z</time>
      </trkpt>
      <trkpt lat="45.13749" lon="5.47055">
        <ele>1191.7907714844</ele>
        <time>2011-05-11T14:46:36Z</time>
      </trkpt>
      <trkpt lat="45.13722" lon="5.47066">
        <ele>1185.8863525391</ele>
        <time>2011-05-11T14:46:39Z</time>
      </trkpt>
      <trkpt lat="45.13712" lon="5.47073">
        <ele>1183.6666259766</ele>
        <time>2011-05-11T14:46:40Z</time>
      </trkpt>
      <trkpt lat="45.13686" lon="5.47092">
        <ele>1179.9039306641</ele>
        <time>2011-05-11T14:46:43Z</time>
      </trkpt>
      <trkpt lat="45.13654" lon="5.47082">
        <ele>1179.0826416016</ele>
        <time>2011-05-11T14:46:47Z</time>
      </trkpt>
      <trkpt lat="45.13626" lon="5.4707">
        <ele>1176.3302001953</ele>
        <time>2011-05-11T14:46:51Z</time>
      </trkpt>
      <trkpt lat="45.13599" lon="5.47062">
        <ele>1171.0750732422</ele>
        <time>2011-05-11T14:46:55Z</time>
      </trkpt>
      <trkpt lat="45.13569" lon="5.47069">
        <ele>1163.7352294922</ele>
        <time>2011-05-11T14:46:59Z</time>
      </trkpt>
      <trkpt lat="45.13551" lon="5.47076">
        <ele>1160.6790771484</ele>
        <time>2011-05-11T14:47:01Z</time>
      </trkpt>
      <trkpt lat="45.13528" lon="5.47095">
        <ele>1159.5701904297</ele>
        <time>2011-05-11T14:47:04Z</time>
      </trkpt>
      <trkpt lat="45.13499" lon="5.47133">
        <ele>1153.1202392578</ele>
        <time>2011-05-11T14:47:08Z</time>
      </trkpt>
      <trkpt lat="45.13465" lon="5.47156">
        <ele>1144.4881591797</ele>
        <time>2011-05-11T14:47:12Z</time>
      </trkpt>
      <trkpt lat="45.13433" lon="5.47168">
        <ele>1137.7310791016</ele>
        <time>2011-05-11T14:47:15Z</time>
      </trkpt>
      <trkpt lat="45.13406" lon="5.47204">
        <ele>1132.8057861328</ele>
        <time>2011-05-11T14:47:19Z</time>
      </trkpt>
      <trkpt lat="45.13407" lon="5.47228">
        <ele>1133.1140136719</ele>
        <time>2011-05-11T14:47:21Z</time>
      </trkpt>
      <trkpt lat="45.13418" lon="5.47248">
        <ele>1135.1939697266</ele>
        <time>2011-05-11T14:47:23Z</time>
      </trkpt>
      <trkpt lat="45.13425" lon="5.47256">
        <ele>1136.9099121094</ele>
        <time>2011-05-11T14:47:24Z</time>
      </trkpt>
      <trkpt lat="45.13462" lon="5.47292">
        <ele>1150.1430664062</ele>
        <time>2011-05-11T14:47:29Z</time>
      </trkpt>
      <trkpt lat="45.13502" lon="5.47328">
        <ele>1158.9025878906</ele>
        <time>2011-05-11T14:47:34Z</time>
      </trkpt>
      <trkpt lat="45.13536" lon="5.47363">
        <ele>1158.8663330078</ele>
        <time>2011-05-11T14:47:38Z</time>
      </trkpt>
      <trkpt lat="45.13572" lon="5.47418">
        <ele>1148.4886474609</ele>
        <time>2011-05-11T14:47:43Z</time>
      </trkpt>
      <trkpt lat="45.13603" lon="5.47447">
        <ele>1145.9636230469</ele>
        <time>2011-05-11T14:47:48Z</time>
      </trkpt>
      <trkpt lat="45.13649" lon="5.47485">
        <ele>1137.7139892578</ele>
        <time>2011-05-11T14:47:54Z</time>
      </trkpt>
      <trkpt lat="45.13696" lon="5.47525">
        <ele>1133.9008789062</ele>
        <time>2011-05-11T14:47:59Z</time>
      </trkpt>
      <trkpt lat="45.13743" lon="5.47562">
        <ele>1130.4351806641</ele>
        <time>2011-05-11T14:48:04Z</time>
      </trkpt>
      <trkpt lat="45.13753" lon="5.47568">
        <ele>1129.6616210938</ele>
        <time>2011-05-11T14:48:05Z</time>
      </trkpt>
      <trkpt lat="45.13789" lon="5.47602">
        <ele>1123.7581787109</ele>
        <time>2011-05-11T14:48:09Z</time>
      </trkpt>
      <trkpt lat="45.13798" lon="5.4761">
        <ele>1122.4908447266</ele>
        <time>2011-05-11T14:48:10Z</time>
      </trkpt>
      <trkpt lat="45.13865" lon="5.47653">
        <ele>1118.7108154297</ele>
        <time>2011-05-11T14:48:16Z</time>
      </trkpt>
      <trkpt lat="45.13923" lon="5.47694">
        <ele>1114.8565673828</ele>
        <time>2011-05-11T14:48:21Z</time>
      </trkpt>
      <trkpt lat="45.13982" lon="5.4772">
        <ele>1109.4466552734</ele>
        <time>2011-05-11T14:48:26Z</time>
      </trkpt>
      <trkpt lat="45.14018" lon="5.47734">
        <ele>1110.1613769531</ele>
        <time>2011-05-11T14:48:30Z</time>
      </trkpt>
      <trkpt lat="45.14053" lon="5.47746">
        <ele>1112.3187255859</ele>
        <time>2011-05-11T14:48:34Z</time>
      </trkpt>
      <trkpt lat="45.14111" lon="5.47781">
        <ele>1105.2883300781</ele>
        <time>2011-05-11T14:48:40Z</time>
      </trkpt>
      <trkpt lat="45.14139" lon="5.47795">
        <ele>1105.2264404297</ele>
        <time>2011-05-11T14:48:43Z</time>
      </trkpt>
      <trkpt lat="45.14179" lon="5.47814">
        <ele>1102.1018066406</ele>
        <time>2011-05-11T14:48:48Z</time>
      </trkpt>
      <trkpt lat="45.14201" lon="5.47823">
        <ele>1098.8177490234</ele>
        <time>2011-05-11T14:48:52Z</time>
      </trkpt>
      <trkpt lat="45.14207" lon="5.47826">
        <ele>1097.9697265625</ele>
        <time>2011-05-11T14:48:53Z</time>
      </trkpt>
      <trkpt lat="45.14228" lon="5.47843">
        <ele>1092.3427734375</ele>
        <time>2011-05-11T14:48:56Z</time>
      </trkpt>
      <trkpt lat="45.1427" lon="5.47896">
        <ele>1077.9045410156</ele>
        <time>2011-05-11T14:49:02Z</time>
      </trkpt>
      <trkpt lat="45.14301" lon="5.4793">
        <ele>1073.2210693359</ele>
        <time>2011-05-11T14:49:07Z</time>
      </trkpt>
      <trkpt lat="45.14328" lon="5.47951">
        <ele>1072.3688964844</ele>
        <time>2011-05-11T14:49:12Z</time>
      </trkpt>
      <trkpt lat="45.14359" lon="5.47961">
        <ele>1071.9205322266</ele>
        <time>2011-05-11T14:49:18Z</time>
      </trkpt>
      <trkpt lat="45.1437" lon="5.47963">
        <ele>1071.9479980469</ele>
        <time>2011-05-11T14:49:20Z</time>
      </trkpt>
      <trkpt lat="45.14387" lon="5.47968">
        <ele>1071.7299804688</ele>
        <time>2011-05-11T14:49:25Z</time>
      </trkpt>
      <trkpt lat="45.14393" lon="5.47974">
        <ele>1070.9526367188</ele>
        <time>2011-05-11T14:49:29Z</time>
      </trkpt>
      <trkpt lat="45.14389" lon="5.47977">
        <ele>1070.4633789062</ele>
        <time>2011-05-11T14:49:32Z</time>
      </trkpt>
      <trkpt lat="45.14388" lon="5.47977">
        <ele>1070.4821777344</ele>
        <time>2011-05-11T14:49:34Z</time>
      </trkpt>
      <trkpt lat="45.14384" lon="5.47974">
        <ele>1070.6469726562</ele>
        <time>2011-05-11T14:50:37Z</time>
      </trkpt>
      <trkpt lat="45.14376" lon="5.47972">
        <ele>1070.5454101562</ele>
        <time>2011-05-11T14:50:43Z</time>
      </trkpt>
      <trkpt lat="45.14374" lon="5.47972">
        <ele>1070.5249023438</ele>
        <time>2011-05-11T14:50:45Z</time>
      </trkpt>
      <trkpt lat="45.1437" lon="5.47978">
        <ele>1069.6685791016</ele>
        <time>2011-05-11T14:54:16Z</time>
      </trkpt>
      <trkpt lat="45.14365" lon="5.47978">
        <ele>1069.4763183594</ele>
        <time>2011-05-11T14:54:18Z</time>
      </trkpt>
      <trkpt lat="45.1435" lon="5.47979">
        <ele>1068.8497314453</ele>
        <time>2011-05-11T14:54:22Z</time>
      </trkpt>
      <trkpt lat="45.1434" lon="5.47981">
        <ele>1068.3330078125</ele>
        <time>2011-05-11T14:54:24Z</time>
      </trkpt>
      <trkpt lat="45.14323" lon="5.47985">
        <ele>1066.9085693359</ele>
        <time>2011-05-11T14:54:27Z</time>
      </trkpt>
      <trkpt lat="45.14288" lon="5.47982">
        <ele>1063.431640625</ele>
        <time>2011-05-11T14:54:32Z</time>
      </trkpt>
      <trkpt lat="45.14263" lon="5.47966">
        <ele>1062.7761230469</ele>
        <time>2011-05-11T14:54:35Z</time>
      </trkpt>
      <trkpt lat="45.14225" lon="5.4794">
        <ele>1064.4447021484</ele>
        <time>2011-05-11T14:54:39Z</time>
      </trkpt>
      <trkpt lat="45.14161" lon="5.47908">
        <ele>1063.0335693359</ele>
        <time>2011-05-11T14:54:45Z</time>
      </trkpt>
      <trkpt lat="45.1415" lon="5.47902">
        <ele>1064.4125976562</ele>
        <time>2011-05-11T14:54:46Z</time>
      </trkpt>
      <trkpt lat="45.14089" lon="5.47888">
        <ele>1065.0208740234</ele>
        <time>2011-05-11T14:54:51Z</time>
      </trkpt>
      <trkpt lat="45.14025" lon="5.47877">
        <ele>1056.7333984375</ele>
        <time>2011-05-11T14:54:56Z</time>
      </trkpt>
      <trkpt lat="45.13971" lon="5.47875">
        <ele>1040</ele>
        <time>2011-05-11T14:55:00Z</time>
      </trkpt>
      <trkpt lat="45.13892" lon="5.47859">
        <ele>1040.5532226562</ele>
        <time>2011-05-11T14:55:06Z</time>
      </trkpt>
      <trkpt lat="45.13838" lon="5.47848">
        <ele>1043.279296875</ele>
        <time>2011-05-11T14:55:10Z</time>
      </trkpt>
      <trkpt lat="45.13761" lon="5.47826">
        <ele>1044.1083984375</ele>
        <time>2011-05-11T14:55:16Z</time>
      </trkpt>
      <trkpt lat="45.13688" lon="5.47797">
        <ele>1046.5345458984</ele>
        <time>2011-05-11T14:55:22Z</time>
      </trkpt>
      <trkpt lat="45.13618" lon="5.47771">
        <ele>1043.4156494141</ele>
        <time>2011-05-11T14:55:28Z</time>
      </trkpt>
      <trkpt lat="45.13531" lon="5.47745">
        <ele>1042.037109375</ele>
        <time>2011-05-11T14:55:36Z</time>
      </trkpt>
      <trkpt lat="45.13459" lon="5.47724">
        <ele>1031.2153320312</ele>
        <time>2011-05-11T14:55:43Z</time>
      </trkpt>
      <trkpt lat="45.13392" lon="5.47703">
        <ele>1028.5361328125</ele>
        <time>2011-05-11T14:55:50Z</time>
      </trkpt>
      <trkpt lat="45.13349" lon="5.47688">
        <ele>1027.1864013672</ele>
        <time>2011-05-11T14:55:55Z</time>
      </trkpt>
      <trkpt lat="45.13332" lon="5.47683">
        <ele>1026.2069091797</ele>
        <time>2011-05-11T14:55:57Z</time>
      </trkpt>
      <trkpt lat="45.133" lon="5.47663">
        <ele>1027.0330810547</ele>
        <time>2011-05-11T14:56:01Z</time>
      </trkpt>
      <trkpt lat="45.13284" lon="5.47653">
        <ele>1025.1737060547</ele>
        <time>2011-05-11T14:56:03Z</time>
      </trkpt>
      <trkpt lat="45.13237" lon="5.4764">
        <ele>1017.9075927734</ele>
        <time>2011-05-11T14:56:08Z</time>
      </trkpt>
      <trkpt lat="45.13159" lon="5.47615">
        <ele>1012.8773803711</ele>
        <time>2011-05-11T14:56:16Z</time>
      </trkpt>
      <trkpt lat="45.13149" lon="5.47611">
        <ele>1012.7231445312</ele>
        <time>2011-05-11T14:56:17Z</time>
      </trkpt>
      <trkpt lat="45.13139" lon="5.47607">
        <ele>1012.9223022461</ele>
        <time>2011-05-11T14:56:18Z</time>
      </trkpt>
      <trkpt lat="45.13103" lon="5.47582">
        <ele>1011.2230834961</ele>
        <time>2011-05-11T14:56:22Z</time>
      </trkpt>
      <trkpt lat="45.13083" lon="5.47575">
        <ele>1008.7415771484</ele>
        <time>2011-05-11T14:56:24Z</time>
      </trkpt>
      <trkpt lat="45.13064" lon="5.4757">
        <ele>1003.6884155273</ele>
        <time>2011-05-11T14:56:26Z</time>
      </trkpt>
      <trkpt lat="45.12975" lon="5.47552">
        <ele>990.93090820312</ele>
        <time>2011-05-11T14:56:35Z</time>
      </trkpt>
      <trkpt lat="45.12936" lon="5.47566">
        <ele>982.73541259766</ele>
        <time>2011-05-11T14:56:39Z</time>
      </trkpt>
      <trkpt lat="45.12916" lon="5.4756">
        <ele>980</ele>
        <time>2011-05-11T14:56:41Z</time>
      </trkpt>
      <trkpt lat="45.12895" lon="5.47555">
        <ele>980.01446533203</ele>
        <time>2011-05-11T14:56:43Z</time>
      </trkpt>
      <trkpt lat="45.12862" lon="5.47554">
        <ele>980</ele>
        <time>2011-05-11T14:56:46Z</time>
      </trkpt>
      <trkpt lat="45.12819" lon="5.47539">
        <ele>980</ele>
        <time>2011-05-11T14:56:50Z</time>
      </trkpt>
      <trkpt lat="45.12797" lon="5.47531">
        <ele>980</ele>
        <time>2011-05-11T14:56:52Z</time>
      </trkpt>
      <trkpt lat="45.12751" lon="5.47538">
        <ele>980</ele>
        <time>2011-05-11T14:56:56Z</time>
      </trkpt>
      <trkpt lat="45.12717" lon="5.47545">
        <ele>979.63732910156</ele>
        <time>2011-05-11T14:56:59Z</time>
      </trkpt>
      <trkpt lat="45.1269" lon="5.47569">
        <ele>979.82525634766</ele>
        <time>2011-05-11T14:57:02Z</time>
      </trkpt>
      <trkpt lat="45.12683" lon="5.47583">
        <ele>979.591796875</ele>
        <time>2011-05-11T14:57:03Z</time>
      </trkpt>
      <trkpt lat="45.12677" lon="5.47596">
        <ele>979.3720703125</ele>
        <time>2011-05-11T14:57:04Z</time>
      </trkpt>
      <trkpt lat="45.12646" lon="5.47612">
        <ele>978.25970458984</ele>
        <time>2011-05-11T14:57:07Z</time>
      </trkpt>
      <trkpt lat="45.12635" lon="5.47607">
        <ele>977.84234619141</ele>
        <time>2011-05-11T14:57:08Z</time>
      </trkpt>
      <trkpt lat="45.12604" lon="5.4759">
        <ele>975.22839355469</ele>
        <time>2011-05-11T14:57:11Z</time>
      </trkpt>
      <trkpt lat="45.12574" lon="5.47592">
        <ele>970.42529296875</ele>
        <time>2011-05-11T14:57:14Z</time>
      </trkpt>
      <trkpt lat="45.12564" lon="5.47621">
        <ele>970.51800537109</ele>
        <time>2011-05-11T14:57:16Z</time>
      </trkpt>
      <trkpt lat="45.1256" lon="5.47634">
        <ele>970.49908447266</ele>
        <time>2011-05-11T14:57:17Z</time>
      </trkpt>
      <trkpt lat="45.12537" lon="5.4765">
        <ele>971.20037841797</ele>
        <time>2011-05-11T14:57:20Z</time>
      </trkpt>
      <trkpt lat="45.12518" lon="5.47635">
        <ele>969.39514160156</ele>
        <time>2011-05-11T14:57:22Z</time>
      </trkpt>
      <trkpt lat="45.12499" lon="5.47602">
        <ele>965.58984375</ele>
        <time>2011-05-11T14:57:25Z</time>
      </trkpt>
      <trkpt lat="45.1249" lon="5.47575">
        <ele>961.84979248047</ele>
        <time>2011-05-11T14:57:27Z</time>
      </trkpt>
      <trkpt lat="45.12463" lon="5.47496">
        <ele>960</ele>
        <time>2011-05-11T14:57:33Z</time>
      </trkpt>
      <trkpt lat="45.12458" lon="5.47484">
        <ele>960</ele>
        <time>2011-05-11T14:57:34Z</time>
      </trkpt>
      <trkpt lat="45.12444" lon="5.47463">
        <ele>959.93505859375</ele>
        <time>2011-05-11T14:57:36Z</time>
      </trkpt>
      <trkpt lat="45.12417" lon="5.47443">
        <ele>958.01245117188</ele>
        <time>2011-05-11T14:57:39Z</time>
      </trkpt>
      <trkpt lat="45.12387" lon="5.47446">
        <ele>951.67596435547</ele>
        <time>2011-05-11T14:57:42Z</time>
      </trkpt>
      <trkpt lat="45.12368" lon="5.47459">
        <ele>949.59796142578</ele>
        <time>2011-05-11T14:57:44Z</time>
      </trkpt>
      <trkpt lat="45.12346" lon="5.47489">
        <ele>947.66369628906</ele>
        <time>2011-05-11T14:57:47Z</time>
      </trkpt>
      <trkpt lat="45.12328" lon="5.47504">
        <ele>945.96801757812</ele>
        <time>2011-05-11T14:57:49Z</time>
      </trkpt>
      <trkpt lat="45.12297" lon="5.47501">
        <ele>943.11248779297</ele>
        <time>2011-05-11T14:57:52Z</time>
      </trkpt>
      <trkpt lat="45.12283" lon="5.47475">
        <ele>940.51544189453</ele>
        <time>2011-05-11T14:57:54Z</time>
      </trkpt>
      <trkpt lat="45.1227" lon="5.47433">
        <ele>937.04309082031</ele>
        <time>2011-05-11T14:57:57Z</time>
      </trkpt>
      <trkpt lat="45.12245" lon="5.47412">
        <ele>934.42242431641</ele>
        <time>2011-05-11T14:58:00Z</time>
      </trkpt>
      <trkpt lat="45.12234" lon="5.47409">
        <ele>933.45001220703</ele>
        <time>2011-05-11T14:58:01Z</time>
      </trkpt>
      <trkpt lat="45.12189" lon="5.47399">
        <ele>926.18572998047</ele>
        <time>2011-05-11T14:58:05Z</time>
      </trkpt>
      <trkpt lat="45.12159" lon="5.47411">
        <ele>920.04205322266</ele>
        <time>2011-05-11T14:58:08Z</time>
      </trkpt>
      <trkpt lat="45.12157" lon="5.47438">
        <ele>921.49157714844</ele>
        <time>2011-05-11T14:58:10Z</time>
      </trkpt>
      <trkpt lat="45.12172" lon="5.47481">
        <ele>927.63928222656</ele>
        <time>2011-05-11T14:58:13Z</time>
      </trkpt>
      <trkpt lat="45.1218" lon="5.47547">
        <ele>931.7861328125</ele>
        <time>2011-05-11T14:58:17Z</time>
      </trkpt>
      <trkpt lat="45.12178" lon="5.47565">
        <ele>931.03472900391</ele>
        <time>2011-05-11T14:58:18Z</time>
      </trkpt>
      <trkpt lat="45.1218" lon="5.47634">
        <ele>930.42370605469</ele>
        <time>2011-05-11T14:58:22Z</time>
      </trkpt>
      <trkpt lat="45.1217" lon="5.4766">
        <ele>929.19720458984</ele>
        <time>2011-05-11T14:58:25Z</time>
      </trkpt>
      <trkpt lat="45.12156" lon="5.4765">
        <ele>926.08288574219</ele>
        <time>2011-05-11T14:58:27Z</time>
      </trkpt>
      <trkpt lat="45.12154" lon="5.47625">
        <ele>924.92572021484</ele>
        <time>2011-05-11T14:58:29Z</time>
      </trkpt>
      <trkpt lat="45.12149" lon="5.47569">
        <ele>925.41027832031</ele>
        <time>2011-05-11T14:58:33Z</time>
      </trkpt>
      <trkpt lat="45.12123" lon="5.47502">
        <ele>921.15905761719</ele>
        <time>2011-05-11T14:58:38Z</time>
      </trkpt>
      <trkpt lat="45.12114" lon="5.47491">
        <ele>918.89624023438</ele>
        <time>2011-05-11T14:58:39Z</time>
      </trkpt>
      <trkpt lat="45.12069" lon="5.47437">
        <ele>906.32946777344</ele>
        <time>2011-05-11T14:58:44Z</time>
      </trkpt>
      <trkpt lat="45.12049" lon="5.47416">
        <ele>902.43493652344</ele>
        <time>2011-05-11T14:58:46Z</time>
      </trkpt>
      <trkpt lat="45.12016" lon="5.4739">
        <ele>901.59704589844</ele>
        <time>2011-05-11T14:58:49Z</time>
      </trkpt>
      <trkpt lat="45.11969" lon="5.47359">
        <ele>907.31427001953</ele>
        <time>2011-05-11T14:58:53Z</time>
      </trkpt>
      <trkpt lat="45.11943" lon="5.47359">
        <ele>905.14270019531</ele>
        <time>2011-05-11T14:58:55Z</time>
      </trkpt>
      <trkpt lat="45.11864" lon="5.47359">
        <ele>907.60919189453</ele>
        <time>2011-05-11T14:59:01Z</time>
      </trkpt>
      <trkpt lat="45.11794" lon="5.4735">
        <ele>910.29132080078</ele>
        <time>2011-05-11T14:59:06Z</time>
      </trkpt>
      <trkpt lat="45.11726" lon="5.47349">
        <ele>907.77081298828</ele>
        <time>2011-05-11T14:59:11Z</time>
      </trkpt>
      <trkpt lat="45.11654" lon="5.4734">
        <ele>904.30871582031</ele>
        <time>2011-05-11T14:59:16Z</time>
      </trkpt>
      <trkpt lat="45.11566" lon="5.47332">
        <ele>891.69750976562</ele>
        <time>2011-05-11T14:59:22Z</time>
      </trkpt>
      <trkpt lat="45.11521" lon="5.47328">
        <ele>878.03564453125</ele>
        <time>2011-05-11T14:59:25Z</time>
      </trkpt>
      <trkpt lat="45.11506" lon="5.47326">
        <ele>873.81842041016</ele>
        <time>2011-05-11T14:59:26Z</time>
      </trkpt>
      <trkpt lat="45.1145" lon="5.47295">
        <ele>862.98175048828</ele>
        <time>2011-05-11T14:59:30Z</time>
      </trkpt>
      <trkpt lat="45.11419" lon="5.47247">
        <ele>866.66955566406</ele>
        <time>2011-05-11T14:59:33Z</time>
      </trkpt>
      <trkpt lat="45.11397" lon="5.47218">
        <ele>870.2041015625</ele>
        <time>2011-05-11T14:59:35Z</time>
      </trkpt>
      <trkpt lat="45.11354" lon="5.472">
        <ele>872.67822265625</ele>
        <time>2011-05-11T14:59:38Z</time>
      </trkpt>
      <trkpt lat="45.11325" lon="5.47202">
        <ele>868.77349853516</ele>
        <time>2011-05-11T14:59:40Z</time>
      </trkpt>
      <trkpt lat="45.11296" lon="5.47201">
        <ele>865.8955078125</ele>
        <time>2011-05-11T14:59:42Z</time>
      </trkpt>
      <trkpt lat="45.11223" lon="5.4717">
        <ele>863.32513427734</ele>
        <time>2011-05-11T14:59:47Z</time>
      </trkpt>
      <trkpt lat="45.112" lon="5.47159">
        <ele>863.33026123047</ele>
        <time>2011-05-11T14:59:49Z</time>
      </trkpt>
      <trkpt lat="45.11179" lon="5.47161">
        <ele>858.97735595703</ele>
        <time>2011-05-11T14:59:52Z</time>
      </trkpt>
      <trkpt lat="45.11176" lon="5.47177">
        <ele>854.74865722656</ele>
        <time>2011-05-11T14:59:54Z</time>
      </trkpt>
      <trkpt lat="45.11169" lon="5.47228">
        <ele>842.85430908203</ele>
        <time>2011-05-11T15:00:00Z</time>
      </trkpt>
      <trkpt lat="45.11165" lon="5.47256">
        <ele>839.44500732422</ele>
        <time>2011-05-11T15:00:03Z</time>
      </trkpt>
      <trkpt lat="45.11166" lon="5.47298">
        <ele>837.23425292969</ele>
        <time>2011-05-11T15:00:07Z</time>
      </trkpt>
      <trkpt lat="45.11169" lon="5.47335">
        <ele>835.23333740234</ele>
        <time>2011-05-11T15:00:10Z</time>
      </trkpt>
      <trkpt lat="45.11158" lon="5.47354">
        <ele>835.66674804688</ele>
        <time>2011-05-11T15:00:12Z</time>
      </trkpt>
      <trkpt lat="45.1115" lon="5.47361">
        <ele>835.96600341797</ele>
        <time>2011-05-11T15:00:13Z</time>
      </trkpt>
      <trkpt lat="45.11129" lon="5.47386">
        <ele>835.61944580078</ele>
        <time>2011-05-11T15:00:16Z</time>
      </trkpt>
      <trkpt lat="45.11123" lon="5.4741">
        <ele>836.55603027344</ele>
        <time>2011-05-11T15:00:18Z</time>
      </trkpt>
      <trkpt lat="45.11124" lon="5.47424">
        <ele>837.06793212891</ele>
        <time>2011-05-11T15:00:19Z</time>
      </trkpt>
      <trkpt lat="45.11117" lon="5.47468">
        <ele>838.92755126953</ele>
        <time>2011-05-11T15:00:23Z</time>
      </trkpt>
      <trkpt lat="45.11094" lon="5.47464">
        <ele>838.4072265625</ele>
        <time>2011-05-11T15:00:26Z</time>
      </trkpt>
      <trkpt lat="45.11086" lon="5.47458">
        <ele>837.94030761719</ele>
        <time>2011-05-11T15:00:27Z</time>
      </trkpt>
      <trkpt lat="45.1108" lon="5.47451">
        <ele>837.45623779297</ele>
        <time>2011-05-11T15:00:28Z</time>
      </trkpt>
      <trkpt lat="45.11065" lon="5.47436">
        <ele>836.51550292969</ele>
        <time>2011-05-11T15:00:30Z</time>
      </trkpt>
      <trkpt lat="45.11044" lon="5.47393">
        <ele>833.28143310547</ele>
        <time>2011-05-11T15:00:34Z</time>
      </trkpt>
      <trkpt lat="45.11039" lon="5.47362">
        <ele>831.45068359375</ele>
        <time>2011-05-11T15:00:36Z</time>
      </trkpt>
      <trkpt lat="45.11014" lon="5.47339">
        <ele>828.51336669922</ele>
        <time>2011-05-11T15:00:39Z</time>
      </trkpt>
      <trkpt lat="45.10993" lon="5.47345">
        <ele>828.29290771484</ele>
        <time>2011-05-11T15:00:41Z</time>
      </trkpt>
      <trkpt lat="45.10971" lon="5.47346">
        <ele>828.30084228516</ele>
        <time>2011-05-11T15:00:43Z</time>
      </trkpt>
      <trkpt lat="45.10953" lon="5.4733">
        <ele>825.35852050781</ele>
        <time>2011-05-11T15:00:45Z</time>
      </trkpt>
      <trkpt lat="45.10917" lon="5.47299">
        <ele>820.74639892578</ele>
        <time>2011-05-11T15:00:49Z</time>
      </trkpt>
      <trkpt lat="45.10873" lon="5.47283">
        <ele>820</ele>
        <time>2011-05-11T15:00:53Z</time>
      </trkpt>
      <trkpt lat="45.10852" lon="5.47278">
        <ele>820</ele>
        <time>2011-05-11T15:00:55Z</time>
      </trkpt>
      <trkpt lat="45.10818" lon="5.47282">
        <ele>820</ele>
        <time>2011-05-11T15:00:58Z</time>
      </trkpt>
      <trkpt lat="45.10784" lon="5.47279">
        <ele>819.21563720703</ele>
        <time>2011-05-11T15:01:01Z</time>
      </trkpt>
      <trkpt lat="45.10752" lon="5.47262">
        <ele>815.65026855469</ele>
        <time>2011-05-11T15:01:04Z</time>
      </trkpt>
      <trkpt lat="45.10732" lon="5.47245">
        <ele>812.25225830078</ele>
        <time>2011-05-11T15:01:06Z</time>
      </trkpt>
      <trkpt lat="45.10714" lon="5.47225">
        <ele>808.64227294922</ele>
        <time>2011-05-11T15:01:08Z</time>
      </trkpt>
      <trkpt lat="45.10689" lon="5.47191">
        <ele>800.998046875</ele>
        <time>2011-05-11T15:01:11Z</time>
      </trkpt>
      <trkpt lat="45.10658" lon="5.47177">
        <ele>797.50628662109</ele>
        <time>2011-05-11T15:01:14Z</time>
      </trkpt>
      <trkpt lat="45.10628" lon="5.47205">
        <ele>796.73114013672</ele>
        <time>2011-05-11T15:01:17Z</time>
      </trkpt>
      <trkpt lat="45.1062" lon="5.47217">
        <ele>797.00842285156</ele>
        <time>2011-05-11T15:01:18Z</time>
      </trkpt>
      <trkpt lat="45.10585" lon="5.47256">
        <ele>798.73205566406</ele>
        <time>2011-05-11T15:01:22Z</time>
      </trkpt>
      <trkpt lat="45.10545" lon="5.47264">
        <ele>797.43493652344</ele>
        <time>2011-05-11T15:01:26Z</time>
      </trkpt>
      <trkpt lat="45.10534" lon="5.47261">
        <ele>796.52905273438</ele>
        <time>2011-05-11T15:01:27Z</time>
      </trkpt>
      <trkpt lat="45.1049" lon="5.47264">
        <ele>793.61712646484</ele>
        <time>2011-05-11T15:01:32Z</time>
      </trkpt>
      <trkpt lat="45.10452" lon="5.47296">
        <ele>793.07476806641</ele>
        <time>2011-05-11T15:01:38Z</time>
      </trkpt>
      <trkpt lat="45.10437" lon="5.47311">
        <ele>793.16589355469</ele>
        <time>2011-05-11T15:01:42Z</time>
      </trkpt>
      <trkpt lat="45.10413" lon="5.47323">
        <ele>793.33642578125</ele>
        <time>2011-05-11T15:01:48Z</time>
      </trkpt>
      <trkpt lat="45.10399" lon="5.47323">
        <ele>792.94500732422</ele>
        <time>2011-05-11T15:01:52Z</time>
      </trkpt>
      <trkpt lat="45.10391" lon="5.47323">
        <ele>792.55358886719</ele>
        <time>2011-05-11T15:01:55Z</time>
      </trkpt>
      <trkpt lat="45.10378" lon="5.4732">
        <ele>791.65411376953</ele>
        <time>2011-05-11T15:02:01Z</time>
      </trkpt>
      <trkpt lat="45.1037" lon="5.47321">
        <ele>791.57861328125</ele>
        <time>2011-05-11T15:02:07Z</time>
      </trkpt>
      <trkpt lat="45.10371" lon="5.47321">
        <ele>791.59228515625</ele>
        <time>2011-05-11T15:02:08Z</time>
      </trkpt>
      <trkpt lat="45.1035" lon="5.47309">
        <ele>789.53967285156</ele>
        <time>2011-05-11T15:02:26Z</time>
      </trkpt>
      <trkpt lat="45.1034" lon="5.47304">
        <ele>788.82281494141</ele>
        <time>2011-05-11T15:02:28Z</time>
      </trkpt>
      <trkpt lat="45.10312" lon="5.47281">
        <ele>786.42175292969</ele>
        <time>2011-05-11T15:02:33Z</time>
      </trkpt>
      <trkpt lat="45.10294" lon="5.47263">
        <ele>783.30609130859</ele>
        <time>2011-05-11T15:02:36Z</time>
      </trkpt>
      <trkpt lat="45.10283" lon="5.4725">
        <ele>781.05731201172</ele>
        <time>2011-05-11T15:02:38Z</time>
      </trkpt>
      <trkpt lat="45.10265" lon="5.47234">
        <ele>779.38079833984</ele>
        <time>2011-05-11T15:02:41Z</time>
      </trkpt>
      <trkpt lat="45.10258" lon="5.47229">
        <ele>778.80053710938</ele>
        <time>2011-05-11T15:02:42Z</time>
      </trkpt>
      <trkpt lat="45.10224" lon="5.47209">
        <ele>774.29840087891</ele>
        <time>2011-05-11T15:02:47Z</time>
      </trkpt>
      <trkpt lat="45.10194" lon="5.47215">
        <ele>772.19390869141</ele>
        <time>2011-05-11T15:02:51Z</time>
      </trkpt>
      <trkpt lat="45.10187" lon="5.47221">
        <ele>772.11810302734</ele>
        <time>2011-05-11T15:02:52Z</time>
      </trkpt>
      <trkpt lat="45.10167" lon="5.47244">
        <ele>772.30590820312</ele>
        <time>2011-05-11T15:02:55Z</time>
      </trkpt>
      <trkpt lat="45.10151" lon="5.47288">
        <ele>775.80285644531</ele>
        <time>2011-05-11T15:02:59Z</time>
      </trkpt>
      <trkpt lat="45.10146" lon="5.47354">
        <ele>781.98834228516</ele>
        <time>2011-05-11T15:03:04Z</time>
      </trkpt>
      <trkpt lat="45.10151" lon="5.47406">
        <ele>785.06701660156</ele>
        <time>2011-05-11T15:03:08Z</time>
      </trkpt>
      <trkpt lat="45.10151" lon="5.47446">
        <ele>787.53875732422</ele>
        <time>2011-05-11T15:03:11Z</time>
      </trkpt>
      <trkpt lat="45.10137" lon="5.47482">
        <ele>788.90148925781</ele>
        <time>2011-05-11T15:03:14Z</time>
      </trkpt>
      <trkpt lat="45.10119" lon="5.47494">
        <ele>782.91967773438</ele>
        <time>2011-05-11T15:03:16Z</time>
      </trkpt>
      <trkpt lat="45.10067" lon="5.47529">
        <ele>779.93615722656</ele>
        <time>2011-05-11T15:03:22Z</time>
      </trkpt>
      <trkpt lat="45.10038" lon="5.47532">
        <ele>778.56481933594</ele>
        <time>2011-05-11T15:03:25Z</time>
      </trkpt>
      <trkpt lat="45.10022" lon="5.47512">
        <ele>774.95568847656</ele>
        <time>2011-05-11T15:03:27Z</time>
      </trkpt>
      <trkpt lat="45.09997" lon="5.47488">
        <ele>771.17010498047</ele>
        <time>2011-05-11T15:03:30Z</time>
      </trkpt>
      <trkpt lat="45.09969" lon="5.47481">
        <ele>771.07061767578</ele>
        <time>2011-05-11T15:03:33Z</time>
      </trkpt>
      <trkpt lat="45.0995" lon="5.47492">
        <ele>772.93829345703</ele>
        <time>2011-05-11T15:03:35Z</time>
      </trkpt>
      <trkpt lat="45.09925" lon="5.47519">
        <ele>778.13262939453</ele>
        <time>2011-05-11T15:03:38Z</time>
      </trkpt>
      <trkpt lat="45.09902" lon="5.47531">
        <ele>780.77264404297</ele>
        <time>2011-05-11T15:03:41Z</time>
      </trkpt>
      <trkpt lat="45.09897" lon="5.47519">
        <ele>779.49291992188</ele>
        <time>2011-05-11T15:03:42Z</time>
      </trkpt>
      <trkpt lat="45.09885" lon="5.47472">
        <ele>774.27709960938</ele>
        <time>2011-05-11T15:03:46Z</time>
      </trkpt>
      <trkpt lat="45.09861" lon="5.47438">
        <ele>771.57208251953</ele>
        <time>2011-05-11T15:03:49Z</time>
      </trkpt>
      <trkpt lat="45.09843" lon="5.47425">
        <ele>772.07464599609</ele>
        <time>2011-05-11T15:03:51Z</time>
      </trkpt>
      <trkpt lat="45.09787" lon="5.47387">
        <ele>772.56188964844</ele>
        <time>2011-05-11T15:03:57Z</time>
      </trkpt>
      <trkpt lat="45.0975" lon="5.47368">
        <ele>772.50354003906</ele>
        <time>2011-05-11T15:04:01Z</time>
      </trkpt>
      <trkpt lat="45.09739" lon="5.47345">
        <ele>770.28155517578</ele>
        <time>2011-05-11T15:04:03Z</time>
      </trkpt>
      <trkpt lat="45.09736" lon="5.47331">
        <ele>768.75866699219</ele>
        <time>2011-05-11T15:04:04Z</time>
      </trkpt>
      <trkpt lat="45.09732" lon="5.47303">
        <ele>765.49011230469</ele>
        <time>2011-05-11T15:04:06Z</time>
      </trkpt>
      <trkpt lat="45.09727" lon="5.47247">
        <ele>760.60772705078</ele>
        <time>2011-05-11T15:04:10Z</time>
      </trkpt>
      <trkpt lat="45.09723" lon="5.47234">
        <ele>759.84521484375</ele>
        <time>2011-05-11T15:04:11Z</time>
      </trkpt>
      <trkpt lat="45.09684" lon="5.47146">
        <ele>759.72900390625</ele>
        <time>2011-05-11T15:04:18Z</time>
      </trkpt>
      <trkpt lat="45.0965" lon="5.47066">
        <ele>758.13024902344</ele>
        <time>2011-05-11T15:04:24Z</time>
      </trkpt>
      <trkpt lat="45.09644" lon="5.47052">
        <ele>755.87951660156</ele>
        <time>2011-05-11T15:04:25Z</time>
      </trkpt>
      <trkpt lat="45.0961" lon="5.47009">
        <ele>744.26324462891</ele>
        <time>2011-05-11T15:04:29Z</time>
      </trkpt>
      <trkpt lat="45.09544" lon="5.46965">
        <ele>726.99896240234</ele>
        <time>2011-05-11T15:04:35Z</time>
      </trkpt>
      <trkpt lat="45.09497" lon="5.46948">
        <ele>720.83441162109</ele>
        <time>2011-05-11T15:04:39Z</time>
      </trkpt>
      <trkpt lat="45.09484" lon="5.46944">
        <ele>720</ele>
        <time>2011-05-11T15:04:40Z</time>
      </trkpt>
      <trkpt lat="45.09447" lon="5.46932">
        <ele>720</ele>
        <time>2011-05-11T15:04:43Z</time>
      </trkpt>
      <trkpt lat="45.0939" lon="5.46891">
        <ele>718.10723876953</ele>
        <time>2011-05-11T15:04:48Z</time>
      </trkpt>
      <trkpt lat="45.09378" lon="5.46881">
        <ele>716.77044677734</ele>
        <time>2011-05-11T15:04:49Z</time>
      </trkpt>
      <trkpt lat="45.09341" lon="5.46868">
        <ele>712.25390625</ele>
        <time>2011-05-11T15:04:52Z</time>
      </trkpt>
      <trkpt lat="45.09319" lon="5.46881">
        <ele>710.23059082031</ele>
        <time>2011-05-11T15:04:54Z</time>
      </trkpt>
      <trkpt lat="45.09315" lon="5.46906">
        <ele>712.93353271484</ele>
        <time>2011-05-11T15:04:56Z</time>
      </trkpt>
      <trkpt lat="45.09327" lon="5.46926">
        <ele>716.41131591797</ele>
        <time>2011-05-11T15:04:58Z</time>
      </trkpt>
      <trkpt lat="45.09361" lon="5.46989">
        <ele>721.57275390625</ele>
        <time>2011-05-11T15:05:03Z</time>
      </trkpt>
      <trkpt lat="45.09382" lon="5.47051">
        <ele>729.07037353516</ele>
        <time>2011-05-11T15:05:07Z</time>
      </trkpt>
      <trkpt lat="45.09399" lon="5.471">
        <ele>729.96179199219</ele>
        <time>2011-05-11T15:05:10Z</time>
      </trkpt>
      <trkpt lat="45.09399" lon="5.47152">
        <ele>723.62841796875</ele>
        <time>2011-05-11T15:05:13Z</time>
      </trkpt>
      <trkpt lat="45.09387" lon="5.47176">
        <ele>718.86346435547</ele>
        <time>2011-05-11T15:05:15Z</time>
      </trkpt>
      <trkpt lat="45.09365" lon="5.47175">
        <ele>713.68896484375</ele>
        <time>2011-05-11T15:05:17Z</time>
      </trkpt>
      <trkpt lat="45.09352" lon="5.47152">
        <ele>714.78295898438</ele>
        <time>2011-05-11T15:05:19Z</time>
      </trkpt>
      <trkpt lat="45.09348" lon="5.47137">
        <ele>716.42919921875</ele>
        <time>2011-05-11T15:05:20Z</time>
      </trkpt>
      <trkpt lat="45.09341" lon="5.47106">
        <ele>718.54315185547</ele>
        <time>2011-05-11T15:05:22Z</time>
      </trkpt>
      <trkpt lat="45.09324" lon="5.47066">
        <ele>719.51959228516</ele>
        <time>2011-05-11T15:05:25Z</time>
      </trkpt>
      <trkpt lat="45.09282" lon="5.4701">
        <ele>720.04962158203</ele>
        <time>2011-05-11T15:05:30Z</time>
      </trkpt>
      <trkpt lat="45.09272" lon="5.47001">
        <ele>719.99194335938</ele>
        <time>2011-05-11T15:05:31Z</time>
      </trkpt>
      <trkpt lat="45.09224" lon="5.46985">
        <ele>720</ele>
        <time>2011-05-11T15:05:35Z</time>
      </trkpt>
      <trkpt lat="45.09209" lon="5.46988">
        <ele>720</ele>
        <time>2011-05-11T15:05:36Z</time>
      </trkpt>
      <trkpt lat="45.09144" lon="5.46965">
        <ele>720</ele>
        <time>2011-05-11T15:05:41Z</time>
      </trkpt>
      <trkpt lat="45.09066" lon="5.46934">
        <ele>708.91900634766</ele>
        <time>2011-05-11T15:05:47Z</time>
      </trkpt>
      <trkpt lat="45.08998" lon="5.46916">
        <ele>688.44128417969</ele>
        <time>2011-05-11T15:05:52Z</time>
      </trkpt>
      <trkpt lat="45.08965" lon="5.46905">
        <ele>672.61706542969</ele>
        <time>2011-05-11T15:05:55Z</time>
      </trkpt>
      <trkpt lat="45.0893" lon="5.46883">
        <ele>646.73992919922</ele>
        <time>2011-05-11T15:05:59Z</time>
      </trkpt>
      <trkpt lat="45.08906" lon="5.46868">
        <ele>639.12280273438</ele>
        <time>2011-05-11T15:06:02Z</time>
      </trkpt>
      <trkpt lat="45.08884" lon="5.46857">
        <ele>637.22161865234</ele>
        <time>2011-05-11T15:06:05Z</time>
      </trkpt>
      <trkpt lat="45.08853" lon="5.46848">
        <ele>632.53771972656</ele>
        <time>2011-05-11T15:06:11Z</time>
      </trkpt>
      <trkpt lat="45.08847" lon="5.46845">
        <ele>632.29376220703</ele>
        <time>2011-05-11T15:06:12Z</time>
      </trkpt>
      <trkpt lat="45.08831" lon="5.46827">
        <ele>630.9775390625</ele>
        <time>2011-05-11T15:06:16Z</time>
      </trkpt>
      <trkpt lat="45.08824" lon="5.46802">
        <ele>630.78509521484</ele>
        <time>2011-05-11T15:06:20Z</time>
      </trkpt>
      <trkpt lat="45.08827" lon="5.4679">
        <ele>631.5439453125</ele>
        <time>2011-05-11T15:06:24Z</time>
      </trkpt>
      <trkpt lat="45.08828" lon="5.46786">
        <ele>631.75408935547</ele>
        <time>2011-05-11T15:06:29Z</time>
      </trkpt>
      <trkpt lat="45.08823" lon="5.4678">
        <ele>631.44873046875</ele>
        <time>2011-05-11T15:07:11Z</time>
      </trkpt>
      <trkpt lat="45.0882" lon="5.46785">
        <ele>630.88977050781</ele>
        <time>2011-05-11T15:08:09Z</time>
      </trkpt>
      <trkpt lat="45.08817" lon="5.4678">
        <ele>630.5673828125</ele>
        <time>2011-05-11T15:08:13Z</time>
      </trkpt>
      <trkpt lat="45.08809" lon="5.46773">
        <ele>629.71850585938</ele>
        <time>2011-05-11T15:08:19Z</time>
      </trkpt>
      <trkpt lat="45.08799" lon="5.46747">
        <ele>629.61511230469</ele>
        <time>2011-05-11T15:08:26Z</time>
      </trkpt>
      <trkpt lat="45.08794" lon="5.46729">
        <ele>629.60778808594</ele>
        <time>2011-05-11T15:08:30Z</time>
      </trkpt>
      <trkpt lat="45.08784" lon="5.46699">
        <ele>629.51574707031</ele>
        <time>2011-05-11T15:08:36Z</time>
      </trkpt>
      <trkpt lat="45.08782" lon="5.46694">
        <ele>629.50720214844</ele>
        <time>2011-05-11T15:08:37Z</time>
      </trkpt>
      <trkpt lat="45.08767" lon="5.46654">
        <ele>628.77423095703</ele>
        <time>2011-05-11T15:08:44Z</time>
      </trkpt>
      <trkpt lat="45.08746" lon="5.46612">
        <ele>625.01489257812</ele>
        <time>2011-05-11T15:08:51Z</time>
      </trkpt>
      <trkpt lat="45.08731" lon="5.46572">
        <ele>623.92864990234</ele>
        <time>2011-05-11T15:08:56Z</time>
      </trkpt>
      <trkpt lat="45.08728" lon="5.46554">
        <ele>623.208984375</ele>
        <time>2011-05-11T15:08:58Z</time>
      </trkpt>
      <trkpt lat="45.08727" lon="5.46524">
        <ele>623.11804199219</ele>
        <time>2011-05-11T15:09:01Z</time>
      </trkpt>
      <trkpt lat="45.08731" lon="5.46464">
        <ele>622.99487304688</ele>
        <time>2011-05-11T15:09:07Z</time>
      </trkpt>
      <trkpt lat="45.08722" lon="5.46405">
        <ele>619.61303710938</ele>
        <time>2011-05-11T15:09:13Z</time>
      </trkpt>
      <trkpt lat="45.08718" lon="5.46384">
        <ele>618.97680664062</ele>
        <time>2011-05-11T15:09:15Z</time>
      </trkpt>
      <trkpt lat="45.08699" lon="5.46324">
        <ele>617.28015136719</ele>
        <time>2011-05-11T15:09:21Z</time>
      </trkpt>
      <trkpt lat="45.0868" lon="5.46259">
        <ele>615.31622314453</ele>
        <time>2011-05-11T15:09:27Z</time>
      </trkpt>
      <trkpt lat="45.08678" lon="5.46247">
        <ele>615</ele>
        <time>2011-05-11T15:09:28Z</time>
      </trkpt>
      <trkpt lat="45.08679" lon="5.46183">
        <ele>618.13311767578</ele>
        <time>2011-05-11T15:09:33Z</time>
      </trkpt>
      <trkpt lat="45.08668" lon="5.46134">
        <ele>624.62268066406</ele>
        <time>2011-05-11T15:09:37Z</time>
      </trkpt>
      <trkpt lat="45.08663" lon="5.46123">
        <ele>624.96435546875</ele>
        <time>2011-05-11T15:09:38Z</time>
      </trkpt>
      <trkpt lat="45.0864" lon="5.46069">
        <ele>628.39007568359</ele>
        <time>2011-05-11T15:09:43Z</time>
      </trkpt>
      <trkpt lat="45.08614" lon="5.46037">
        <ele>628.90466308594</ele>
        <time>2011-05-11T15:09:47Z</time>
      </trkpt>
      <trkpt lat="45.08606" lon="5.46032">
        <ele>627.85638427734</ele>
        <time>2011-05-11T15:09:48Z</time>
      </trkpt>
      <trkpt lat="45.08553" lon="5.46003">
        <ele>618.02825927734</ele>
        <time>2011-05-11T15:09:55Z</time>
      </trkpt>
      <trkpt lat="45.08515" lon="5.45973">
        <ele>613.76226806641</ele>
        <time>2011-05-11T15:10:00Z</time>
      </trkpt>
      <trkpt lat="45.08498" lon="5.45959">
        <ele>612.00720214844</ele>
        <time>2011-05-11T15:10:02Z</time>
      </trkpt>
      <trkpt lat="45.08452" lon="5.45909">
        <ele>616.15570068359</ele>
        <time>2011-05-11T15:10:08Z</time>
      </trkpt>
      <trkpt lat="45.0843" lon="5.45881">
        <ele>618.66632080078</ele>
        <time>2011-05-11T15:10:11Z</time>
      </trkpt>
      <trkpt lat="45.08387" lon="5.45831">
        <ele>623.85235595703</ele>
        <time>2011-05-11T15:10:17Z</time>
      </trkpt>
      <trkpt lat="45.08348" lon="5.45806">
        <ele>619.73590087891</ele>
        <time>2011-05-11T15:10:22Z</time>
      </trkpt>
      <trkpt lat="45.08336" lon="5.45796">
        <ele>619.79559326172</ele>
        <time>2011-05-11T15:10:24Z</time>
      </trkpt>
      <trkpt lat="45.08315" lon="5.45774">
        <ele>619.95056152344</ele>
        <time>2011-05-11T15:10:28Z</time>
      </trkpt>
      <trkpt lat="45.08306" lon="5.45776">
        <ele>615.94848632812</ele>
        <time>2011-05-11T15:10:29Z</time>
      </trkpt>
      <trkpt lat="45.08265" lon="5.45808">
        <ele>592.44366455078</ele>
        <time>2011-05-11T15:10:34Z</time>
      </trkpt>
      <trkpt lat="45.08254" lon="5.4581">
        <ele>589.61126708984</ele>
        <time>2011-05-11T15:10:35Z</time>
      </trkpt>
      <trkpt lat="45.08205" lon="5.45793">
        <ele>580.23803710938</ele>
        <time>2011-05-11T15:10:40Z</time>
      </trkpt>
      <trkpt lat="45.08102" lon="5.45707">
        <ele>568.84661865234</ele>
        <time>2011-05-11T15:10:49Z</time>
      </trkpt>
      <trkpt lat="45.08053" lon="5.45647">
        <ele>565.34436035156</ele>
        <time>2011-05-11T15:10:53Z</time>
      </trkpt>
      <trkpt lat="45.08021" lon="5.45608">
        <ele>562.54608154297</ele>
        <time>2011-05-11T15:10:56Z</time>
      </trkpt>
      <trkpt lat="45.07989" lon="5.45554">
        <ele>576.15100097656</ele>
        <time>2011-05-11T15:11:00Z</time>
      </trkpt>
      <trkpt lat="45.07964" lon="5.45511">
        <ele>586.0625</ele>
        <time>2011-05-11T15:11:03Z</time>
      </trkpt>
      <trkpt lat="45.07925" lon="5.45468">
        <ele>587.64178466797</ele>
        <time>2011-05-11T15:11:07Z</time>
      </trkpt>
      <trkpt lat="45.07879" lon="5.45437">
        <ele>577.70288085938</ele>
        <time>2011-05-11T15:11:11Z</time>
      </trkpt>
      <trkpt lat="45.07835" lon="5.45397">
        <ele>569.53082275391</ele>
        <time>2011-05-11T15:11:15Z</time>
      </trkpt>
      <trkpt lat="45.07803" lon="5.45364">
        <ele>550.63916015625</ele>
        <time>2011-05-11T15:11:18Z</time>
      </trkpt>
      <trkpt lat="45.07777" lon="5.45323">
        <ele>539.03381347656</ele>
        <time>2011-05-11T15:11:21Z</time>
      </trkpt>
      <trkpt lat="45.07677" lon="5.45029">
        <ele>600.64916992188</ele>
        <time>2011-05-11T15:11:40Z</time>
      </trkpt>
      <trkpt lat="45.07618" lon="5.44988">
        <ele>591.40856933594</ele>
        <time>2011-05-11T15:11:45Z</time>
      </trkpt>
      <trkpt lat="45.07571" lon="5.44946">
        <ele>586.89465332031</ele>
        <time>2011-05-11T15:11:49Z</time>
      </trkpt>
      <trkpt lat="45.07527" lon="5.44905">
        <ele>584.29248046875</ele>
        <time>2011-05-11T15:11:53Z</time>
      </trkpt>
      <trkpt lat="45.07452" lon="5.44856">
        <ele>523.81488037109</ele>
        <time>2011-05-11T15:11:59Z</time>
      </trkpt>
      <trkpt lat="45.0743" lon="5.44831">
        <ele>518.12072753906</ele>
        <time>2011-05-11T15:12:01Z</time>
      </trkpt>
      <trkpt lat="45.07405" lon="5.4477">
        <ele>530.79211425781</ele>
        <time>2011-05-11T15:12:05Z</time>
      </trkpt>
      <trkpt lat="45.07399" lon="5.44756">
        <ele>533.24749755859</ele>
        <time>2011-05-11T15:12:06Z</time>
      </trkpt>
      <trkpt lat="45.07354" lon="5.44726">
        <ele>505.27337646484</ele>
        <time>2011-05-11T15:12:10Z</time>
      </trkpt>
      <trkpt lat="45.07341" lon="5.44724">
        <ele>499.75646972656</ele>
        <time>2011-05-11T15:12:11Z</time>
      </trkpt>
      <trkpt lat="45.07289" lon="5.447">
        <ele>486.16793823242</ele>
        <time>2011-05-11T15:12:16Z</time>
      </trkpt>
      <trkpt lat="45.07259" lon="5.4466">
        <ele>474.99584960938</ele>
        <time>2011-05-11T15:12:21Z</time>
      </trkpt>
      <trkpt lat="45.0724" lon="5.44624">
        <ele>465.06237792969</ele>
        <time>2011-05-11T15:12:24Z</time>
      </trkpt>
      <trkpt lat="45.07236" lon="5.44611">
        <ele>463.17877197266</ele>
        <time>2011-05-11T15:12:25Z</time>
      </trkpt>
      <trkpt lat="45.07228" lon="5.4455">
        <ele>463.36373901367</ele>
        <time>2011-05-11T15:12:29Z</time>
      </trkpt>
      <trkpt lat="45.07226" lon="5.44502">
        <ele>475.21243286133</ele>
        <time>2011-05-11T15:12:32Z</time>
      </trkpt>
      <trkpt lat="45.07218" lon="5.44478">
        <ele>473.47341918945</ele>
        <time>2011-05-11T15:12:34Z</time>
      </trkpt>
      <trkpt lat="45.07212" lon="5.4447">
        <ele>470.33212280273</ele>
        <time>2011-05-11T15:12:35Z</time>
      </trkpt>
      <trkpt lat="45.07198" lon="5.44456">
        <ele>463.78677368164</ele>
        <time>2011-05-11T15:12:37Z</time>
      </trkpt>
      <trkpt lat="45.07156" lon="5.44422">
        <ele>428.26400756836</ele>
        <time>2011-05-11T15:12:42Z</time>
      </trkpt>
      <trkpt lat="45.07142" lon="5.44353">
        <ele>431.5146484375</ele>
        <time>2011-05-11T15:12:47Z</time>
      </trkpt>
      <trkpt lat="45.07128" lon="5.44307">
        <ele>431.02548217773</ele>
        <time>2011-05-11T15:12:51Z</time>
      </trkpt>
      <trkpt lat="45.07122" lon="5.44281">
        <ele>438.58728027344</ele>
        <time>2011-05-11T15:12:53Z</time>
      </trkpt>
      <trkpt lat="45.07116" lon="5.44225">
        <ele>461.41995239258</ele>
        <time>2011-05-11T15:12:57Z</time>
      </trkpt>
      <trkpt lat="45.07105" lon="5.44151">
        <ele>492.30154418945</ele>
        <time>2011-05-11T15:13:02Z</time>
      </trkpt>
      <trkpt lat="45.07101" lon="5.44137">
        <ele>497.1369934082</ele>
        <time>2011-05-11T15:13:03Z</time>
      </trkpt>
      <trkpt lat="45.07085" lon="5.44083">
        <ele>510.166015625</ele>
        <time>2011-05-11T15:13:07Z</time>
      </trkpt>
      <trkpt lat="45.07057" lon="5.44036">
        <ele>516.71728515625</ele>
        <time>2011-05-11T15:13:11Z</time>
      </trkpt>
      <trkpt lat="45.07014" lon="5.43981">
        <ele>510.77670288086</ele>
        <time>2011-05-11T15:13:16Z</time>
      </trkpt>
      <trkpt lat="45.07005" lon="5.43969">
        <ele>510.9951171875</ele>
        <time>2011-05-11T15:13:17Z</time>
      </trkpt>
      <trkpt lat="45.06961" lon="5.43884">
        <ele>515.03289794922</ele>
        <time>2011-05-11T15:13:23Z</time>
      </trkpt>
      <trkpt lat="45.06944" lon="5.43818">
        <ele>522.09039306641</ele>
        <time>2011-05-11T15:13:27Z</time>
      </trkpt>
      <trkpt lat="45.06932" lon="5.43787">
        <ele>522.15991210938</ele>
        <time>2011-05-11T15:13:29Z</time>
      </trkpt>
      <trkpt lat="45.06891" lon="5.43695">
        <ele>522.69476318359</ele>
        <time>2011-05-11T15:13:35Z</time>
      </trkpt>
      <trkpt lat="45.06865" lon="5.43633">
        <ele>509.08117675781</ele>
        <time>2011-05-11T15:13:39Z</time>
      </trkpt>
      <trkpt lat="45.06843" lon="5.43568">
        <ele>494.79376220703</ele>
        <time>2011-05-11T15:13:43Z</time>
      </trkpt>
      <trkpt lat="45.06827" lon="5.43482">
        <ele>491.20150756836</ele>
        <time>2011-05-11T15:13:48Z</time>
      </trkpt>
      <trkpt lat="45.06826" lon="5.43465">
        <ele>491.8557434082</ele>
        <time>2011-05-11T15:13:49Z</time>
      </trkpt>
      <trkpt lat="45.06824" lon="5.43359">
        <ele>515.83038330078</ele>
        <time>2011-05-11T15:13:55Z</time>
      </trkpt>
      <trkpt lat="45.06822" lon="5.43342">
        <ele>518.81616210938</ele>
        <time>2011-05-11T15:13:56Z</time>
      </trkpt>
      <trkpt lat="45.06792" lon="5.43246">
        <ele>509.83178710938</ele>
        <time>2011-05-11T15:14:02Z</time>
      </trkpt>
      <trkpt lat="45.06754" lon="5.43156">
        <ele>513.22662353516</ele>
        <time>2011-05-11T15:14:08Z</time>
      </trkpt>
      <trkpt lat="45.06739" lon="5.43128">
        <ele>514.55010986328</ele>
        <time>2011-05-11T15:14:10Z</time>
      </trkpt>
      <trkpt lat="45.06701" lon="5.43083">
        <ele>504.587890625</ele>
        <time>2011-05-11T15:14:14Z</time>
      </trkpt>
      <trkpt lat="45.06686" lon="5.43056">
        <ele>503.35092163086</ele>
        <time>2011-05-11T15:14:16Z</time>
      </trkpt>
      <trkpt lat="45.06668" lon="5.4301">
        <ele>508.34884643555</ele>
        <time>2011-05-11T15:14:19Z</time>
      </trkpt>
      <trkpt lat="45.06659" lon="5.42998">
        <ele>504.28076171875</ele>
        <time>2011-05-11T15:14:20Z</time>
      </trkpt>
      <trkpt lat="45.06617" lon="5.42955">
        <ele>486.64508056641</ele>
        <time>2011-05-11T15:14:24Z</time>
      </trkpt>
      <trkpt lat="45.06576" lon="5.42914">
        <ele>478.85140991211</ele>
        <time>2011-05-11T15:14:28Z</time>
      </trkpt>
      <trkpt lat="45.06547" lon="5.42879">
        <ele>471.62716674805</ele>
        <time>2011-05-11T15:14:31Z</time>
      </trkpt>
      <trkpt lat="45.06519" lon="5.42817">
        <ele>471.03811645508</ele>
        <time>2011-05-11T15:14:35Z</time>
      </trkpt>
      <trkpt lat="45.06498" lon="5.42768">
        <ele>479.02749633789</ele>
        <time>2011-05-11T15:14:38Z</time>
      </trkpt>
      <trkpt lat="45.06467" lon="5.42734">
        <ele>453.51620483398</ele>
        <time>2011-05-11T15:14:41Z</time>
      </trkpt>
      <trkpt lat="45.06428" lon="5.42717">
        <ele>428.14517211914</ele>
        <time>2011-05-11T15:14:44Z</time>
      </trkpt>
      <trkpt lat="45.06393" lon="5.4269">
        <ele>417.93255615234</ele>
        <time>2011-05-11T15:14:47Z</time>
      </trkpt>
      <trkpt lat="45.0637" lon="5.42647">
        <ele>415.05084228516</ele>
        <time>2011-05-11T15:14:50Z</time>
      </trkpt>
      <trkpt lat="45.06367" lon="5.4263">
        <ele>416.22564697266</ele>
        <time>2011-05-11T15:14:51Z</time>
      </trkpt>
      <trkpt lat="45.06347" lon="5.42506">
        <ele>426.24609375</ele>
        <time>2011-05-11T15:14:58Z</time>
      </trkpt>
      <trkpt lat="45.06335" lon="5.42417">
        <ele>435.59851074219</ele>
        <time>2011-05-11T15:15:03Z</time>
      </trkpt>
      <trkpt lat="45.06332" lon="5.42381">
        <ele>439.46563720703</ele>
        <time>2011-05-11T15:15:05Z</time>
      </trkpt>
      <trkpt lat="45.06319" lon="5.42236">
        <ele>441.00213623047</ele>
        <time>2011-05-11T15:15:13Z</time>
      </trkpt>
      <trkpt lat="45.06303" lon="5.42126">
        <ele>440.29937744141</ele>
        <time>2011-05-11T15:15:19Z</time>
      </trkpt>
      <trkpt lat="45.06299" lon="5.42109">
        <ele>439.11993408203</ele>
        <time>2011-05-11T15:15:20Z</time>
      </trkpt>
      <trkpt lat="45.06265" lon="5.42051">
        <ele>422.61993408203</ele>
        <time>2011-05-11T15:15:24Z</time>
      </trkpt>
      <trkpt lat="45.06212" lon="5.41989">
        <ele>409.88793945312</ele>
        <time>2011-05-11T15:15:29Z</time>
      </trkpt>
      <trkpt lat="45.06142" lon="5.41895">
        <ele>405.11334228516</ele>
        <time>2011-05-11T15:15:36Z</time>
      </trkpt>
      <trkpt lat="45.06134" lon="5.4188">
        <ele>403.55526733398</ele>
        <time>2011-05-11T15:15:37Z</time>
      </trkpt>
      <trkpt lat="45.0611" lon="5.4181">
        <ele>401.96234130859</ele>
        <time>2011-05-11T15:15:41Z</time>
      </trkpt>
      <trkpt lat="45.06108" lon="5.41791">
        <ele>400.54302978516</ele>
        <time>2011-05-11T15:15:42Z</time>
      </trkpt>
      <trkpt lat="45.06103" lon="5.41755">
        <ele>398.11721801758</ele>
        <time>2011-05-11T15:15:44Z</time>
      </trkpt>
      <trkpt lat="45.06079" lon="5.41647">
        <ele>390.81088256836</ele>
        <time>2011-05-11T15:15:50Z</time>
      </trkpt>
      <trkpt lat="45.06079" lon="5.41571">
        <ele>399.57833862305</ele>
        <time>2011-05-11T15:15:54Z</time>
      </trkpt>
      <trkpt lat="45.06079" lon="5.41514">
        <ele>404.84024047852</ele>
        <time>2011-05-11T15:15:57Z</time>
      </trkpt>
      <trkpt lat="45.0606" lon="5.41487">
        <ele>401.17205810547</ele>
        <time>2011-05-11T15:15:59Z</time>
      </trkpt>
      <trkpt lat="45.06024" lon="5.41433">
        <ele>378.74240112305</ele>
        <time>2011-05-11T15:16:03Z</time>
      </trkpt>
      <trkpt lat="45.06023" lon="5.41394">
        <ele>383.20352172852</ele>
        <time>2011-05-11T15:16:05Z</time>
      </trkpt>
      <trkpt lat="45.06018" lon="5.41342">
        <ele>385.28698730469</ele>
        <time>2011-05-11T15:16:08Z</time>
      </trkpt>
      <trkpt lat="45.06" lon="5.41295">
        <ele>378.57418823242</ele>
        <time>2011-05-11T15:16:11Z</time>
      </trkpt>
      <trkpt lat="45.05986" lon="5.41246">
        <ele>370.96307373047</ele>
        <time>2011-05-11T15:16:14Z</time>
      </trkpt>
      <trkpt lat="45.05983" lon="5.4121">
        <ele>372.94873046875</ele>
        <time>2011-05-11T15:16:16Z</time>
      </trkpt>
      <trkpt lat="45.05978" lon="5.41159">
        <ele>374.83911132812</ele>
        <time>2011-05-11T15:16:19Z</time>
      </trkpt>
      <trkpt lat="45.05961" lon="5.41114">
        <ele>365.54083251953</ele>
        <time>2011-05-11T15:16:22Z</time>
      </trkpt>
      <trkpt lat="45.05938" lon="5.41102">
        <ele>350.55764770508</ele>
        <time>2011-05-11T15:16:24Z</time>
      </trkpt>
      <trkpt lat="45.05884" lon="5.41056">
        <ele>315.8567199707</ele>
        <time>2011-05-11T15:16:29Z</time>
      </trkpt>
      <trkpt lat="45.05876" lon="5.41042">
        <ele>310.71105957031</ele>
        <time>2011-05-11T15:16:30Z</time>
      </trkpt>
      <trkpt lat="45.05869" lon="5.40972">
        <ele>302.1965637207</ele>
        <time>2011-05-11T15:16:34Z</time>
      </trkpt>
      <trkpt lat="45.05886" lon="5.40945">
        <ele>304.4765625</ele>
        <time>2011-05-11T15:16:36Z</time>
      </trkpt>
      <trkpt lat="45.05898" lon="5.40915">
        <ele>302.79919433594</ele>
        <time>2011-05-11T15:16:38Z</time>
      </trkpt>
      <trkpt lat="45.05901" lon="5.40878">
        <ele>297.57290649414</ele>
        <time>2011-05-11T15:16:40Z</time>
      </trkpt>
      <trkpt lat="45.05911" lon="5.40843">
        <ele>293.98590087891</ele>
        <time>2011-05-11T15:16:42Z</time>
      </trkpt>
      <trkpt lat="45.05932" lon="5.4082">
        <ele>295.37466430664</ele>
        <time>2011-05-11T15:16:44Z</time>
      </trkpt>
      <trkpt lat="45.05944" lon="5.40811">
        <ele>297.45690917969</ele>
        <time>2011-05-11T15:16:45Z</time>
      </trkpt>
      <trkpt lat="45.06025" lon="5.40745">
        <ele>304.40542602539</ele>
        <time>2011-05-11T15:16:52Z</time>
      </trkpt>
      <trkpt lat="45.06058" lon="5.40689">
        <ele>295.74847412109</ele>
        <time>2011-05-11T15:16:56Z</time>
      </trkpt>
      <trkpt lat="45.06074" lon="5.40659">
        <ele>294.03402709961</ele>
        <time>2011-05-11T15:16:58Z</time>
      </trkpt>
      <trkpt lat="45.0611" lon="5.40639">
        <ele>305.62078857422</ele>
        <time>2011-05-11T15:17:01Z</time>
      </trkpt>
      <trkpt lat="45.06136" lon="5.40637">
        <ele>318.95190429688</ele>
        <time>2011-05-11T15:17:03Z</time>
      </trkpt>
      <trkpt lat="45.0615" lon="5.40615">
        <ele>323.36090087891</ele>
        <time>2011-05-11T15:17:05Z</time>
      </trkpt>
      <trkpt lat="45.06168" lon="5.40572">
        <ele>325.55752563477</ele>
        <time>2011-05-11T15:17:08Z</time>
      </trkpt>
      <trkpt lat="45.06171" lon="5.40522">
        <ele>316.9182434082</ele>
        <time>2011-05-11T15:17:11Z</time>
      </trkpt>
      <trkpt lat="45.06166" lon="5.40505">
        <ele>313.25625610352</ele>
        <time>2011-05-11T15:17:12Z</time>
      </trkpt>
      <trkpt lat="45.06171" lon="5.40436">
        <ele>308.96350097656</ele>
        <time>2011-05-11T15:17:16Z</time>
      </trkpt>
      <trkpt lat="45.06186" lon="5.40368">
        <ele>307.72650146484</ele>
        <time>2011-05-11T15:17:20Z</time>
      </trkpt>
      <trkpt lat="45.06213" lon="5.40307">
        <ele>307.22494506836</ele>
        <time>2011-05-11T15:17:24Z</time>
      </trkpt>
      <trkpt lat="45.06229" lon="5.40278">
        <ele>305.80987548828</ele>
        <time>2011-05-11T15:17:26Z</time>
      </trkpt>
      <trkpt lat="45.06238" lon="5.40225">
        <ele>299.06225585938</ele>
        <time>2011-05-11T15:17:29Z</time>
      </trkpt>
      <trkpt lat="45.0624" lon="5.40148">
        <ele>283.75103759766</ele>
        <time>2011-05-11T15:17:33Z</time>
      </trkpt>
      <trkpt lat="45.06252" lon="5.40092">
        <ele>278.10775756836</ele>
        <time>2011-05-11T15:17:36Z</time>
      </trkpt>
      <trkpt lat="45.06263" lon="5.40057">
        <ele>276.5110168457</ele>
        <time>2011-05-11T15:17:38Z</time>
      </trkpt>
      <trkpt lat="45.063" lon="5.40001">
        <ele>274.66394042969</ele>
        <time>2011-05-11T15:17:42Z</time>
      </trkpt>
      <trkpt lat="45.06311" lon="5.39991">
        <ele>274.2490234375</ele>
        <time>2011-05-11T15:17:43Z</time>
      </trkpt>
      <trkpt lat="45.06335" lon="5.39973">
        <ele>273.18200683594</ele>
        <time>2011-05-11T15:17:45Z</time>
      </trkpt>
      <trkpt lat="45.064" lon="5.39908">
        <ele>266.56567382812</ele>
        <time>2011-05-11T15:17:51Z</time>
      </trkpt>
      <trkpt lat="45.06411" lon="5.39898">
        <ele>265.68725585938</ele>
        <time>2011-05-11T15:17:52Z</time>
      </trkpt>
      <trkpt lat="45.0645" lon="5.39846">
        <ele>261.85083007812</ele>
        <time>2011-05-11T15:17:56Z</time>
      </trkpt>
      <trkpt lat="45.06489" lon="5.39769">
        <ele>261.70706176758</ele>
        <time>2011-05-11T15:18:01Z</time>
      </trkpt>
      <trkpt lat="45.06529" lon="5.39691">
        <ele>260.04727172852</ele>
        <time>2011-05-11T15:18:06Z</time>
      </trkpt>
      <trkpt lat="45.06538" lon="5.39677">
        <ele>264.86416625977</ele>
        <time>2011-05-11T15:18:07Z</time>
      </trkpt>
      <trkpt lat="45.06554" lon="5.39628">
        <ele>261.02526855469</ele>
        <time>2011-05-11T15:18:10Z</time>
      </trkpt>
      <trkpt lat="45.06554" lon="5.39609">
        <ele>259.81781005859</ele>
        <time>2011-05-11T15:18:11Z</time>
      </trkpt>
      <trkpt lat="45.06545" lon="5.39477">
        <ele>257</ele>
        <time>2011-05-11T15:18:18Z</time>
      </trkpt>
      <trkpt lat="45.06559" lon="5.39407">
        <ele>256.80364990234</ele>
        <time>2011-05-11T15:18:22Z</time>
      </trkpt>
      <trkpt lat="45.06583" lon="5.39365">
        <ele>256.97509765625</ele>
        <time>2011-05-11T15:18:25Z</time>
      </trkpt>
      <trkpt lat="45.06621" lon="5.39301">
        <ele>257.18316650391</ele>
        <time>2011-05-11T15:18:30Z</time>
      </trkpt>
      <trkpt lat="45.06647" lon="5.3927">
        <ele>256.99090576172</ele>
        <time>2011-05-11T15:18:33Z</time>
      </trkpt>
      <trkpt lat="45.06678" lon="5.39265">
        <ele>258.32531738281</ele>
        <time>2011-05-11T15:18:36Z</time>
      </trkpt>
      <trkpt lat="45.06695" lon="5.3926">
        <ele>259.69769287109</ele>
        <time>2011-05-11T15:18:38Z</time>
      </trkpt>
      <trkpt lat="45.06702" lon="5.39246">
        <ele>260.28723144531</ele>
        <time>2011-05-11T15:18:40Z</time>
      </trkpt>
      <trkpt lat="45.06703" lon="5.3924">
        <ele>260.31469726562</ele>
        <time>2011-05-11T15:18:41Z</time>
      </trkpt>
      <trkpt lat="45.06701" lon="5.39225">
        <ele>260.24603271484</ele>
        <time>2011-05-11T15:18:45Z</time>
      </trkpt>
      <trkpt lat="45.067" lon="5.39223">
        <ele>260.20483398438</ele>
        <time>2011-05-11T15:18:49Z</time>
      </trkpt>
      <trkpt lat="45.06692" lon="5.39213">
        <ele>259.70812988281</ele>
        <time>2011-05-11T15:19:27Z</time>
      </trkpt>
      <trkpt lat="45.06689" lon="5.39197">
        <ele>259.41973876953</ele>
        <time>2011-05-11T15:19:33Z</time>
      </trkpt>
      <trkpt lat="45.06686" lon="5.39186">
        <ele>259.13134765625</ele>
        <time>2011-05-11T15:19:38Z</time>
      </trkpt>
      <trkpt lat="45.06686" lon="5.3917">
        <ele>259.13134765625</ele>
        <time>2011-05-11T15:19:45Z</time>
      </trkpt>
      <trkpt lat="45.06686" lon="5.39149">
        <ele>258.8962097168</ele>
        <time>2011-05-11T15:19:52Z</time>
      </trkpt>
      <trkpt lat="45.06686" lon="5.39126">
        <ele>258.73193359375</ele>
        <time>2011-05-11T15:19:58Z</time>
      </trkpt>
      <trkpt lat="45.0668" lon="5.39103">
        <ele>257.90795898438</ele>
        <time>2011-05-11T15:20:05Z</time>
      </trkpt>
      <trkpt lat="45.06671" lon="5.39089">
        <ele>256.64453125</ele>
        <time>2011-05-11T15:20:12Z</time>
      </trkpt>
      <trkpt lat="45.06662" lon="5.39068">
        <ele>255.49462890625</ele>
        <time>2011-05-11T15:20:18Z</time>
      </trkpt>
      <trkpt lat="45.06659" lon="5.39057">
        <ele>255.1650390625</ele>
        <time>2011-05-11T15:20:20Z</time>
      </trkpt>
      <trkpt lat="45.0665" lon="5.39021">
        <ele>253.97744750977</ele>
        <time>2011-05-11T15:20:25Z</time>
      </trkpt>
      <trkpt lat="45.06643" lon="5.38974">
        <ele>252.32904052734</ele>
        <time>2011-05-11T15:20:30Z</time>
      </trkpt>
      <trkpt lat="45.06643" lon="5.38955">
        <ele>252.17907714844</ele>
        <time>2011-05-11T15:20:32Z</time>
      </trkpt>
      <trkpt lat="45.06652" lon="5.38916">
        <ele>252</ele>
        <time>2011-05-11T15:20:36Z</time>
      </trkpt>
      <trkpt lat="45.06678" lon="5.38891">
        <ele>252.04861450195</ele>
        <time>2011-05-11T15:20:40Z</time>
      </trkpt>
      <trkpt lat="45.06702" lon="5.38886">
        <ele>252.67611694336</ele>
        <time>2011-05-11T15:20:43Z</time>
      </trkpt>
      <trkpt lat="45.06723" lon="5.38875">
        <ele>254.53938293457</ele>
        <time>2011-05-11T15:20:46Z</time>
      </trkpt>
      <trkpt lat="45.06738" lon="5.38846">
        <ele>254.01409912109</ele>
        <time>2011-05-11T15:20:49Z</time>
      </trkpt>
      <trkpt lat="45.06743" lon="5.38808">
        <ele>252.86224365234</ele>
        <time>2011-05-11T15:20:52Z</time>
      </trkpt>
      <trkpt lat="45.06742" lon="5.38781">
        <ele>251.84086608887</ele>
        <time>2011-05-11T15:20:54Z</time>
      </trkpt>
      <trkpt lat="45.06751" lon="5.38711">
        <ele>250.62643432617</ele>
        <time>2011-05-11T15:20:59Z</time>
      </trkpt>
      <trkpt lat="45.06764" lon="5.38653">
        <ele>250.26066589356</ele>
        <time>2011-05-11T15:21:03Z</time>
      </trkpt>
      <trkpt lat="45.06779" lon="5.38596">
        <ele>250.06941223144</ele>
        <time>2011-05-11T15:21:07Z</time>
      </trkpt>
      <trkpt lat="45.06795" lon="5.38555">
        <ele>249.60681152344</ele>
        <time>2011-05-11T15:21:10Z</time>
      </trkpt>
      <trkpt lat="45.06808" lon="5.38481">
        <ele>249.43495178223</ele>
        <time>2011-05-11T15:21:15Z</time>
      </trkpt>
      <trkpt lat="45.068" lon="5.38405">
        <ele>248.57275390625</ele>
        <time>2011-05-11T15:21:20Z</time>
      </trkpt>
      <trkpt lat="45.06778" lon="5.38283">
        <ele>247</ele>
        <time>2011-05-11T15:21:28Z</time>
      </trkpt>
      <trkpt lat="45.06774" lon="5.38205">
        <ele>246</ele>
        <time>2011-05-11T15:21:33Z</time>
      </trkpt>
      <trkpt lat="45.06773" lon="5.38189">
        <ele>246</ele>
        <time>2011-05-11T15:21:34Z</time>
      </trkpt>
      <trkpt lat="45.06758" lon="5.38116">
        <ele>246.24404907227</ele>
        <time>2011-05-11T15:21:39Z</time>
      </trkpt>
      <trkpt lat="45.06733" lon="5.38015">
        <ele>245.77172851562</ele>
        <time>2011-05-11T15:21:46Z</time>
      </trkpt>
      <trkpt lat="45.06724" lon="5.37924">
        <ele>244.28002929688</ele>
        <time>2011-05-11T15:21:52Z</time>
      </trkpt>
      <trkpt lat="45.06717" lon="5.37819">
        <ele>243</ele>
        <time>2011-05-11T15:21:59Z</time>
      </trkpt>
      <trkpt lat="45.06722" lon="5.37721">
        <ele>242.00268554688</ele>
        <time>2011-05-11T15:22:06Z</time>
      </trkpt>
      <trkpt lat="45.0671" lon="5.37638">
        <ele>241.54383850098</ele>
        <time>2011-05-11T15:22:12Z</time>
      </trkpt>
      <trkpt lat="45.06707" lon="5.37584">
        <ele>241</ele>
        <time>2011-05-11T15:22:16Z</time>
      </trkpt>
      <trkpt lat="45.0671" lon="5.37505">
        <ele>240.57562255859</ele>
        <time>2011-05-11T15:22:22Z</time>
      </trkpt>
      <trkpt lat="45.06707" lon="5.3743">
        <ele>240.90914916992</ele>
        <time>2011-05-11T15:22:28Z</time>
      </trkpt>
      <trkpt lat="45.06692" lon="5.37369">
        <ele>240</ele>
        <time>2011-05-11T15:22:33Z</time>
      </trkpt>
      <trkpt lat="45.0667" lon="5.37332">
        <ele>240.51678466797</ele>
        <time>2011-05-11T15:22:37Z</time>
      </trkpt>
      <trkpt lat="45.06655" lon="5.37322">
        <ele>240.46968078613</ele>
        <time>2011-05-11T15:22:39Z</time>
      </trkpt>
      <trkpt lat="45.06576" lon="5.37294">
        <ele>238.84461975098</ele>
        <time>2011-05-11T15:22:48Z</time>
      </trkpt>
      <trkpt lat="45.06532" lon="5.37278">
        <ele>238.14288330078</ele>
        <time>2011-05-11T15:22:53Z</time>
      </trkpt>
      <trkpt lat="45.06496" lon="5.37247">
        <ele>237.70649719238</ele>
        <time>2011-05-11T15:22:58Z</time>
      </trkpt>
      <trkpt lat="45.06478" lon="5.37204">
        <ele>237.21228027344</ele>
        <time>2011-05-11T15:23:02Z</time>
      </trkpt>
      <trkpt lat="45.06473" lon="5.37167">
        <ele>237.03375244141</ele>
        <time>2011-05-11T15:23:05Z</time>
      </trkpt>
      <trkpt lat="45.06486" lon="5.37134">
        <ele>236.73098754883</ele>
        <time>2011-05-11T15:23:08Z</time>
      </trkpt>
      <trkpt lat="45.06494" lon="5.37125">
        <ele>236.69444274902</ele>
        <time>2011-05-11T15:23:09Z</time>
      </trkpt>
      <trkpt lat="45.06559" lon="5.37052">
        <ele>236.13345336914</ele>
        <time>2011-05-11T15:23:18Z</time>
      </trkpt>
      <trkpt lat="45.06597" lon="5.36997">
        <ele>236.33157348633</ele>
        <time>2011-05-11T15:23:24Z</time>
      </trkpt>
      <trkpt lat="45.06645" lon="5.36909">
        <ele>237.01275634766</ele>
        <time>2011-05-11T15:23:33Z</time>
      </trkpt>
      <trkpt lat="45.06687" lon="5.36845">
        <ele>240.1297454834</ele>
        <time>2011-05-11T15:23:40Z</time>
      </trkpt>
      <trkpt lat="45.0671" lon="5.36807">
        <ele>245.68063354492</ele>
        <time>2011-05-11T15:23:44Z</time>
      </trkpt>
      <trkpt lat="45.06724" lon="5.36761">
        <ele>247.00724792481</ele>
        <time>2011-05-11T15:23:48Z</time>
      </trkpt>
      <trkpt lat="45.06729" lon="5.3671">
        <ele>243.86933898926</ele>
        <time>2011-05-11T15:23:52Z</time>
      </trkpt>
      <trkpt lat="45.06727" lon="5.36672">
        <ele>241.96249389648</ele>
        <time>2011-05-11T15:23:55Z</time>
      </trkpt>
      <trkpt lat="45.0671" lon="5.36611">
        <ele>238.19984436035</ele>
        <time>2011-05-11T15:24:00Z</time>
      </trkpt>
      <trkpt lat="45.06704" lon="5.366">
        <ele>237.94247436523</ele>
        <time>2011-05-11T15:24:01Z</time>
      </trkpt>
      <trkpt lat="45.06679" lon="5.36561">
        <ele>235.41119384766</ele>
        <time>2011-05-11T15:24:05Z</time>
      </trkpt>
      <trkpt lat="45.06655" lon="5.36541">
        <ele>232.53558349609</ele>
        <time>2011-05-11T15:24:08Z</time>
      </trkpt>
      <trkpt lat="45.06631" lon="5.36501">
        <ele>230.97122192383</ele>
        <time>2011-05-11T15:24:12Z</time>
      </trkpt>
      <trkpt lat="45.06629" lon="5.36488">
        <ele>231.69779968262</ele>
        <time>2011-05-11T15:24:13Z</time>
      </trkpt>
      <trkpt lat="45.06616" lon="5.3641">
        <ele>226.79281616211</ele>
        <time>2011-05-11T15:24:19Z</time>
      </trkpt>
      <trkpt lat="45.06612" lon="5.36384">
        <ele>225.10670471191</ele>
        <time>2011-05-11T15:24:21Z</time>
      </trkpt>
      <trkpt lat="45.06612" lon="5.36319">
        <ele>224.04641723633</ele>
        <time>2011-05-11T15:24:26Z</time>
      </trkpt>
      <trkpt lat="45.06624" lon="5.36243">
        <ele>222.86712646484</ele>
        <time>2011-05-11T15:24:32Z</time>
      </trkpt>
      <trkpt lat="45.06644" lon="5.36143">
        <ele>222.02798461914</ele>
        <time>2011-05-11T15:24:40Z</time>
      </trkpt>
      <trkpt lat="45.06659" lon="5.3604">
        <ele>226.29417419434</ele>
        <time>2011-05-11T15:24:48Z</time>
      </trkpt>
      <trkpt lat="45.06657" lon="5.35958">
        <ele>230.93255615234</ele>
        <time>2011-05-11T15:24:54Z</time>
      </trkpt>
      <trkpt lat="45.06644" lon="5.35851">
        <ele>238.37866210938</ele>
        <time>2011-05-11T15:25:02Z</time>
      </trkpt>
      <trkpt lat="45.06628" lon="5.35801">
        <ele>237.91854858398</ele>
        <time>2011-05-11T15:25:06Z</time>
      </trkpt>
      <trkpt lat="45.06599" lon="5.35769">
        <ele>232.82604980469</ele>
        <time>2011-05-11T15:25:10Z</time>
      </trkpt>
      <trkpt lat="45.0659" lon="5.35765">
        <ele>230.18246459961</ele>
        <time>2011-05-11T15:25:11Z</time>
      </trkpt>
      <trkpt lat="45.06562" lon="5.35757">
        <ele>219.7998046875</ele>
        <time>2011-05-11T15:25:14Z</time>
      </trkpt>
      <trkpt lat="45.0652" lon="5.35727">
        <ele>216.11650085449</ele>
        <time>2011-05-11T15:25:19Z</time>
      </trkpt>
      <trkpt lat="45.06506" lon="5.35691">
        <ele>215.88369750977</ele>
        <time>2011-05-11T15:25:22Z</time>
      </trkpt>
      <trkpt lat="45.06504" lon="5.3565">
        <ele>215</ele>
        <time>2011-05-11T15:25:25Z</time>
      </trkpt>
      <trkpt lat="45.06506" lon="5.35637">
        <ele>215</ele>
        <time>2011-05-11T15:25:26Z</time>
      </trkpt>
      <trkpt lat="45.06525" lon="5.35518">
        <ele>214</ele>
        <time>2011-05-11T15:25:35Z</time>
      </trkpt>
      <trkpt lat="45.06537" lon="5.35466">
        <ele>213</ele>
        <time>2011-05-11T15:25:39Z</time>
      </trkpt>
      <trkpt lat="45.06535" lon="5.35427">
        <ele>213</ele>
        <time>2011-05-11T15:25:42Z</time>
      </trkpt>
      <trkpt lat="45.06524" lon="5.3541">
        <ele>213.79568481445</ele>
        <time>2011-05-11T15:25:44Z</time>
      </trkpt>
      <trkpt lat="45.06516" lon="5.35405">
        <ele>215.78237915039</ele>
        <time>2011-05-11T15:25:45Z</time>
      </trkpt>
      <trkpt lat="45.06488" lon="5.35378">
        <ele>230.24002075195</ele>
        <time>2011-05-11T15:25:49Z</time>
      </trkpt>
      <trkpt lat="45.06485" lon="5.35354">
        <ele>233.20706176758</ele>
        <time>2011-05-11T15:25:51Z</time>
      </trkpt>
      <trkpt lat="45.06467" lon="5.3528">
        <ele>241.80418395996</ele>
        <time>2011-05-11T15:25:57Z</time>
      </trkpt>
      <trkpt lat="45.06451" lon="5.35216">
        <ele>240.35249328613</ele>
        <time>2011-05-11T15:26:02Z</time>
      </trkpt>
      <trkpt lat="45.06435" lon="5.35166">
        <ele>242.78895568848</ele>
        <time>2011-05-11T15:26:06Z</time>
      </trkpt>
      <trkpt lat="45.06425" lon="5.35141">
        <ele>243.61961364746</ele>
        <time>2011-05-11T15:26:08Z</time>
      </trkpt>
      <trkpt lat="45.0638" lon="5.35029">
        <ele>214.44630432129</ele>
        <time>2011-05-11T15:26:17Z</time>
      </trkpt>
      <trkpt lat="45.06374" lon="5.35017">
        <ele>216.20091247559</ele>
        <time>2011-05-11T15:26:18Z</time>
      </trkpt>
      <trkpt lat="45.06341" lon="5.34982">
        <ele>211.91477966309</ele>
        <time>2011-05-11T15:26:22Z</time>
      </trkpt>
      <trkpt lat="45.06274" lon="5.34927">
        <ele>209.76504516602</ele>
        <time>2011-05-11T15:26:29Z</time>
      </trkpt>
      <trkpt lat="45.0619" lon="5.34876">
        <ele>222.19186401367</ele>
        <time>2011-05-11T15:26:37Z</time>
      </trkpt>
      <trkpt lat="45.06153" lon="5.34845">
        <ele>228.56443786621</ele>
        <time>2011-05-11T15:26:41Z</time>
      </trkpt>
      <trkpt lat="45.06101" lon="5.34776">
        <ele>215.19087219238</ele>
        <time>2011-05-11T15:26:47Z</time>
      </trkpt>
      <trkpt lat="45.06065" lon="5.3473">
        <ele>231.06802368164</ele>
        <time>2011-05-11T15:26:52Z</time>
      </trkpt>
      <trkpt lat="45.06045" lon="5.34706">
        <ele>231.70013427734</ele>
        <time>2011-05-11T15:26:55Z</time>
      </trkpt>
      <trkpt lat="45.06035" lon="5.34693">
        <ele>231.78939819336</ele>
        <time>2011-05-11T15:26:57Z</time>
      </trkpt>
      <trkpt lat="45.06032" lon="5.34657">
        <ele>221.02291870117</ele>
        <time>2011-05-11T15:27:01Z</time>
      </trkpt>
      <trkpt lat="45.06038" lon="5.34643">
        <ele>213.79774475098</ele>
        <time>2011-05-11T15:27:03Z</time>
      </trkpt>
      <trkpt lat="45.06047" lon="5.34626">
        <ele>204.73103332519</ele>
        <time>2011-05-11T15:27:05Z</time>
      </trkpt>
      <trkpt lat="45.0607" lon="5.34626">
        <ele>200</ele>
        <time>2011-05-11T15:27:08Z</time>
      </trkpt>
      <trkpt lat="45.06099" lon="5.34609">
        <ele>199.95803833008</ele>
        <time>2011-05-11T15:27:13Z</time>
      </trkpt>
      <trkpt lat="45.06103" lon="5.34606">
        <ele>199.86845397949</ele>
        <time>2011-05-11T15:27:16Z</time>
      </trkpt>
      <trkpt lat="45.06104" lon="5.34609">
        <ele>199.93438720703</ele>
        <time>2011-05-11T15:27:20Z</time>
      </trkpt>
      <trkpt lat="45.06104" lon="5.34603">
        <ele>199.78564453125</ele>
        <time>2011-05-11T15:27:28Z</time>
      </trkpt>
      <trkpt lat="45.06104" lon="5.34585">
        <ele>199.30409240723</ele>
        <time>2011-05-11T15:27:35Z</time>
      </trkpt>
      <trkpt lat="45.06106" lon="5.34561">
        <ele>199.17730712891</ele>
        <time>2011-05-11T15:27:39Z</time>
      </trkpt>
      <trkpt lat="45.06105" lon="5.34523">
        <ele>199.20477294922</ele>
        <time>2011-05-11T15:27:44Z</time>
      </trkpt>
      <trkpt lat="45.06104" lon="5.34498">
        <ele>199.24597167969</ele>
        <time>2011-05-11T15:27:47Z</time>
      </trkpt>
      <trkpt lat="45.06111" lon="5.34447">
        <ele>199.01251220703</ele>
        <time>2011-05-11T15:27:52Z</time>
      </trkpt>
      <trkpt lat="45.06123" lon="5.3441">
        <ele>199</ele>
        <time>2011-05-11T15:27:56Z</time>
      </trkpt>
      <trkpt lat="45.06148" lon="5.34362">
        <ele>199</ele>
        <time>2011-05-11T15:28:03Z</time>
      </trkpt>
      <trkpt lat="45.06154" lon="5.34349">
        <ele>199</ele>
        <time>2011-05-11T15:28:05Z</time>
      </trkpt>
      <trkpt lat="45.06161" lon="5.34335">
        <ele>199</ele>
        <time>2011-05-11T15:28:07Z</time>
      </trkpt>
      <trkpt lat="45.0617" lon="5.34322">
        <ele>198.59283447266</ele>
        <time>2011-05-11T15:28:09Z</time>
      </trkpt>
      <trkpt lat="45.06181" lon="5.34297">
        <ele>198</ele>
        <time>2011-05-11T15:28:12Z</time>
      </trkpt>
      <trkpt lat="45.06209" lon="5.3421">
        <ele>198.26472473144</ele>
        <time>2011-05-11T15:28:21Z</time>
      </trkpt>
      <trkpt lat="45.06226" lon="5.34131">
        <ele>198</ele>
        <time>2011-05-11T15:28:28Z</time>
      </trkpt>
      <trkpt lat="45.06242" lon="5.34065">
        <ele>198</ele>
        <time>2011-05-11T15:28:34Z</time>
      </trkpt>
      <trkpt lat="45.06265" lon="5.34">
        <ele>197.5438079834</ele>
        <time>2011-05-11T15:28:40Z</time>
      </trkpt>
      <trkpt lat="45.06297" lon="5.33916">
        <ele>197.67541503906</ele>
        <time>2011-05-11T15:28:48Z</time>
      </trkpt>
      <trkpt lat="45.06329" lon="5.33845">
        <ele>197.8564453125</ele>
        <time>2011-05-11T15:28:55Z</time>
      </trkpt>
      <trkpt lat="45.06371" lon="5.33773">
        <ele>198.35333251953</ele>
        <time>2011-05-11T15:29:03Z</time>
      </trkpt>
      <trkpt lat="45.06409" lon="5.33704">
        <ele>198.330078125</ele>
        <time>2011-05-11T15:29:11Z</time>
      </trkpt>
      <trkpt lat="45.06442" lon="5.33624">
        <ele>198.92138671875</ele>
        <time>2011-05-11T15:29:20Z</time>
      </trkpt>
      <trkpt lat="45.06454" lon="5.33574">
        <ele>199.55714416504</ele>
        <time>2011-05-11T15:29:25Z</time>
      </trkpt>
      <trkpt lat="45.06445" lon="5.33533">
        <ele>203.28166198731</ele>
        <time>2011-05-11T15:29:29Z</time>
      </trkpt>
      <trkpt lat="45.06427" lon="5.3351">
        <ele>204.99122619629</ele>
        <time>2011-05-11T15:29:32Z</time>
      </trkpt>
      <trkpt lat="45.06379" lon="5.33464">
        <ele>207.53523254394</ele>
        <time>2011-05-11T15:29:39Z</time>
      </trkpt>
      <trkpt lat="45.0635" lon="5.33445">
        <ele>203.96249389648</ele>
        <time>2011-05-11T15:29:43Z</time>
      </trkpt>
      <trkpt lat="45.06302" lon="5.33434">
        <ele>199.30470275879</ele>
        <time>2011-05-11T15:29:49Z</time>
      </trkpt>
      <trkpt lat="45.06265" lon="5.33425">
        <ele>198.61590576172</ele>
        <time>2011-05-11T15:29:54Z</time>
      </trkpt>
      <trkpt lat="45.06258" lon="5.33423">
        <ele>198.27206420898</ele>
        <time>2011-05-11T15:29:55Z</time>
      </trkpt>
      <trkpt lat="45.06234" lon="5.33401">
        <ele>197.95587158203</ele>
        <time>2011-05-11T15:29:59Z</time>
      </trkpt>
      <trkpt lat="45.06196" lon="5.33342">
        <ele>198.75238037109</ele>
        <time>2011-05-11T15:30:06Z</time>
      </trkpt>
      <trkpt lat="45.0616" lon="5.33246">
        <ele>199.57987976074</ele>
        <time>2011-05-11T15:30:15Z</time>
      </trkpt>
      <trkpt lat="45.06135" lon="5.3316">
        <ele>199.06988525391</ele>
        <time>2011-05-11T15:30:23Z</time>
      </trkpt>
      <trkpt lat="45.06116" lon="5.33083">
        <ele>199.19375610352</ele>
        <time>2011-05-11T15:30:30Z</time>
      </trkpt>
      <trkpt lat="45.06099" lon="5.33028">
        <ele>199.53771972656</ele>
        <time>2011-05-11T15:30:35Z</time>
      </trkpt>
      <trkpt lat="45.06078" lon="5.32975">
        <ele>199.54409790039</ele>
        <time>2011-05-11T15:30:40Z</time>
      </trkpt>
      <trkpt lat="45.06073" lon="5.32916">
        <ele>200.92070007324</ele>
        <time>2011-05-11T15:30:45Z</time>
      </trkpt>
      <trkpt lat="45.06073" lon="5.32868">
        <ele>205.48945617676</ele>
        <time>2011-05-11T15:30:49Z</time>
      </trkpt>
      <trkpt lat="45.0606" lon="5.32812">
        <ele>207.95790100098</ele>
        <time>2011-05-11T15:30:54Z</time>
      </trkpt>
      <trkpt lat="45.06055" lon="5.32802">
        <ele>208.36349487305</ele>
        <time>2011-05-11T15:30:55Z</time>
      </trkpt>
      <trkpt lat="45.06008" lon="5.32719">
        <ele>210.53219604492</ele>
        <time>2011-05-11T15:31:04Z</time>
      </trkpt>
      <trkpt lat="45.05967" lon="5.32677">
        <ele>210.28663635254</ele>
        <time>2011-05-11T15:31:10Z</time>
      </trkpt>
      <trkpt lat="45.0596" lon="5.32672">
        <ele>210.00543212891</ele>
        <time>2011-05-11T15:31:11Z</time>
      </trkpt>
      <trkpt lat="45.05911" lon="5.32654">
        <ele>204.65623474121</ele>
        <time>2011-05-11T15:31:17Z</time>
      </trkpt>
      <trkpt lat="45.05891" lon="5.32636">
        <ele>203.54948425293</ele>
        <time>2011-05-11T15:31:20Z</time>
      </trkpt>
      <trkpt lat="45.05885" lon="5.32603">
        <ele>206.33514404297</ele>
        <time>2011-05-11T15:31:23Z</time>
      </trkpt>
      <trkpt lat="45.05889" lon="5.32579">
        <ele>208.28178405762</ele>
        <time>2011-05-11T15:31:25Z</time>
      </trkpt>
      <trkpt lat="45.05899" lon="5.32533">
        <ele>214.76258850098</ele>
        <time>2011-05-11T15:31:29Z</time>
      </trkpt>
      <trkpt lat="45.05901" lon="5.3245">
        <ele>220.22624206543</ele>
        <time>2011-05-11T15:31:36Z</time>
      </trkpt>
      <trkpt lat="45.05899" lon="5.32357">
        <ele>218.462890625</ele>
        <time>2011-05-11T15:31:44Z</time>
      </trkpt>
      <trkpt lat="45.0589" lon="5.32312">
        <ele>216.41986083984</ele>
        <time>2011-05-11T15:31:48Z</time>
      </trkpt>
      <trkpt lat="45.05867" lon="5.32264">
        <ele>208.18389892578</ele>
        <time>2011-05-11T15:31:53Z</time>
      </trkpt>
      <trkpt lat="45.05854" lon="5.32249">
        <ele>204.15519714356</ele>
        <time>2011-05-11T15:31:55Z</time>
      </trkpt>
      <trkpt lat="45.0584" lon="5.32236">
        <ele>200.10855102539</ele>
        <time>2011-05-11T15:31:57Z</time>
      </trkpt>
      <trkpt lat="45.05819" lon="5.322">
        <ele>196.06002807617</ele>
        <time>2011-05-11T15:32:01Z</time>
      </trkpt>
      <trkpt lat="45.05814" lon="5.32165">
        <ele>194.99377441406</ele>
        <time>2011-05-11T15:32:04Z</time>
      </trkpt>
      <trkpt lat="45.05816" lon="5.32142">
        <ele>196.05293273926</ele>
        <time>2011-05-11T15:32:06Z</time>
      </trkpt>
      <trkpt lat="45.05821" lon="5.32095">
        <ele>198.01768493652</ele>
        <time>2011-05-11T15:32:10Z</time>
      </trkpt>
      <trkpt lat="45.05814" lon="5.3205">
        <ele>198.37446594238</ele>
        <time>2011-05-11T15:32:14Z</time>
      </trkpt>
      <trkpt lat="45.05804" lon="5.32032">
        <ele>198.30670166016</ele>
        <time>2011-05-11T15:32:16Z</time>
      </trkpt>
      <trkpt lat="45.05742" lon="5.31935">
        <ele>203.16534423828</ele>
        <time>2011-05-11T15:32:27Z</time>
      </trkpt>
      <trkpt lat="45.05729" lon="5.3192">
        <ele>203.60256958008</ele>
        <time>2011-05-11T15:32:29Z</time>
      </trkpt>
      <trkpt lat="45.05684" lon="5.31887">
        <ele>200.68948364258</ele>
        <time>2011-05-11T15:32:35Z</time>
      </trkpt>
      <trkpt lat="45.0564" lon="5.31872">
        <ele>206.2557220459</ele>
        <time>2011-05-11T15:32:40Z</time>
      </trkpt>
      <trkpt lat="45.0556" lon="5.31845">
        <ele>209.89067077637</ele>
        <time>2011-05-11T15:32:49Z</time>
      </trkpt>
      <trkpt lat="45.05529" lon="5.31813">
        <ele>214.58863830566</ele>
        <time>2011-05-11T15:32:53Z</time>
      </trkpt>
      <trkpt lat="45.05522" lon="5.31773">
        <ele>219.57098388672</ele>
        <time>2011-05-11T15:32:56Z</time>
      </trkpt>
      <trkpt lat="45.05522" lon="5.31758">
        <ele>220.82356262207</ele>
        <time>2011-05-11T15:32:57Z</time>
      </trkpt>
      <trkpt lat="45.05527" lon="5.31643">
        <ele>225.81097412109</ele>
        <time>2011-05-11T15:33:05Z</time>
      </trkpt>
      <trkpt lat="45.05526" lon="5.31544">
        <ele>229.20011901856</ele>
        <time>2011-05-11T15:33:12Z</time>
      </trkpt>
      <trkpt lat="45.05525" lon="5.3153">
        <ele>229.40950012207</ele>
        <time>2011-05-11T15:33:13Z</time>
      </trkpt>
      <trkpt lat="45.05506" lon="5.31463">
        <ele>225.70358276367</ele>
        <time>2011-05-11T15:33:18Z</time>
      </trkpt>
      <trkpt lat="45.05468" lon="5.31361">
        <ele>211.8797454834</ele>
        <time>2011-05-11T15:33:26Z</time>
      </trkpt>
      <trkpt lat="45.05458" lon="5.31322">
        <ele>205.28799438477</ele>
        <time>2011-05-11T15:33:29Z</time>
      </trkpt>
      <trkpt lat="45.05458" lon="5.31254">
        <ele>200.75631713867</ele>
        <time>2011-05-11T15:33:34Z</time>
      </trkpt>
      <trkpt lat="45.05465" lon="5.31157">
        <ele>196.64640808106</ele>
        <time>2011-05-11T15:33:41Z</time>
      </trkpt>
      <trkpt lat="45.05466" lon="5.31144">
        <ele>196.43858337402</ele>
        <time>2011-05-11T15:33:42Z</time>
      </trkpt>
      <trkpt lat="45.05491" lon="5.31053">
        <ele>197.18254089356</ele>
        <time>2011-05-11T15:33:49Z</time>
      </trkpt>
      <trkpt lat="45.05529" lon="5.30952">
        <ele>194.37829589844</ele>
        <time>2011-05-11T15:33:57Z</time>
      </trkpt>
      <trkpt lat="45.05553" lon="5.30895">
        <ele>192.0397644043</ele>
        <time>2011-05-11T15:34:02Z</time>
      </trkpt>
      <trkpt lat="45.05586" lon="5.30852">
        <ele>189.58322143555</ele>
        <time>2011-05-11T15:34:07Z</time>
      </trkpt>
      <trkpt lat="45.05595" lon="5.30848">
        <ele>189.86131286621</ele>
        <time>2011-05-11T15:34:08Z</time>
      </trkpt>
      <trkpt lat="45.05647" lon="5.30824">
        <ele>189.25517272949</ele>
        <time>2011-05-11T15:34:14Z</time>
      </trkpt>
      <trkpt lat="45.05695" lon="5.30819">
        <ele>185.82472229004</ele>
        <time>2011-05-11T15:34:19Z</time>
      </trkpt>
      <trkpt lat="45.05704" lon="5.30821">
        <ele>185.20674133301</ele>
        <time>2011-05-11T15:34:20Z</time>
      </trkpt>
      <trkpt lat="45.05772" lon="5.3084">
        <ele>181.87286376953</ele>
        <time>2011-05-11T15:34:27Z</time>
      </trkpt>
      <trkpt lat="45.0582" lon="5.30864">
        <ele>182.56227111816</ele>
        <time>2011-05-11T15:34:32Z</time>
      </trkpt>
      <trkpt lat="45.05859" lon="5.30871">
        <ele>184.11752319336</ele>
        <time>2011-05-11T15:34:36Z</time>
      </trkpt>
      <trkpt lat="45.05885" lon="5.30858">
        <ele>183.22909545898</ele>
        <time>2011-05-11T15:34:39Z</time>
      </trkpt>
      <trkpt lat="45.05912" lon="5.30836">
        <ele>182.09191894531</ele>
        <time>2011-05-11T15:34:42Z</time>
      </trkpt>
      <trkpt lat="45.05959" lon="5.30826">
        <ele>188.84156799316</ele>
        <time>2011-05-11T15:34:47Z</time>
      </trkpt>
      <trkpt lat="45.06007" lon="5.30798">
        <ele>192.65950012207</ele>
        <time>2011-05-11T15:34:52Z</time>
      </trkpt>
      <trkpt lat="45.06066" lon="5.30749">
        <ele>188.2666015625</ele>
        <time>2011-05-11T15:34:59Z</time>
      </trkpt>
      <trkpt lat="45.06107" lon="5.3069">
        <ele>179.50973510742</ele>
        <time>2011-05-11T15:35:05Z</time>
      </trkpt>
      <trkpt lat="45.06142" lon="5.30611">
        <ele>177.2331237793</ele>
        <time>2011-05-11T15:35:12Z</time>
      </trkpt>
      <trkpt lat="45.06166" lon="5.30549">
        <ele>176.65570068359</ele>
        <time>2011-05-11T15:35:17Z</time>
      </trkpt>
      <trkpt lat="45.06176" lon="5.30511">
        <ele>176.08471679688</ele>
        <time>2011-05-11T15:35:20Z</time>
      </trkpt>
      <trkpt lat="45.06206" lon="5.30455">
        <ele>176.55560302734</ele>
        <time>2011-05-11T15:35:26Z</time>
      </trkpt>
      <trkpt lat="45.06223" lon="5.30426">
        <ele>177.00364685059</ele>
        <time>2011-05-11T15:35:30Z</time>
      </trkpt>
      <trkpt lat="45.06241" lon="5.30395">
        <ele>176.75344848633</ele>
        <time>2011-05-11T15:35:36Z</time>
      </trkpt>
      <trkpt lat="45.06249" lon="5.30384">
        <ele>176.77908325195</ele>
        <time>2011-05-11T15:35:40Z</time>
      </trkpt>
      <trkpt lat="45.06253" lon="5.30378">
        <ele>176.79711914062</ele>
        <time>2011-05-11T15:35:44Z</time>
      </trkpt>
      <trkpt lat="45.06255" lon="5.30366">
        <ele>176.57052612305</ele>
        <time>2011-05-11T15:35:50Z</time>
      </trkpt>
      <trkpt lat="45.06257" lon="5.30366">
        <ele>176.6803894043</ele>
        <time>2011-05-11T15:35:53Z</time>
      </trkpt>
      <trkpt lat="45.06258" lon="5.30362">
        <ele>176.62373352051</ele>
        <time>2011-05-11T15:36:03Z</time>
      </trkpt>
      <trkpt lat="45.06263" lon="5.30357">
        <ele>176.86839294434</ele>
        <time>2011-05-11T15:36:12Z</time>
      </trkpt>
      <trkpt lat="45.06271" lon="5.30344">
        <ele>177.04820251465</ele>
        <time>2011-05-11T15:36:17Z</time>
      </trkpt>
      <trkpt lat="45.06276" lon="5.30329">
        <ele>176.79803466797</ele>
        <time>2011-05-11T15:36:21Z</time>
      </trkpt>
      <trkpt lat="45.06281" lon="5.30305">
        <ele>176.197265625</ele>
        <time>2011-05-11T15:36:25Z</time>
      </trkpt>
      <trkpt lat="45.0629" lon="5.30258">
        <ele>176.1594543457</ele>
        <time>2011-05-11T15:36:32Z</time>
      </trkpt>
      <trkpt lat="45.06305" lon="5.30214">
        <ele>175.6633605957</ele>
        <time>2011-05-11T15:36:38Z</time>
      </trkpt>
      <trkpt lat="45.06324" lon="5.30165">
        <ele>175.99255371094</ele>
        <time>2011-05-11T15:36:44Z</time>
      </trkpt>
      <trkpt lat="45.06351" lon="5.30103">
        <ele>176.65295410156</ele>
        <time>2011-05-11T15:36:51Z</time>
      </trkpt>
      <trkpt lat="45.06366" lon="5.30068">
        <ele>176.63024902344</ele>
        <time>2011-05-11T15:36:55Z</time>
      </trkpt>
      <trkpt lat="45.06372" lon="5.30049">
        <ele>176.40826416016</ele>
        <time>2011-05-11T15:36:57Z</time>
      </trkpt>
      <trkpt lat="45.06384" lon="5.29984">
        <ele>175.89335632324</ele>
        <time>2011-05-11T15:37:03Z</time>
      </trkpt>
      <trkpt lat="45.06388" lon="5.29898">
        <ele>174.97131347656</ele>
        <time>2011-05-11T15:37:10Z</time>
      </trkpt>
      <trkpt lat="45.0639" lon="5.29832">
        <ele>174.02624511719</ele>
        <time>2011-05-11T15:37:15Z</time>
      </trkpt>
      <trkpt lat="45.06395" lon="5.29724">
        <ele>175.27656555176</ele>
        <time>2011-05-11T15:37:23Z</time>
      </trkpt>
      <trkpt lat="45.064" lon="5.2959">
        <ele>176.16094970703</ele>
        <time>2011-05-11T15:37:33Z</time>
      </trkpt>
      <trkpt lat="45.06403" lon="5.29478">
        <ele>173.73297119141</ele>
        <time>2011-05-11T15:37:41Z</time>
      </trkpt>
      <trkpt lat="45.06406" lon="5.29364">
        <ele>172.36547851562</ele>
        <time>2011-05-11T15:37:49Z</time>
      </trkpt>
      <trkpt lat="45.06414" lon="5.29257">
        <ele>172.71545410156</ele>
        <time>2011-05-11T15:37:57Z</time>
      </trkpt>
      <trkpt lat="45.06411" lon="5.29188">
        <ele>175.89012145996</ele>
        <time>2011-05-11T15:38:02Z</time>
      </trkpt>
      <trkpt lat="45.06399" lon="5.2912">
        <ele>179.86332702637</ele>
        <time>2011-05-11T15:38:07Z</time>
      </trkpt>
      <trkpt lat="45.06375" lon="5.29045">
        <ele>184.47631835938</ele>
        <time>2011-05-11T15:38:13Z</time>
      </trkpt>
      <trkpt lat="45.06348" lon="5.29004">
        <ele>186.31811523438</ele>
        <time>2011-05-11T15:38:17Z</time>
      </trkpt>
      <trkpt lat="45.06313" lon="5.28976">
        <ele>183.19415283203</ele>
        <time>2011-05-11T15:38:21Z</time>
      </trkpt>
      <trkpt lat="45.06266" lon="5.28953">
        <ele>178.67288208008</ele>
        <time>2011-05-11T15:38:26Z</time>
      </trkpt>
      <trkpt lat="45.06233" lon="5.28921">
        <ele>178.56404113769</ele>
        <time>2011-05-11T15:38:30Z</time>
      </trkpt>
      <trkpt lat="45.06226" lon="5.28911">
        <ele>178.24537658691</ele>
        <time>2011-05-11T15:38:31Z</time>
      </trkpt>
      <trkpt lat="45.06165" lon="5.28803">
        <ele>176.90008544922</ele>
        <time>2011-05-11T15:38:41Z</time>
      </trkpt>
      <trkpt lat="45.06134" lon="5.28734">
        <ele>174.27003479004</ele>
        <time>2011-05-11T15:38:47Z</time>
      </trkpt>
      <trkpt lat="45.06108" lon="5.28645">
        <ele>174.51956176758</ele>
        <time>2011-05-11T15:38:54Z</time>
      </trkpt>
      <trkpt lat="45.06075" lon="5.28499">
        <ele>172.78637695312</ele>
        <time>2011-05-11T15:39:05Z</time>
      </trkpt>
      <trkpt lat="45.06073" lon="5.28486">
        <ele>172.56665039062</ele>
        <time>2011-05-11T15:39:06Z</time>
      </trkpt>
      <trkpt lat="45.06075" lon="5.28404">
        <ele>173.84130859375</ele>
        <time>2011-05-11T15:39:12Z</time>
      </trkpt>
      <trkpt lat="45.06088" lon="5.28324">
        <ele>174.30718994141</ele>
        <time>2011-05-11T15:39:18Z</time>
      </trkpt>
      <trkpt lat="45.06108" lon="5.28244">
        <ele>175.18557739258</ele>
        <time>2011-05-11T15:39:24Z</time>
      </trkpt>
      <trkpt lat="45.06119" lon="5.28159">
        <ele>174.45289611816</ele>
        <time>2011-05-11T15:39:30Z</time>
      </trkpt>
      <trkpt lat="45.06141" lon="5.28047">
        <ele>176.06900024414</ele>
        <time>2011-05-11T15:39:38Z</time>
      </trkpt>
      <trkpt lat="45.06154" lon="5.27953">
        <ele>177.01055908203</ele>
        <time>2011-05-11T15:39:45Z</time>
      </trkpt>
      <trkpt lat="45.06157" lon="5.27927">
        <ele>176.83097839356</ele>
        <time>2011-05-11T15:39:47Z</time>
      </trkpt>
      <trkpt lat="45.06149" lon="5.27878">
        <ele>175.37635803223</ele>
        <time>2011-05-11T15:39:51Z</time>
      </trkpt>
      <trkpt lat="45.06144" lon="5.27867">
        <ele>173.74749755859</ele>
        <time>2011-05-11T15:39:52Z</time>
      </trkpt>
      <trkpt lat="45.06129" lon="5.27837">
        <ele>171.7265625</ele>
        <time>2011-05-11T15:39:55Z</time>
      </trkpt>
      <trkpt lat="45.0611" lon="5.27757">
        <ele>174.96870422363</ele>
        <time>2011-05-11T15:40:02Z</time>
      </trkpt>
      <trkpt lat="45.06104" lon="5.27688">
        <ele>176.74725341797</ele>
        <time>2011-05-11T15:40:08Z</time>
      </trkpt>
      <trkpt lat="45.06104" lon="5.27632">
        <ele>181.00439453125</ele>
        <time>2011-05-11T15:40:13Z</time>
      </trkpt>
      <trkpt lat="45.06088" lon="5.27558">
        <ele>182.62124633789</ele>
        <time>2011-05-11T15:40:20Z</time>
      </trkpt>
      <trkpt lat="45.06081" lon="5.27505">
        <ele>183.28486633301</ele>
        <time>2011-05-11T15:40:25Z</time>
      </trkpt>
      <trkpt lat="45.06083" lon="5.2744">
        <ele>184.89489746094</ele>
        <time>2011-05-11T15:40:31Z</time>
      </trkpt>
      <trkpt lat="45.06099" lon="5.27344">
        <ele>185.37060546875</ele>
        <time>2011-05-11T15:40:40Z</time>
      </trkpt>
      <trkpt lat="45.06118" lon="5.27263">
        <ele>186.26895141602</ele>
        <time>2011-05-11T15:40:48Z</time>
      </trkpt>
      <trkpt lat="45.06145" lon="5.272">
        <ele>188.13098144531</ele>
        <time>2011-05-11T15:40:55Z</time>
      </trkpt>
      <trkpt lat="45.0619" lon="5.2713">
        <ele>191.24212646484</ele>
        <time>2011-05-11T15:41:04Z</time>
      </trkpt>
      <trkpt lat="45.06232" lon="5.27064">
        <ele>189.78210449219</ele>
        <time>2011-05-11T15:41:13Z</time>
      </trkpt>
      <trkpt lat="45.06261" lon="5.27012">
        <ele>188.24955749512</ele>
        <time>2011-05-11T15:41:20Z</time>
      </trkpt>
      <trkpt lat="45.06274" lon="5.26957">
        <ele>185.81616210938</ele>
        <time>2011-05-11T15:41:26Z</time>
      </trkpt>
      <trkpt lat="45.06294" lon="5.26884">
        <ele>182.09962463379</ele>
        <time>2011-05-11T15:41:34Z</time>
      </trkpt>
      <trkpt lat="45.06317" lon="5.2685">
        <ele>183.4169921875</ele>
        <time>2011-05-11T15:41:39Z</time>
      </trkpt>
      <trkpt lat="45.06354" lon="5.26826">
        <ele>185.54328918457</ele>
        <time>2011-05-11T15:41:45Z</time>
      </trkpt>
      <trkpt lat="45.06407" lon="5.2682">
        <ele>188.45932006836</ele>
        <time>2011-05-11T15:41:53Z</time>
      </trkpt>
      <trkpt lat="45.06418" lon="5.26821">
        <ele>189.06208801269</ele>
        <time>2011-05-11T15:41:56Z</time>
      </trkpt>
      <trkpt lat="45.06426" lon="5.26822">
        <ele>189.46138000488</ele>
        <time>2011-05-11T15:41:59Z</time>
      </trkpt>
      <trkpt lat="45.06441" lon="5.26816">
        <ele>190.40159606934</ele>
        <time>2011-05-11T15:42:03Z</time>
      </trkpt>
      <trkpt lat="45.06443" lon="5.26797">
        <ele>190.9130859375</ele>
        <time>2011-05-11T15:42:06Z</time>
      </trkpt>
      <trkpt lat="45.06433" lon="5.2678">
        <ele>190.56495666504</ele>
        <time>2011-05-11T15:42:09Z</time>
      </trkpt>
      <trkpt lat="45.06421" lon="5.26762">
        <ele>190.23986816406</ele>
        <time>2011-05-11T15:42:12Z</time>
      </trkpt>
      <trkpt lat="45.06393" lon="5.26692">
        <ele>190.14984130859</ele>
        <time>2011-05-11T15:42:21Z</time>
      </trkpt>
      <trkpt lat="45.0637" lon="5.26631">
        <ele>188.91950988769</ele>
        <time>2011-05-11T15:42:28Z</time>
      </trkpt>
      <trkpt lat="45.06338" lon="5.26542">
        <ele>188.34460449219</ele>
        <time>2011-05-11T15:42:37Z</time>
      </trkpt>
      <trkpt lat="45.06311" lon="5.26483">
        <ele>186.55059814453</ele>
        <time>2011-05-11T15:42:43Z</time>
      </trkpt>
      <trkpt lat="45.06268" lon="5.26422">
        <ele>183.9775390625</ele>
        <time>2011-05-11T15:42:50Z</time>
      </trkpt>
      <trkpt lat="45.06263" lon="5.26411">
        <ele>183.50201416016</ele>
        <time>2011-05-11T15:42:51Z</time>
      </trkpt>
      <trkpt lat="45.06247" lon="5.26351">
        <ele>182.67041015625</ele>
        <time>2011-05-11T15:42:56Z</time>
      </trkpt>
      <trkpt lat="45.06234" lon="5.26204">
        <ele>181.94177246094</ele>
        <time>2011-05-11T15:43:07Z</time>
      </trkpt>
      <trkpt lat="45.06223" lon="5.26068">
        <ele>181.19348144531</ele>
        <time>2011-05-11T15:43:17Z</time>
      </trkpt>
      <trkpt lat="45.06209" lon="5.25917">
        <ele>181.59173583984</ele>
        <time>2011-05-11T15:43:28Z</time>
      </trkpt>
      <trkpt lat="45.06191" lon="5.2584">
        <ele>179.61419677734</ele>
        <time>2011-05-11T15:43:34Z</time>
      </trkpt>
      <trkpt lat="45.06178" lon="5.25775">
        <ele>178.25463867188</ele>
        <time>2011-05-11T15:43:39Z</time>
      </trkpt>
      <trkpt lat="45.06162" lon="5.25642">
        <ele>177.20715332031</ele>
        <time>2011-05-11T15:43:49Z</time>
      </trkpt>
      <trkpt lat="45.06145" lon="5.25579">
        <ele>174.11724853516</ele>
        <time>2011-05-11T15:43:54Z</time>
      </trkpt>
      <trkpt lat="45.06134" lon="5.25525">
        <ele>172.12121582031</ele>
        <time>2011-05-11T15:43:58Z</time>
      </trkpt>
      <trkpt lat="45.06132" lon="5.25468">
        <ele>167.83354187012</ele>
        <time>2011-05-11T15:44:02Z</time>
      </trkpt>
      <trkpt lat="45.06147" lon="5.25352">
        <ele>165.60316467285</ele>
        <time>2011-05-11T15:44:10Z</time>
      </trkpt>
      <trkpt lat="45.06161" lon="5.25267">
        <ele>168.64422607422</ele>
        <time>2011-05-11T15:44:16Z</time>
      </trkpt>
      <trkpt lat="45.06175" lon="5.25182">
        <ele>173.77514648438</ele>
        <time>2011-05-11T15:44:22Z</time>
      </trkpt>
      <trkpt lat="45.06193" lon="5.25025">
        <ele>175.54190063477</ele>
        <time>2011-05-11T15:44:33Z</time>
      </trkpt>
      <trkpt lat="45.06195" lon="5.24955">
        <ele>172.93301391602</ele>
        <time>2011-05-11T15:44:38Z</time>
      </trkpt>
      <trkpt lat="45.0619" lon="5.24855">
        <ele>168.09945678711</ele>
        <time>2011-05-11T15:44:45Z</time>
      </trkpt>
      <trkpt lat="45.06181" lon="5.24785">
        <ele>166.16845703125</ele>
        <time>2011-05-11T15:44:50Z</time>
      </trkpt>
      <trkpt lat="45.06176" lon="5.24758">
        <ele>165.16285705566</ele>
        <time>2011-05-11T15:44:52Z</time>
      </trkpt>
      <trkpt lat="45.06155" lon="5.24732">
        <ele>161.70031738281</ele>
        <time>2011-05-11T15:44:55Z</time>
      </trkpt>
      <trkpt lat="45.06145" lon="5.2473">
        <ele>160.71154785156</ele>
        <time>2011-05-11T15:44:56Z</time>
      </trkpt>
      <trkpt lat="45.06087" lon="5.24716">
        <ele>160</ele>
        <time>2011-05-11T15:45:03Z</time>
      </trkpt>
      <trkpt lat="45.06045" lon="5.24703">
        <ele>161.51359558106</ele>
        <time>2011-05-11T15:45:09Z</time>
      </trkpt>
      <trkpt lat="45.06019" lon="5.2469">
        <ele>163.28857421875</ele>
        <time>2011-05-11T15:45:13Z</time>
      </trkpt>
      <trkpt lat="45.05994" lon="5.24658">
        <ele>167.14157104492</ele>
        <time>2011-05-11T15:45:18Z</time>
      </trkpt>
      <trkpt lat="45.05989" lon="5.24631">
        <ele>168.44226074219</ele>
        <time>2011-05-11T15:45:21Z</time>
      </trkpt>
      <trkpt lat="45.05982" lon="5.24566">
        <ele>170.23759460449</ele>
        <time>2011-05-11T15:45:29Z</time>
      </trkpt>
      <trkpt lat="45.0598" lon="5.24514">
        <ele>172.80778503418</ele>
        <time>2011-05-11T15:45:36Z</time>
      </trkpt>
      <trkpt lat="45.05983" lon="5.24446">
        <ele>181.1856842041</ele>
        <time>2011-05-11T15:45:45Z</time>
      </trkpt>
      <trkpt lat="45.05983" lon="5.24417">
        <ele>186.93620300293</ele>
        <time>2011-05-11T15:45:49Z</time>
      </trkpt>
      <trkpt lat="45.05991" lon="5.24381">
        <ele>197.08912658691</ele>
        <time>2011-05-11T15:45:54Z</time>
      </trkpt>
      <trkpt lat="45.06013" lon="5.24339">
        <ele>208.10223388672</ele>
        <time>2011-05-11T15:46:01Z</time>
      </trkpt>
      <trkpt lat="45.06048" lon="5.24299">
        <ele>230.72273254394</ele>
        <time>2011-05-11T15:46:09Z</time>
      </trkpt>
      <trkpt lat="45.06069" lon="5.24285">
        <ele>234.06747436523</ele>
        <time>2011-05-11T15:46:13Z</time>
      </trkpt>
      <trkpt lat="45.06092" lon="5.24277">
        <ele>231.78324890137</ele>
        <time>2011-05-11T15:46:17Z</time>
      </trkpt>
      <trkpt lat="45.06133" lon="5.24275">
        <ele>219.02143859863</ele>
        <time>2011-05-11T15:46:24Z</time>
      </trkpt>
      <trkpt lat="45.06168" lon="5.24271">
        <ele>211.23773193359</ele>
        <time>2011-05-11T15:46:30Z</time>
      </trkpt>
      <trkpt lat="45.06233" lon="5.24257">
        <ele>211.13426208496</ele>
        <time>2011-05-11T15:46:41Z</time>
      </trkpt>
      <trkpt lat="45.06289" lon="5.24252">
        <ele>201.71095275879</ele>
        <time>2011-05-11T15:46:50Z</time>
      </trkpt>
      <trkpt lat="45.06295" lon="5.24251">
        <ele>201.27851867676</ele>
        <time>2011-05-11T15:46:51Z</time>
      </trkpt>
      <trkpt lat="45.06332" lon="5.24233">
        <ele>196.52290344238</ele>
        <time>2011-05-11T15:46:57Z</time>
      </trkpt>
      <trkpt lat="45.06387" lon="5.24197">
        <ele>199.31881713867</ele>
        <time>2011-05-11T15:47:06Z</time>
      </trkpt>
      <trkpt lat="45.06429" lon="5.24171">
        <ele>196.96148681641</ele>
        <time>2011-05-11T15:47:13Z</time>
      </trkpt>
      <trkpt lat="45.06469" lon="5.24147">
        <ele>191.74041748047</ele>
        <time>2011-05-11T15:47:20Z</time>
      </trkpt>
      <trkpt lat="45.06485" lon="5.24149">
        <ele>187.56147766113</ele>
        <time>2011-05-11T15:47:23Z</time>
      </trkpt>
      <trkpt lat="45.06493" lon="5.24161">
        <ele>184.08499145508</ele>
        <time>2011-05-11T15:47:25Z</time>
      </trkpt>
      <trkpt lat="45.06499" lon="5.24176">
        <ele>181.11868286133</ele>
        <time>2011-05-11T15:47:27Z</time>
      </trkpt>
      <trkpt lat="45.06507" lon="5.24191">
        <ele>179.10330200195</ele>
        <time>2011-05-11T15:47:29Z</time>
      </trkpt>
      <trkpt lat="45.06524" lon="5.24211">
        <ele>176.41943359375</ele>
        <time>2011-05-11T15:47:32Z</time>
      </trkpt>
      <trkpt lat="45.06569" lon="5.24247">
        <ele>169.28039550781</ele>
        <time>2011-05-11T15:47:38Z</time>
      </trkpt>
      <trkpt lat="45.06607" lon="5.24264">
        <ele>164.74284362793</ele>
        <time>2011-05-11T15:47:42Z</time>
      </trkpt>
      <trkpt lat="45.06661" lon="5.24284">
        <ele>160</ele>
        <time>2011-05-11T15:47:48Z</time>
      </trkpt>
      <trkpt lat="45.06715" lon="5.24304">
        <ele>160</ele>
        <time>2011-05-11T15:47:55Z</time>
      </trkpt>
      <trkpt lat="45.06769" lon="5.24324">
        <ele>160</ele>
        <time>2011-05-11T15:48:03Z</time>
      </trkpt>
      <trkpt lat="45.0683" lon="5.24346">
        <ele>163.11990356445</ele>
        <time>2011-05-11T15:48:13Z</time>
      </trkpt>
      <trkpt lat="45.06862" lon="5.24359">
        <ele>169.05120849609</ele>
        <time>2011-05-11T15:48:19Z</time>
      </trkpt>
      <trkpt lat="45.06877" lon="5.24364">
        <ele>171.98832702637</ele>
        <time>2011-05-11T15:48:22Z</time>
      </trkpt>
      <trkpt lat="45.06913" lon="5.24377">
        <ele>177.15179443359</ele>
        <time>2011-05-11T15:48:29Z</time>
      </trkpt>
      <trkpt lat="45.06929" lon="5.24382">
        <ele>179.58653259277</ele>
        <time>2011-05-11T15:48:32Z</time>
      </trkpt>
      <trkpt lat="45.06963" lon="5.24399">
        <ele>183.61567687988</ele>
        <time>2011-05-11T15:48:39Z</time>
      </trkpt>
      <trkpt lat="45.06969" lon="5.24401">
        <ele>184.11407470703</ele>
        <time>2011-05-11T15:48:42Z</time>
      </trkpt>
      <trkpt lat="45.06983" lon="5.24392">
        <ele>185.30743408203</ele>
        <time>2011-05-11T15:48:46Z</time>
      </trkpt>
      <trkpt lat="45.06996" lon="5.24381">
        <ele>186.35536193848</ele>
        <time>2011-05-11T15:48:49Z</time>
      </trkpt>
      <trkpt lat="45.07017" lon="5.2435">
        <ele>187.59912109375</ele>
        <time>2011-05-11T15:48:56Z</time>
      </trkpt>
      <trkpt lat="45.07035" lon="5.24324">
        <ele>188.66215515137</ele>
        <time>2011-05-11T15:49:03Z</time>
      </trkpt>
      <trkpt lat="45.07048" lon="5.24292">
        <ele>189.32629394531</ele>
        <time>2011-05-11T15:49:09Z</time>
      </trkpt>
      <trkpt lat="45.07063" lon="5.24257">
        <ele>189.75048828125</ele>
        <time>2011-05-11T15:49:15Z</time>
      </trkpt>
      <trkpt lat="45.07072" lon="5.24215">
        <ele>189.65762329102</ele>
        <time>2011-05-11T15:49:21Z</time>
      </trkpt>
      <trkpt lat="45.07085" lon="5.2415">
        <ele>188.54978942871</ele>
        <time>2011-05-11T15:49:29Z</time>
      </trkpt>
      <trkpt lat="45.07101" lon="5.24083">
        <ele>188.2262878418</ele>
        <time>2011-05-11T15:49:37Z</time>
      </trkpt>
      <trkpt lat="45.07117" lon="5.24054">
        <ele>188.38763427734</ele>
        <time>2011-05-11T15:49:41Z</time>
      </trkpt>
      <trkpt lat="45.07136" lon="5.2405">
        <ele>189.56866455078</ele>
        <time>2011-05-11T15:49:44Z</time>
      </trkpt>
      <trkpt lat="45.07142" lon="5.24051">
        <ele>189.95722961426</ele>
        <time>2011-05-11T15:49:45Z</time>
      </trkpt>
      <trkpt lat="45.07185" lon="5.24067">
        <ele>192.69885253906</ele>
        <time>2011-05-11T15:49:52Z</time>
      </trkpt>
      <trkpt lat="45.0719" lon="5.24069">
        <ele>193.18807983398</ele>
        <time>2011-05-11T15:49:53Z</time>
      </trkpt>
      <trkpt lat="45.07207" lon="5.24073">
        <ele>194.35415649414</ele>
        <time>2011-05-11T15:49:56Z</time>
      </trkpt>
      <trkpt lat="45.07238" lon="5.24073">
        <ele>196.00090026856</ele>
        <time>2011-05-11T15:50:02Z</time>
      </trkpt>
      <trkpt lat="45.07269" lon="5.24069">
        <ele>198.23922729492</ele>
        <time>2011-05-11T15:50:08Z</time>
      </trkpt>
      <trkpt lat="45.07291" lon="5.24067">
        <ele>199.41946411133</ele>
        <time>2011-05-11T15:50:12Z</time>
      </trkpt>
      <trkpt lat="45.0733" lon="5.24065">
        <ele>200.29904174805</ele>
        <time>2011-05-11T15:50:19Z</time>
      </trkpt>
      <trkpt lat="45.07376" lon="5.2406">
        <ele>201</ele>
        <time>2011-05-11T15:50:27Z</time>
      </trkpt>
      <trkpt lat="45.07418" lon="5.24056">
        <ele>201.05088806152</ele>
        <time>2011-05-11T15:50:34Z</time>
      </trkpt>
      <trkpt lat="45.07484" lon="5.24049">
        <ele>202</ele>
        <time>2011-05-11T15:50:44Z</time>
      </trkpt>
      <trkpt lat="45.07558" lon="5.24042">
        <ele>204</ele>
        <time>2011-05-11T15:50:55Z</time>
      </trkpt>
      <trkpt lat="45.07625" lon="5.24035">
        <ele>205</ele>
        <time>2011-05-11T15:51:05Z</time>
      </trkpt>
      <trkpt lat="45.07676" lon="5.24029">
        <ele>205.31988525391</ele>
        <time>2011-05-11T15:51:13Z</time>
      </trkpt>
      <trkpt lat="45.07688" lon="5.24024">
        <ele>205.75933837891</ele>
        <time>2011-05-11T15:51:15Z</time>
      </trkpt>
      <trkpt lat="45.07711" lon="5.24">
        <ele>206.00653076172</ele>
        <time>2011-05-11T15:51:20Z</time>
      </trkpt>
      <trkpt lat="45.07714" lon="5.23993">
        <ele>206</ele>
        <time>2011-05-11T15:51:21Z</time>
      </trkpt>
      <trkpt lat="45.07732" lon="5.23939">
        <ele>206.35235595703</ele>
        <time>2011-05-11T15:51:28Z</time>
      </trkpt>
      <trkpt lat="45.07754" lon="5.23863">
        <ele>206.13513183594</ele>
        <time>2011-05-11T15:51:37Z</time>
      </trkpt>
      <trkpt lat="45.07779" lon="5.23773">
        <ele>207.05523681641</ele>
        <time>2011-05-11T15:51:47Z</time>
      </trkpt>
      <trkpt lat="45.07806" lon="5.23682">
        <ele>206.55966186523</ele>
        <time>2011-05-11T15:51:57Z</time>
      </trkpt>
      <trkpt lat="45.07834" lon="5.23583">
        <ele>204.03561401367</ele>
        <time>2011-05-11T15:52:08Z</time>
      </trkpt>
      <trkpt lat="45.07858" lon="5.23489">
        <ele>201.94737243652</ele>
        <time>2011-05-11T15:52:18Z</time>
      </trkpt>
      <trkpt lat="45.07877" lon="5.23411">
        <ele>200.33552551269</ele>
        <time>2011-05-11T15:52:26Z</time>
      </trkpt>
      <trkpt lat="45.07899" lon="5.23369">
        <ele>199.63342285156</ele>
        <time>2011-05-11T15:52:31Z</time>
      </trkpt>
      <trkpt lat="45.0793" lon="5.23302">
        <ele>197.20877075195</ele>
        <time>2011-05-11T15:52:39Z</time>
      </trkpt>
      <trkpt lat="45.07954" lon="5.23248">
        <ele>194.9114074707</ele>
        <time>2011-05-11T15:52:46Z</time>
      </trkpt>
      <trkpt lat="45.07977" lon="5.23179">
        <ele>193.62696838379</ele>
        <time>2011-05-11T15:52:54Z</time>
      </trkpt>
      <trkpt lat="45.08007" lon="5.23097">
        <ele>192.68287658691</ele>
        <time>2011-05-11T15:53:03Z</time>
      </trkpt>
      <trkpt lat="45.08033" lon="5.23014">
        <ele>189.93045043945</ele>
        <time>2011-05-11T15:53:11Z</time>
      </trkpt>
      <trkpt lat="45.08043" lon="5.22945">
        <ele>187.23406982422</ele>
        <time>2011-05-11T15:53:17Z</time>
      </trkpt>
      <trkpt lat="45.08045" lon="5.22934">
        <ele>186.91809082031</ele>
        <time>2011-05-11T15:53:18Z</time>
      </trkpt>
      <trkpt lat="45.08066" lon="5.2287">
        <ele>185.57846069336</ele>
        <time>2011-05-11T15:53:24Z</time>
      </trkpt>
      <trkpt lat="45.08112" lon="5.22758">
        <ele>183.99749755859</ele>
        <time>2011-05-11T15:53:35Z</time>
      </trkpt>
      <trkpt lat="45.08142" lon="5.22708">
        <ele>185.83908081055</ele>
        <time>2011-05-11T15:53:40Z</time>
      </trkpt>
      <trkpt lat="45.08149" lon="5.22698">
        <ele>187.36785888672</ele>
        <time>2011-05-11T15:53:41Z</time>
      </trkpt>
      <trkpt lat="45.08221" lon="5.22596">
        <ele>192.44232177734</ele>
        <time>2011-05-11T15:53:51Z</time>
      </trkpt>
      <trkpt lat="45.08273" lon="5.22528">
        <ele>192.82061767578</ele>
        <time>2011-05-11T15:53:58Z</time>
      </trkpt>
      <trkpt lat="45.08303" lon="5.22482">
        <ele>192.89678955078</ele>
        <time>2011-05-11T15:54:03Z</time>
      </trkpt>
      <trkpt lat="45.0832" lon="5.2243">
        <ele>192.00131225586</ele>
        <time>2011-05-11T15:54:08Z</time>
      </trkpt>
      <trkpt lat="45.08332" lon="5.22356">
        <ele>190.79888916016</ele>
        <time>2011-05-11T15:54:15Z</time>
      </trkpt>
      <trkpt lat="45.08343" lon="5.22272">
        <ele>188.63667297363</ele>
        <time>2011-05-11T15:54:23Z</time>
      </trkpt>
      <trkpt lat="45.08361" lon="5.22212">
        <ele>188.64639282227</ele>
        <time>2011-05-11T15:54:29Z</time>
      </trkpt>
      <trkpt lat="45.08392" lon="5.22137">
        <ele>187.94548034668</ele>
        <time>2011-05-11T15:54:37Z</time>
      </trkpt>
      <trkpt lat="45.08423" lon="5.22088">
        <ele>187.4079284668</ele>
        <time>2011-05-11T15:54:43Z</time>
      </trkpt>
      <trkpt lat="45.08459" lon="5.22026">
        <ele>187.50285339356</ele>
        <time>2011-05-11T15:54:50Z</time>
      </trkpt>
      <trkpt lat="45.08487" lon="5.21956">
        <ele>186.7414855957</ele>
        <time>2011-05-11T15:54:57Z</time>
      </trkpt>
      <trkpt lat="45.08526" lon="5.2186">
        <ele>185.89263916016</ele>
        <time>2011-05-11T15:55:06Z</time>
      </trkpt>
      <trkpt lat="45.08541" lon="5.21833">
        <ele>185.46899414062</ele>
        <time>2011-05-11T15:55:09Z</time>
      </trkpt>
      <trkpt lat="45.08566" lon="5.21812">
        <ele>185.51435852051</ele>
        <time>2011-05-11T15:55:13Z</time>
      </trkpt>
      <trkpt lat="45.08593" lon="5.21814">
        <ele>186</ele>
        <time>2011-05-11T15:55:17Z</time>
      </trkpt>
      <trkpt lat="45.08635" lon="5.21833">
        <ele>186</ele>
        <time>2011-05-11T15:55:24Z</time>
      </trkpt>
      <trkpt lat="45.0864" lon="5.21835">
        <ele>186.00335693359</ele>
        <time>2011-05-11T15:55:25Z</time>
      </trkpt>
      <trkpt lat="45.08668" lon="5.21833">
        <ele>186.03843688965</ele>
        <time>2011-05-11T15:55:30Z</time>
      </trkpt>
      <trkpt lat="45.08672" lon="5.2183">
        <ele>186.16862487793</ele>
        <time>2011-05-11T15:55:31Z</time>
      </trkpt>
      <trkpt lat="45.08699" lon="5.21809">
        <ele>186.10876464844</ele>
        <time>2011-05-11T15:55:39Z</time>
      </trkpt>
      <trkpt lat="45.087" lon="5.21807">
        <ele>186.06927490234</ele>
        <time>2011-05-11T15:55:42Z</time>
      </trkpt>
      <trkpt lat="45.08703" lon="5.21801">
        <ele>186</ele>
        <time>2011-05-11T15:55:53Z</time>
      </trkpt>
      <trkpt lat="45.08702" lon="5.21786">
        <ele>186</ele>
        <time>2011-05-11T15:55:57Z</time>
      </trkpt>
      <trkpt lat="45.087" lon="5.21783">
        <ele>186</ele>
        <time>2011-05-11T15:55:58Z</time>
      </trkpt>
      <trkpt lat="45.08686" lon="5.21759">
        <ele>185.21871948242</ele>
        <time>2011-05-11T15:56:03Z</time>
      </trkpt>
      <trkpt lat="45.08664" lon="5.2172">
        <ele>184.81338500977</ele>
        <time>2011-05-11T15:56:09Z</time>
      </trkpt>
      <trkpt lat="45.08644" lon="5.21682">
        <ele>184</ele>
        <time>2011-05-11T15:56:14Z</time>
      </trkpt>
      <trkpt lat="45.08614" lon="5.21621">
        <ele>183</ele>
        <time>2011-05-11T15:56:21Z</time>
      </trkpt>
      <trkpt lat="45.08591" lon="5.21557">
        <ele>182</ele>
        <time>2011-05-11T15:56:27Z</time>
      </trkpt>
      <trkpt lat="45.08566" lon="5.21485">
        <ele>180.37249755859</ele>
        <time>2011-05-11T15:56:33Z</time>
      </trkpt>
      <trkpt lat="45.08538" lon="5.214">
        <ele>175.20594787598</ele>
        <time>2011-05-11T15:56:39Z</time>
      </trkpt>
      <trkpt lat="45.0853" lon="5.21372">
        <ele>173.45932006836</ele>
        <time>2011-05-11T15:56:41Z</time>
      </trkpt>
      <trkpt lat="45.08513" lon="5.21314">
        <ele>169.24502563477</ele>
        <time>2011-05-11T15:56:45Z</time>
      </trkpt>
      <trkpt lat="45.08482" lon="5.21212">
        <ele>161.76364135742</ele>
        <time>2011-05-11T15:56:52Z</time>
      </trkpt>
      <trkpt lat="45.08477" lon="5.21181">
        <ele>159.88246154785</ele>
        <time>2011-05-11T15:56:54Z</time>
      </trkpt>
      <trkpt lat="45.08483" lon="5.21133">
        <ele>159</ele>
        <time>2011-05-11T15:56:57Z</time>
      </trkpt>
      <trkpt lat="45.08487" lon="5.21118">
        <ele>159</ele>
        <time>2011-05-11T15:56:58Z</time>
      </trkpt>
      <trkpt lat="45.08507" lon="5.21062">
        <ele>159</ele>
        <time>2011-05-11T15:57:02Z</time>
      </trkpt>
      <trkpt lat="45.08511" lon="5.21048">
        <ele>158.72018432617</ele>
        <time>2011-05-11T15:57:03Z</time>
      </trkpt>
      <trkpt lat="45.08518" lon="5.21019">
        <ele>158</ele>
        <time>2011-05-11T15:57:05Z</time>
      </trkpt>
      <trkpt lat="45.08523" lon="5.20943">
        <ele>157</ele>
        <time>2011-05-11T15:57:10Z</time>
      </trkpt>
      <trkpt lat="45.08521" lon="5.20841">
        <ele>158.30401611328</ele>
        <time>2011-05-11T15:57:17Z</time>
      </trkpt>
      <trkpt lat="45.0852" lon="5.20799">
        <ele>158.72454833984</ele>
        <time>2011-05-11T15:57:20Z</time>
      </trkpt>
      <trkpt lat="45.08518" lon="5.20719">
        <ele>158.65588378906</ele>
        <time>2011-05-11T15:57:26Z</time>
      </trkpt>
      <trkpt lat="45.08517" lon="5.2063">
        <ele>158.96636962891</ele>
        <time>2011-05-11T15:57:33Z</time>
      </trkpt>
      <trkpt lat="45.08516" lon="5.20568">
        <ele>159.58721923828</ele>
        <time>2011-05-11T15:57:38Z</time>
      </trkpt>
      <trkpt lat="45.08515" lon="5.20491">
        <ele>159.53228759766</ele>
        <time>2011-05-11T15:57:44Z</time>
      </trkpt>
      <trkpt lat="45.08513" lon="5.20413">
        <ele>159.95471191406</ele>
        <time>2011-05-11T15:57:50Z</time>
      </trkpt>
      <trkpt lat="45.08511" lon="5.20273">
        <ele>160.80268859863</ele>
        <time>2011-05-11T15:58:01Z</time>
      </trkpt>
      <trkpt lat="45.08509" lon="5.20136">
        <ele>160.97888183594</ele>
        <time>2011-05-11T15:58:12Z</time>
      </trkpt>
      <trkpt lat="45.08506" lon="5.19979">
        <ele>160.23016357422</ele>
        <time>2011-05-11T15:58:25Z</time>
      </trkpt>
      <trkpt lat="45.08507" lon="5.19836">
        <ele>159.48779296875</ele>
        <time>2011-05-11T15:58:37Z</time>
      </trkpt>
      <trkpt lat="45.0851" lon="5.19687">
        <ele>158.70751953125</ele>
        <time>2011-05-11T15:58:49Z</time>
      </trkpt>
      <trkpt lat="45.08512" lon="5.19548">
        <ele>157.87231445312</ele>
        <time>2011-05-11T15:59:00Z</time>
      </trkpt>
      <trkpt lat="45.08521" lon="5.19425">
        <ele>157.75201416016</ele>
        <time>2011-05-11T15:59:09Z</time>
      </trkpt>
      <trkpt lat="45.08534" lon="5.19247">
        <ele>158.1455078125</ele>
        <time>2011-05-11T15:59:22Z</time>
      </trkpt>
      <trkpt lat="45.08543" lon="5.1913">
        <ele>157.94827270508</ele>
        <time>2011-05-11T15:59:31Z</time>
      </trkpt>
      <trkpt lat="45.08551" lon="5.19021">
        <ele>157.70129394531</ele>
        <time>2011-05-11T15:59:40Z</time>
      </trkpt>
      <trkpt lat="45.08562" lon="5.1888">
        <ele>157.44287109375</ele>
        <time>2011-05-11T15:59:52Z</time>
      </trkpt>
      <trkpt lat="45.08563" lon="5.18857">
        <ele>157.48551940918</ele>
        <time>2011-05-11T15:59:54Z</time>
      </trkpt>
      <trkpt lat="45.08563" lon="5.18834">
        <ele>157.28698730469</ele>
        <time>2011-05-11T15:59:56Z</time>
      </trkpt>
      <trkpt lat="45.08569" lon="5.18791">
        <ele>157.18212890625</ele>
        <time>2011-05-11T16:00:00Z</time>
      </trkpt>
      <trkpt lat="45.0857" lon="5.18756">
        <ele>157.04711914062</ele>
        <time>2011-05-11T16:00:03Z</time>
      </trkpt>
      <trkpt lat="45.08573" lon="5.18671">
        <ele>156.61968994141</ele>
        <time>2011-05-11T16:00:10Z</time>
      </trkpt>
      <trkpt lat="45.0857" lon="5.18576">
        <ele>157.78405761719</ele>
        <time>2011-05-11T16:00:18Z</time>
      </trkpt>
      <trkpt lat="45.08569" lon="5.18481">
        <ele>159.1640625</ele>
        <time>2011-05-11T16:00:26Z</time>
      </trkpt>
      <trkpt lat="45.0857" lon="5.1842">
        <ele>159.50982666016</ele>
        <time>2011-05-11T16:00:32Z</time>
      </trkpt>
      <trkpt lat="45.08572" lon="5.1837">
        <ele>164.18090820312</ele>
        <time>2011-05-11T16:00:38Z</time>
      </trkpt>
      <trkpt lat="45.08571" lon="5.18316">
        <ele>168.50675964356</ele>
        <time>2011-05-11T16:00:45Z</time>
      </trkpt>
      <trkpt lat="45.08562" lon="5.18271">
        <ele>171.29641723633</ele>
        <time>2011-05-11T16:00:51Z</time>
      </trkpt>
      <trkpt lat="45.08543" lon="5.18206">
        <ele>174.74743652344</ele>
        <time>2011-05-11T16:01:00Z</time>
      </trkpt>
      <trkpt lat="45.08527" lon="5.18158">
        <ele>176.8782043457</ele>
        <time>2011-05-11T16:01:07Z</time>
      </trkpt>
      <trkpt lat="45.08503" lon="5.18092">
        <ele>177.24806213379</ele>
        <time>2011-05-11T16:01:17Z</time>
      </trkpt>
      <trkpt lat="45.0849" lon="5.1805">
        <ele>180.62417602539</ele>
        <time>2011-05-11T16:01:23Z</time>
      </trkpt>
      <trkpt lat="45.08469" lon="5.18001">
        <ele>183.318359375</ele>
        <time>2011-05-11T16:01:31Z</time>
      </trkpt>
      <trkpt lat="45.0844" lon="5.17947">
        <ele>187.97764587402</ele>
        <time>2011-05-11T16:01:40Z</time>
      </trkpt>
      <trkpt lat="45.08405" lon="5.1788">
        <ele>194.12991333008</ele>
        <time>2011-05-11T16:01:51Z</time>
      </trkpt>
      <trkpt lat="45.08368" lon="5.1782">
        <ele>200.96150207519</ele>
        <time>2011-05-11T16:02:01Z</time>
      </trkpt>
      <trkpt lat="45.08338" lon="5.17782">
        <ele>191.3323059082</ele>
        <time>2011-05-11T16:02:08Z</time>
      </trkpt>
      <trkpt lat="45.08285" lon="5.17717">
        <ele>180.32554626465</ele>
        <time>2011-05-11T16:02:19Z</time>
      </trkpt>
      <trkpt lat="45.08227" lon="5.17642">
        <ele>179.84619140625</ele>
        <time>2011-05-11T16:02:31Z</time>
      </trkpt>
      <trkpt lat="45.08179" lon="5.17571">
        <ele>181.2765045166</ele>
        <time>2011-05-11T16:02:42Z</time>
      </trkpt>
      <trkpt lat="45.08142" lon="5.17515">
        <ele>187.45941162109</ele>
        <time>2011-05-11T16:02:51Z</time>
      </trkpt>
      <trkpt lat="45.08105" lon="5.17457">
        <ele>191.92185974121</ele>
        <time>2011-05-11T16:03:00Z</time>
      </trkpt>
      <trkpt lat="45.08072" lon="5.17398">
        <ele>190.91209411621</ele>
        <time>2011-05-11T16:03:09Z</time>
      </trkpt>
      <trkpt lat="45.08031" lon="5.17334">
        <ele>189.84465026856</ele>
        <time>2011-05-11T16:03:19Z</time>
      </trkpt>
      <trkpt lat="45.08003" lon="5.17297">
        <ele>189.05268859863</ele>
        <time>2011-05-11T16:03:26Z</time>
      </trkpt>
      <trkpt lat="45.0797" lon="5.17248">
        <ele>186.95637512207</ele>
        <time>2011-05-11T16:03:35Z</time>
      </trkpt>
      <trkpt lat="45.07942" lon="5.17196">
        <ele>187.73413085938</ele>
        <time>2011-05-11T16:03:44Z</time>
      </trkpt>
      <trkpt lat="45.07903" lon="5.17127">
        <ele>187.99740600586</ele>
        <time>2011-05-11T16:03:56Z</time>
      </trkpt>
      <trkpt lat="45.07877" lon="5.17074">
        <ele>188.04469299316</ele>
        <time>2011-05-11T16:04:04Z</time>
      </trkpt>
      <trkpt lat="45.07854" lon="5.17025">
        <ele>188.19946289062</ele>
        <time>2011-05-11T16:04:11Z</time>
      </trkpt>
      <trkpt lat="45.0783" lon="5.16962">
        <ele>187.15533447266</ele>
        <time>2011-05-11T16:04:19Z</time>
      </trkpt>
      <trkpt lat="45.07806" lon="5.16881">
        <ele>189.29125976562</ele>
        <time>2011-05-11T16:04:29Z</time>
      </trkpt>
      <trkpt lat="45.07789" lon="5.16814">
        <ele>190</ele>
        <time>2011-05-11T16:04:37Z</time>
      </trkpt>
      <trkpt lat="45.07773" lon="5.16739">
        <ele>189.82177734375</ele>
        <time>2011-05-11T16:04:46Z</time>
      </trkpt>
      <trkpt lat="45.07756" lon="5.16665">
        <ele>189.23126220703</ele>
        <time>2011-05-11T16:04:55Z</time>
      </trkpt>
      <trkpt lat="45.07741" lon="5.16594">
        <ele>189.87110900879</ele>
        <time>2011-05-11T16:05:04Z</time>
      </trkpt>
      <trkpt lat="45.07719" lon="5.16496">
        <ele>189.88543701172</ele>
        <time>2011-05-11T16:05:16Z</time>
      </trkpt>
      <trkpt lat="45.077" lon="5.16409">
        <ele>189.21252441406</ele>
        <time>2011-05-11T16:05:26Z</time>
      </trkpt>
      <trkpt lat="45.07681" lon="5.16316">
        <ele>189.80392456055</ele>
        <time>2011-05-11T16:05:36Z</time>
      </trkpt>
      <trkpt lat="45.0767" lon="5.16271">
        <ele>190</ele>
        <time>2011-05-11T16:05:41Z</time>
      </trkpt>
      <trkpt lat="45.07677" lon="5.16238">
        <ele>190</ele>
        <time>2011-05-11T16:05:45Z</time>
      </trkpt>
      <trkpt lat="45.07682" lon="5.16232">
        <ele>190</ele>
        <time>2011-05-11T16:05:46Z</time>
      </trkpt>
      <trkpt lat="45.07708" lon="5.16198">
        <ele>190.97436523438</ele>
        <time>2011-05-11T16:05:53Z</time>
      </trkpt>
      <trkpt lat="45.07724" lon="5.16173">
        <ele>191.44668579102</ele>
        <time>2011-05-11T16:05:59Z</time>
      </trkpt>
      <trkpt lat="45.0774" lon="5.16147">
        <ele>192.92224121094</ele>
        <time>2011-05-11T16:06:05Z</time>
      </trkpt>
      <trkpt lat="45.0776" lon="5.16115">
        <ele>193.83247375488</ele>
        <time>2011-05-11T16:06:12Z</time>
      </trkpt>
      <trkpt lat="45.07763" lon="5.1611">
        <ele>193.90197753906</ele>
        <time>2011-05-11T16:06:13Z</time>
      </trkpt>
      <trkpt lat="45.07782" lon="5.16071">
        <ele>195.42248535156</ele>
        <time>2011-05-11T16:06:21Z</time>
      </trkpt>
      <trkpt lat="45.07797" lon="5.16022">
        <ele>196.06085205078</ele>
        <time>2011-05-11T16:06:30Z</time>
      </trkpt>
      <trkpt lat="45.07808" lon="5.15976">
        <ele>196.33325195312</ele>
        <time>2011-05-11T16:06:38Z</time>
      </trkpt>
      <trkpt lat="45.07819" lon="5.15931">
        <ele>197.24557495117</ele>
        <time>2011-05-11T16:06:45Z</time>
      </trkpt>
      <trkpt lat="45.07838" lon="5.15865">
        <ele>197.42771911621</ele>
        <time>2011-05-11T16:06:55Z</time>
      </trkpt>
      <trkpt lat="45.07856" lon="5.15793">
        <ele>197.23541259766</ele>
        <time>2011-05-11T16:07:05Z</time>
      </trkpt>
      <trkpt lat="45.0787" lon="5.15728">
        <ele>196.89642333984</ele>
        <time>2011-05-11T16:07:14Z</time>
      </trkpt>
      <trkpt lat="45.07881" lon="5.15668">
        <ele>196.47506713867</ele>
        <time>2011-05-11T16:07:22Z</time>
      </trkpt>
      <trkpt lat="45.07891" lon="5.15609">
        <ele>197.18542480469</ele>
        <time>2011-05-11T16:07:30Z</time>
      </trkpt>
      <trkpt lat="45.07907" lon="5.15533">
        <ele>197.35650634766</ele>
        <time>2011-05-11T16:07:40Z</time>
      </trkpt>
      <trkpt lat="45.07922" lon="5.15466">
        <ele>197.99836730957</ele>
        <time>2011-05-11T16:07:49Z</time>
      </trkpt>
      <trkpt lat="45.07937" lon="5.15405">
        <ele>197.72692871094</ele>
        <time>2011-05-11T16:07:57Z</time>
      </trkpt>
      <trkpt lat="45.07952" lon="5.15347">
        <ele>198.03089904785</ele>
        <time>2011-05-11T16:08:04Z</time>
      </trkpt>
      <trkpt lat="45.07971" lon="5.15277">
        <ele>197.89831542969</ele>
        <time>2011-05-11T16:08:12Z</time>
      </trkpt>
      <trkpt lat="45.07981" lon="5.15215">
        <ele>197.31994628906</ele>
        <time>2011-05-11T16:08:19Z</time>
      </trkpt>
      <trkpt lat="45.0799" lon="5.15125">
        <ele>198.47055053711</ele>
        <time>2011-05-11T16:08:29Z</time>
      </trkpt>
      <trkpt lat="45.08001" lon="5.15067">
        <ele>197.02032470703</ele>
        <time>2011-05-11T16:08:36Z</time>
      </trkpt>
      <trkpt lat="45.08012" lon="5.1502">
        <ele>197.41857910156</ele>
        <time>2011-05-11T16:08:42Z</time>
      </trkpt>
      <trkpt lat="45.08026" lon="5.14959">
        <ele>197.4992980957</ele>
        <time>2011-05-11T16:08:49Z</time>
      </trkpt>
      <trkpt lat="45.08038" lon="5.14915">
        <ele>197.70483398438</ele>
        <time>2011-05-11T16:08:54Z</time>
      </trkpt>
      <trkpt lat="45.08051" lon="5.14862">
        <ele>198.638671875</ele>
        <time>2011-05-11T16:09:00Z</time>
      </trkpt>
      <trkpt lat="45.08065" lon="5.14811">
        <ele>198.32745361328</ele>
        <time>2011-05-11T16:09:06Z</time>
      </trkpt>
      <trkpt lat="45.08082" lon="5.14762">
        <ele>198.95916748047</ele>
        <time>2011-05-11T16:09:12Z</time>
      </trkpt>
      <trkpt lat="45.08102" lon="5.14709">
        <ele>198.67327880859</ele>
        <time>2011-05-11T16:09:19Z</time>
      </trkpt>
      <trkpt lat="45.0812" lon="5.14661">
        <ele>199.88871765137</ele>
        <time>2011-05-11T16:09:26Z</time>
      </trkpt>
      <trkpt lat="45.08137" lon="5.14618">
        <ele>200.84594726562</ele>
        <time>2011-05-11T16:09:32Z</time>
      </trkpt>
      <trkpt lat="45.08146" lon="5.14589">
        <ele>201.29103088379</ele>
        <time>2011-05-11T16:09:36Z</time>
      </trkpt>
      <trkpt lat="45.0816" lon="5.14539">
        <ele>201.15106201172</ele>
        <time>2011-05-11T16:09:43Z</time>
      </trkpt>
      <trkpt lat="45.08168" lon="5.14504">
        <ele>201.09814453125</ele>
        <time>2011-05-11T16:09:48Z</time>
      </trkpt>
      <trkpt lat="45.08175" lon="5.14483">
        <ele>200.98822021484</ele>
        <time>2011-05-11T16:09:52Z</time>
      </trkpt>
      <trkpt lat="45.0819" lon="5.14429">
        <ele>201.21803283691</ele>
        <time>2011-05-11T16:10:00Z</time>
      </trkpt>
      <trkpt lat="45.08212" lon="5.14365">
        <ele>201.48902893066</ele>
        <time>2011-05-11T16:10:08Z</time>
      </trkpt>
      <trkpt lat="45.08232" lon="5.1431">
        <ele>200.84930419922</ele>
        <time>2011-05-11T16:10:15Z</time>
      </trkpt>
      <trkpt lat="45.08245" lon="5.14271">
        <ele>199.62898254394</ele>
        <time>2011-05-11T16:10:20Z</time>
      </trkpt>
      <trkpt lat="45.08266" lon="5.14203">
        <ele>199</ele>
        <time>2011-05-11T16:10:27Z</time>
      </trkpt>
      <trkpt lat="45.08294" lon="5.14107">
        <ele>198.59466552734</ele>
        <time>2011-05-11T16:10:36Z</time>
      </trkpt>
      <trkpt lat="45.08319" lon="5.1402">
        <ele>198</ele>
        <time>2011-05-11T16:10:44Z</time>
      </trkpt>
      <trkpt lat="45.08344" lon="5.1394">
        <ele>197.37994384766</ele>
        <time>2011-05-11T16:10:52Z</time>
      </trkpt>
      <trkpt lat="45.08371" lon="5.1387">
        <ele>198.10995483398</ele>
        <time>2011-05-11T16:11:00Z</time>
      </trkpt>
      <trkpt lat="45.08406" lon="5.13821">
        <ele>198</ele>
        <time>2011-05-11T16:11:07Z</time>
      </trkpt>
      <trkpt lat="45.08453" lon="5.1376">
        <ele>199</ele>
        <time>2011-05-11T16:11:16Z</time>
      </trkpt>
      <trkpt lat="45.08511" lon="5.13685">
        <ele>199</ele>
        <time>2011-05-11T16:11:27Z</time>
      </trkpt>
      <trkpt lat="45.08553" lon="5.13629">
        <ele>199</ele>
        <time>2011-05-11T16:11:35Z</time>
      </trkpt>
      <trkpt lat="45.0859" lon="5.13573">
        <ele>199</ele>
        <time>2011-05-11T16:11:43Z</time>
      </trkpt>
      <trkpt lat="45.08622" lon="5.13499">
        <ele>199</ele>
        <time>2011-05-11T16:11:52Z</time>
      </trkpt>
      <trkpt lat="45.08636" lon="5.13471">
        <ele>199</ele>
        <time>2011-05-11T16:11:56Z</time>
      </trkpt>
      <trkpt lat="45.08661" lon="5.13408">
        <ele>199</ele>
        <time>2011-05-11T16:12:04Z</time>
      </trkpt>
      <trkpt lat="45.08692" lon="5.13329">
        <ele>199</ele>
        <time>2011-05-11T16:12:14Z</time>
      </trkpt>
      <trkpt lat="45.08721" lon="5.13266">
        <ele>199</ele>
        <time>2011-05-11T16:12:22Z</time>
      </trkpt>
      <trkpt lat="45.08748" lon="5.13202">
        <ele>199.93682861328</ele>
        <time>2011-05-11T16:12:30Z</time>
      </trkpt>
      <trkpt lat="45.08769" lon="5.1316">
        <ele>202.03521728516</ele>
        <time>2011-05-11T16:12:36Z</time>
      </trkpt>
      <trkpt lat="45.08777" lon="5.1314">
        <ele>202.900390625</ele>
        <time>2011-05-11T16:12:40Z</time>
      </trkpt>
      <trkpt lat="45.08783" lon="5.13103">
        <ele>204.79634094238</ele>
        <time>2011-05-11T16:12:46Z</time>
      </trkpt>
      <trkpt lat="45.08793" lon="5.13051">
        <ele>206.08715820312</ele>
        <time>2011-05-11T16:12:53Z</time>
      </trkpt>
      <trkpt lat="45.08798" lon="5.13017">
        <ele>206.44421386719</ele>
        <time>2011-05-11T16:12:58Z</time>
      </trkpt>
      <trkpt lat="45.08796" lon="5.13002">
        <ele>206.33435058594</ele>
        <time>2011-05-11T16:13:00Z</time>
      </trkpt>
      <trkpt lat="45.08797" lon="5.12954">
        <ele>206.41674804688</ele>
        <time>2011-05-11T16:13:07Z</time>
      </trkpt>
      <trkpt lat="45.08799" lon="5.12936">
        <ele>206.49914550781</ele>
        <time>2011-05-11T16:13:10Z</time>
      </trkpt>
      <trkpt lat="45.08807" lon="5.1288">
        <ele>207.11389160156</ele>
        <time>2011-05-11T16:13:18Z</time>
      </trkpt>
      <trkpt lat="45.08815" lon="5.12836">
        <ele>208.02026367188</ele>
        <time>2011-05-11T16:13:24Z</time>
      </trkpt>
      <trkpt lat="45.08828" lon="5.12784">
        <ele>209.42102050781</ele>
        <time>2011-05-11T16:13:31Z</time>
      </trkpt>
      <trkpt lat="45.08844" lon="5.12726">
        <ele>209.87170410156</ele>
        <time>2011-05-11T16:13:39Z</time>
      </trkpt>
      <trkpt lat="45.08868" lon="5.12649">
        <ele>207.68536376953</ele>
        <time>2011-05-11T16:13:49Z</time>
      </trkpt>
      <trkpt lat="45.0889" lon="5.12588">
        <ele>204.40464782715</ele>
        <time>2011-05-11T16:13:57Z</time>
      </trkpt>
      <trkpt lat="45.0891" lon="5.12524">
        <ele>201.61959838867</ele>
        <time>2011-05-11T16:14:05Z</time>
      </trkpt>
      <trkpt lat="45.08918" lon="5.12467">
        <ele>200</ele>
        <time>2011-05-11T16:14:11Z</time>
      </trkpt>
      <trkpt lat="45.08916" lon="5.12387">
        <ele>199.99948120117</ele>
        <time>2011-05-11T16:14:18Z</time>
      </trkpt>
      <trkpt lat="45.08913" lon="5.12275">
        <ele>199</ele>
        <time>2011-05-11T16:14:27Z</time>
      </trkpt>
      <trkpt lat="45.0891" lon="5.12173">
        <ele>198.17929077148</ele>
        <time>2011-05-11T16:14:35Z</time>
      </trkpt>
      <trkpt lat="45.08901" lon="5.12085">
        <ele>198</ele>
        <time>2011-05-11T16:14:42Z</time>
      </trkpt>
      <trkpt lat="45.08892" lon="5.11969">
        <ele>197</ele>
        <time>2011-05-11T16:14:51Z</time>
      </trkpt>
      <trkpt lat="45.08881" lon="5.11818">
        <ele>196</ele>
        <time>2011-05-11T16:15:03Z</time>
      </trkpt>
      <trkpt lat="45.08871" lon="5.11675">
        <ele>195.28541564941</ele>
        <time>2011-05-11T16:15:15Z</time>
      </trkpt>
      <trkpt lat="45.08863" lon="5.11556">
        <ele>195</ele>
        <time>2011-05-11T16:15:26Z</time>
      </trkpt>
      <trkpt lat="45.08852" lon="5.11431">
        <ele>195</ele>
        <time>2011-05-11T16:15:37Z</time>
      </trkpt>
      <trkpt lat="45.0884" lon="5.11291">
        <ele>195</ele>
        <time>2011-05-11T16:15:49Z</time>
      </trkpt>
      <trkpt lat="45.08829" lon="5.11172">
        <ele>195.83447265625</ele>
        <time>2011-05-11T16:15:59Z</time>
      </trkpt>
      <trkpt lat="45.0881" lon="5.11064">
        <ele>196.14782714844</ele>
        <time>2011-05-11T16:16:08Z</time>
      </trkpt>
      <trkpt lat="45.08788" lon="5.10933">
        <ele>196.14640808106</ele>
        <time>2011-05-11T16:16:19Z</time>
      </trkpt>
      <trkpt lat="45.08784" lon="5.1084">
        <ele>196.21398925781</ele>
        <time>2011-05-11T16:16:27Z</time>
      </trkpt>
      <trkpt lat="45.0878" lon="5.10731">
        <ele>197.09039306641</ele>
        <time>2011-05-11T16:16:37Z</time>
      </trkpt>
      <trkpt lat="45.08767" lon="5.10646">
        <ele>196.62347412109</ele>
        <time>2011-05-11T16:16:45Z</time>
      </trkpt>
      <trkpt lat="45.08736" lon="5.10522">
        <ele>196.49737548828</ele>
        <time>2011-05-11T16:16:57Z</time>
      </trkpt>
      <trkpt lat="45.08707" lon="5.10412">
        <ele>194.90734863281</ele>
        <time>2011-05-11T16:17:08Z</time>
      </trkpt>
      <trkpt lat="45.08667" lon="5.10277">
        <ele>193.02545166016</ele>
        <time>2011-05-11T16:17:21Z</time>
      </trkpt>
      <trkpt lat="45.08644" lon="5.10175">
        <ele>193.0827331543</ele>
        <time>2011-05-11T16:17:31Z</time>
      </trkpt>
      <trkpt lat="45.0862" lon="5.10065">
        <ele>194.21530151367</ele>
        <time>2011-05-11T16:17:41Z</time>
      </trkpt>
      <trkpt lat="45.08589" lon="5.09949">
        <ele>196.07110595703</ele>
        <time>2011-05-11T16:17:51Z</time>
      </trkpt>
      <trkpt lat="45.08561" lon="5.09844">
        <ele>197.31500244141</ele>
        <time>2011-05-11T16:18:00Z</time>
      </trkpt>
      <trkpt lat="45.08532" lon="5.09747">
        <ele>198.35655212402</ele>
        <time>2011-05-11T16:18:09Z</time>
      </trkpt>
      <trkpt lat="45.08498" lon="5.09662">
        <ele>199.05123901367</ele>
        <time>2011-05-11T16:18:17Z</time>
      </trkpt>
      <trkpt lat="45.08463" lon="5.09566">
        <ele>196.32922363281</ele>
        <time>2011-05-11T16:18:26Z</time>
      </trkpt>
      <trkpt lat="45.08458" lon="5.09508">
        <ele>195.97216796875</ele>
        <time>2011-05-11T16:18:31Z</time>
      </trkpt>
      <trkpt lat="45.08465" lon="5.09432">
        <ele>194.61773681641</ele>
        <time>2011-05-11T16:18:38Z</time>
      </trkpt>
      <trkpt lat="45.08479" lon="5.09338">
        <ele>193.48278808594</ele>
        <time>2011-05-11T16:18:47Z</time>
      </trkpt>
      <trkpt lat="45.08485" lon="5.09319">
        <ele>193.39147949219</ele>
        <time>2011-05-11T16:18:49Z</time>
      </trkpt>
      <trkpt lat="45.08519" lon="5.09262">
        <ele>193.82579040527</ele>
        <time>2011-05-11T16:18:56Z</time>
      </trkpt>
      <trkpt lat="45.08556" lon="5.09204">
        <ele>193.35623168945</ele>
        <time>2011-05-11T16:19:03Z</time>
      </trkpt>
      <trkpt lat="45.08572" lon="5.09153">
        <ele>192.57849121094</ele>
        <time>2011-05-11T16:19:08Z</time>
      </trkpt>
      <trkpt lat="45.08594" lon="5.09058">
        <ele>190.84825134277</ele>
        <time>2011-05-11T16:19:17Z</time>
      </trkpt>
      <trkpt lat="45.08617" lon="5.08999">
        <ele>191.02520751953</ele>
        <time>2011-05-11T16:19:23Z</time>
      </trkpt>
      <trkpt lat="45.08662" lon="5.08912">
        <ele>193.83319091797</ele>
        <time>2011-05-11T16:19:33Z</time>
      </trkpt>
      <trkpt lat="45.08682" lon="5.08858">
        <ele>195.66226196289</ele>
        <time>2011-05-11T16:19:39Z</time>
      </trkpt>
      <trkpt lat="45.08703" lon="5.08778">
        <ele>199.00073242188</ele>
        <time>2011-05-11T16:19:48Z</time>
      </trkpt>
      <trkpt lat="45.08723" lon="5.08702">
        <ele>201.78233337402</ele>
        <time>2011-05-11T16:19:57Z</time>
      </trkpt>
      <trkpt lat="45.08738" lon="5.08632">
        <ele>206.5517578125</ele>
        <time>2011-05-11T16:20:06Z</time>
      </trkpt>
      <trkpt lat="45.08742" lon="5.08618">
        <ele>207.74479675293</ele>
        <time>2011-05-11T16:20:08Z</time>
      </trkpt>
      <trkpt lat="45.08757" lon="5.08588">
        <ele>210.06307983398</ele>
        <time>2011-05-11T16:20:13Z</time>
      </trkpt>
      <trkpt lat="45.08754" lon="5.08566">
        <ele>211.38409423828</ele>
        <time>2011-05-11T16:20:16Z</time>
      </trkpt>
      <trkpt lat="45.0875" lon="5.08521">
        <ele>213.23837280273</ele>
        <time>2011-05-11T16:20:22Z</time>
      </trkpt>
      <trkpt lat="45.0875" lon="5.08514">
        <ele>213.48727416992</ele>
        <time>2011-05-11T16:20:23Z</time>
      </trkpt>
      <trkpt lat="45.08755" lon="5.08466">
        <ele>216.39752197266</ele>
        <time>2011-05-11T16:20:30Z</time>
      </trkpt>
      <trkpt lat="45.0876" lon="5.08419">
        <ele>219.24339294434</ele>
        <time>2011-05-11T16:20:37Z</time>
      </trkpt>
      <trkpt lat="45.08763" lon="5.08405">
        <ele>219.86430358887</ele>
        <time>2011-05-11T16:20:39Z</time>
      </trkpt>
      <trkpt lat="45.08772" lon="5.08334">
        <ele>222.763671875</ele>
        <time>2011-05-11T16:20:50Z</time>
      </trkpt>
      <trkpt lat="45.0878" lon="5.08278">
        <ele>226.07250976562</ele>
        <time>2011-05-11T16:20:59Z</time>
      </trkpt>
      <trkpt lat="45.08788" lon="5.0822">
        <ele>228.78950500488</ele>
        <time>2011-05-11T16:21:08Z</time>
      </trkpt>
      <trkpt lat="45.08798" lon="5.08162">
        <ele>231.62516784668</ele>
        <time>2011-05-11T16:21:17Z</time>
      </trkpt>
      <trkpt lat="45.08808" lon="5.08111">
        <ele>234.4881439209</ele>
        <time>2011-05-11T16:21:25Z</time>
      </trkpt>
      <trkpt lat="45.08816" lon="5.08069">
        <ele>237.23439025879</ele>
        <time>2011-05-11T16:21:32Z</time>
      </trkpt>
      <trkpt lat="45.08825" lon="5.08025">
        <ele>239.86631774902</ele>
        <time>2011-05-11T16:21:39Z</time>
      </trkpt>
      <trkpt lat="45.08834" lon="5.07977">
        <ele>242.79092407227</ele>
        <time>2011-05-11T16:21:47Z</time>
      </trkpt>
      <trkpt lat="45.08845" lon="5.07923">
        <ele>242.17126464844</ele>
        <time>2011-05-11T16:21:56Z</time>
      </trkpt>
      <trkpt lat="45.08857" lon="5.07891">
        <ele>240.66941833496</ele>
        <time>2011-05-11T16:22:02Z</time>
      </trkpt>
      <trkpt lat="45.08875" lon="5.07865">
        <ele>240</ele>
        <time>2011-05-11T16:22:08Z</time>
      </trkpt>
      <trkpt lat="45.08883" lon="5.07857">
        <ele>240</ele>
        <time>2011-05-11T16:22:10Z</time>
      </trkpt>
      <trkpt lat="45.08903" lon="5.07843">
        <ele>238.97521972656</ele>
        <time>2011-05-11T16:22:14Z</time>
      </trkpt>
      <trkpt lat="45.08953" lon="5.07813">
        <ele>235.93859863281</ele>
        <time>2011-05-11T16:22:23Z</time>
      </trkpt>
      <trkpt lat="45.08987" lon="5.07791">
        <ele>233.94216918945</ele>
        <time>2011-05-11T16:22:29Z</time>
      </trkpt>
      <trkpt lat="45.08997" lon="5.07784">
        <ele>233.34136962891</ele>
        <time>2011-05-11T16:22:31Z</time>
      </trkpt>
      <trkpt lat="45.0901" lon="5.07775">
        <ele>232.5139465332</ele>
        <time>2011-05-11T16:22:34Z</time>
      </trkpt>
      <trkpt lat="45.09047" lon="5.07743">
        <ele>229.17332458496</ele>
        <time>2011-05-11T16:22:43Z</time>
      </trkpt>
      <trkpt lat="45.09079" lon="5.07711">
        <ele>225.76235961914</ele>
        <time>2011-05-11T16:22:51Z</time>
      </trkpt>
      <trkpt lat="45.09108" lon="5.07682">
        <ele>222.26753234863</ele>
        <time>2011-05-11T16:22:57Z</time>
      </trkpt>
      <trkpt lat="45.09127" lon="5.07658">
        <ele>220.11112976074</ele>
        <time>2011-05-11T16:23:01Z</time>
      </trkpt>
      <trkpt lat="45.09153" lon="5.07613">
        <ele>219</ele>
        <time>2011-05-11T16:23:07Z</time>
      </trkpt>
      <trkpt lat="45.09175" lon="5.07564">
        <ele>219</ele>
        <time>2011-05-11T16:23:13Z</time>
      </trkpt>
      <trkpt lat="45.09195" lon="5.07522">
        <ele>218.79925537109</ele>
        <time>2011-05-11T16:23:18Z</time>
      </trkpt>
      <trkpt lat="45.09224" lon="5.07459">
        <ele>218</ele>
        <time>2011-05-11T16:23:25Z</time>
      </trkpt>
      <trkpt lat="45.09269" lon="5.07365">
        <ele>218</ele>
        <time>2011-05-11T16:23:35Z</time>
      </trkpt>
      <trkpt lat="45.09307" lon="5.07284">
        <ele>218.04180908203</ele>
        <time>2011-05-11T16:23:44Z</time>
      </trkpt>
      <trkpt lat="45.09333" lon="5.07227">
        <ele>219.00311279297</ele>
        <time>2011-05-11T16:23:51Z</time>
      </trkpt>
      <trkpt lat="45.09358" lon="5.072">
        <ele>219.89575195312</ele>
        <time>2011-05-11T16:23:56Z</time>
      </trkpt>
      <trkpt lat="45.0937" lon="5.07193">
        <ele>220</ele>
        <time>2011-05-11T16:23:58Z</time>
      </trkpt>
      <trkpt lat="45.09386" lon="5.07167">
        <ele>220</ele>
        <time>2011-05-11T16:24:02Z</time>
      </trkpt>
      <trkpt lat="45.0939" lon="5.07128">
        <ele>220</ele>
        <time>2011-05-11T16:24:06Z</time>
      </trkpt>
      <trkpt lat="45.09385" lon="5.07035">
        <ele>219.85705566406</ele>
        <time>2011-05-11T16:24:14Z</time>
      </trkpt>
      <trkpt lat="45.09377" lon="5.06911">
        <ele>219.58239746094</ele>
        <time>2011-05-11T16:24:24Z</time>
      </trkpt>
      <trkpt lat="45.09374" lon="5.06863">
        <ele>219.47253417969</ele>
        <time>2011-05-11T16:24:28Z</time>
      </trkpt>
      <trkpt lat="45.09368" lon="5.0675">
        <ele>219.23907470703</ele>
        <time>2011-05-11T16:24:38Z</time>
      </trkpt>
      <trkpt lat="45.09372" lon="5.06685">
        <ele>219.37640380859</ele>
        <time>2011-05-11T16:24:44Z</time>
      </trkpt>
      <trkpt lat="45.09383" lon="5.06575">
        <ele>219.77465820312</ele>
        <time>2011-05-11T16:24:54Z</time>
      </trkpt>
      <trkpt lat="45.09381" lon="5.06508">
        <ele>219.70599365234</ele>
        <time>2011-05-11T16:25:00Z</time>
      </trkpt>
      <trkpt lat="45.09375" lon="5.06394">
        <ele>219.48626708984</ele>
        <time>2011-05-11T16:25:10Z</time>
      </trkpt>
      <trkpt lat="45.09373" lon="5.06293">
        <ele>219.41760253906</ele>
        <time>2011-05-11T16:25:19Z</time>
      </trkpt>
      <trkpt lat="45.09369" lon="5.06175">
        <ele>219.26654052734</ele>
        <time>2011-05-11T16:25:29Z</time>
      </trkpt>
      <trkpt lat="45.09368" lon="5.06095">
        <ele>219.23907470703</ele>
        <time>2011-05-11T16:25:36Z</time>
      </trkpt>
      <trkpt lat="45.09373" lon="5.06004">
        <ele>219.41760253906</ele>
        <time>2011-05-11T16:25:44Z</time>
      </trkpt>
      <trkpt lat="45.09384" lon="5.05897">
        <ele>218.82958984375</ele>
        <time>2011-05-11T16:25:54Z</time>
      </trkpt>
      <trkpt lat="45.09399" lon="5.05827">
        <ele>219</ele>
        <time>2011-05-11T16:26:01Z</time>
      </trkpt>
      <trkpt lat="45.09423" lon="5.0573">
        <ele>219.23034667969</ele>
        <time>2011-05-11T16:26:11Z</time>
      </trkpt>
      <trkpt lat="45.09433" lon="5.05654">
        <ele>219.60113525391</ele>
        <time>2011-05-11T16:26:19Z</time>
      </trkpt>
      <trkpt lat="45.09438" lon="5.05585">
        <ele>219.76593017578</ele>
        <time>2011-05-11T16:26:26Z</time>
      </trkpt>
      <trkpt lat="45.09432" lon="5.05511">
        <ele>219.55993652344</ele>
        <time>2011-05-11T16:26:33Z</time>
      </trkpt>
      <trkpt lat="45.0942" lon="5.05406">
        <ele>219.12048339844</ele>
        <time>2011-05-11T16:26:43Z</time>
      </trkpt>
      <trkpt lat="45.09401" lon="5.05348">
        <ele>220.1201171875</ele>
        <time>2011-05-11T16:26:49Z</time>
      </trkpt>
      <trkpt lat="45.09372" lon="5.05287">
        <ele>224.35014343262</ele>
        <time>2011-05-11T16:26:56Z</time>
      </trkpt>
      <trkpt lat="45.09341" lon="5.05239">
        <ele>225.97790527344</ele>
        <time>2011-05-11T16:27:02Z</time>
      </trkpt>
      <trkpt lat="45.09303" lon="5.05176">
        <ele>222.98416137695</ele>
        <time>2011-05-11T16:27:10Z</time>
      </trkpt>
      <trkpt lat="45.09277" lon="5.05133">
        <ele>214.49851989746</ele>
        <time>2011-05-11T16:27:16Z</time>
      </trkpt>
      <trkpt lat="45.09253" lon="5.05077">
        <ele>206.04248046875</ele>
        <time>2011-05-11T16:27:23Z</time>
      </trkpt>
      <trkpt lat="45.09238" lon="5.05029">
        <ele>201.20210266113</ele>
        <time>2011-05-11T16:27:28Z</time>
      </trkpt>
      <trkpt lat="45.09238" lon="5.04987">
        <ele>200</ele>
        <time>2011-05-11T16:27:32Z</time>
      </trkpt>
      <trkpt lat="45.09253" lon="5.04957">
        <ele>200.15621948242</ele>
        <time>2011-05-11T16:27:35Z</time>
      </trkpt>
      <trkpt lat="45.0926" lon="5.04947">
        <ele>200.11224365234</ele>
        <time>2011-05-11T16:27:36Z</time>
      </trkpt>
      <trkpt lat="45.09298" lon="5.04887">
        <ele>203.11805725098</ele>
        <time>2011-05-11T16:27:43Z</time>
      </trkpt>
      <trkpt lat="45.09306" lon="5.04845">
        <ele>207.58367919922</ele>
        <time>2011-05-11T16:27:47Z</time>
      </trkpt>
      <trkpt lat="45.09307" lon="5.04778">
        <ele>212.26139831543</ele>
        <time>2011-05-11T16:27:54Z</time>
      </trkpt>
      <trkpt lat="45.09307" lon="5.0477">
        <ele>212.83808898926</ele>
        <time>2011-05-11T16:27:55Z</time>
      </trkpt>
      <trkpt lat="45.09317" lon="5.04744">
        <ele>215.59127807617</ele>
        <time>2011-05-11T16:27:59Z</time>
      </trkpt>
      <trkpt lat="45.09326" lon="5.04734">
        <ele>216.93125915527</ele>
        <time>2011-05-11T16:28:01Z</time>
      </trkpt>
      <trkpt lat="45.09355" lon="5.04709">
        <ele>219.67439270019</ele>
        <time>2011-05-11T16:28:07Z</time>
      </trkpt>
      <trkpt lat="45.0937" lon="5.04699">
        <ele>220</ele>
        <time>2011-05-11T16:28:10Z</time>
      </trkpt>
      <trkpt lat="45.0938" lon="5.04693">
        <ele>220.08801269531</ele>
        <time>2011-05-11T16:28:12Z</time>
      </trkpt>
      <trkpt lat="45.09402" lon="5.04681">
        <ele>220.99781799316</ele>
        <time>2011-05-11T16:28:16Z</time>
      </trkpt>
      <trkpt lat="45.09436" lon="5.04666">
        <ele>220.65327453613</ele>
        <time>2011-05-11T16:28:22Z</time>
      </trkpt>
      <trkpt lat="45.09471" lon="5.04651">
        <ele>220.05902099609</ele>
        <time>2011-05-11T16:28:28Z</time>
      </trkpt>
      <trkpt lat="45.09518" lon="5.04631">
        <ele>220.09675598144</ele>
        <time>2011-05-11T16:28:36Z</time>
      </trkpt>
      <trkpt lat="45.09553" lon="5.04608">
        <ele>220</ele>
        <time>2011-05-11T16:28:42Z</time>
      </trkpt>
      <trkpt lat="45.09565" lon="5.046">
        <ele>220</ele>
        <time>2011-05-11T16:28:44Z</time>
      </trkpt>
      <trkpt lat="45.09587" lon="5.0457">
        <ele>220</ele>
        <time>2011-05-11T16:28:49Z</time>
      </trkpt>
      <trkpt lat="45.096" lon="5.04545">
        <ele>220</ele>
        <time>2011-05-11T16:28:53Z</time>
      </trkpt>
      <trkpt lat="45.09611" lon="5.04529">
        <ele>220</ele>
        <time>2011-05-11T16:28:56Z</time>
      </trkpt>
      <trkpt lat="45.0962" lon="5.04522">
        <ele>220</ele>
        <time>2011-05-11T16:28:58Z</time>
      </trkpt>
      <trkpt lat="45.09625" lon="5.04498">
        <ele>220</ele>
        <time>2011-05-11T16:29:02Z</time>
      </trkpt>
      <trkpt lat="45.09621" lon="5.04472">
        <ele>220</ele>
        <time>2011-05-11T16:29:06Z</time>
      </trkpt>
      <trkpt lat="45.09623" lon="5.04465">
        <ele>220</ele>
        <time>2011-05-11T16:29:07Z</time>
      </trkpt>
      <trkpt lat="45.09632" lon="5.04433">
        <ele>220</ele>
        <time>2011-05-11T16:29:12Z</time>
      </trkpt>
      <trkpt lat="45.09645" lon="5.04395">
        <ele>220</ele>
        <time>2011-05-11T16:29:18Z</time>
      </trkpt>
      <trkpt lat="45.09666" lon="5.04348">
        <ele>220</ele>
        <time>2011-05-11T16:29:25Z</time>
      </trkpt>
      <trkpt lat="45.09693" lon="5.04312">
        <ele>220</ele>
        <time>2011-05-11T16:29:31Z</time>
      </trkpt>
      <trkpt lat="45.09745" lon="5.04261">
        <ele>219.89256286621</ele>
        <time>2011-05-11T16:29:40Z</time>
      </trkpt>
      <trkpt lat="45.09795" lon="5.04212">
        <ele>219.50134277344</ele>
        <time>2011-05-11T16:29:48Z</time>
      </trkpt>
      <trkpt lat="45.09849" lon="5.04156">
        <ele>218.34683227539</ele>
        <time>2011-05-11T16:29:57Z</time>
      </trkpt>
      <trkpt lat="45.09867" lon="5.04122">
        <ele>217.49397277832</ele>
        <time>2011-05-11T16:30:01Z</time>
      </trkpt>
      <trkpt lat="45.09887" lon="5.0404">
        <ele>214.43322753906</ele>
        <time>2011-05-11T16:30:09Z</time>
      </trkpt>
      <trkpt lat="45.09888" lon="5.03987">
        <ele>214.44641113281</ele>
        <time>2011-05-11T16:30:14Z</time>
      </trkpt>
      <trkpt lat="45.09882" lon="5.03967">
        <ele>214.95280456543</ele>
        <time>2011-05-11T16:30:16Z</time>
      </trkpt>
      <trkpt lat="45.09847" lon="5.03875">
        <ele>216.46087646484</ele>
        <time>2011-05-11T16:30:26Z</time>
      </trkpt>
      <trkpt lat="45.09816" lon="5.03791">
        <ele>217.27798461914</ele>
        <time>2011-05-11T16:30:35Z</time>
      </trkpt>
      <trkpt lat="45.09802" lon="5.03723">
        <ele>218.82876586914</ele>
        <time>2011-05-11T16:30:42Z</time>
      </trkpt>
      <trkpt lat="45.09789" lon="5.03643">
        <ele>215.96343994141</ele>
        <time>2011-05-11T16:30:51Z</time>
      </trkpt>
      <trkpt lat="45.09788" lon="5.03626">
        <ele>215.27850341797</ele>
        <time>2011-05-11T16:30:53Z</time>
      </trkpt>
      <trkpt lat="45.09797" lon="5.0358">
        <ele>214.2399597168</ele>
        <time>2011-05-11T16:30:58Z</time>
      </trkpt>
      <trkpt lat="45.09805" lon="5.03563">
        <ele>214.18673706055</ele>
        <time>2011-05-11T16:31:00Z</time>
      </trkpt>
      <trkpt lat="45.09847" lon="5.03498">
        <ele>216.48760986328</ele>
        <time>2011-05-11T16:31:08Z</time>
      </trkpt>
      <trkpt lat="45.09893" lon="5.03424">
        <ele>219.16302490234</ele>
        <time>2011-05-11T16:31:17Z</time>
      </trkpt>
      <trkpt lat="45.09909" lon="5.03376">
        <ele>219.71234130859</ele>
        <time>2011-05-11T16:31:22Z</time>
      </trkpt>
      <trkpt lat="45.09925" lon="5.0332">
        <ele>220</ele>
        <time>2011-05-11T16:31:29Z</time>
      </trkpt>
      <trkpt lat="45.09938" lon="5.03272">
        <ele>220.314453125</ele>
        <time>2011-05-11T16:31:36Z</time>
      </trkpt>
      <trkpt lat="45.09953" lon="5.03221">
        <ele>223.99125671387</ele>
        <time>2011-05-11T16:31:44Z</time>
      </trkpt>
      <trkpt lat="45.09971" lon="5.03155">
        <ele>225.49166870117</ele>
        <time>2011-05-11T16:31:54Z</time>
      </trkpt>
      <trkpt lat="45.09991" lon="5.03086">
        <ele>222.83015441894</ele>
        <time>2011-05-11T16:32:04Z</time>
      </trkpt>
      <trkpt lat="45.1001" lon="5.03019">
        <ele>222.2578125</ele>
        <time>2011-05-11T16:32:14Z</time>
      </trkpt>
      <trkpt lat="45.10022" lon="5.02977">
        <ele>227.23876953125</ele>
        <time>2011-05-11T16:32:21Z</time>
      </trkpt>
      <trkpt lat="45.10028" lon="5.02954">
        <ele>229.34048461914</ele>
        <time>2011-05-11T16:32:26Z</time>
      </trkpt>
      <trkpt lat="45.10038" lon="5.02917">
        <ele>231.63481140137</ele>
        <time>2011-05-11T16:32:34Z</time>
      </trkpt>
      <trkpt lat="45.10046" lon="5.0289">
        <ele>232.62854003906</ele>
        <time>2011-05-11T16:32:40Z</time>
      </trkpt>
      <trkpt lat="45.10056" lon="5.02856">
        <ele>233.2459564209</ele>
        <time>2011-05-11T16:32:48Z</time>
      </trkpt>
      <trkpt lat="45.10059" lon="5.02832">
        <ele>234.35781860352</ele>
        <time>2011-05-11T16:32:54Z</time>
      </trkpt>
      <trkpt lat="45.10064" lon="5.02815">
        <ele>235.71704101562</ele>
        <time>2011-05-11T16:32:59Z</time>
      </trkpt>
      <trkpt lat="45.1007" lon="5.02792">
        <ele>236.99816894531</ele>
        <time>2011-05-11T16:33:05Z</time>
      </trkpt>
      <trkpt lat="45.10068" lon="5.02761">
        <ele>238.32604980469</ele>
        <time>2011-05-11T16:33:12Z</time>
      </trkpt>
      <trkpt lat="45.10057" lon="5.02737">
        <ele>238.53373718262</ele>
        <time>2011-05-11T16:33:18Z</time>
      </trkpt>
      <trkpt lat="45.10043" lon="5.02716">
        <ele>239.83850097656</ele>
        <time>2011-05-11T16:33:24Z</time>
      </trkpt>
      <trkpt lat="45.10027" lon="5.02695">
        <ele>243.93550109863</ele>
        <time>2011-05-11T16:33:30Z</time>
      </trkpt>
      <trkpt lat="45.10014" lon="5.02677">
        <ele>247.64222717285</ele>
        <time>2011-05-11T16:33:35Z</time>
      </trkpt>
      <trkpt lat="45.09992" lon="5.02649">
        <ele>252.28569030762</ele>
        <time>2011-05-11T16:33:43Z</time>
      </trkpt>
      <trkpt lat="45.09978" lon="5.02616">
        <ele>256.20770263672</ele>
        <time>2011-05-11T16:33:50Z</time>
      </trkpt>
      <trkpt lat="45.09969" lon="5.02587">
        <ele>258.13861083984</ele>
        <time>2011-05-11T16:33:56Z</time>
      </trkpt>
      <trkpt lat="45.09958" lon="5.02562">
        <ele>260.19232177734</ele>
        <time>2011-05-11T16:34:02Z</time>
      </trkpt>
      <trkpt lat="45.09938" lon="5.02536">
        <ele>261</ele>
        <time>2011-05-11T16:34:09Z</time>
      </trkpt>
      <trkpt lat="45.09916" lon="5.02506">
        <ele>261.77993774414</ele>
        <time>2011-05-11T16:34:17Z</time>
      </trkpt>
      <trkpt lat="45.09908" lon="5.02482">
        <ele>262</ele>
        <time>2011-05-11T16:34:22Z</time>
      </trkpt>
      <trkpt lat="45.09898" lon="5.02458">
        <ele>262</ele>
        <time>2011-05-11T16:34:27Z</time>
      </trkpt>
      <trkpt lat="45.09895" lon="5.02452">
        <ele>262</ele>
        <time>2011-05-11T16:34:28Z</time>
      </trkpt>
      <trkpt lat="45.09887" lon="5.02431">
        <ele>262</ele>
        <time>2011-05-11T16:34:32Z</time>
      </trkpt>
      <trkpt lat="45.09883" lon="5.02419">
        <ele>262</ele>
        <time>2011-05-11T16:34:34Z</time>
      </trkpt>
      <trkpt lat="45.09874" lon="5.02387">
        <ele>260.24139404297</ele>
        <time>2011-05-11T16:34:39Z</time>
      </trkpt>
      <trkpt lat="45.09863" lon="5.02347">
        <ele>256.5715637207</ele>
        <time>2011-05-11T16:34:46Z</time>
      </trkpt>
      <trkpt lat="45.09853" lon="5.02316">
        <ele>254.55348205566</ele>
        <time>2011-05-11T16:34:53Z</time>
      </trkpt>
      <trkpt lat="45.09847" lon="5.02291">
        <ele>252.69085693359</ele>
        <time>2011-05-11T16:34:58Z</time>
      </trkpt>
      <trkpt lat="45.09843" lon="5.02268">
        <ele>251.29460144043</ele>
        <time>2011-05-11T16:35:01Z</time>
      </trkpt>
      <trkpt lat="45.09845" lon="5.02229">
        <ele>248.52398681641</ele>
        <time>2011-05-11T16:35:05Z</time>
      </trkpt>
      <trkpt lat="45.09848" lon="5.02219">
        <ele>247.77554321289</ele>
        <time>2011-05-11T16:35:06Z</time>
      </trkpt>
      <trkpt lat="45.09866" lon="5.02164">
        <ele>244.72694396973</ele>
        <time>2011-05-11T16:35:11Z</time>
      </trkpt>
      <trkpt lat="45.09884" lon="5.02116">
        <ele>241.17947387695</ele>
        <time>2011-05-11T16:35:15Z</time>
      </trkpt>
      <trkpt lat="45.09903" lon="5.02063">
        <ele>239.27444458008</ele>
        <time>2011-05-11T16:35:19Z</time>
      </trkpt>
      <trkpt lat="45.09924" lon="5.02008">
        <ele>238.2951965332</ele>
        <time>2011-05-11T16:35:23Z</time>
      </trkpt>
      <trkpt lat="45.0993" lon="5.01994">
        <ele>238</ele>
        <time>2011-05-11T16:35:24Z</time>
      </trkpt>
      <trkpt lat="45.0997" lon="5.01884">
        <ele>236.98341369629</ele>
        <time>2011-05-11T16:35:32Z</time>
      </trkpt>
      <trkpt lat="45.09997" lon="5.01803">
        <ele>236.87489318848</ele>
        <time>2011-05-11T16:35:38Z</time>
      </trkpt>
      <trkpt lat="45.10036" lon="5.01687">
        <ele>236.23333740234</ele>
        <time>2011-05-11T16:35:47Z</time>
      </trkpt>
      <trkpt lat="45.10051" lon="5.01624">
        <ele>235.40199279785</ele>
        <time>2011-05-11T16:35:52Z</time>
      </trkpt>
      <trkpt lat="45.10061" lon="5.01528">
        <ele>234.20727539062</ele>
        <time>2011-05-11T16:36:00Z</time>
      </trkpt>
      <trkpt lat="45.1007" lon="5.01419">
        <ele>232.54933166504</ele>
        <time>2011-05-11T16:36:10Z</time>
      </trkpt>
      <trkpt lat="45.10077" lon="5.01326">
        <ele>230.94020080566</ele>
        <time>2011-05-11T16:36:19Z</time>
      </trkpt>
      <trkpt lat="45.10081" lon="5.01265">
        <ele>230.513671875</ele>
        <time>2011-05-11T16:36:25Z</time>
      </trkpt>
      <trkpt lat="45.10091" lon="5.01197">
        <ele>229.09902954102</ele>
        <time>2011-05-11T16:36:32Z</time>
      </trkpt>
      <trkpt lat="45.10106" lon="5.01139">
        <ele>228.00476074219</ele>
        <time>2011-05-11T16:36:38Z</time>
      </trkpt>
      <trkpt lat="45.10128" lon="5.01096">
        <ele>230.8397064209</ele>
        <time>2011-05-11T16:36:43Z</time>
      </trkpt>
      <trkpt lat="45.10162" lon="5.01041">
        <ele>234.0852355957</ele>
        <time>2011-05-11T16:36:50Z</time>
      </trkpt>
      <trkpt lat="45.10193" lon="5.00995">
        <ele>234.47473144531</ele>
        <time>2011-05-11T16:36:56Z</time>
      </trkpt>
      <trkpt lat="45.10233" lon="5.00945">
        <ele>233.81932067871</ele>
        <time>2011-05-11T16:37:03Z</time>
      </trkpt>
      <trkpt lat="45.10258" lon="5.00923">
        <ele>233.68789672852</ele>
        <time>2011-05-11T16:37:07Z</time>
      </trkpt>
      <trkpt lat="45.10315" lon="5.00878">
        <ele>231.45718383789</ele>
        <time>2011-05-11T16:37:16Z</time>
      </trkpt>
      <trkpt lat="45.10365" lon="5.00841">
        <ele>229.27590942383</ele>
        <time>2011-05-11T16:37:23Z</time>
      </trkpt>
      <trkpt lat="45.10424" lon="5.00796">
        <ele>226.14260864258</ele>
        <time>2011-05-11T16:37:31Z</time>
      </trkpt>
      <trkpt lat="45.10472" lon="5.00759">
        <ele>224.00958251953</ele>
        <time>2011-05-11T16:37:38Z</time>
      </trkpt>
      <trkpt lat="45.10529" lon="5.00712">
        <ele>230.2147064209</ele>
        <time>2011-05-11T16:37:47Z</time>
      </trkpt>
      <trkpt lat="45.10567" lon="5.00682">
        <ele>236.67716979981</ele>
        <time>2011-05-11T16:37:53Z</time>
      </trkpt>
      <trkpt lat="45.10604" lon="5.00653">
        <ele>240.49867248535</ele>
        <time>2011-05-11T16:37:59Z</time>
      </trkpt>
      <trkpt lat="45.1064" lon="5.00627">
        <ele>248.56329345703</ele>
        <time>2011-05-11T16:38:05Z</time>
      </trkpt>
      <trkpt lat="45.10684" lon="5.00605">
        <ele>254.61009216309</ele>
        <time>2011-05-11T16:38:12Z</time>
      </trkpt>
      <trkpt lat="45.10737" lon="5.00591">
        <ele>260.15490722656</ele>
        <time>2011-05-11T16:38:21Z</time>
      </trkpt>
      <trkpt lat="45.10779" lon="5.00586">
        <ele>263.71319580078</ele>
        <time>2011-05-11T16:38:29Z</time>
      </trkpt>
      <trkpt lat="45.10822" lon="5.00582">
        <ele>266.39639282227</ele>
        <time>2011-05-11T16:38:37Z</time>
      </trkpt>
      <trkpt lat="45.10858" lon="5.00576">
        <ele>269.38116455078</ele>
        <time>2011-05-11T16:38:44Z</time>
      </trkpt>
      <trkpt lat="45.10873" lon="5.00573">
        <ele>269.86776733398</ele>
        <time>2011-05-11T16:38:47Z</time>
      </trkpt>
      <trkpt lat="45.10891" lon="5.00568">
        <ele>269.90493774414</ele>
        <time>2011-05-11T16:38:51Z</time>
      </trkpt>
      <trkpt lat="45.10921" lon="5.00554">
        <ele>267.70028686523</ele>
        <time>2011-05-11T16:38:59Z</time>
      </trkpt>
      <trkpt lat="45.10942" lon="5.0054">
        <ele>265.62677001953</ele>
        <time>2011-05-11T16:39:06Z</time>
      </trkpt>
      <trkpt lat="45.10957" lon="5.0053">
        <ele>264.61605834961</ele>
        <time>2011-05-11T16:39:12Z</time>
      </trkpt>
      <trkpt lat="45.10973" lon="5.00517">
        <ele>263.10723876953</ele>
        <time>2011-05-11T16:39:20Z</time>
      </trkpt>
      <trkpt lat="45.10987" lon="5.00506">
        <ele>260.8447265625</ele>
        <time>2011-05-11T16:39:26Z</time>
      </trkpt>
      <trkpt lat="45.10998" lon="5.00497">
        <ele>259.03198242188</ele>
        <time>2011-05-11T16:39:30Z</time>
      </trkpt>
      <trkpt lat="45.11013" lon="5.00487">
        <ele>256.44995117188</ele>
        <time>2011-05-11T16:39:36Z</time>
      </trkpt>
      <trkpt lat="45.11023" lon="5.0048">
        <ele>254.91287231445</ele>
        <time>2011-05-11T16:39:40Z</time>
      </trkpt>
      <trkpt lat="45.11039" lon="5.0047">
        <ele>253.03884887695</ele>
        <time>2011-05-11T16:39:44Z</time>
      </trkpt>
      <trkpt lat="45.11065" lon="5.00452">
        <ele>249.90087890625</ele>
        <time>2011-05-11T16:39:48Z</time>
      </trkpt>
      <trkpt lat="45.11109" lon="5.00425">
        <ele>244.77507019043</ele>
        <time>2011-05-11T16:39:53Z</time>
      </trkpt>
      <trkpt lat="45.1114" lon="5.00408">
        <ele>242.03996276856</ele>
        <time>2011-05-11T16:39:56Z</time>
      </trkpt>
      <trkpt lat="45.11217" lon="5.00368">
        <ele>238</ele>
        <time>2011-05-11T16:40:03Z</time>
      </trkpt>
      <trkpt lat="45.1124" lon="5.00355">
        <ele>238</ele>
        <time>2011-05-11T16:40:05Z</time>
      </trkpt>
      <trkpt lat="45.11299" lon="5.00318">
        <ele>237.44808959961</ele>
        <time>2011-05-11T16:40:10Z</time>
      </trkpt>
      <trkpt lat="45.11354" lon="5.00275">
        <ele>237</ele>
        <time>2011-05-11T16:40:15Z</time>
      </trkpt>
      <trkpt lat="45.11409" lon="5.00225">
        <ele>237</ele>
        <time>2011-05-11T16:40:21Z</time>
      </trkpt>
      <trkpt lat="45.11457" lon="5.00181">
        <ele>237</ele>
        <time>2011-05-11T16:40:27Z</time>
      </trkpt>
      <trkpt lat="45.11517" lon="5.00125">
        <ele>238.83963012695</ele>
        <time>2011-05-11T16:40:35Z</time>
      </trkpt>
      <trkpt lat="45.1158" lon="5.0006">
        <ele>241.8825378418</ele>
        <time>2011-05-11T16:40:44Z</time>
      </trkpt>
      <trkpt lat="45.11613" lon="5.00014">
        <ele>243.33451843262</ele>
        <time>2011-05-11T16:40:49Z</time>
      </trkpt>
      <trkpt lat="45.11656" lon="4.99957">
        <ele>235.41609191894</ele>
        <time>2011-05-11T16:40:55Z</time>
      </trkpt>
      <trkpt lat="45.11703" lon="4.9992">
        <ele>235.10575866699</ele>
        <time>2011-05-11T16:41:00Z</time>
      </trkpt>
      <trkpt lat="45.11714" lon="4.99915">
        <ele>235.02516174316</ele>
        <time>2011-05-11T16:41:01Z</time>
      </trkpt>
      <trkpt lat="45.1176" lon="4.99895">
        <ele>233.94187927246</ele>
        <time>2011-05-11T16:41:05Z</time>
      </trkpt>
      <trkpt lat="45.11848" lon="4.99858">
        <ele>224.15843200684</ele>
        <time>2011-05-11T16:41:12Z</time>
      </trkpt>
      <trkpt lat="45.11896" lon="4.99826">
        <ele>215.68797302246</ele>
        <time>2011-05-11T16:41:16Z</time>
      </trkpt>
      <trkpt lat="45.11938" lon="4.99779">
        <ele>209.85282897949</ele>
        <time>2011-05-11T16:41:20Z</time>
      </trkpt>
      <trkpt lat="45.11972" lon="4.99726">
        <ele>207.94691467285</ele>
        <time>2011-05-11T16:41:24Z</time>
      </trkpt>
      <trkpt lat="45.12013" lon="4.9965">
        <ele>208.09367370606</ele>
        <time>2011-05-11T16:41:30Z</time>
      </trkpt>
      <trkpt lat="45.12045" lon="4.99593">
        <ele>207.58084106445</ele>
        <time>2011-05-11T16:41:35Z</time>
      </trkpt>
      <trkpt lat="45.12051" lon="4.99581">
        <ele>207.36885070801</ele>
        <time>2011-05-11T16:41:36Z</time>
      </trkpt>
      <trkpt lat="45.12057" lon="4.9957">
        <ele>207.2138671875</ele>
        <time>2011-05-11T16:41:37Z</time>
      </trkpt>
      <trkpt lat="45.12064" lon="4.99559">
        <ele>207.09727478027</ele>
        <time>2011-05-11T16:41:38Z</time>
      </trkpt>
      <trkpt lat="45.12119" lon="4.99455">
        <ele>207.89533996582</ele>
        <time>2011-05-11T16:41:47Z</time>
      </trkpt>
      <trkpt lat="45.12137" lon="4.99404">
        <ele>208.77200317383</ele>
        <time>2011-05-11T16:41:51Z</time>
      </trkpt>
      <trkpt lat="45.12158" lon="4.99319">
        <ele>208.52763366699</ele>
        <time>2011-05-11T16:41:58Z</time>
      </trkpt>
      <trkpt lat="45.12186" lon="4.99216">
        <ele>209.09591674805</ele>
        <time>2011-05-11T16:42:07Z</time>
      </trkpt>
      <trkpt lat="45.12198" lon="4.99168">
        <ele>210.23239135742</ele>
        <time>2011-05-11T16:42:12Z</time>
      </trkpt>
      <trkpt lat="45.12207" lon="4.99136">
        <ele>210.88340759277</ele>
        <time>2011-05-11T16:42:17Z</time>
      </trkpt>
      <trkpt lat="45.12214" lon="4.99112">
        <ele>211.57527160644</ele>
        <time>2011-05-11T16:42:22Z</time>
      </trkpt>
      <trkpt lat="45.12222" lon="4.99088">
        <ele>212.63650512695</ele>
        <time>2011-05-11T16:42:26Z</time>
      </trkpt>
      <trkpt lat="45.12235" lon="4.99068">
        <ele>214.87461853027</ele>
        <time>2011-05-11T16:42:30Z</time>
      </trkpt>
      <trkpt lat="45.12233" lon="4.99042">
        <ele>215.68572998047</ele>
        <time>2011-05-11T16:42:34Z</time>
      </trkpt>
      <trkpt lat="45.12211" lon="4.99034">
        <ele>212.89866638184</ele>
        <time>2011-05-11T16:42:37Z</time>
      </trkpt>
      <trkpt lat="45.12188" lon="4.99017">
        <ele>209.96508789062</ele>
        <time>2011-05-11T16:42:40Z</time>
      </trkpt>
      <trkpt lat="45.12172" lon="4.99001">
        <ele>207.80328369141</ele>
        <time>2011-05-11T16:42:42Z</time>
      </trkpt>
      <trkpt lat="45.12137" lon="4.9896">
        <ele>205.75537109375</ele>
        <time>2011-05-11T16:42:46Z</time>
      </trkpt>
      <trkpt lat="45.12128" lon="4.98948">
        <ele>205.34060668945</ele>
        <time>2011-05-11T16:42:47Z</time>
      </trkpt>
      <trkpt lat="45.1209" lon="4.98881">
        <ele>203.66107177734</ele>
        <time>2011-05-11T16:42:52Z</time>
      </trkpt>
      <trkpt lat="45.12057" lon="4.98805">
        <ele>203.82084655762</ele>
        <time>2011-05-11T16:42:57Z</time>
      </trkpt>
      <trkpt lat="45.12039" lon="4.9874">
        <ele>203.46282958984</ele>
        <time>2011-05-11T16:43:01Z</time>
      </trkpt>
      <trkpt lat="45.12024" lon="4.98661">
        <ele>203.60174560547</ele>
        <time>2011-05-11T16:43:06Z</time>
      </trkpt>
      <trkpt lat="45.12017" lon="4.98574">
        <ele>204.13655090332</ele>
        <time>2011-05-11T16:43:12Z</time>
      </trkpt>
      <trkpt lat="45.1202" lon="4.98496">
        <ele>205.24591064453</ele>
        <time>2011-05-11T16:43:18Z</time>
      </trkpt>
      <trkpt lat="45.12028" lon="4.98462">
        <ele>205.33288574219</ele>
        <time>2011-05-11T16:43:21Z</time>
      </trkpt>
      <trkpt lat="45.12046" lon="4.98425">
        <ele>205.55261230469</ele>
        <time>2011-05-11T16:43:25Z</time>
      </trkpt>
      <trkpt lat="45.12053" lon="4.98404">
        <ele>205.33277893066</ele>
        <time>2011-05-11T16:43:28Z</time>
      </trkpt>
      <trkpt lat="45.12051" lon="4.98383">
        <ele>204.81092834473</ele>
        <time>2011-05-11T16:43:31Z</time>
      </trkpt>
      <trkpt lat="45.12052" lon="4.98365">
        <ele>204.39321899414</ele>
        <time>2011-05-11T16:43:33Z</time>
      </trkpt>
      <trkpt lat="45.12062" lon="4.98307">
        <ele>204.15049743652</ele>
        <time>2011-05-11T16:43:38Z</time>
      </trkpt>
      <trkpt lat="45.12071" lon="4.98231">
        <ele>205.25650024414</ele>
        <time>2011-05-11T16:43:43Z</time>
      </trkpt>
      <trkpt lat="45.12067" lon="4.98146">
        <ele>205.58828735352</ele>
        <time>2011-05-11T16:43:48Z</time>
      </trkpt>
      <trkpt lat="45.12054" lon="4.98075">
        <ele>203.52340698242</ele>
        <time>2011-05-11T16:43:52Z</time>
      </trkpt>
      <trkpt lat="45.12022" lon="4.97955">
        <ele>200.60052490234</ele>
        <time>2011-05-11T16:43:59Z</time>
      </trkpt>
      <trkpt lat="45.12002" lon="4.97854">
        <ele>198.34617614746</ele>
        <time>2011-05-11T16:44:05Z</time>
      </trkpt>
      <trkpt lat="45.11976" lon="4.97706">
        <ele>197.26756286621</ele>
        <time>2011-05-11T16:44:14Z</time>
      </trkpt>
      <trkpt lat="45.11961" lon="4.97622">
        <ele>196.96524047852</ele>
        <time>2011-05-11T16:44:20Z</time>
      </trkpt>
      <trkpt lat="45.11958" lon="4.97599">
        <ele>197.22401428223</ele>
        <time>2011-05-11T16:44:22Z</time>
      </trkpt>
      <trkpt lat="45.11946" lon="4.97537">
        <ele>196.94799804688</ele>
        <time>2011-05-11T16:44:27Z</time>
      </trkpt>
      <trkpt lat="45.11927" lon="4.97422">
        <ele>196.24685668945</ele>
        <time>2011-05-11T16:44:35Z</time>
      </trkpt>
      <trkpt lat="45.11902" lon="4.97278">
        <ele>196.3642578125</ele>
        <time>2011-05-11T16:44:45Z</time>
      </trkpt>
      <trkpt lat="45.11882" lon="4.97164">
        <ele>196.76593017578</ele>
        <time>2011-05-11T16:44:53Z</time>
      </trkpt>
      <trkpt lat="45.11882" lon="4.97119">
        <ele>197.00257873535</ele>
        <time>2011-05-11T16:44:57Z</time>
      </trkpt>
      <trkpt lat="45.11892" lon="4.97099">
        <ele>197.34062194824</ele>
        <time>2011-05-11T16:45:00Z</time>
      </trkpt>
      <trkpt lat="45.11905" lon="4.97079">
        <ele>197.77294921875</ele>
        <time>2011-05-11T16:45:04Z</time>
      </trkpt>
      <trkpt lat="45.119" lon="4.97059">
        <ele>197.99639892578</ele>
        <time>2011-05-11T16:45:07Z</time>
      </trkpt>
      <trkpt lat="45.11894" lon="4.97055">
        <ele>197.98193359375</ele>
        <time>2011-05-11T16:45:08Z</time>
      </trkpt>
      <trkpt lat="45.11857" lon="4.97018">
        <ele>198.4626159668</ele>
        <time>2011-05-11T16:45:14Z</time>
      </trkpt>
      <trkpt lat="45.11817" lon="4.96964">
        <ele>197.90783691406</ele>
        <time>2011-05-11T16:45:20Z</time>
      </trkpt>
      <trkpt lat="45.11775" lon="4.969">
        <ele>196.77983093262</ele>
        <time>2011-05-11T16:45:27Z</time>
      </trkpt>
      <trkpt lat="45.1177" lon="4.96893">
        <ele>196.64375305176</ele>
        <time>2011-05-11T16:45:28Z</time>
      </trkpt>
      <trkpt lat="45.11762" lon="4.96863">
        <ele>195.99719238281</ele>
        <time>2011-05-11T16:45:32Z</time>
      </trkpt>
      <trkpt lat="45.11763" lon="4.96835">
        <ele>195.49151611328</ele>
        <time>2011-05-11T16:45:36Z</time>
      </trkpt>
      <trkpt lat="45.11749" lon="4.96822">
        <ele>195.14842224121</ele>
        <time>2011-05-11T16:45:39Z</time>
      </trkpt>
      <trkpt lat="45.11729" lon="4.96814">
        <ele>195.42848205566</ele>
        <time>2011-05-11T16:45:42Z</time>
      </trkpt>
      <trkpt lat="45.11708" lon="4.96791">
        <ele>195.7579498291</ele>
        <time>2011-05-11T16:45:45Z</time>
      </trkpt>
      <trkpt lat="45.11673" lon="4.96732">
        <ele>195.61102294922</ele>
        <time>2011-05-11T16:45:50Z</time>
      </trkpt>
      <trkpt lat="45.11647" lon="4.96673">
        <ele>194.12165832519</ele>
        <time>2011-05-11T16:45:54Z</time>
      </trkpt>
      <trkpt lat="45.11602" lon="4.96556">
        <ele>195.44416809082</ele>
        <time>2011-05-11T16:46:01Z</time>
      </trkpt>
      <trkpt lat="45.11584" lon="4.9651">
        <ele>195.01637268066</ele>
        <time>2011-05-11T16:46:04Z</time>
      </trkpt>
      <trkpt lat="45.11578" lon="4.96475">
        <ele>195.69778442383</ele>
        <time>2011-05-11T16:46:07Z</time>
      </trkpt>
      <trkpt lat="45.1158" lon="4.96451">
        <ele>196.61819458008</ele>
        <time>2011-05-11T16:46:10Z</time>
      </trkpt>
      <trkpt lat="45.11575" lon="4.96446">
        <ele>196.63966369629</ele>
        <time>2011-05-11T16:46:13Z</time>
      </trkpt>
      <trkpt lat="45.11575" lon="4.96446">
        <ele>196.61724853516</ele>
        <time>2011-05-11T16:46:15Z</time>
      </trkpt>
      <trkpt lat="45.11573" lon="4.96421">
        <ele>197.462890625</ele>
        <time>2011-05-11T17:25:44Z</time>
      </trkpt>
    </trkseg>
  </trk>
</gpx>